<?xml version="1.0" encoding="UTF-8" standalone="no" ?>
<gpx xmlns="http://www.topografix.com/GPX/1/1" xmlns:xsi="http://www.w3.org/2001/XMLSchema-instance" xsi:schemaLocation="http://www.topografix.com/GPX/1/1 http://www.topografix.com/GPX/1/1/gpx.xsd" version="1.1" creator="VisuGPX - https://www.visugpx.com">
  <metadata>
    <name>Base VRTT Gevaudan Lagogne</name>
  </metadata>
  <trk>
    <name><![CDATA[ESI0329 - CIRCUIT DE LA GARDILLE]]></name>
    <extensions>
      <line xmlns="http://www.topografix.com/GPX/gpx_style/0/2">
        <color>141414</color>
        <width>4</width>
      </line>
    </extensions>
    <trkseg>
      <trkpt lat="44.72357" lon="3.85407">
        <ele>912.86871337891</ele>
        <time>2020-10-16T11:43:39.000Z</time>
      </trkpt>
      <trkpt lat="44.72319" lon="3.85363">
        <ele>914.78674316406</ele>
        <time>2020-10-16T11:43:39.010Z</time>
      </trkpt>
      <trkpt lat="44.72305" lon="3.85358">
        <ele>915.34020996094</ele>
        <time>2020-10-16T11:43:39.023Z</time>
      </trkpt>
      <trkpt lat="44.72289" lon="3.85363">
        <ele>916.31378173828</ele>
        <time>2020-10-16T11:43:39.039Z</time>
      </trkpt>
      <trkpt lat="44.72277" lon="3.85381">
        <ele>919.29058837891</ele>
        <time>2020-10-16T11:43:39.059Z</time>
      </trkpt>
      <trkpt lat="44.72271" lon="3.8542">
        <ele>922.84338378906</ele>
        <time>2020-10-16T11:43:39.084Z</time>
      </trkpt>
      <trkpt lat="44.72272" lon="3.85497">
        <ele>926.18157958984</ele>
        <time>2020-10-16T11:43:39.120Z</time>
      </trkpt>
      <trkpt lat="44.72278" lon="3.85529">
        <ele>926.26745605469</ele>
        <time>2020-10-16T11:43:39.161Z</time>
      </trkpt>
      <trkpt lat="44.72316" lon="3.85575">
        <ele>923.79595947266</ele>
        <time>2020-10-16T11:43:39.212Z</time>
      </trkpt>
      <trkpt lat="44.72331" lon="3.85622">
        <ele>925.23443603516</ele>
        <time>2020-10-16T11:43:39.270Z</time>
      </trkpt>
      <trkpt lat="44.72306" lon="3.85627">
        <ele>927.7421875</ele>
        <time>2020-10-16T11:43:39.334Z</time>
      </trkpt>
      <trkpt lat="44.72301" lon="3.85628">
        <ele>927.78076171875</ele>
        <time>2020-10-16T11:43:39.399Z</time>
      </trkpt>
      <trkpt lat="44.72249" lon="3.85564">
        <ele>930.59356689453</ele>
        <time>2020-10-16T11:43:39.477Z</time>
      </trkpt>
      <trkpt lat="44.72223" lon="3.8555">
        <ele>933.24670410156</ele>
        <time>2020-10-16T11:43:39.561Z</time>
      </trkpt>
      <trkpt lat="44.72202" lon="3.8555">
        <ele>935.41021728516</ele>
        <time>2020-10-16T11:43:39.649Z</time>
      </trkpt>
      <trkpt lat="44.72198" lon="3.85547">
        <ele>935.48333740234</ele>
        <time>2020-10-16T11:43:39.738Z</time>
      </trkpt>
      <trkpt lat="44.72199" lon="3.85545">
        <ele>935.43359375</ele>
        <time>2020-10-16T11:43:39.827Z</time>
      </trkpt>
      <trkpt lat="44.72193" lon="3.8554">
        <ele>935.60504150391</ele>
        <time>2020-10-16T11:43:39.918Z</time>
      </trkpt>
      <trkpt lat="44.72182" lon="3.85526">
        <ele>935.82427978516</ele>
        <time>2020-10-16T11:43:40.012Z</time>
      </trkpt>
      <trkpt lat="44.72164" lon="3.85508">
        <ele>935.91522216797</ele>
        <time>2020-10-16T11:43:40.110Z</time>
      </trkpt>
      <trkpt lat="44.72152" lon="3.85498">
        <ele>935.98229980469</ele>
        <time>2020-10-16T11:43:40.211Z</time>
      </trkpt>
      <trkpt lat="44.72131" lon="3.85482">
        <ele>936.16052246094</ele>
        <time>2020-10-16T11:43:40.317Z</time>
      </trkpt>
      <trkpt lat="44.72122" lon="3.85466">
        <ele>935.90100097656</ele>
        <time>2020-10-16T11:43:40.426Z</time>
      </trkpt>
      <trkpt lat="44.72109" lon="3.85445">
        <ele>934.9306640625</ele>
        <time>2020-10-16T11:43:40.539Z</time>
      </trkpt>
      <trkpt lat="44.72097" lon="3.85427">
        <ele>934.13439941406</ele>
        <time>2020-10-16T11:43:40.655Z</time>
      </trkpt>
      <trkpt lat="44.72081" lon="3.85408">
        <ele>933.28936767578</ele>
        <time>2020-10-16T11:43:40.775Z</time>
      </trkpt>
      <trkpt lat="44.7207" lon="3.854">
        <ele>932.84057617188</ele>
        <time>2020-10-16T11:43:40.898Z</time>
      </trkpt>
      <trkpt lat="44.72054" lon="3.85391">
        <ele>932.23413085938</ele>
        <time>2020-10-16T11:43:41.024Z</time>
      </trkpt>
      <trkpt lat="44.7203" lon="3.85374">
        <ele>931.92236328125</ele>
        <time>2020-10-16T11:43:41.156Z</time>
      </trkpt>
      <trkpt lat="44.72007" lon="3.85364">
        <ele>933.36431884766</ele>
        <time>2020-10-16T11:43:41.292Z</time>
      </trkpt>
      <trkpt lat="44.71988" lon="3.85355">
        <ele>934.53216552734</ele>
        <time>2020-10-16T11:43:41.432Z</time>
      </trkpt>
      <trkpt lat="44.71978" lon="3.85354">
        <ele>935.31146240234</ele>
        <time>2020-10-16T11:43:41.575Z</time>
      </trkpt>
      <trkpt lat="44.71961" lon="3.85353">
        <ele>936.53479003906</ele>
        <time>2020-10-16T11:43:41.721Z</time>
      </trkpt>
      <trkpt lat="44.71943" lon="3.85351">
        <ele>937.84967041016</ele>
        <time>2020-10-16T11:43:41.871Z</time>
      </trkpt>
      <trkpt lat="44.71926" lon="3.85352">
        <ele>939.23968505859</ele>
        <time>2020-10-16T11:43:42.024Z</time>
      </trkpt>
      <trkpt lat="44.71903" lon="3.85353">
        <ele>941.23486328125</ele>
        <time>2020-10-16T11:43:42.182Z</time>
      </trkpt>
      <trkpt lat="44.71895" lon="3.85349">
        <ele>941.87286376953</ele>
        <time>2020-10-16T11:43:42.341Z</time>
      </trkpt>
      <trkpt lat="44.71884" lon="3.85338">
        <ele>942.60809326172</ele>
        <time>2020-10-16T11:43:42.503Z</time>
      </trkpt>
      <trkpt lat="44.71868" lon="3.8532">
        <ele>943.75677490234</ele>
        <time>2020-10-16T11:43:42.669Z</time>
      </trkpt>
      <trkpt lat="44.71854" lon="3.85312">
        <ele>945.02374267578</ele>
        <time>2020-10-16T11:43:42.838Z</time>
      </trkpt>
      <trkpt lat="44.71842" lon="3.85311">
        <ele>946.18115234375</ele>
        <time>2020-10-16T11:43:43.009Z</time>
      </trkpt>
      <trkpt lat="44.7182" lon="3.85314">
        <ele>948.11016845703</ele>
        <time>2020-10-16T11:43:43.185Z</time>
      </trkpt>
      <trkpt lat="44.71807" lon="3.85312">
        <ele>949.0556640625</ele>
        <time>2020-10-16T11:43:43.363Z</time>
      </trkpt>
      <trkpt lat="44.71793" lon="3.85311">
        <ele>950.09851074219</ele>
        <time>2020-10-16T11:43:43.544Z</time>
      </trkpt>
      <trkpt lat="44.71778" lon="3.85307">
        <ele>951.25317382812</ele>
        <time>2020-10-16T11:43:43.728Z</time>
      </trkpt>
      <trkpt lat="44.71763" lon="3.85305">
        <ele>952.35333251953</ele>
        <time>2020-10-16T11:43:43.915Z</time>
      </trkpt>
      <trkpt lat="44.71747" lon="3.85304">
        <ele>953.53656005859</ele>
        <time>2020-10-16T11:43:44.106Z</time>
      </trkpt>
      <trkpt lat="44.71725" lon="3.85305">
        <ele>955.34210205078</ele>
        <time>2020-10-16T11:43:44.301Z</time>
      </trkpt>
      <trkpt lat="44.71719" lon="3.85307">
        <ele>955.95861816406</ele>
        <time>2020-10-16T11:43:44.497Z</time>
      </trkpt>
      <trkpt lat="44.71707" lon="3.8531">
        <ele>957.13732910156</ele>
        <time>2020-10-16T11:43:44.696Z</time>
      </trkpt>
      <trkpt lat="44.71685" lon="3.8532">
        <ele>959.84692382812</ele>
        <time>2020-10-16T11:43:44.899Z</time>
      </trkpt>
      <trkpt lat="44.71641" lon="3.85348">
        <ele>964.07641601562</ele>
        <time>2020-10-16T11:43:45.112Z</time>
      </trkpt>
      <trkpt lat="44.71625" lon="3.85357">
        <ele>965.486328125</ele>
        <time>2020-10-16T11:43:45.328Z</time>
      </trkpt>
      <trkpt lat="44.7161" lon="3.85361">
        <ele>966.65472412109</ele>
        <time>2020-10-16T11:43:45.547Z</time>
      </trkpt>
      <trkpt lat="44.71597" lon="3.85363">
        <ele>967.52099609375</ele>
        <time>2020-10-16T11:43:45.769Z</time>
      </trkpt>
      <trkpt lat="44.71589" lon="3.85362">
        <ele>968.07958984375</ele>
        <time>2020-10-16T11:43:45.993Z</time>
      </trkpt>
      <trkpt lat="44.71559" lon="3.85359">
        <ele>970.365234375</ele>
        <time>2020-10-16T11:43:46.223Z</time>
      </trkpt>
      <trkpt lat="44.71543" lon="3.85359">
        <ele>971.49328613281</ele>
        <time>2020-10-16T11:43:46.456Z</time>
      </trkpt>
      <trkpt lat="44.71536" lon="3.8536">
        <ele>971.87927246094</ele>
        <time>2020-10-16T11:43:46.690Z</time>
      </trkpt>
      <trkpt lat="44.71533" lon="3.8536">
        <ele>971.91027832031</ele>
        <time>2020-10-16T11:43:46.925Z</time>
      </trkpt>
      <trkpt lat="44.71514" lon="3.85364">
        <ele>971.99273681641</ele>
        <time>2020-10-16T11:43:47.164Z</time>
      </trkpt>
      <trkpt lat="44.71514" lon="3.85364">
        <ele>971.99304199219</ele>
        <time>2020-10-16T11:43:47.403Z</time>
      </trkpt>
      <trkpt lat="44.71504" lon="3.85367">
        <ele>972.00604248047</ele>
        <time>2020-10-16T11:43:47.644Z</time>
      </trkpt>
      <trkpt lat="44.71487" lon="3.85341">
        <ele>973.15881347656</ele>
        <time>2020-10-16T11:43:47.890Z</time>
      </trkpt>
      <trkpt lat="44.71474" lon="3.85323">
        <ele>973.94360351562</ele>
        <time>2020-10-16T11:43:48.139Z</time>
      </trkpt>
      <trkpt lat="44.71464" lon="3.85312">
        <ele>974.46740722656</ele>
        <time>2020-10-16T11:43:48.391Z</time>
      </trkpt>
      <trkpt lat="44.71441" lon="3.85293">
        <ele>975.89331054688</ele>
        <time>2020-10-16T11:43:48.648Z</time>
      </trkpt>
      <trkpt lat="44.71405" lon="3.85264">
        <ele>978.87628173828</ele>
        <time>2020-10-16T11:43:48.914Z</time>
      </trkpt>
      <trkpt lat="44.71361" lon="3.85226">
        <ele>982.79565429688</ele>
        <time>2020-10-16T11:43:49.190Z</time>
      </trkpt>
      <trkpt lat="44.71348" lon="3.85215">
        <ele>983.43646240234</ele>
        <time>2020-10-16T11:43:49.469Z</time>
      </trkpt>
      <trkpt lat="44.71307" lon="3.85182">
        <ele>985.4521484375</ele>
        <time>2020-10-16T11:43:49.757Z</time>
      </trkpt>
      <trkpt lat="44.71286" lon="3.85163">
        <ele>986.537109375</ele>
        <time>2020-10-16T11:43:50.050Z</time>
      </trkpt>
      <trkpt lat="44.71271" lon="3.85146">
        <ele>986.84985351562</ele>
        <time>2020-10-16T11:43:50.347Z</time>
      </trkpt>
      <trkpt lat="44.71257" lon="3.85122">
        <ele>987.59814453125</ele>
        <time>2020-10-16T11:43:50.649Z</time>
      </trkpt>
      <trkpt lat="44.71229" lon="3.85066">
        <ele>990.07537841797</ele>
        <time>2020-10-16T11:43:50.960Z</time>
      </trkpt>
      <trkpt lat="44.71212" lon="3.85036">
        <ele>991.47381591797</ele>
        <time>2020-10-16T11:43:51.277Z</time>
      </trkpt>
      <trkpt lat="44.71195" lon="3.8501">
        <ele>993.60821533203</ele>
        <time>2020-10-16T11:43:51.599Z</time>
      </trkpt>
      <trkpt lat="44.71182" lon="3.84991">
        <ele>995.99310302734</ele>
        <time>2020-10-16T11:43:51.925Z</time>
      </trkpt>
      <trkpt lat="44.71169" lon="3.84977">
        <ele>998.05084228516</ele>
        <time>2020-10-16T11:43:52.254Z</time>
      </trkpt>
      <trkpt lat="44.71157" lon="3.84967">
        <ele>999.77081298828</ele>
        <time>2020-10-16T11:43:52.586Z</time>
      </trkpt>
      <trkpt lat="44.71144" lon="3.84963">
        <ele>1001.3049926758</ele>
        <time>2020-10-16T11:43:52.920Z</time>
      </trkpt>
      <trkpt lat="44.71072" lon="3.84958">
        <ele>1007.6740722656</ele>
        <time>2020-10-16T11:43:53.269Z</time>
      </trkpt>
      <trkpt lat="44.71054" lon="3.84952">
        <ele>1009.6553955078</ele>
        <time>2020-10-16T11:43:53.622Z</time>
      </trkpt>
      <trkpt lat="44.71038" lon="3.84945">
        <ele>1011.3884277344</ele>
        <time>2020-10-16T11:43:53.978Z</time>
      </trkpt>
      <trkpt lat="44.71018" lon="3.84941">
        <ele>1012.4759521484</ele>
        <time>2020-10-16T11:43:54.338Z</time>
      </trkpt>
      <trkpt lat="44.70996" lon="3.84942">
        <ele>1013.1775512695</ele>
        <time>2020-10-16T11:43:54.702Z</time>
      </trkpt>
      <trkpt lat="44.70979" lon="3.84942">
        <ele>1013.876159668</ele>
        <time>2020-10-16T11:43:55.070Z</time>
      </trkpt>
      <trkpt lat="44.70958" lon="3.84938">
        <ele>1014.8801269531</ele>
        <time>2020-10-16T11:43:55.442Z</time>
      </trkpt>
      <trkpt lat="44.70928" lon="3.84931">
        <ele>1015.935546875</ele>
        <time>2020-10-16T11:43:55.820Z</time>
      </trkpt>
      <trkpt lat="44.7091" lon="3.84925">
        <ele>1016.5719604492</ele>
        <time>2020-10-16T11:43:56.202Z</time>
      </trkpt>
      <trkpt lat="44.70884" lon="3.84913">
        <ele>1017.5048828125</ele>
        <time>2020-10-16T11:43:56.589Z</time>
      </trkpt>
      <trkpt lat="44.70836" lon="3.84887">
        <ele>1019.2211303711</ele>
        <time>2020-10-16T11:43:56.987Z</time>
      </trkpt>
      <trkpt lat="44.70806" lon="3.84872">
        <ele>1020.323059082</ele>
        <time>2020-10-16T11:43:57.391Z</time>
      </trkpt>
      <trkpt lat="44.70793" lon="3.84866">
        <ele>1020.7415161133</ele>
        <time>2020-10-16T11:43:57.798Z</time>
      </trkpt>
      <trkpt lat="44.70783" lon="3.84858">
        <ele>1020.8765258789</ele>
        <time>2020-10-16T11:43:58.207Z</time>
      </trkpt>
      <trkpt lat="44.70778" lon="3.84851">
        <ele>1021.1684570312</ele>
        <time>2020-10-16T11:43:58.617Z</time>
      </trkpt>
      <trkpt lat="44.70771" lon="3.84846">
        <ele>1021.4108886719</ele>
        <time>2020-10-16T11:43:59.029Z</time>
      </trkpt>
      <trkpt lat="44.70758" lon="3.84842">
        <ele>1021.4662475586</ele>
        <time>2020-10-16T11:43:59.444Z</time>
      </trkpt>
      <trkpt lat="44.70703" lon="3.84823">
        <ele>1021.7304077148</ele>
        <time>2020-10-16T11:43:59.870Z</time>
      </trkpt>
      <trkpt lat="44.70683" lon="3.84811">
        <ele>1022.2338256836</ele>
        <time>2020-10-16T11:44:00.300Z</time>
      </trkpt>
      <trkpt lat="44.70646" lon="3.84788">
        <ele>1023.3257446289</ele>
        <time>2020-10-16T11:44:00.738Z</time>
      </trkpt>
      <trkpt lat="44.70616" lon="3.8477">
        <ele>1023.9762573242</ele>
        <time>2020-10-16T11:44:01.183Z</time>
      </trkpt>
      <trkpt lat="44.70567" lon="3.84746">
        <ele>1023.6926879883</ele>
        <time>2020-10-16T11:44:01.638Z</time>
      </trkpt>
      <trkpt lat="44.70548" lon="3.8474">
        <ele>1023.4531860352</ele>
        <time>2020-10-16T11:44:02.097Z</time>
      </trkpt>
      <trkpt lat="44.70534" lon="3.84739">
        <ele>1022.8668212891</ele>
        <time>2020-10-16T11:44:02.559Z</time>
      </trkpt>
      <trkpt lat="44.70508" lon="3.84742">
        <ele>1019.9776000977</ele>
        <time>2020-10-16T11:44:03.026Z</time>
      </trkpt>
      <trkpt lat="44.70489" lon="3.84745">
        <ele>1019.7651367188</ele>
        <time>2020-10-16T11:44:03.497Z</time>
      </trkpt>
      <trkpt lat="44.70467" lon="3.8475">
        <ele>1019.829284668</ele>
        <time>2020-10-16T11:44:03.972Z</time>
      </trkpt>
      <trkpt lat="44.70438" lon="3.84759">
        <ele>1019.3362426758</ele>
        <time>2020-10-16T11:44:04.453Z</time>
      </trkpt>
      <trkpt lat="44.70424" lon="3.84764">
        <ele>1019.2125244141</ele>
        <time>2020-10-16T11:44:04.937Z</time>
      </trkpt>
      <trkpt lat="44.70407" lon="3.84768">
        <ele>1018.9418334961</ele>
        <time>2020-10-16T11:44:05.425Z</time>
      </trkpt>
      <trkpt lat="44.7039" lon="3.84771">
        <ele>1018.5821533203</ele>
        <time>2020-10-16T11:44:05.916Z</time>
      </trkpt>
      <trkpt lat="44.70345" lon="3.84775">
        <ele>1017.9729614258</ele>
        <time>2020-10-16T11:44:06.416Z</time>
      </trkpt>
      <trkpt lat="44.70289" lon="3.84779">
        <ele>1018.0180053711</ele>
        <time>2020-10-16T11:44:06.927Z</time>
      </trkpt>
      <trkpt lat="44.70262" lon="3.84784">
        <ele>1019.6409301758</ele>
        <time>2020-10-16T11:44:07.444Z</time>
      </trkpt>
      <trkpt lat="44.70234" lon="3.84788">
        <ele>1021.3457641602</ele>
        <time>2020-10-16T11:44:07.967Z</time>
      </trkpt>
      <trkpt lat="44.7019" lon="3.84794">
        <ele>1023.0939941406</ele>
        <time>2020-10-16T11:44:08.498Z</time>
      </trkpt>
      <trkpt lat="44.70146" lon="3.84797">
        <ele>1022.6087036133</ele>
        <time>2020-10-16T11:44:09.038Z</time>
      </trkpt>
      <trkpt lat="44.70131" lon="3.84796">
        <ele>1022.259765625</ele>
        <time>2020-10-16T11:44:09.581Z</time>
      </trkpt>
      <trkpt lat="44.70022" lon="3.84768">
        <ele>1019.6616210938</ele>
        <time>2020-10-16T11:44:10.146Z</time>
      </trkpt>
      <trkpt lat="44.70003" lon="3.84766">
        <ele>1019.5396118164</ele>
        <time>2020-10-16T11:44:10.715Z</time>
      </trkpt>
      <trkpt lat="44.69961" lon="3.84764">
        <ele>1019.4225463867</ele>
        <time>2020-10-16T11:44:11.293Z</time>
      </trkpt>
      <trkpt lat="44.69875" lon="3.84761">
        <ele>1024.26953125</ele>
        <time>2020-10-16T11:44:11.888Z</time>
      </trkpt>
      <trkpt lat="44.69878" lon="3.84747">
        <ele>1023.5989990234</ele>
        <time>2020-10-16T11:44:12.485Z</time>
      </trkpt>
      <trkpt lat="44.69879" lon="3.84732">
        <ele>1023.0002441406</ele>
        <time>2020-10-16T11:44:13.084Z</time>
      </trkpt>
      <trkpt lat="44.69879" lon="3.84709">
        <ele>1022.16015625</ele>
        <time>2020-10-16T11:44:13.686Z</time>
      </trkpt>
      <trkpt lat="44.69878" lon="3.84677">
        <ele>1020.6262817383</ele>
        <time>2020-10-16T11:44:14.293Z</time>
      </trkpt>
      <trkpt lat="44.69876" lon="3.8465">
        <ele>1019.6038818359</ele>
        <time>2020-10-16T11:44:14.904Z</time>
      </trkpt>
      <trkpt lat="44.69871" lon="3.84625">
        <ele>1018.8473510742</ele>
        <time>2020-10-16T11:44:15.518Z</time>
      </trkpt>
      <trkpt lat="44.69866" lon="3.84607">
        <ele>1018.8659057617</ele>
        <time>2020-10-16T11:44:16.135Z</time>
      </trkpt>
      <trkpt lat="44.69862" lon="3.84586">
        <ele>1019.0927734375</ele>
        <time>2020-10-16T11:44:16.755Z</time>
      </trkpt>
      <trkpt lat="44.69866" lon="3.84564">
        <ele>1018.5950927734</ele>
        <time>2020-10-16T11:44:17.378Z</time>
      </trkpt>
      <trkpt lat="44.69882" lon="3.8452">
        <ele>1016.2982788086</ele>
        <time>2020-10-16T11:44:18.008Z</time>
      </trkpt>
      <trkpt lat="44.69891" lon="3.84497">
        <ele>1016.5848999023</ele>
        <time>2020-10-16T11:44:18.642Z</time>
      </trkpt>
      <trkpt lat="44.69894" lon="3.84485">
        <ele>1016.977355957</ele>
        <time>2020-10-16T11:44:19.278Z</time>
      </trkpt>
      <trkpt lat="44.69896" lon="3.84472">
        <ele>1017.6040649414</ele>
        <time>2020-10-16T11:44:19.916Z</time>
      </trkpt>
      <trkpt lat="44.699" lon="3.84446">
        <ele>1019.153503418</ele>
        <time>2020-10-16T11:44:20.558Z</time>
      </trkpt>
      <trkpt lat="44.69902" lon="3.84436">
        <ele>1019.5204467773</ele>
        <time>2020-10-16T11:44:21.201Z</time>
      </trkpt>
      <trkpt lat="44.6991" lon="3.84416">
        <ele>1019.3466186523</ele>
        <time>2020-10-16T11:44:21.848Z</time>
      </trkpt>
      <trkpt lat="44.69918" lon="3.84397">
        <ele>1019.1341552734</ele>
        <time>2020-10-16T11:44:22.498Z</time>
      </trkpt>
      <trkpt lat="44.69927" lon="3.84378">
        <ele>1019.151550293</ele>
        <time>2020-10-16T11:44:23.151Z</time>
      </trkpt>
      <trkpt lat="44.69934" lon="3.84359">
        <ele>1019.3822021484</ele>
        <time>2020-10-16T11:44:23.807Z</time>
      </trkpt>
      <trkpt lat="44.69939" lon="3.84332">
        <ele>1018.8707275391</ele>
        <time>2020-10-16T11:44:24.467Z</time>
      </trkpt>
      <trkpt lat="44.69945" lon="3.84309">
        <ele>1019.3161621094</ele>
        <time>2020-10-16T11:44:25.130Z</time>
      </trkpt>
      <trkpt lat="44.69945" lon="3.84293">
        <ele>1019.8560791016</ele>
        <time>2020-10-16T11:44:25.796Z</time>
      </trkpt>
      <trkpt lat="44.69942" lon="3.84275">
        <ele>1020.7135620117</ele>
        <time>2020-10-16T11:44:26.464Z</time>
      </trkpt>
      <trkpt lat="44.69938" lon="3.84251">
        <ele>1020.0584716797</ele>
        <time>2020-10-16T11:44:27.136Z</time>
      </trkpt>
      <trkpt lat="44.69936" lon="3.84234">
        <ele>1019.7116699219</ele>
        <time>2020-10-16T11:44:27.810Z</time>
      </trkpt>
      <trkpt lat="44.69936" lon="3.84217">
        <ele>1019.2970581055</ele>
        <time>2020-10-16T11:44:28.487Z</time>
      </trkpt>
      <trkpt lat="44.69938" lon="3.84201">
        <ele>1018.823425293</ele>
        <time>2020-10-16T11:44:29.166Z</time>
      </trkpt>
      <trkpt lat="44.69943" lon="3.84185">
        <ele>1017.8571777344</ele>
        <time>2020-10-16T11:44:29.848Z</time>
      </trkpt>
      <trkpt lat="44.69951" lon="3.84171">
        <ele>1016.7939453125</ele>
        <time>2020-10-16T11:44:30.532Z</time>
      </trkpt>
      <trkpt lat="44.69956" lon="3.84163">
        <ele>1016.2537231445</ele>
        <time>2020-10-16T11:44:31.218Z</time>
      </trkpt>
      <trkpt lat="44.69964" lon="3.84156">
        <ele>1015.346862793</ele>
        <time>2020-10-16T11:44:31.906Z</time>
      </trkpt>
      <trkpt lat="44.69962" lon="3.84137">
        <ele>1014.4071655273</ele>
        <time>2020-10-16T11:44:32.596Z</time>
      </trkpt>
      <trkpt lat="44.69956" lon="3.84124">
        <ele>1013.9206542969</ele>
        <time>2020-10-16T11:44:33.288Z</time>
      </trkpt>
      <trkpt lat="44.69947" lon="3.84107">
        <ele>1012.8631591797</ele>
        <time>2020-10-16T11:44:33.983Z</time>
      </trkpt>
      <trkpt lat="44.69939" lon="3.8409">
        <ele>1010.8395385742</ele>
        <time>2020-10-16T11:44:34.681Z</time>
      </trkpt>
      <trkpt lat="44.69928" lon="3.84073">
        <ele>1008.9356689453</ele>
        <time>2020-10-16T11:44:35.383Z</time>
      </trkpt>
      <trkpt lat="44.6992" lon="3.84069">
        <ele>1008.0407714844</ele>
        <time>2020-10-16T11:44:36.086Z</time>
      </trkpt>
      <trkpt lat="44.69901" lon="3.84065">
        <ele>1006.7416381836</ele>
        <time>2020-10-16T11:44:36.793Z</time>
      </trkpt>
      <trkpt lat="44.69888" lon="3.84065">
        <ele>1006.2151489258</ele>
        <time>2020-10-16T11:44:37.503Z</time>
      </trkpt>
      <trkpt lat="44.69876" lon="3.84064">
        <ele>1005.688659668</ele>
        <time>2020-10-16T11:44:38.215Z</time>
      </trkpt>
      <trkpt lat="44.69858" lon="3.84055">
        <ele>1004.9650268555</ele>
        <time>2020-10-16T11:44:38.931Z</time>
      </trkpt>
      <trkpt lat="44.69843" lon="3.84043">
        <ele>1004.1567993164</ele>
        <time>2020-10-16T11:44:39.650Z</time>
      </trkpt>
      <trkpt lat="44.69832" lon="3.84025">
        <ele>1002.6838378906</ele>
        <time>2020-10-16T11:44:40.373Z</time>
      </trkpt>
      <trkpt lat="44.69822" lon="3.84008">
        <ele>1000.8703613281</ele>
        <time>2020-10-16T11:44:41.099Z</time>
      </trkpt>
      <trkpt lat="44.69808" lon="3.83994">
        <ele>999.52502441406</ele>
        <time>2020-10-16T11:44:41.828Z</time>
      </trkpt>
      <trkpt lat="44.69796" lon="3.83976">
        <ele>997.57653808594</ele>
        <time>2020-10-16T11:44:42.561Z</time>
      </trkpt>
      <trkpt lat="44.69794" lon="3.83973">
        <ele>997.19702148438</ele>
        <time>2020-10-16T11:44:43.295Z</time>
      </trkpt>
      <trkpt lat="44.69791" lon="3.83971">
        <ele>997.01257324219</ele>
        <time>2020-10-16T11:44:44.029Z</time>
      </trkpt>
      <trkpt lat="44.69788" lon="3.83968">
        <ele>996.81597900391</ele>
        <time>2020-10-16T11:44:44.764Z</time>
      </trkpt>
      <trkpt lat="44.69772" lon="3.8396">
        <ele>994.72857666016</ele>
        <time>2020-10-16T11:44:45.502Z</time>
      </trkpt>
      <trkpt lat="44.69756" lon="3.83955">
        <ele>992.93377685547</ele>
        <time>2020-10-16T11:44:46.244Z</time>
      </trkpt>
      <trkpt lat="44.69737" lon="3.83947">
        <ele>990.46411132812</ele>
        <time>2020-10-16T11:44:46.990Z</time>
      </trkpt>
      <trkpt lat="44.69724" lon="3.83943">
        <ele>988.97564697266</ele>
        <time>2020-10-16T11:44:47.738Z</time>
      </trkpt>
      <trkpt lat="44.69714" lon="3.83939">
        <ele>987.71807861328</ele>
        <time>2020-10-16T11:44:48.488Z</time>
      </trkpt>
      <trkpt lat="44.69702" lon="3.83935">
        <ele>986.40850830078</ele>
        <time>2020-10-16T11:44:49.241Z</time>
      </trkpt>
      <trkpt lat="44.69702" lon="3.83935">
        <ele>986.30133056641</ele>
        <time>2020-10-16T11:44:49.994Z</time>
      </trkpt>
      <trkpt lat="44.69685" lon="3.83931">
        <ele>983.99719238281</ele>
        <time>2020-10-16T11:44:50.750Z</time>
      </trkpt>
      <trkpt lat="44.69676" lon="3.83929">
        <ele>982.73431396484</ele>
        <time>2020-10-16T11:44:51.508Z</time>
      </trkpt>
      <trkpt lat="44.69658" lon="3.83931">
        <ele>980.77496337891</ele>
        <time>2020-10-16T11:44:52.270Z</time>
      </trkpt>
      <trkpt lat="44.6964" lon="3.83937">
        <ele>979.13946533203</ele>
        <time>2020-10-16T11:44:53.035Z</time>
      </trkpt>
      <trkpt lat="44.69626" lon="3.83938">
        <ele>977.55505371094</ele>
        <time>2020-10-16T11:44:53.803Z</time>
      </trkpt>
      <trkpt lat="44.69625" lon="3.83938">
        <ele>977.50946044922</ele>
        <time>2020-10-16T11:44:54.571Z</time>
      </trkpt>
      <trkpt lat="44.69623" lon="3.83929">
        <ele>976.42364501953</ele>
        <time>2020-10-16T11:44:55.341Z</time>
      </trkpt>
      <trkpt lat="44.69626" lon="3.83913">
        <ele>975.17388916016</ele>
        <time>2020-10-16T11:44:56.113Z</time>
      </trkpt>
      <trkpt lat="44.69635" lon="3.83893">
        <ele>974.30828857422</ele>
        <time>2020-10-16T11:44:56.888Z</time>
      </trkpt>
      <trkpt lat="44.69657" lon="3.83857">
        <ele>972.80029296875</ele>
        <time>2020-10-16T11:44:57.670Z</time>
      </trkpt>
      <trkpt lat="44.6967" lon="3.8384">
        <ele>973.40704345703</ele>
        <time>2020-10-16T11:44:58.456Z</time>
      </trkpt>
      <trkpt lat="44.69685" lon="3.83829">
        <ele>973.83807373047</ele>
        <time>2020-10-16T11:44:59.245Z</time>
      </trkpt>
      <trkpt lat="44.69703" lon="3.8382">
        <ele>972.66735839844</ele>
        <time>2020-10-16T11:45:00.038Z</time>
      </trkpt>
      <trkpt lat="44.69708" lon="3.83817">
        <ele>972.54345703125</ele>
        <time>2020-10-16T11:45:00.832Z</time>
      </trkpt>
      <trkpt lat="44.69716" lon="3.8381">
        <ele>972.0234375</ele>
        <time>2020-10-16T11:45:01.628Z</time>
      </trkpt>
      <trkpt lat="44.69718" lon="3.8381">
        <ele>972.00952148438</ele>
        <time>2020-10-16T11:45:02.424Z</time>
      </trkpt>
      <trkpt lat="44.69719" lon="3.83792">
        <ele>969.89666748047</ele>
        <time>2020-10-16T11:45:03.223Z</time>
      </trkpt>
      <trkpt lat="44.69713" lon="3.83783">
        <ele>968.66607666016</ele>
        <time>2020-10-16T11:45:04.024Z</time>
      </trkpt>
      <trkpt lat="44.69699" lon="3.83771">
        <ele>967.17120361328</ele>
        <time>2020-10-16T11:45:04.828Z</time>
      </trkpt>
      <trkpt lat="44.69688" lon="3.8377">
        <ele>967.20654296875</ele>
        <time>2020-10-16T11:45:05.634Z</time>
      </trkpt>
      <trkpt lat="44.69677" lon="3.8377">
        <ele>967.24194335938</ele>
        <time>2020-10-16T11:45:06.442Z</time>
      </trkpt>
      <trkpt lat="44.69669" lon="3.83769">
        <ele>967.31121826172</ele>
        <time>2020-10-16T11:45:07.252Z</time>
      </trkpt>
      <trkpt lat="44.69661" lon="3.83756">
        <ele>968.59173583984</ele>
        <time>2020-10-16T11:45:08.064Z</time>
      </trkpt>
      <trkpt lat="44.69655" lon="3.83742">
        <ele>969.94635009766</ele>
        <time>2020-10-16T11:45:08.879Z</time>
      </trkpt>
      <trkpt lat="44.6965" lon="3.83726">
        <ele>971.49243164062</ele>
        <time>2020-10-16T11:45:09.696Z</time>
      </trkpt>
      <trkpt lat="44.69657" lon="3.83701">
        <ele>970.26879882812</ele>
        <time>2020-10-16T11:45:10.517Z</time>
      </trkpt>
      <trkpt lat="44.69671" lon="3.83684">
        <ele>967.24719238281</ele>
        <time>2020-10-16T11:45:11.342Z</time>
      </trkpt>
      <trkpt lat="44.69682" lon="3.83669">
        <ele>964.65795898438</ele>
        <time>2020-10-16T11:45:12.170Z</time>
      </trkpt>
      <trkpt lat="44.69685" lon="3.83652">
        <ele>962.54565429688</ele>
        <time>2020-10-16T11:45:13.000Z</time>
      </trkpt>
      <trkpt lat="44.6968" lon="3.83642">
        <ele>962.41790771484</ele>
        <time>2020-10-16T11:45:13.832Z</time>
      </trkpt>
      <trkpt lat="44.69664" lon="3.83636">
        <ele>964.54095458984</ele>
        <time>2020-10-16T11:45:14.667Z</time>
      </trkpt>
      <trkpt lat="44.69646" lon="3.83618">
        <ele>965.86993408203</ele>
        <time>2020-10-16T11:45:15.507Z</time>
      </trkpt>
      <trkpt lat="44.6963" lon="3.83598">
        <ele>966.63098144531</ele>
        <time>2020-10-16T11:45:16.351Z</time>
      </trkpt>
      <trkpt lat="44.69624" lon="3.83582">
        <ele>966.33782958984</ele>
        <time>2020-10-16T11:45:17.197Z</time>
      </trkpt>
      <trkpt lat="44.69618" lon="3.83567">
        <ele>966.06823730469</ele>
        <time>2020-10-16T11:45:18.046Z</time>
      </trkpt>
      <trkpt lat="44.69609" lon="3.83538">
        <ele>965.24078369141</ele>
        <time>2020-10-16T11:45:18.899Z</time>
      </trkpt>
      <trkpt lat="44.69601" lon="3.8351">
        <ele>965.28594970703</ele>
        <time>2020-10-16T11:45:19.757Z</time>
      </trkpt>
      <trkpt lat="44.69592" lon="3.83482">
        <ele>966.33508300781</ele>
        <time>2020-10-16T11:45:20.619Z</time>
      </trkpt>
      <trkpt lat="44.69584" lon="3.83454">
        <ele>967.30090332031</ele>
        <time>2020-10-16T11:45:21.486Z</time>
      </trkpt>
      <trkpt lat="44.69588" lon="3.83442">
        <ele>966.3037109375</ele>
        <time>2020-10-16T11:45:22.354Z</time>
      </trkpt>
      <trkpt lat="44.69591" lon="3.83442">
        <ele>965.57348632812</ele>
        <time>2020-10-16T11:45:23.223Z</time>
      </trkpt>
      <trkpt lat="44.69601" lon="3.83439">
        <ele>963.55737304688</ele>
        <time>2020-10-16T11:45:24.094Z</time>
      </trkpt>
      <trkpt lat="44.6963" lon="3.83431">
        <ele>960.33123779297</ele>
        <time>2020-10-16T11:45:24.971Z</time>
      </trkpt>
      <trkpt lat="44.69651" lon="3.83426">
        <ele>960.88323974609</ele>
        <time>2020-10-16T11:45:25.852Z</time>
      </trkpt>
      <trkpt lat="44.69666" lon="3.83427">
        <ele>961.23980712891</ele>
        <time>2020-10-16T11:45:26.736Z</time>
      </trkpt>
      <trkpt lat="44.69693" lon="3.83432">
        <ele>961.83221435547</ele>
        <time>2020-10-16T11:45:27.626Z</time>
      </trkpt>
      <trkpt lat="44.69711" lon="3.83433">
        <ele>964.45568847656</ele>
        <time>2020-10-16T11:45:28.519Z</time>
      </trkpt>
      <trkpt lat="44.6972" lon="3.83434">
        <ele>965.97711181641</ele>
        <time>2020-10-16T11:45:29.414Z</time>
      </trkpt>
      <trkpt lat="44.69728" lon="3.83436">
        <ele>966.93414306641</ele>
        <time>2020-10-16T11:45:30.311Z</time>
      </trkpt>
      <trkpt lat="44.69734" lon="3.8344">
        <ele>967.47503662109</ele>
        <time>2020-10-16T11:45:31.209Z</time>
      </trkpt>
      <trkpt lat="44.69761" lon="3.83461">
        <ele>969.47766113281</ele>
        <time>2020-10-16T11:45:32.113Z</time>
      </trkpt>
      <trkpt lat="44.69768" lon="3.83465">
        <ele>970.19976806641</ele>
        <time>2020-10-16T11:45:33.019Z</time>
      </trkpt>
      <trkpt lat="44.69772" lon="3.83465">
        <ele>970.87854003906</ele>
        <time>2020-10-16T11:45:33.926Z</time>
      </trkpt>
      <trkpt lat="44.69783" lon="3.83477">
        <ele>971.33508300781</ele>
        <time>2020-10-16T11:45:34.835Z</time>
      </trkpt>
      <trkpt lat="44.6979" lon="3.83486">
        <ele>971.01171875</ele>
        <time>2020-10-16T11:45:35.746Z</time>
      </trkpt>
      <trkpt lat="44.69797" lon="3.83491">
        <ele>970.96569824219</ele>
        <time>2020-10-16T11:45:36.659Z</time>
      </trkpt>
      <trkpt lat="44.69807" lon="3.83489">
        <ele>971.92950439453</ele>
        <time>2020-10-16T11:45:37.574Z</time>
      </trkpt>
      <trkpt lat="44.69822" lon="3.8348">
        <ele>974.17144775391</ele>
        <time>2020-10-16T11:45:38.492Z</time>
      </trkpt>
      <trkpt lat="44.69837" lon="3.83469">
        <ele>978.12890625</ele>
        <time>2020-10-16T11:45:39.414Z</time>
      </trkpt>
      <trkpt lat="44.6985" lon="3.83458">
        <ele>982.09283447266</ele>
        <time>2020-10-16T11:45:40.338Z</time>
      </trkpt>
      <trkpt lat="44.69864" lon="3.83449">
        <ele>986.162109375</ele>
        <time>2020-10-16T11:45:41.266Z</time>
      </trkpt>
      <trkpt lat="44.69873" lon="3.83444">
        <ele>987.84808349609</ele>
        <time>2020-10-16T11:45:42.196Z</time>
      </trkpt>
      <trkpt lat="44.69883" lon="3.83438">
        <ele>988.64056396484</ele>
        <time>2020-10-16T11:45:43.128Z</time>
      </trkpt>
      <trkpt lat="44.69892" lon="3.83429">
        <ele>989.84204101562</ele>
        <time>2020-10-16T11:45:44.062Z</time>
      </trkpt>
      <trkpt lat="44.69893" lon="3.83428">
        <ele>990.07019042969</ele>
        <time>2020-10-16T11:45:44.996Z</time>
      </trkpt>
      <trkpt lat="44.69906" lon="3.83409">
        <ele>992.74114990234</ele>
        <time>2020-10-16T11:45:45.934Z</time>
      </trkpt>
      <trkpt lat="44.69921" lon="3.83383">
        <ele>995.71069335938</ele>
        <time>2020-10-16T11:45:46.877Z</time>
      </trkpt>
      <trkpt lat="44.69926" lon="3.83369">
        <ele>997.13293457031</ele>
        <time>2020-10-16T11:45:47.822Z</time>
      </trkpt>
      <trkpt lat="44.69935" lon="3.83352">
        <ele>998.52532958984</ele>
        <time>2020-10-16T11:45:48.770Z</time>
      </trkpt>
      <trkpt lat="44.69945" lon="3.83346">
        <ele>998.05377197266</ele>
        <time>2020-10-16T11:45:49.720Z</time>
      </trkpt>
      <trkpt lat="44.69966" lon="3.8334">
        <ele>996.86193847656</ele>
        <time>2020-10-16T11:45:50.674Z</time>
      </trkpt>
      <trkpt lat="44.69993" lon="3.83333">
        <ele>995.25219726562</ele>
        <time>2020-10-16T11:45:51.634Z</time>
      </trkpt>
      <trkpt lat="44.70017" lon="3.83326">
        <ele>994.33367919922</ele>
        <time>2020-10-16T11:45:52.599Z</time>
      </trkpt>
      <trkpt lat="44.70029" lon="3.83319">
        <ele>994.67730712891</ele>
        <time>2020-10-16T11:45:53.566Z</time>
      </trkpt>
      <trkpt lat="44.7005" lon="3.83309">
        <ele>994.86047363281</ele>
        <time>2020-10-16T11:45:54.538Z</time>
      </trkpt>
      <trkpt lat="44.70076" lon="3.83294">
        <ele>995.865234375</ele>
        <time>2020-10-16T11:45:55.516Z</time>
      </trkpt>
      <trkpt lat="44.70095" lon="3.83282">
        <ele>997.58355712891</ele>
        <time>2020-10-16T11:45:56.498Z</time>
      </trkpt>
      <trkpt lat="44.70112" lon="3.83259">
        <ele>1000.7637939453</ele>
        <time>2020-10-16T11:45:57.484Z</time>
      </trkpt>
      <trkpt lat="44.70126" lon="3.8324">
        <ele>1003.6387329102</ele>
        <time>2020-10-16T11:45:58.474Z</time>
      </trkpt>
      <trkpt lat="44.7014" lon="3.83216">
        <ele>1006.4020996094</ele>
        <time>2020-10-16T11:45:59.469Z</time>
      </trkpt>
      <trkpt lat="44.70154" lon="3.83193">
        <ele>1007.8292236328</ele>
        <time>2020-10-16T11:46:00.468Z</time>
      </trkpt>
      <trkpt lat="44.70163" lon="3.83185">
        <ele>1007.7384643555</ele>
        <time>2020-10-16T11:46:01.469Z</time>
      </trkpt>
      <trkpt lat="44.70183" lon="3.8318">
        <ele>1006.0998535156</ele>
        <time>2020-10-16T11:46:02.474Z</time>
      </trkpt>
      <trkpt lat="44.70198" lon="3.83174">
        <ele>1004.7368774414</ele>
        <time>2020-10-16T11:46:03.482Z</time>
      </trkpt>
      <trkpt lat="44.70203" lon="3.83169">
        <ele>1004.4455566406</ele>
        <time>2020-10-16T11:46:04.492Z</time>
      </trkpt>
      <trkpt lat="44.70202" lon="3.83156">
        <ele>1005.5904541016</ele>
        <time>2020-10-16T11:46:05.504Z</time>
      </trkpt>
      <trkpt lat="44.70194" lon="3.83144">
        <ele>1007.5053100586</ele>
        <time>2020-10-16T11:46:06.518Z</time>
      </trkpt>
      <trkpt lat="44.70178" lon="3.83136">
        <ele>1010.1963500977</ele>
        <time>2020-10-16T11:46:07.535Z</time>
      </trkpt>
      <trkpt lat="44.70162" lon="3.83125">
        <ele>1012.9832763672</ele>
        <time>2020-10-16T11:46:08.556Z</time>
      </trkpt>
      <trkpt lat="44.70149" lon="3.83121">
        <ele>1015.1119995117</ele>
        <time>2020-10-16T11:46:09.580Z</time>
      </trkpt>
      <trkpt lat="44.70126" lon="3.8312">
        <ele>1017.9916992188</ele>
        <time>2020-10-16T11:46:10.608Z</time>
      </trkpt>
      <trkpt lat="44.701" lon="3.83117">
        <ele>1019.387512207</ele>
        <time>2020-10-16T11:46:11.641Z</time>
      </trkpt>
      <trkpt lat="44.70069" lon="3.83112">
        <ele>1020.5892944336</ele>
        <time>2020-10-16T11:46:12.681Z</time>
      </trkpt>
      <trkpt lat="44.70043" lon="3.83105">
        <ele>1021.9474487305</ele>
        <time>2020-10-16T11:46:13.726Z</time>
      </trkpt>
      <trkpt lat="44.70014" lon="3.83093">
        <ele>1024.6181640625</ele>
        <time>2020-10-16T11:46:14.777Z</time>
      </trkpt>
      <trkpt lat="44.69995" lon="3.83084">
        <ele>1026.5554199219</ele>
        <time>2020-10-16T11:46:15.832Z</time>
      </trkpt>
      <trkpt lat="44.69954" lon="3.83071">
        <ele>1029.6640625</ele>
        <time>2020-10-16T11:46:16.895Z</time>
      </trkpt>
      <trkpt lat="44.69918" lon="3.83058">
        <ele>1029.9356689453</ele>
        <time>2020-10-16T11:46:17.966Z</time>
      </trkpt>
      <trkpt lat="44.69873" lon="3.83042">
        <ele>1031.4146728516</ele>
        <time>2020-10-16T11:46:19.046Z</time>
      </trkpt>
      <trkpt lat="44.69843" lon="3.83029">
        <ele>1034.4022216797</ele>
        <time>2020-10-16T11:46:20.132Z</time>
      </trkpt>
      <trkpt lat="44.6979" lon="3.83006">
        <ele>1038.6384277344</ele>
        <time>2020-10-16T11:46:21.230Z</time>
      </trkpt>
      <trkpt lat="44.69775" lon="3.82996">
        <ele>1039.2491455078</ele>
        <time>2020-10-16T11:46:22.331Z</time>
      </trkpt>
      <trkpt lat="44.69754" lon="3.82976">
        <ele>1040.2177734375</ele>
        <time>2020-10-16T11:46:23.437Z</time>
      </trkpt>
      <trkpt lat="44.69725" lon="3.82943">
        <ele>1041.8253173828</ele>
        <time>2020-10-16T11:46:24.550Z</time>
      </trkpt>
      <trkpt lat="44.69717" lon="3.82931">
        <ele>1042.1959228516</ele>
        <time>2020-10-16T11:46:25.666Z</time>
      </trkpt>
      <trkpt lat="44.69711" lon="3.82917">
        <ele>1042.5163574219</ele>
        <time>2020-10-16T11:46:26.784Z</time>
      </trkpt>
      <trkpt lat="44.69705" lon="3.82905">
        <ele>1042.8106689453</ele>
        <time>2020-10-16T11:46:27.904Z</time>
      </trkpt>
      <trkpt lat="44.69693" lon="3.82887">
        <ele>1042.4053955078</ele>
        <time>2020-10-16T11:46:29.028Z</time>
      </trkpt>
      <trkpt lat="44.6969" lon="3.82877">
        <ele>1042.3831787109</ele>
        <time>2020-10-16T11:46:30.153Z</time>
      </trkpt>
      <trkpt lat="44.6969" lon="3.82867">
        <ele>1042.5555419922</ele>
        <time>2020-10-16T11:46:31.280Z</time>
      </trkpt>
      <trkpt lat="44.6969" lon="3.82824">
        <ele>1044.0629882812</ele>
        <time>2020-10-16T11:46:32.413Z</time>
      </trkpt>
      <trkpt lat="44.6969" lon="3.82817">
        <ele>1044.1319580078</ele>
        <time>2020-10-16T11:46:33.547Z</time>
      </trkpt>
      <trkpt lat="44.69688" lon="3.82813">
        <ele>1044.1461181641</ele>
        <time>2020-10-16T11:46:34.681Z</time>
      </trkpt>
      <trkpt lat="44.69683" lon="3.82802">
        <ele>1044.1550292969</ele>
        <time>2020-10-16T11:46:35.817Z</time>
      </trkpt>
      <trkpt lat="44.69671" lon="3.82784">
        <ele>1044.08203125</ele>
        <time>2020-10-16T11:46:36.957Z</time>
      </trkpt>
      <trkpt lat="44.69653" lon="3.82765">
        <ele>1043.888671875</ele>
        <time>2020-10-16T11:46:38.101Z</time>
      </trkpt>
      <trkpt lat="44.69641" lon="3.82754">
        <ele>1043.734375</ele>
        <time>2020-10-16T11:46:39.248Z</time>
      </trkpt>
      <trkpt lat="44.69628" lon="3.82744">
        <ele>1043.5324707031</ele>
        <time>2020-10-16T11:46:40.398Z</time>
      </trkpt>
      <trkpt lat="44.69611" lon="3.82734">
        <ele>1042.7419433594</ele>
        <time>2020-10-16T11:46:41.552Z</time>
      </trkpt>
      <trkpt lat="44.69603" lon="3.82731">
        <ele>1042.0480957031</ele>
        <time>2020-10-16T11:46:42.708Z</time>
      </trkpt>
      <trkpt lat="44.69601" lon="3.8273">
        <ele>1041.9112548828</ele>
        <time>2020-10-16T11:46:43.864Z</time>
      </trkpt>
      <trkpt lat="44.69592" lon="3.82728">
        <ele>1041.1533203125</ele>
        <time>2020-10-16T11:46:45.022Z</time>
      </trkpt>
      <trkpt lat="44.69585" lon="3.82726">
        <ele>1040.5828857422</ele>
        <time>2020-10-16T11:46:46.181Z</time>
      </trkpt>
      <trkpt lat="44.69585" lon="3.82717">
        <ele>1040.7288818359</ele>
        <time>2020-10-16T11:46:47.342Z</time>
      </trkpt>
      <trkpt lat="44.6959" lon="3.82668">
        <ele>1043.6877441406</ele>
        <time>2020-10-16T11:46:48.510Z</time>
      </trkpt>
      <trkpt lat="44.69592" lon="3.8264">
        <ele>1046.1593017578</ele>
        <time>2020-10-16T11:46:49.682Z</time>
      </trkpt>
      <trkpt lat="44.69592" lon="3.8263">
        <ele>1046.8703613281</ele>
        <time>2020-10-16T11:46:50.855Z</time>
      </trkpt>
      <trkpt lat="44.69591" lon="3.82615">
        <ele>1047.9499511719</ele>
        <time>2020-10-16T11:46:52.030Z</time>
      </trkpt>
      <trkpt lat="44.69589" lon="3.82588">
        <ele>1049.9281005859</ele>
        <time>2020-10-16T11:46:53.209Z</time>
      </trkpt>
      <trkpt lat="44.69588" lon="3.82581">
        <ele>1050.4768066406</ele>
        <time>2020-10-16T11:46:54.389Z</time>
      </trkpt>
      <trkpt lat="44.69584" lon="3.82568">
        <ele>1051.3983154297</ele>
        <time>2020-10-16T11:46:55.571Z</time>
      </trkpt>
      <trkpt lat="44.6958" lon="3.82569">
        <ele>1051.1533203125</ele>
        <time>2020-10-16T11:46:56.754Z</time>
      </trkpt>
      <trkpt lat="44.69577" lon="3.82569">
        <ele>1050.9720458984</ele>
        <time>2020-10-16T11:46:57.938Z</time>
      </trkpt>
      <trkpt lat="44.69573" lon="3.82569">
        <ele>1050.8170166016</ele>
        <time>2020-10-16T11:46:59.122Z</time>
      </trkpt>
      <trkpt lat="44.69569" lon="3.82568">
        <ele>1050.7214355469</ele>
        <time>2020-10-16T11:47:00.307Z</time>
      </trkpt>
      <trkpt lat="44.69565" lon="3.82566">
        <ele>1050.6667480469</ele>
        <time>2020-10-16T11:47:01.493Z</time>
      </trkpt>
      <trkpt lat="44.69561" lon="3.82564">
        <ele>1050.6403808594</ele>
        <time>2020-10-16T11:47:02.680Z</time>
      </trkpt>
      <trkpt lat="44.69557" lon="3.82562">
        <ele>1050.6333007812</ele>
        <time>2020-10-16T11:47:03.868Z</time>
      </trkpt>
      <trkpt lat="44.69554" lon="3.8256">
        <ele>1050.6329345703</ele>
        <time>2020-10-16T11:47:05.056Z</time>
      </trkpt>
      <trkpt lat="44.6955" lon="3.82558">
        <ele>1050.64453125</ele>
        <time>2020-10-16T11:47:06.245Z</time>
      </trkpt>
      <trkpt lat="44.69546" lon="3.82555">
        <ele>1050.6527099609</ele>
        <time>2020-10-16T11:47:07.435Z</time>
      </trkpt>
      <trkpt lat="44.69542" lon="3.82553">
        <ele>1050.6534423828</ele>
        <time>2020-10-16T11:47:08.626Z</time>
      </trkpt>
      <trkpt lat="44.69539" lon="3.82551">
        <ele>1050.6453857422</ele>
        <time>2020-10-16T11:47:09.818Z</time>
      </trkpt>
      <trkpt lat="44.69534" lon="3.82549">
        <ele>1050.6334228516</ele>
        <time>2020-10-16T11:47:11.011Z</time>
      </trkpt>
      <trkpt lat="44.69529" lon="3.82546">
        <ele>1050.6174316406</ele>
        <time>2020-10-16T11:47:12.205Z</time>
      </trkpt>
      <trkpt lat="44.69524" lon="3.82543">
        <ele>1050.6080322266</ele>
        <time>2020-10-16T11:47:13.400Z</time>
      </trkpt>
      <trkpt lat="44.69514" lon="3.82538">
        <ele>1050.5581054688</ele>
        <time>2020-10-16T11:47:14.597Z</time>
      </trkpt>
      <trkpt lat="44.6951" lon="3.82536">
        <ele>1050.5366210938</ele>
        <time>2020-10-16T11:47:15.795Z</time>
      </trkpt>
      <trkpt lat="44.69505" lon="3.82534">
        <ele>1050.5144042969</ele>
        <time>2020-10-16T11:47:16.994Z</time>
      </trkpt>
      <trkpt lat="44.69495" lon="3.82528">
        <ele>1050.4750976562</ele>
        <time>2020-10-16T11:47:18.195Z</time>
      </trkpt>
      <trkpt lat="44.69469" lon="3.82515">
        <ele>1049.9261474609</ele>
        <time>2020-10-16T11:47:19.402Z</time>
      </trkpt>
      <trkpt lat="44.69464" lon="3.82512">
        <ele>1049.7492675781</ele>
        <time>2020-10-16T11:47:20.610Z</time>
      </trkpt>
      <trkpt lat="44.69459" lon="3.82509">
        <ele>1049.5843505859</ele>
        <time>2020-10-16T11:47:21.819Z</time>
      </trkpt>
      <trkpt lat="44.69451" lon="3.82503">
        <ele>1049.2811279297</ele>
        <time>2020-10-16T11:47:23.029Z</time>
      </trkpt>
      <trkpt lat="44.69444" lon="3.82497">
        <ele>1048.8323974609</ele>
        <time>2020-10-16T11:47:24.241Z</time>
      </trkpt>
      <trkpt lat="44.69439" lon="3.82492">
        <ele>1048.5268554688</ele>
        <time>2020-10-16T11:47:25.454Z</time>
      </trkpt>
      <trkpt lat="44.69434" lon="3.82487">
        <ele>1048.1823730469</ele>
        <time>2020-10-16T11:47:26.669Z</time>
      </trkpt>
      <trkpt lat="44.69427" lon="3.82482">
        <ele>1047.7854003906</ele>
        <time>2020-10-16T11:47:27.885Z</time>
      </trkpt>
      <trkpt lat="44.69421" lon="3.82478">
        <ele>1047.3549804688</ele>
        <time>2020-10-16T11:47:29.103Z</time>
      </trkpt>
      <trkpt lat="44.69415" lon="3.82474">
        <ele>1046.9180908203</ele>
        <time>2020-10-16T11:47:30.322Z</time>
      </trkpt>
      <trkpt lat="44.69408" lon="3.8247">
        <ele>1046.4853515625</ele>
        <time>2020-10-16T11:47:31.542Z</time>
      </trkpt>
      <trkpt lat="44.69402" lon="3.82466">
        <ele>1046.0577392578</ele>
        <time>2020-10-16T11:47:32.764Z</time>
      </trkpt>
      <trkpt lat="44.69396" lon="3.82462">
        <ele>1045.6473388672</ele>
        <time>2020-10-16T11:47:33.987Z</time>
      </trkpt>
      <trkpt lat="44.69391" lon="3.82458">
        <ele>1045.2692871094</ele>
        <time>2020-10-16T11:47:35.211Z</time>
      </trkpt>
      <trkpt lat="44.69385" lon="3.82453">
        <ele>1044.9342041016</ele>
        <time>2020-10-16T11:47:36.437Z</time>
      </trkpt>
      <trkpt lat="44.6938" lon="3.82448">
        <ele>1044.6480712891</ele>
        <time>2020-10-16T11:47:37.664Z</time>
      </trkpt>
      <trkpt lat="44.69376" lon="3.82442">
        <ele>1044.4028320312</ele>
        <time>2020-10-16T11:47:38.892Z</time>
      </trkpt>
      <trkpt lat="44.69371" lon="3.82436">
        <ele>1044.2171630859</ele>
        <time>2020-10-16T11:47:40.121Z</time>
      </trkpt>
      <trkpt lat="44.69367" lon="3.82429">
        <ele>1044.2391357422</ele>
        <time>2020-10-16T11:47:41.351Z</time>
      </trkpt>
      <trkpt lat="44.69363" lon="3.82422">
        <ele>1044.33203125</ele>
        <time>2020-10-16T11:47:42.583Z</time>
      </trkpt>
      <trkpt lat="44.69358" lon="3.82415">
        <ele>1044.4427490234</ele>
        <time>2020-10-16T11:47:43.816Z</time>
      </trkpt>
      <trkpt lat="44.69354" lon="3.82407">
        <ele>1044.5556640625</ele>
        <time>2020-10-16T11:47:45.051Z</time>
      </trkpt>
      <trkpt lat="44.69349" lon="3.82399">
        <ele>1044.6599121094</ele>
        <time>2020-10-16T11:47:46.287Z</time>
      </trkpt>
      <trkpt lat="44.69344" lon="3.82392">
        <ele>1044.7626953125</ele>
        <time>2020-10-16T11:47:47.524Z</time>
      </trkpt>
      <trkpt lat="44.6934" lon="3.82385">
        <ele>1044.8623046875</ele>
        <time>2020-10-16T11:47:48.763Z</time>
      </trkpt>
      <trkpt lat="44.69335" lon="3.82377">
        <ele>1044.9586181641</ele>
        <time>2020-10-16T11:47:50.003Z</time>
      </trkpt>
      <trkpt lat="44.69331" lon="3.8237">
        <ele>1045.0550537109</ele>
        <time>2020-10-16T11:47:51.245Z</time>
      </trkpt>
      <trkpt lat="44.69326" lon="3.82363">
        <ele>1045.1550292969</ele>
        <time>2020-10-16T11:47:52.488Z</time>
      </trkpt>
      <trkpt lat="44.69322" lon="3.82356">
        <ele>1045.2681884766</ele>
        <time>2020-10-16T11:47:53.732Z</time>
      </trkpt>
      <trkpt lat="44.69318" lon="3.82348">
        <ele>1045.2088623047</ele>
        <time>2020-10-16T11:47:54.978Z</time>
      </trkpt>
      <trkpt lat="44.69313" lon="3.82341">
        <ele>1045.1420898438</ele>
        <time>2020-10-16T11:47:56.225Z</time>
      </trkpt>
      <trkpt lat="44.6931" lon="3.82333">
        <ele>1045.0944824219</ele>
        <time>2020-10-16T11:47:57.473Z</time>
      </trkpt>
      <trkpt lat="44.69305" lon="3.82325">
        <ele>1045.0372314453</ele>
        <time>2020-10-16T11:47:58.723Z</time>
      </trkpt>
      <trkpt lat="44.69301" lon="3.82317">
        <ele>1044.9993896484</ele>
        <time>2020-10-16T11:47:59.974Z</time>
      </trkpt>
      <trkpt lat="44.69294" lon="3.823">
        <ele>1044.9138183594</ele>
        <time>2020-10-16T11:48:01.228Z</time>
      </trkpt>
      <trkpt lat="44.6929" lon="3.82292">
        <ele>1044.8701171875</ele>
        <time>2020-10-16T11:48:02.483Z</time>
      </trkpt>
      <trkpt lat="44.69286" lon="3.82284">
        <ele>1044.9528808594</ele>
        <time>2020-10-16T11:48:03.740Z</time>
      </trkpt>
      <trkpt lat="44.69281" lon="3.82277">
        <ele>1045.4918212891</ele>
        <time>2020-10-16T11:48:04.998Z</time>
      </trkpt>
      <trkpt lat="44.69276" lon="3.8227">
        <ele>1046.1805419922</ele>
        <time>2020-10-16T11:48:06.258Z</time>
      </trkpt>
      <trkpt lat="44.6927" lon="3.82264">
        <ele>1047.1060791016</ele>
        <time>2020-10-16T11:48:07.519Z</time>
      </trkpt>
      <trkpt lat="44.69263" lon="3.8226">
        <ele>1047.9731445312</ele>
        <time>2020-10-16T11:48:08.782Z</time>
      </trkpt>
      <trkpt lat="44.69257" lon="3.82257">
        <ele>1048.7691650391</ele>
        <time>2020-10-16T11:48:10.046Z</time>
      </trkpt>
      <trkpt lat="44.6925" lon="3.82255">
        <ele>1049.5203857422</ele>
        <time>2020-10-16T11:48:11.311Z</time>
      </trkpt>
      <trkpt lat="44.69243" lon="3.82254">
        <ele>1050.2495117188</ele>
        <time>2020-10-16T11:48:12.578Z</time>
      </trkpt>
      <trkpt lat="44.69236" lon="3.82254">
        <ele>1050.9495849609</ele>
        <time>2020-10-16T11:48:13.846Z</time>
      </trkpt>
      <trkpt lat="44.69229" lon="3.82254">
        <ele>1051.6186523438</ele>
        <time>2020-10-16T11:48:15.116Z</time>
      </trkpt>
      <trkpt lat="44.69222" lon="3.82254">
        <ele>1052.2731933594</ele>
        <time>2020-10-16T11:48:16.387Z</time>
      </trkpt>
      <trkpt lat="44.69215" lon="3.82254">
        <ele>1052.9575195312</ele>
        <time>2020-10-16T11:48:17.659Z</time>
      </trkpt>
      <trkpt lat="44.69213" lon="3.82254">
        <ele>1053.1519775391</ele>
        <time>2020-10-16T11:48:18.932Z</time>
      </trkpt>
      <trkpt lat="44.69208" lon="3.82254">
        <ele>1053.6414794922</ele>
        <time>2020-10-16T11:48:20.206Z</time>
      </trkpt>
      <trkpt lat="44.69201" lon="3.82253">
        <ele>1054.0495605469</ele>
        <time>2020-10-16T11:48:21.481Z</time>
      </trkpt>
      <trkpt lat="44.69194" lon="3.82253">
        <ele>1053.8349609375</ele>
        <time>2020-10-16T11:48:22.758Z</time>
      </trkpt>
      <trkpt lat="44.69187" lon="3.82252">
        <ele>1053.6262207031</ele>
        <time>2020-10-16T11:48:24.036Z</time>
      </trkpt>
      <trkpt lat="44.6918" lon="3.82251">
        <ele>1053.4567871094</ele>
        <time>2020-10-16T11:48:25.315Z</time>
      </trkpt>
      <trkpt lat="44.69173" lon="3.8225">
        <ele>1053.3293457031</ele>
        <time>2020-10-16T11:48:26.596Z</time>
      </trkpt>
      <trkpt lat="44.69165" lon="3.82249">
        <ele>1053.2038574219</ele>
        <time>2020-10-16T11:48:27.878Z</time>
      </trkpt>
      <trkpt lat="44.6915" lon="3.82247">
        <ele>1052.9488525391</ele>
        <time>2020-10-16T11:48:29.163Z</time>
      </trkpt>
      <trkpt lat="44.69135" lon="3.82244">
        <ele>1052.7005615234</ele>
        <time>2020-10-16T11:48:30.451Z</time>
      </trkpt>
      <trkpt lat="44.69128" lon="3.82243">
        <ele>1052.5888671875</ele>
        <time>2020-10-16T11:48:31.741Z</time>
      </trkpt>
      <trkpt lat="44.69121" lon="3.82241">
        <ele>1052.5164794922</ele>
        <time>2020-10-16T11:48:33.032Z</time>
      </trkpt>
      <trkpt lat="44.69111" lon="3.82238">
        <ele>1052.3272705078</ele>
        <time>2020-10-16T11:48:34.325Z</time>
      </trkpt>
      <trkpt lat="44.69103" lon="3.82236">
        <ele>1052.1352539062</ele>
        <time>2020-10-16T11:48:35.620Z</time>
      </trkpt>
      <trkpt lat="44.69094" lon="3.82236">
        <ele>1051.8146972656</ele>
        <time>2020-10-16T11:48:36.917Z</time>
      </trkpt>
      <trkpt lat="44.69087" lon="3.82239">
        <ele>1051.4273681641</ele>
        <time>2020-10-16T11:48:38.215Z</time>
      </trkpt>
      <trkpt lat="44.69079" lon="3.82243">
        <ele>1051.4879150391</ele>
        <time>2020-10-16T11:48:39.515Z</time>
      </trkpt>
      <trkpt lat="44.69072" lon="3.82251">
        <ele>1051.5765380859</ele>
        <time>2020-10-16T11:48:40.817Z</time>
      </trkpt>
      <trkpt lat="44.69065" lon="3.82258">
        <ele>1051.6558837891</ele>
        <time>2020-10-16T11:48:42.120Z</time>
      </trkpt>
      <trkpt lat="44.69057" lon="3.8227">
        <ele>1051.7513427734</ele>
        <time>2020-10-16T11:48:43.426Z</time>
      </trkpt>
      <trkpt lat="44.6905" lon="3.8228">
        <ele>1051.1975097656</ele>
        <time>2020-10-16T11:48:44.734Z</time>
      </trkpt>
      <trkpt lat="44.69043" lon="3.8229">
        <ele>1051.5379638672</ele>
        <time>2020-10-16T11:48:46.044Z</time>
      </trkpt>
      <trkpt lat="44.69029" lon="3.82311">
        <ele>1053.9763183594</ele>
        <time>2020-10-16T11:48:47.358Z</time>
      </trkpt>
      <trkpt lat="44.69023" lon="3.82321">
        <ele>1055.4129638672</ele>
        <time>2020-10-16T11:48:48.674Z</time>
      </trkpt>
      <trkpt lat="44.69016" lon="3.82332">
        <ele>1056.80859375</ele>
        <time>2020-10-16T11:48:49.992Z</time>
      </trkpt>
      <trkpt lat="44.6901" lon="3.82342">
        <ele>1058.4990234375</ele>
        <time>2020-10-16T11:48:51.312Z</time>
      </trkpt>
      <trkpt lat="44.69004" lon="3.82352">
        <ele>1060.2651367188</ele>
        <time>2020-10-16T11:48:52.634Z</time>
      </trkpt>
      <trkpt lat="44.68998" lon="3.82361">
        <ele>1061.6268310547</ele>
        <time>2020-10-16T11:48:53.957Z</time>
      </trkpt>
      <trkpt lat="44.68991" lon="3.82371">
        <ele>1062.7136230469</ele>
        <time>2020-10-16T11:48:55.282Z</time>
      </trkpt>
      <trkpt lat="44.68985" lon="3.82381">
        <ele>1063.7921142578</ele>
        <time>2020-10-16T11:48:56.609Z</time>
      </trkpt>
      <trkpt lat="44.6896" lon="3.82418">
        <ele>1069.4571533203</ele>
        <time>2020-10-16T11:48:57.943Z</time>
      </trkpt>
      <trkpt lat="44.6894" lon="3.82452">
        <ele>1071.7843017578</ele>
        <time>2020-10-16T11:48:59.284Z</time>
      </trkpt>
      <trkpt lat="44.68922" lon="3.82479">
        <ele>1072.51953125</ele>
        <time>2020-10-16T11:49:00.630Z</time>
      </trkpt>
      <trkpt lat="44.68911" lon="3.82495">
        <ele>1072.4805908203</ele>
        <time>2020-10-16T11:49:01.979Z</time>
      </trkpt>
      <trkpt lat="44.68887" lon="3.82518">
        <ele>1072.2915039062</ele>
        <time>2020-10-16T11:49:03.334Z</time>
      </trkpt>
      <trkpt lat="44.68857" lon="3.82541">
        <ele>1071.3419189453</ele>
        <time>2020-10-16T11:49:04.696Z</time>
      </trkpt>
      <trkpt lat="44.68841" lon="3.82556">
        <ele>1070.0861816406</ele>
        <time>2020-10-16T11:49:06.062Z</time>
      </trkpt>
      <trkpt lat="44.68819" lon="3.8257">
        <ele>1068.6721191406</ele>
        <time>2020-10-16T11:49:07.433Z</time>
      </trkpt>
      <trkpt lat="44.68798" lon="3.82581">
        <ele>1067.0894775391</ele>
        <time>2020-10-16T11:49:08.808Z</time>
      </trkpt>
      <trkpt lat="44.68766" lon="3.82596">
        <ele>1065.6505126953</ele>
        <time>2020-10-16T11:49:10.190Z</time>
      </trkpt>
      <trkpt lat="44.68733" lon="3.82612">
        <ele>1064.0998535156</ele>
        <time>2020-10-16T11:49:11.579Z</time>
      </trkpt>
      <trkpt lat="44.68705" lon="3.82622">
        <ele>1062.8660888672</ele>
        <time>2020-10-16T11:49:12.974Z</time>
      </trkpt>
      <trkpt lat="44.68679" lon="3.82633">
        <ele>1060.8404541016</ele>
        <time>2020-10-16T11:49:14.374Z</time>
      </trkpt>
      <trkpt lat="44.6866" lon="3.8264">
        <ele>1059.3638916016</ele>
        <time>2020-10-16T11:49:15.778Z</time>
      </trkpt>
      <trkpt lat="44.68654" lon="3.82638">
        <ele>1059.4957275391</ele>
        <time>2020-10-16T11:49:17.183Z</time>
      </trkpt>
      <trkpt lat="44.68649" lon="3.82638">
        <ele>1059.5314941406</ele>
        <time>2020-10-16T11:49:18.589Z</time>
      </trkpt>
      <trkpt lat="44.68643" lon="3.82637">
        <ele>1059.5948486328</ele>
        <time>2020-10-16T11:49:19.996Z</time>
      </trkpt>
      <trkpt lat="44.68637" lon="3.82637">
        <ele>1059.5902099609</ele>
        <time>2020-10-16T11:49:21.405Z</time>
      </trkpt>
      <trkpt lat="44.68625" lon="3.82637">
        <ele>1059.5441894531</ele>
        <time>2020-10-16T11:49:22.816Z</time>
      </trkpt>
      <trkpt lat="44.6862" lon="3.82637">
        <ele>1059.5727539062</ele>
        <time>2020-10-16T11:49:24.228Z</time>
      </trkpt>
      <trkpt lat="44.68615" lon="3.82637">
        <ele>1059.4593505859</ele>
        <time>2020-10-16T11:49:25.641Z</time>
      </trkpt>
      <trkpt lat="44.68605" lon="3.82636">
        <ele>1059.3723144531</ele>
        <time>2020-10-16T11:49:27.056Z</time>
      </trkpt>
      <trkpt lat="44.68593" lon="3.82634">
        <ele>1059.2481689453</ele>
        <time>2020-10-16T11:49:28.473Z</time>
      </trkpt>
      <trkpt lat="44.68581" lon="3.82632">
        <ele>1059.1702880859</ele>
        <time>2020-10-16T11:49:29.893Z</time>
      </trkpt>
      <trkpt lat="44.68575" lon="3.82631">
        <ele>1059.12109375</ele>
        <time>2020-10-16T11:49:31.314Z</time>
      </trkpt>
      <trkpt lat="44.68568" lon="3.8263">
        <ele>1059.0942382812</ele>
        <time>2020-10-16T11:49:32.736Z</time>
      </trkpt>
      <trkpt lat="44.68563" lon="3.82629">
        <ele>1059.0850830078</ele>
        <time>2020-10-16T11:49:34.159Z</time>
      </trkpt>
      <trkpt lat="44.68557" lon="3.82628">
        <ele>1059.0593261719</ele>
        <time>2020-10-16T11:49:35.584Z</time>
      </trkpt>
      <trkpt lat="44.68552" lon="3.82627">
        <ele>1059.021484375</ele>
        <time>2020-10-16T11:49:37.010Z</time>
      </trkpt>
      <trkpt lat="44.68547" lon="3.82626">
        <ele>1058.9287109375</ele>
        <time>2020-10-16T11:49:38.437Z</time>
      </trkpt>
      <trkpt lat="44.68541" lon="3.82626">
        <ele>1058.6787109375</ele>
        <time>2020-10-16T11:49:39.865Z</time>
      </trkpt>
      <trkpt lat="44.68536" lon="3.82609">
        <ele>1060.5336914062</ele>
        <time>2020-10-16T11:49:41.296Z</time>
      </trkpt>
      <trkpt lat="44.68529" lon="3.82589">
        <ele>1062.2453613281</ele>
        <time>2020-10-16T11:49:42.730Z</time>
      </trkpt>
      <trkpt lat="44.68526" lon="3.82582">
        <ele>1062.7398681641</ele>
        <time>2020-10-16T11:49:44.165Z</time>
      </trkpt>
      <trkpt lat="44.68524" lon="3.8258">
        <ele>1062.8121337891</ele>
        <time>2020-10-16T11:49:45.600Z</time>
      </trkpt>
      <trkpt lat="44.68522" lon="3.8257">
        <ele>1063.8223876953</ele>
        <time>2020-10-16T11:49:47.037Z</time>
      </trkpt>
      <trkpt lat="44.68524" lon="3.82554">
        <ele>1065.6505126953</ele>
        <time>2020-10-16T11:49:48.476Z</time>
      </trkpt>
      <trkpt lat="44.6852" lon="3.82542">
        <ele>1066.7048339844</ele>
        <time>2020-10-16T11:49:49.917Z</time>
      </trkpt>
      <trkpt lat="44.68513" lon="3.8253">
        <ele>1067.4743652344</ele>
        <time>2020-10-16T11:49:51.360Z</time>
      </trkpt>
      <trkpt lat="44.68502" lon="3.82518">
        <ele>1068.4014892578</ele>
        <time>2020-10-16T11:49:52.806Z</time>
      </trkpt>
      <trkpt lat="44.68486" lon="3.82508">
        <ele>1069.5341796875</ele>
        <time>2020-10-16T11:49:54.256Z</time>
      </trkpt>
      <trkpt lat="44.68465" lon="3.82497">
        <ele>1070.490234375</ele>
        <time>2020-10-16T11:49:55.710Z</time>
      </trkpt>
      <trkpt lat="44.68453" lon="3.82491">
        <ele>1071.0196533203</ele>
        <time>2020-10-16T11:49:57.167Z</time>
      </trkpt>
      <trkpt lat="44.6844" lon="3.82474">
        <ele>1074.1484375</ele>
        <time>2020-10-16T11:49:58.627Z</time>
      </trkpt>
      <trkpt lat="44.6843" lon="3.82456">
        <ele>1077.4340820312</ele>
        <time>2020-10-16T11:50:00.090Z</time>
      </trkpt>
      <trkpt lat="44.68416" lon="3.82437">
        <ele>1080.5444335938</ele>
        <time>2020-10-16T11:50:01.557Z</time>
      </trkpt>
      <trkpt lat="44.68408" lon="3.82426">
        <ele>1081.1207275391</ele>
        <time>2020-10-16T11:50:03.027Z</time>
      </trkpt>
      <trkpt lat="44.68399" lon="3.82415">
        <ele>1081.6970214844</ele>
        <time>2020-10-16T11:50:04.499Z</time>
      </trkpt>
      <trkpt lat="44.68391" lon="3.82397">
        <ele>1083.0194091797</ele>
        <time>2020-10-16T11:50:05.974Z</time>
      </trkpt>
      <trkpt lat="44.68382" lon="3.82379">
        <ele>1084.341796875</ele>
        <time>2020-10-16T11:50:07.452Z</time>
      </trkpt>
      <trkpt lat="44.68374" lon="3.82361">
        <ele>1085.6641845703</ele>
        <time>2020-10-16T11:50:08.933Z</time>
      </trkpt>
      <trkpt lat="44.68365" lon="3.82342">
        <ele>1088.5562744141</ele>
        <time>2020-10-16T11:50:10.417Z</time>
      </trkpt>
      <trkpt lat="44.68358" lon="3.82324">
        <ele>1091.9128417969</ele>
        <time>2020-10-16T11:50:11.904Z</time>
      </trkpt>
      <trkpt lat="44.68356" lon="3.82301">
        <ele>1095.9133300781</ele>
        <time>2020-10-16T11:50:13.395Z</time>
      </trkpt>
      <trkpt lat="44.68354" lon="3.82278">
        <ele>1099.9138183594</ele>
        <time>2020-10-16T11:50:14.889Z</time>
      </trkpt>
      <trkpt lat="44.68353" lon="3.82255">
        <ele>1103.5015869141</ele>
        <time>2020-10-16T11:50:16.386Z</time>
      </trkpt>
      <trkpt lat="44.68347" lon="3.82241">
        <ele>1105.4954833984</ele>
        <time>2020-10-16T11:50:17.886Z</time>
      </trkpt>
      <trkpt lat="44.68338" lon="3.82232">
        <ele>1107.2828369141</ele>
        <time>2020-10-16T11:50:19.388Z</time>
      </trkpt>
      <trkpt lat="44.68326" lon="3.82226">
        <ele>1109.2153320312</ele>
        <time>2020-10-16T11:50:20.892Z</time>
      </trkpt>
      <trkpt lat="44.68314" lon="3.82219">
        <ele>1110.9814453125</ele>
        <time>2020-10-16T11:50:22.399Z</time>
      </trkpt>
      <trkpt lat="44.68295" lon="3.82209">
        <ele>1113.5466308594</ele>
        <time>2020-10-16T11:50:23.910Z</time>
      </trkpt>
      <trkpt lat="44.68277" lon="3.82199">
        <ele>1115.6744384766</ele>
        <time>2020-10-16T11:50:25.425Z</time>
      </trkpt>
      <trkpt lat="44.68259" lon="3.8219">
        <ele>1117.1887207031</ele>
        <time>2020-10-16T11:50:26.944Z</time>
      </trkpt>
      <trkpt lat="44.68243" lon="3.82179">
        <ele>1118.0745849609</ele>
        <time>2020-10-16T11:50:28.466Z</time>
      </trkpt>
      <trkpt lat="44.68228" lon="3.82169">
        <ele>1118.8754882812</ele>
        <time>2020-10-16T11:50:29.991Z</time>
      </trkpt>
      <trkpt lat="44.68214" lon="3.82153">
        <ele>1119.9945068359</ele>
        <time>2020-10-16T11:50:31.520Z</time>
      </trkpt>
      <trkpt lat="44.68203" lon="3.82136">
        <ele>1121.1408691406</ele>
        <time>2020-10-16T11:50:33.052Z</time>
      </trkpt>
      <trkpt lat="44.68202" lon="3.82117">
        <ele>1122.1885986328</ele>
        <time>2020-10-16T11:50:34.587Z</time>
      </trkpt>
      <trkpt lat="44.68201" lon="3.82098">
        <ele>1123.1313476562</ele>
        <time>2020-10-16T11:50:36.125Z</time>
      </trkpt>
      <trkpt lat="44.68198" lon="3.82075">
        <ele>1124.1883544922</ele>
        <time>2020-10-16T11:50:37.666Z</time>
      </trkpt>
      <trkpt lat="44.68195" lon="3.82051">
        <ele>1125.2453613281</ele>
        <time>2020-10-16T11:50:39.211Z</time>
      </trkpt>
      <trkpt lat="44.68194" lon="3.82029">
        <ele>1126.5462646484</ele>
        <time>2020-10-16T11:50:40.759Z</time>
      </trkpt>
      <trkpt lat="44.68194" lon="3.82007">
        <ele>1127.9388427734</ele>
        <time>2020-10-16T11:50:42.310Z</time>
      </trkpt>
      <trkpt lat="44.68196" lon="3.81986">
        <ele>1128.5179443359</ele>
        <time>2020-10-16T11:50:43.864Z</time>
      </trkpt>
      <trkpt lat="44.68197" lon="3.81964">
        <ele>1129.0970458984</ele>
        <time>2020-10-16T11:50:45.421Z</time>
      </trkpt>
      <trkpt lat="44.68196" lon="3.81948">
        <ele>1129.4188232422</ele>
        <time>2020-10-16T11:50:46.980Z</time>
      </trkpt>
      <trkpt lat="44.68195" lon="3.81933">
        <ele>1130.4036865234</ele>
        <time>2020-10-16T11:50:48.542Z</time>
      </trkpt>
      <trkpt lat="44.68196" lon="3.81917">
        <ele>1132.3474121094</ele>
        <time>2020-10-16T11:50:50.106Z</time>
      </trkpt>
      <trkpt lat="44.68204" lon="3.81899">
        <ele>1134.8131103516</ele>
        <time>2020-10-16T11:50:51.673Z</time>
      </trkpt>
      <trkpt lat="44.68209" lon="3.81881">
        <ele>1137.0327148438</ele>
        <time>2020-10-16T11:50:53.243Z</time>
      </trkpt>
      <trkpt lat="44.68209" lon="3.81863">
        <ele>1139.1735839844</ele>
        <time>2020-10-16T11:50:54.815Z</time>
      </trkpt>
      <trkpt lat="44.68192" lon="3.81863">
        <ele>1138.6837158203</ele>
        <time>2020-10-16T11:50:56.391Z</time>
      </trkpt>
      <trkpt lat="44.68176" lon="3.81864">
        <ele>1138.0087890625</ele>
        <time>2020-10-16T11:50:57.970Z</time>
      </trkpt>
      <trkpt lat="44.68157" lon="3.81864">
        <ele>1137.3198242188</ele>
        <time>2020-10-16T11:50:59.553Z</time>
      </trkpt>
      <trkpt lat="44.68135" lon="3.81864">
        <ele>1136.5535888672</ele>
        <time>2020-10-16T11:51:01.140Z</time>
      </trkpt>
      <trkpt lat="44.68128" lon="3.81861">
        <ele>1136.5736083984</ele>
        <time>2020-10-16T11:51:02.728Z</time>
      </trkpt>
      <trkpt lat="44.68121" lon="3.81853">
        <ele>1137.2139892578</ele>
        <time>2020-10-16T11:51:04.318Z</time>
      </trkpt>
      <trkpt lat="44.6812" lon="3.8185">
        <ele>1137.3442382812</ele>
        <time>2020-10-16T11:51:05.909Z</time>
      </trkpt>
      <trkpt lat="44.6811" lon="3.81826">
        <ele>1138.2209472656</ele>
        <time>2020-10-16T11:51:07.504Z</time>
      </trkpt>
      <trkpt lat="44.68101" lon="3.81802">
        <ele>1139.0955810547</ele>
        <time>2020-10-16T11:51:09.103Z</time>
      </trkpt>
      <trkpt lat="44.68092" lon="3.81778">
        <ele>1139.9700927734</ele>
        <time>2020-10-16T11:51:10.705Z</time>
      </trkpt>
      <trkpt lat="44.68084" lon="3.81757">
        <ele>1140.7684326172</ele>
        <time>2020-10-16T11:51:12.311Z</time>
      </trkpt>
      <trkpt lat="44.68076" lon="3.81735">
        <ele>1141.5667724609</ele>
        <time>2020-10-16T11:51:13.920Z</time>
      </trkpt>
      <trkpt lat="44.68068" lon="3.81714">
        <ele>1142.3651123047</ele>
        <time>2020-10-16T11:51:15.533Z</time>
      </trkpt>
      <trkpt lat="44.68062" lon="3.81688">
        <ele>1143.5545654297</ele>
        <time>2020-10-16T11:51:17.149Z</time>
      </trkpt>
      <trkpt lat="44.68056" lon="3.81663">
        <ele>1143.2021484375</ele>
        <time>2020-10-16T11:51:18.769Z</time>
      </trkpt>
      <trkpt lat="44.68051" lon="3.81637">
        <ele>1142.849609375</ele>
        <time>2020-10-16T11:51:20.393Z</time>
      </trkpt>
      <trkpt lat="44.68039" lon="3.81623">
        <ele>1142.1420898438</ele>
        <time>2020-10-16T11:51:22.020Z</time>
      </trkpt>
      <trkpt lat="44.68023" lon="3.81605">
        <ele>1142.1663818359</ele>
        <time>2020-10-16T11:51:23.651Z</time>
      </trkpt>
      <trkpt lat="44.68005" lon="3.81583">
        <ele>1142.64453125</ele>
        <time>2020-10-16T11:51:25.287Z</time>
      </trkpt>
      <trkpt lat="44.67978" lon="3.81564">
        <ele>1143.1943359375</ele>
        <time>2020-10-16T11:51:26.929Z</time>
      </trkpt>
      <trkpt lat="44.67958" lon="3.81549">
        <ele>1143.6196289062</ele>
        <time>2020-10-16T11:51:28.576Z</time>
      </trkpt>
      <trkpt lat="44.67937" lon="3.81532">
        <ele>1144.2705078125</ele>
        <time>2020-10-16T11:51:30.228Z</time>
      </trkpt>
      <trkpt lat="44.67912" lon="3.81515">
        <ele>1145.4940185547</ele>
        <time>2020-10-16T11:51:31.885Z</time>
      </trkpt>
      <trkpt lat="44.67909" lon="3.81513">
        <ele>1145.7127685547</ele>
        <time>2020-10-16T11:51:33.543Z</time>
      </trkpt>
      <trkpt lat="44.67889" lon="3.81498">
        <ele>1147.2818603516</ele>
        <time>2020-10-16T11:51:35.205Z</time>
      </trkpt>
      <trkpt lat="44.67886" lon="3.81496">
        <ele>1147.4775390625</ele>
        <time>2020-10-16T11:51:36.868Z</time>
      </trkpt>
      <trkpt lat="44.67867" lon="3.81484">
        <ele>1148.7698974609</ele>
        <time>2020-10-16T11:51:38.535Z</time>
      </trkpt>
      <trkpt lat="44.67867" lon="3.81484">
        <ele>1148.7730712891</ele>
        <time>2020-10-16T11:51:40.202Z</time>
      </trkpt>
      <trkpt lat="44.67853" lon="3.81474">
        <ele>1149.8693847656</ele>
        <time>2020-10-16T11:51:41.872Z</time>
      </trkpt>
      <trkpt lat="44.6784" lon="3.81468">
        <ele>1150.6041259766</ele>
        <time>2020-10-16T11:51:43.545Z</time>
      </trkpt>
      <trkpt lat="44.67827" lon="3.81462">
        <ele>1151.3703613281</ele>
        <time>2020-10-16T11:51:45.221Z</time>
      </trkpt>
      <trkpt lat="44.67806" lon="3.81451">
        <ele>1152.6325683594</ele>
        <time>2020-10-16T11:51:46.901Z</time>
      </trkpt>
      <trkpt lat="44.67805" lon="3.81451">
        <ele>1152.6861572266</ele>
        <time>2020-10-16T11:51:48.581Z</time>
      </trkpt>
      <trkpt lat="44.67792" lon="3.8144">
        <ele>1153.7707519531</ele>
        <time>2020-10-16T11:51:50.264Z</time>
      </trkpt>
      <trkpt lat="44.67774" lon="3.81436">
        <ele>1153.8359375</ele>
        <time>2020-10-16T11:51:51.951Z</time>
      </trkpt>
      <trkpt lat="44.67756" lon="3.81429">
        <ele>1153.7683105469</ele>
        <time>2020-10-16T11:51:53.642Z</time>
      </trkpt>
      <trkpt lat="44.67728" lon="3.81419">
        <ele>1153.5576171875</ele>
        <time>2020-10-16T11:51:55.339Z</time>
      </trkpt>
      <trkpt lat="44.67696" lon="3.81406">
        <ele>1153.037109375</ele>
        <time>2020-10-16T11:51:57.042Z</time>
      </trkpt>
      <trkpt lat="44.67678" lon="3.81399">
        <ele>1152.0870361328</ele>
        <time>2020-10-16T11:51:58.749Z</time>
      </trkpt>
      <trkpt lat="44.67673" lon="3.81397">
        <ele>1151.7938232422</ele>
        <time>2020-10-16T11:52:00.457Z</time>
      </trkpt>
      <trkpt lat="44.67646" lon="3.81382">
        <ele>1150.6547851562</ele>
        <time>2020-10-16T11:52:02.171Z</time>
      </trkpt>
      <trkpt lat="44.67622" lon="3.81361">
        <ele>1149.9525146484</ele>
        <time>2020-10-16T11:52:03.891Z</time>
      </trkpt>
      <trkpt lat="44.67595" lon="3.81339">
        <ele>1149.6186523438</ele>
        <time>2020-10-16T11:52:05.617Z</time>
      </trkpt>
      <trkpt lat="44.67567" lon="3.81322">
        <ele>1149.1982421875</ele>
        <time>2020-10-16T11:52:07.349Z</time>
      </trkpt>
      <trkpt lat="44.67535" lon="3.81308">
        <ele>1148.8450927734</ele>
        <time>2020-10-16T11:52:09.088Z</time>
      </trkpt>
      <trkpt lat="44.67501" lon="3.81293">
        <ele>1147.63671875</ele>
        <time>2020-10-16T11:52:10.834Z</time>
      </trkpt>
      <trkpt lat="44.67468" lon="3.81277">
        <ele>1146.4743652344</ele>
        <time>2020-10-16T11:52:12.587Z</time>
      </trkpt>
      <trkpt lat="44.67454" lon="3.8127">
        <ele>1146.0447998047</ele>
        <time>2020-10-16T11:52:14.343Z</time>
      </trkpt>
      <trkpt lat="44.67438" lon="3.81256">
        <ele>1146.5593261719</ele>
        <time>2020-10-16T11:52:16.103Z</time>
      </trkpt>
      <trkpt lat="44.67425" lon="3.81239">
        <ele>1147.0709228516</ele>
        <time>2020-10-16T11:52:17.866Z</time>
      </trkpt>
      <trkpt lat="44.67417" lon="3.81221">
        <ele>1147.4603271484</ele>
        <time>2020-10-16T11:52:19.632Z</time>
      </trkpt>
      <trkpt lat="44.67414" lon="3.81188">
        <ele>1147.9578857422</ele>
        <time>2020-10-16T11:52:21.403Z</time>
      </trkpt>
      <trkpt lat="44.67411" lon="3.81162">
        <ele>1148.9725341797</ele>
        <time>2020-10-16T11:52:23.178Z</time>
      </trkpt>
      <trkpt lat="44.67403" lon="3.81134">
        <ele>1150.1047363281</ele>
        <time>2020-10-16T11:52:24.957Z</time>
      </trkpt>
      <trkpt lat="44.67393" lon="3.8111">
        <ele>1151.0270996094</ele>
        <time>2020-10-16T11:52:26.740Z</time>
      </trkpt>
      <trkpt lat="44.67379" lon="3.81086">
        <ele>1152.8254394531</ele>
        <time>2020-10-16T11:52:28.527Z</time>
      </trkpt>
      <trkpt lat="44.67365" lon="3.81062">
        <ele>1155.0391845703</ele>
        <time>2020-10-16T11:52:30.319Z</time>
      </trkpt>
      <trkpt lat="44.67361" lon="3.81052">
        <ele>1156.0720214844</ele>
        <time>2020-10-16T11:52:32.112Z</time>
      </trkpt>
      <trkpt lat="44.67339" lon="3.81047">
        <ele>1158.4844970703</ele>
        <time>2020-10-16T11:52:33.910Z</time>
      </trkpt>
      <trkpt lat="44.67319" lon="3.81051">
        <ele>1160.1154785156</ele>
        <time>2020-10-16T11:52:35.712Z</time>
      </trkpt>
      <trkpt lat="44.67298" lon="3.81056">
        <ele>1161.0485839844</ele>
        <time>2020-10-16T11:52:37.518Z</time>
      </trkpt>
      <trkpt lat="44.67281" lon="3.81054">
        <ele>1162.2894287109</ele>
        <time>2020-10-16T11:52:39.328Z</time>
      </trkpt>
      <trkpt lat="44.67259" lon="3.81043">
        <ele>1164.6416015625</ele>
        <time>2020-10-16T11:52:41.142Z</time>
      </trkpt>
      <trkpt lat="44.67247" lon="3.81039">
        <ele>1165.7678222656</ele>
        <time>2020-10-16T11:52:42.959Z</time>
      </trkpt>
      <trkpt lat="44.6723" lon="3.81043">
        <ele>1166.4106445312</ele>
        <time>2020-10-16T11:52:44.779Z</time>
      </trkpt>
      <trkpt lat="44.67219" lon="3.81045">
        <ele>1166.7021484375</ele>
        <time>2020-10-16T11:52:46.601Z</time>
      </trkpt>
      <trkpt lat="44.67205" lon="3.81052">
        <ele>1166.6319580078</ele>
        <time>2020-10-16T11:52:48.426Z</time>
      </trkpt>
      <trkpt lat="44.67196" lon="3.81054">
        <ele>1166.2717285156</ele>
        <time>2020-10-16T11:52:50.253Z</time>
      </trkpt>
      <trkpt lat="44.67189" lon="3.81045">
        <ele>1167.0090332031</ele>
        <time>2020-10-16T11:52:52.082Z</time>
      </trkpt>
      <trkpt lat="44.67178" lon="3.81038">
        <ele>1167.3625488281</ele>
        <time>2020-10-16T11:52:53.913Z</time>
      </trkpt>
      <trkpt lat="44.67162" lon="3.81027">
        <ele>1167.9482421875</ele>
        <time>2020-10-16T11:52:55.748Z</time>
      </trkpt>
      <trkpt lat="44.67146" lon="3.81018">
        <ele>1168.1522216797</ele>
        <time>2020-10-16T11:52:57.586Z</time>
      </trkpt>
      <trkpt lat="44.67122" lon="3.81009">
        <ele>1167.8433837891</ele>
        <time>2020-10-16T11:52:59.429Z</time>
      </trkpt>
      <trkpt lat="44.67098" lon="3.81005">
        <ele>1168.0809326172</ele>
        <time>2020-10-16T11:53:01.277Z</time>
      </trkpt>
      <trkpt lat="44.67074" lon="3.81004">
        <ele>1168.4069824219</ele>
        <time>2020-10-16T11:53:03.130Z</time>
      </trkpt>
      <trkpt lat="44.67054" lon="3.81002">
        <ele>1168.7407226562</ele>
        <time>2020-10-16T11:53:04.987Z</time>
      </trkpt>
      <trkpt lat="44.67034" lon="3.81">
        <ele>1169.1307373047</ele>
        <time>2020-10-16T11:53:06.848Z</time>
      </trkpt>
      <trkpt lat="44.67013" lon="3.80996">
        <ele>1170.3640136719</ele>
        <time>2020-10-16T11:53:08.713Z</time>
      </trkpt>
      <trkpt lat="44.66989" lon="3.80985">
        <ele>1171.4350585938</ele>
        <time>2020-10-16T11:53:10.583Z</time>
      </trkpt>
      <trkpt lat="44.66969" lon="3.80975">
        <ele>1172.2700195312</ele>
        <time>2020-10-16T11:53:12.458Z</time>
      </trkpt>
      <trkpt lat="44.66948" lon="3.80966">
        <ele>1173.2862548828</ele>
        <time>2020-10-16T11:53:14.337Z</time>
      </trkpt>
      <trkpt lat="44.66926" lon="3.8095">
        <ele>1176.0393066406</ele>
        <time>2020-10-16T11:53:16.221Z</time>
      </trkpt>
      <trkpt lat="44.66917" lon="3.80947">
        <ele>1176.7542724609</ele>
        <time>2020-10-16T11:53:18.107Z</time>
      </trkpt>
      <trkpt lat="44.66897" lon="3.80944">
        <ele>1178.1313476562</ele>
        <time>2020-10-16T11:53:19.997Z</time>
      </trkpt>
      <trkpt lat="44.66875" lon="3.80945">
        <ele>1179.0080566406</ele>
        <time>2020-10-16T11:53:21.891Z</time>
      </trkpt>
      <trkpt lat="44.66858" lon="3.80955">
        <ele>1179.4543457031</ele>
        <time>2020-10-16T11:53:23.789Z</time>
      </trkpt>
      <trkpt lat="44.6684" lon="3.80966">
        <ele>1180.2180175781</ele>
        <time>2020-10-16T11:53:25.691Z</time>
      </trkpt>
      <trkpt lat="44.6682" lon="3.80973">
        <ele>1181.412109375</ele>
        <time>2020-10-16T11:53:27.597Z</time>
      </trkpt>
      <trkpt lat="44.66796" lon="3.80982">
        <ele>1181.3311767578</ele>
        <time>2020-10-16T11:53:29.508Z</time>
      </trkpt>
      <trkpt lat="44.66775" lon="3.80982">
        <ele>1182.3875732422</ele>
        <time>2020-10-16T11:53:31.423Z</time>
      </trkpt>
      <trkpt lat="44.66752" lon="3.80981">
        <ele>1183.9071044922</ele>
        <time>2020-10-16T11:53:33.343Z</time>
      </trkpt>
      <trkpt lat="44.66734" lon="3.8098">
        <ele>1185.4855957031</ele>
        <time>2020-10-16T11:53:35.266Z</time>
      </trkpt>
      <trkpt lat="44.66715" lon="3.80986">
        <ele>1186.6884765625</ele>
        <time>2020-10-16T11:53:37.193Z</time>
      </trkpt>
      <trkpt lat="44.66688" lon="3.80998">
        <ele>1186.7600097656</ele>
        <time>2020-10-16T11:53:39.126Z</time>
      </trkpt>
      <trkpt lat="44.66649" lon="3.81017">
        <ele>1187.4943847656</ele>
        <time>2020-10-16T11:53:41.067Z</time>
      </trkpt>
      <trkpt lat="44.66625" lon="3.81028">
        <ele>1188.1099853516</ele>
        <time>2020-10-16T11:53:43.013Z</time>
      </trkpt>
      <trkpt lat="44.66613" lon="3.81029">
        <ele>1188.2717285156</ele>
        <time>2020-10-16T11:53:44.962Z</time>
      </trkpt>
      <trkpt lat="44.66583" lon="3.81026">
        <ele>1187.3712158203</ele>
        <time>2020-10-16T11:53:46.917Z</time>
      </trkpt>
      <trkpt lat="44.66559" lon="3.81027">
        <ele>1186.4782714844</ele>
        <time>2020-10-16T11:53:48.876Z</time>
      </trkpt>
      <trkpt lat="44.66534" lon="3.81018">
        <ele>1186.0314941406</ele>
        <time>2020-10-16T11:53:50.841Z</time>
      </trkpt>
      <trkpt lat="44.66511" lon="3.81003">
        <ele>1185.5727539062</ele>
        <time>2020-10-16T11:53:52.811Z</time>
      </trkpt>
      <trkpt lat="44.66487" lon="3.80982">
        <ele>1185.1987304688</ele>
        <time>2020-10-16T11:53:54.786Z</time>
      </trkpt>
      <trkpt lat="44.66468" lon="3.8096">
        <ele>1185.0139160156</ele>
        <time>2020-10-16T11:53:56.766Z</time>
      </trkpt>
      <trkpt lat="44.6645" lon="3.80947">
        <ele>1184.8278808594</ele>
        <time>2020-10-16T11:53:58.750Z</time>
      </trkpt>
      <trkpt lat="44.66427" lon="3.80935">
        <ele>1185.30859375</ele>
        <time>2020-10-16T11:54:00.739Z</time>
      </trkpt>
      <trkpt lat="44.66404" lon="3.80924">
        <ele>1185.5864257812</ele>
        <time>2020-10-16T11:54:02.733Z</time>
      </trkpt>
      <trkpt lat="44.66386" lon="3.80918">
        <ele>1185.8038330078</ele>
        <time>2020-10-16T11:54:04.731Z</time>
      </trkpt>
      <trkpt lat="44.66357" lon="3.80913">
        <ele>1186.2998046875</ele>
        <time>2020-10-16T11:54:06.735Z</time>
      </trkpt>
      <trkpt lat="44.66332" lon="3.80903">
        <ele>1186.8061523438</ele>
        <time>2020-10-16T11:54:08.744Z</time>
      </trkpt>
      <trkpt lat="44.66299" lon="3.80887">
        <ele>1186.7994384766</ele>
        <time>2020-10-16T11:54:10.760Z</time>
      </trkpt>
      <trkpt lat="44.66274" lon="3.80875">
        <ele>1186.9221191406</ele>
        <time>2020-10-16T11:54:12.781Z</time>
      </trkpt>
      <trkpt lat="44.66253" lon="3.80857">
        <ele>1187.5289306641</ele>
        <time>2020-10-16T11:54:14.807Z</time>
      </trkpt>
      <trkpt lat="44.6623" lon="3.80841">
        <ele>1188.0050048828</ele>
        <time>2020-10-16T11:54:16.838Z</time>
      </trkpt>
      <trkpt lat="44.6621" lon="3.80832">
        <ele>1188.1872558594</ele>
        <time>2020-10-16T11:54:18.873Z</time>
      </trkpt>
      <trkpt lat="44.66191" lon="3.80826">
        <ele>1188.1077880859</ele>
        <time>2020-10-16T11:54:20.912Z</time>
      </trkpt>
      <trkpt lat="44.66172" lon="3.8081">
        <ele>1188.447265625</ele>
        <time>2020-10-16T11:54:22.956Z</time>
      </trkpt>
      <trkpt lat="44.66158" lon="3.80788">
        <ele>1189.166015625</ele>
        <time>2020-10-16T11:54:25.004Z</time>
      </trkpt>
      <trkpt lat="44.6615" lon="3.8078">
        <ele>1189.3333740234</ele>
        <time>2020-10-16T11:54:27.054Z</time>
      </trkpt>
      <trkpt lat="44.66126" lon="3.80774">
        <ele>1189.0595703125</ele>
        <time>2020-10-16T11:54:29.109Z</time>
      </trkpt>
      <trkpt lat="44.66109" lon="3.8077">
        <ele>1188.8057861328</ele>
        <time>2020-10-16T11:54:31.167Z</time>
      </trkpt>
      <trkpt lat="44.66095" lon="3.80764">
        <ele>1188.5887451172</ele>
        <time>2020-10-16T11:54:33.228Z</time>
      </trkpt>
      <trkpt lat="44.66072" lon="3.80759">
        <ele>1188.1715087891</ele>
        <time>2020-10-16T11:54:35.294Z</time>
      </trkpt>
      <trkpt lat="44.6605" lon="3.80752">
        <ele>1187.8146972656</ele>
        <time>2020-10-16T11:54:37.364Z</time>
      </trkpt>
      <trkpt lat="44.66041" lon="3.80742">
        <ele>1187.8317871094</ele>
        <time>2020-10-16T11:54:39.437Z</time>
      </trkpt>
      <trkpt lat="44.66029" lon="3.80743">
        <ele>1186.8013916016</ele>
        <time>2020-10-16T11:54:41.512Z</time>
      </trkpt>
      <trkpt lat="44.66019" lon="3.80743">
        <ele>1185.4739990234</ele>
        <time>2020-10-16T11:54:43.589Z</time>
      </trkpt>
      <trkpt lat="44.66004" lon="3.80745">
        <ele>1183.5723876953</ele>
        <time>2020-10-16T11:54:45.669Z</time>
      </trkpt>
      <trkpt lat="44.65997" lon="3.80723">
        <ele>1183.0013427734</ele>
        <time>2020-10-16T11:54:47.752Z</time>
      </trkpt>
      <trkpt lat="44.65995" lon="3.80708">
        <ele>1183.0977783203</ele>
        <time>2020-10-16T11:54:49.837Z</time>
      </trkpt>
      <trkpt lat="44.65989" lon="3.80689">
        <ele>1182.7497558594</ele>
        <time>2020-10-16T11:54:51.925Z</time>
      </trkpt>
      <trkpt lat="44.65978" lon="3.8067">
        <ele>1182.4130859375</ele>
        <time>2020-10-16T11:54:54.017Z</time>
      </trkpt>
      <trkpt lat="44.65969" lon="3.80656">
        <ele>1182.0811767578</ele>
        <time>2020-10-16T11:54:56.112Z</time>
      </trkpt>
      <trkpt lat="44.65959" lon="3.80643">
        <ele>1181.5946044922</ele>
        <time>2020-10-16T11:54:58.209Z</time>
      </trkpt>
      <trkpt lat="44.65948" lon="3.80634">
        <ele>1180.4185791016</ele>
        <time>2020-10-16T11:55:00.309Z</time>
      </trkpt>
      <trkpt lat="44.65941" lon="3.80624">
        <ele>1179.5704345703</ele>
        <time>2020-10-16T11:55:02.411Z</time>
      </trkpt>
      <trkpt lat="44.65938" lon="3.8061">
        <ele>1179.6818847656</ele>
        <time>2020-10-16T11:55:04.515Z</time>
      </trkpt>
      <trkpt lat="44.65938" lon="3.80589">
        <ele>1181.087890625</ele>
        <time>2020-10-16T11:55:06.622Z</time>
      </trkpt>
      <trkpt lat="44.6594" lon="3.80562">
        <ele>1182.6768798828</ele>
        <time>2020-10-16T11:55:08.733Z</time>
      </trkpt>
      <trkpt lat="44.6594" lon="3.80537">
        <ele>1183.9306640625</ele>
        <time>2020-10-16T11:55:10.847Z</time>
      </trkpt>
      <trkpt lat="44.65939" lon="3.80519">
        <ele>1184.8625488281</ele>
        <time>2020-10-16T11:55:12.964Z</time>
      </trkpt>
      <trkpt lat="44.65937" lon="3.80498">
        <ele>1186.6524658203</ele>
        <time>2020-10-16T11:55:15.084Z</time>
      </trkpt>
      <trkpt lat="44.65936" lon="3.80477">
        <ele>1187.5145263672</ele>
        <time>2020-10-16T11:55:17.207Z</time>
      </trkpt>
      <trkpt lat="44.65936" lon="3.80457">
        <ele>1188.5030517578</ele>
        <time>2020-10-16T11:55:19.333Z</time>
      </trkpt>
      <trkpt lat="44.65939" lon="3.80434">
        <ele>1190.2379150391</ele>
        <time>2020-10-16T11:55:21.462Z</time>
      </trkpt>
      <trkpt lat="44.65941" lon="3.80416">
        <ele>1192.1724853516</ele>
        <time>2020-10-16T11:55:23.594Z</time>
      </trkpt>
      <trkpt lat="44.65943" lon="3.80393">
        <ele>1193.9350585938</ele>
        <time>2020-10-16T11:55:25.729Z</time>
      </trkpt>
      <trkpt lat="44.65944" lon="3.80375">
        <ele>1195.2720947266</ele>
        <time>2020-10-16T11:55:27.867Z</time>
      </trkpt>
      <trkpt lat="44.65945" lon="3.80355">
        <ele>1196.7225341797</ele>
        <time>2020-10-16T11:55:30.007Z</time>
      </trkpt>
      <trkpt lat="44.65945" lon="3.80333">
        <ele>1197.6995849609</ele>
        <time>2020-10-16T11:55:32.151Z</time>
      </trkpt>
      <trkpt lat="44.65943" lon="3.8031">
        <ele>1198.4940185547</ele>
        <time>2020-10-16T11:55:34.298Z</time>
      </trkpt>
      <trkpt lat="44.65944" lon="3.803">
        <ele>1198.8824462891</ele>
        <time>2020-10-16T11:55:36.446Z</time>
      </trkpt>
      <trkpt lat="44.65948" lon="3.80268">
        <ele>1199.9395751953</ele>
        <time>2020-10-16T11:55:38.599Z</time>
      </trkpt>
      <trkpt lat="44.6595" lon="3.80248">
        <ele>1198.9396972656</ele>
        <time>2020-10-16T11:55:40.755Z</time>
      </trkpt>
      <trkpt lat="44.65951" lon="3.80233">
        <ele>1198.2091064453</ele>
        <time>2020-10-16T11:55:42.913Z</time>
      </trkpt>
      <trkpt lat="44.65951" lon="3.80225">
        <ele>1197.8234863281</ele>
        <time>2020-10-16T11:55:45.072Z</time>
      </trkpt>
      <trkpt lat="44.65946" lon="3.80215">
        <ele>1197.5267333984</ele>
        <time>2020-10-16T11:55:47.233Z</time>
      </trkpt>
      <trkpt lat="44.65936" lon="3.80203">
        <ele>1197.3099365234</ele>
        <time>2020-10-16T11:55:49.396Z</time>
      </trkpt>
      <trkpt lat="44.65924" lon="3.8019">
        <ele>1197.1158447266</ele>
        <time>2020-10-16T11:55:51.563Z</time>
      </trkpt>
      <trkpt lat="44.65913" lon="3.80179">
        <ele>1196.8382568359</ele>
        <time>2020-10-16T11:55:53.732Z</time>
      </trkpt>
      <trkpt lat="44.65902" lon="3.80164">
        <ele>1196.3753662109</ele>
        <time>2020-10-16T11:55:55.904Z</time>
      </trkpt>
      <trkpt lat="44.65894" lon="3.80154">
        <ele>1196.0202636719</ele>
        <time>2020-10-16T11:55:58.078Z</time>
      </trkpt>
      <trkpt lat="44.6588" lon="3.80138">
        <ele>1195.6096191406</ele>
        <time>2020-10-16T11:56:00.256Z</time>
      </trkpt>
      <trkpt lat="44.6587" lon="3.80127">
        <ele>1195.2855224609</ele>
        <time>2020-10-16T11:56:02.436Z</time>
      </trkpt>
      <trkpt lat="44.65858" lon="3.80115">
        <ele>1194.0277099609</ele>
        <time>2020-10-16T11:56:04.620Z</time>
      </trkpt>
      <trkpt lat="44.65846" lon="3.80102">
        <ele>1192.8084716797</ele>
        <time>2020-10-16T11:56:06.807Z</time>
      </trkpt>
      <trkpt lat="44.65837" lon="3.80092">
        <ele>1192.1507568359</ele>
        <time>2020-10-16T11:56:08.996Z</time>
      </trkpt>
      <trkpt lat="44.65828" lon="3.80083">
        <ele>1191.4792480469</ele>
        <time>2020-10-16T11:56:11.187Z</time>
      </trkpt>
      <trkpt lat="44.65824" lon="3.80077">
        <ele>1191.1346435547</ele>
        <time>2020-10-16T11:56:13.379Z</time>
      </trkpt>
      <trkpt lat="44.6582" lon="3.80068">
        <ele>1190.7489013672</ele>
        <time>2020-10-16T11:56:15.573Z</time>
      </trkpt>
      <trkpt lat="44.65814" lon="3.80058">
        <ele>1190.2155761719</ele>
        <time>2020-10-16T11:56:17.769Z</time>
      </trkpt>
      <trkpt lat="44.65804" lon="3.80046">
        <ele>1189.4362792969</ele>
        <time>2020-10-16T11:56:19.967Z</time>
      </trkpt>
      <trkpt lat="44.65797" lon="3.80036">
        <ele>1188.8880615234</ele>
        <time>2020-10-16T11:56:22.167Z</time>
      </trkpt>
      <trkpt lat="44.6579" lon="3.80024">
        <ele>1188.1906738281</ele>
        <time>2020-10-16T11:56:24.369Z</time>
      </trkpt>
      <trkpt lat="44.6578" lon="3.80003">
        <ele>1187.4052734375</ele>
        <time>2020-10-16T11:56:26.575Z</time>
      </trkpt>
      <trkpt lat="44.65768" lon="3.79973">
        <ele>1186.4014892578</ele>
        <time>2020-10-16T11:56:28.786Z</time>
      </trkpt>
      <trkpt lat="44.65757" lon="3.79947">
        <ele>1185.5021972656</ele>
        <time>2020-10-16T11:56:31.001Z</time>
      </trkpt>
      <trkpt lat="44.65748" lon="3.79932">
        <ele>1185.2581787109</ele>
        <time>2020-10-16T11:56:33.219Z</time>
      </trkpt>
      <trkpt lat="44.6574" lon="3.7992">
        <ele>1185.3243408203</ele>
        <time>2020-10-16T11:56:35.439Z</time>
      </trkpt>
      <trkpt lat="44.65731" lon="3.79911">
        <ele>1185.3262939453</ele>
        <time>2020-10-16T11:56:37.662Z</time>
      </trkpt>
      <trkpt lat="44.65716" lon="3.799">
        <ele>1185.2325439453</ele>
        <time>2020-10-16T11:56:39.888Z</time>
      </trkpt>
      <trkpt lat="44.65707" lon="3.79894">
        <ele>1185.1840820312</ele>
        <time>2020-10-16T11:56:42.116Z</time>
      </trkpt>
      <trkpt lat="44.65701" lon="3.79887">
        <ele>1185.1649169922</ele>
        <time>2020-10-16T11:56:44.345Z</time>
      </trkpt>
      <trkpt lat="44.65691" lon="3.79878">
        <ele>1185.0163574219</ele>
        <time>2020-10-16T11:56:46.577Z</time>
      </trkpt>
      <trkpt lat="44.65682" lon="3.7987">
        <ele>1184.8798828125</ele>
        <time>2020-10-16T11:56:48.811Z</time>
      </trkpt>
      <trkpt lat="44.65673" lon="3.79865">
        <ele>1184.6903076172</ele>
        <time>2020-10-16T11:56:51.047Z</time>
      </trkpt>
      <trkpt lat="44.65656" lon="3.79855">
        <ele>1184.3297119141</ele>
        <time>2020-10-16T11:56:53.287Z</time>
      </trkpt>
      <trkpt lat="44.65649" lon="3.79851">
        <ele>1184.1999511719</ele>
        <time>2020-10-16T11:56:55.528Z</time>
      </trkpt>
      <trkpt lat="44.65644" lon="3.79847">
        <ele>1184.1887207031</ele>
        <time>2020-10-16T11:56:57.770Z</time>
      </trkpt>
      <trkpt lat="44.65637" lon="3.79842">
        <ele>1184.1159667969</ele>
        <time>2020-10-16T11:57:00.014Z</time>
      </trkpt>
      <trkpt lat="44.65623" lon="3.79839">
        <ele>1183.6934814453</ele>
        <time>2020-10-16T11:57:02.261Z</time>
      </trkpt>
      <trkpt lat="44.65611" lon="3.79837">
        <ele>1183.8607177734</ele>
        <time>2020-10-16T11:57:04.510Z</time>
      </trkpt>
      <trkpt lat="44.656" lon="3.79834">
        <ele>1184.2224121094</ele>
        <time>2020-10-16T11:57:06.761Z</time>
      </trkpt>
      <trkpt lat="44.6558" lon="3.79831">
        <ele>1184.0440673828</ele>
        <time>2020-10-16T11:57:09.016Z</time>
      </trkpt>
      <trkpt lat="44.65571" lon="3.79829">
        <ele>1184.0562744141</ele>
        <time>2020-10-16T11:57:11.273Z</time>
      </trkpt>
      <trkpt lat="44.65557" lon="3.79826">
        <ele>1183.9642333984</ele>
        <time>2020-10-16T11:57:13.533Z</time>
      </trkpt>
      <trkpt lat="44.65545" lon="3.79823">
        <ele>1183.8839111328</ele>
        <time>2020-10-16T11:57:15.795Z</time>
      </trkpt>
      <trkpt lat="44.65534" lon="3.79821">
        <ele>1184.0129394531</ele>
        <time>2020-10-16T11:57:18.060Z</time>
      </trkpt>
      <trkpt lat="44.65515" lon="3.79816">
        <ele>1185.7882080078</ele>
        <time>2020-10-16T11:57:20.329Z</time>
      </trkpt>
      <trkpt lat="44.65496" lon="3.79813">
        <ele>1187.4150390625</ele>
        <time>2020-10-16T11:57:22.601Z</time>
      </trkpt>
      <trkpt lat="44.65489" lon="3.79813">
        <ele>1187.5640869141</ele>
        <time>2020-10-16T11:57:24.875Z</time>
      </trkpt>
      <trkpt lat="44.65482" lon="3.79814">
        <ele>1187.5236816406</ele>
        <time>2020-10-16T11:57:27.150Z</time>
      </trkpt>
      <trkpt lat="44.65471" lon="3.79817">
        <ele>1187.2510986328</ele>
        <time>2020-10-16T11:57:29.427Z</time>
      </trkpt>
      <trkpt lat="44.65456" lon="3.79819">
        <ele>1187.0921630859</ele>
        <time>2020-10-16T11:57:31.708Z</time>
      </trkpt>
      <trkpt lat="44.65439" lon="3.79825">
        <ele>1186.8693847656</ele>
        <time>2020-10-16T11:57:33.992Z</time>
      </trkpt>
      <trkpt lat="44.6543" lon="3.7983">
        <ele>1186.4068603516</ele>
        <time>2020-10-16T11:57:36.278Z</time>
      </trkpt>
      <trkpt lat="44.65422" lon="3.79836">
        <ele>1185.5029296875</ele>
        <time>2020-10-16T11:57:38.566Z</time>
      </trkpt>
      <trkpt lat="44.65412" lon="3.79843">
        <ele>1184.1960449219</ele>
        <time>2020-10-16T11:57:40.856Z</time>
      </trkpt>
      <trkpt lat="44.65398" lon="3.79857">
        <ele>1181.6799316406</ele>
        <time>2020-10-16T11:57:43.149Z</time>
      </trkpt>
      <trkpt lat="44.65389" lon="3.79868">
        <ele>1180.1134033203</ele>
        <time>2020-10-16T11:57:45.445Z</time>
      </trkpt>
      <trkpt lat="44.65381" lon="3.79876">
        <ele>1179.0338134766</ele>
        <time>2020-10-16T11:57:47.743Z</time>
      </trkpt>
      <trkpt lat="44.65372" lon="3.79884">
        <ele>1177.9000244141</ele>
        <time>2020-10-16T11:57:50.043Z</time>
      </trkpt>
      <trkpt lat="44.65355" lon="3.79896">
        <ele>1176.2497558594</ele>
        <time>2020-10-16T11:57:52.347Z</time>
      </trkpt>
      <trkpt lat="44.65339" lon="3.79906">
        <ele>1174.9971923828</ele>
        <time>2020-10-16T11:57:54.654Z</time>
      </trkpt>
      <trkpt lat="44.65329" lon="3.79911">
        <ele>1174.6846923828</ele>
        <time>2020-10-16T11:57:56.963Z</time>
      </trkpt>
      <trkpt lat="44.65322" lon="3.79915">
        <ele>1174.4426269531</ele>
        <time>2020-10-16T11:57:59.274Z</time>
      </trkpt>
      <trkpt lat="44.65314" lon="3.79921">
        <ele>1174.0267333984</ele>
        <time>2020-10-16T11:58:01.587Z</time>
      </trkpt>
      <trkpt lat="44.65308" lon="3.79935">
        <ele>1172.6176757812</ele>
        <time>2020-10-16T11:58:03.902Z</time>
      </trkpt>
      <trkpt lat="44.65303" lon="3.79948">
        <ele>1171.1694335938</ele>
        <time>2020-10-16T11:58:06.219Z</time>
      </trkpt>
      <trkpt lat="44.65298" lon="3.79975">
        <ele>1169.1043701172</ele>
        <time>2020-10-16T11:58:08.540Z</time>
      </trkpt>
      <trkpt lat="44.6529" lon="3.7999">
        <ele>1168.3405761719</ele>
        <time>2020-10-16T11:58:10.864Z</time>
      </trkpt>
      <trkpt lat="44.65277" lon="3.80009">
        <ele>1168.3978271484</ele>
        <time>2020-10-16T11:58:13.191Z</time>
      </trkpt>
      <trkpt lat="44.65272" lon="3.80016">
        <ele>1168.5831298828</ele>
        <time>2020-10-16T11:58:15.520Z</time>
      </trkpt>
      <trkpt lat="44.65256" lon="3.80038">
        <ele>1167.3878173828</ele>
        <time>2020-10-16T11:58:17.853Z</time>
      </trkpt>
      <trkpt lat="44.65244" lon="3.80057">
        <ele>1165.7934570312</ele>
        <time>2020-10-16T11:58:20.190Z</time>
      </trkpt>
      <trkpt lat="44.65237" lon="3.80072">
        <ele>1165.1401367188</ele>
        <time>2020-10-16T11:58:22.529Z</time>
      </trkpt>
      <trkpt lat="44.65233" lon="3.80084">
        <ele>1164.6564941406</ele>
        <time>2020-10-16T11:58:24.870Z</time>
      </trkpt>
      <trkpt lat="44.65232" lon="3.80107">
        <ele>1162.1827392578</ele>
        <time>2020-10-16T11:58:27.215Z</time>
      </trkpt>
      <trkpt lat="44.65233" lon="3.80132">
        <ele>1160.2098388672</ele>
        <time>2020-10-16T11:58:29.563Z</time>
      </trkpt>
      <trkpt lat="44.65233" lon="3.80151">
        <ele>1158.4737548828</ele>
        <time>2020-10-16T11:58:31.914Z</time>
      </trkpt>
      <trkpt lat="44.65231" lon="3.80174">
        <ele>1157.0827636719</ele>
        <time>2020-10-16T11:58:34.268Z</time>
      </trkpt>
      <trkpt lat="44.65229" lon="3.80193">
        <ele>1155.9240722656</ele>
        <time>2020-10-16T11:58:36.625Z</time>
      </trkpt>
      <trkpt lat="44.65222" lon="3.80206">
        <ele>1156.1693115234</ele>
        <time>2020-10-16T11:58:38.984Z</time>
      </trkpt>
      <trkpt lat="44.65213" lon="3.80217">
        <ele>1155.2940673828</ele>
        <time>2020-10-16T11:58:41.346Z</time>
      </trkpt>
      <trkpt lat="44.65204" lon="3.80226">
        <ele>1154.705078125</ele>
        <time>2020-10-16T11:58:43.710Z</time>
      </trkpt>
      <trkpt lat="44.65192" lon="3.80236">
        <ele>1154.8381347656</ele>
        <time>2020-10-16T11:58:46.077Z</time>
      </trkpt>
      <trkpt lat="44.65182" lon="3.80241">
        <ele>1155.5638427734</ele>
        <time>2020-10-16T11:58:48.446Z</time>
      </trkpt>
      <trkpt lat="44.65169" lon="3.80246">
        <ele>1156.0769042969</ele>
        <time>2020-10-16T11:58:50.818Z</time>
      </trkpt>
      <trkpt lat="44.65157" lon="3.80252">
        <ele>1155.1148681641</ele>
        <time>2020-10-16T11:58:53.192Z</time>
      </trkpt>
      <trkpt lat="44.65144" lon="3.80259">
        <ele>1154.1529541016</ele>
        <time>2020-10-16T11:58:55.569Z</time>
      </trkpt>
      <trkpt lat="44.65125" lon="3.80271">
        <ele>1151.7222900391</ele>
        <time>2020-10-16T11:58:57.950Z</time>
      </trkpt>
      <trkpt lat="44.65112" lon="3.80279">
        <ele>1150.1401367188</ele>
        <time>2020-10-16T11:59:00.334Z</time>
      </trkpt>
      <trkpt lat="44.651" lon="3.80284">
        <ele>1148.9645996094</ele>
        <time>2020-10-16T11:59:02.720Z</time>
      </trkpt>
      <trkpt lat="44.65088" lon="3.80289">
        <ele>1147.7893066406</ele>
        <time>2020-10-16T11:59:05.109Z</time>
      </trkpt>
      <trkpt lat="44.6507" lon="3.80298">
        <ele>1145.4626464844</ele>
        <time>2020-10-16T11:59:07.502Z</time>
      </trkpt>
      <trkpt lat="44.65062" lon="3.80302">
        <ele>1144.5897216797</ele>
        <time>2020-10-16T11:59:09.897Z</time>
      </trkpt>
      <trkpt lat="44.6505" lon="3.80307">
        <ele>1143.5943603516</ele>
        <time>2020-10-16T11:59:12.294Z</time>
      </trkpt>
      <trkpt lat="44.65032" lon="3.80311">
        <ele>1142.4858398438</ele>
        <time>2020-10-16T11:59:14.695Z</time>
      </trkpt>
      <trkpt lat="44.65027" lon="3.80314">
        <ele>1141.3909912109</ele>
        <time>2020-10-16T11:59:17.097Z</time>
      </trkpt>
      <trkpt lat="44.6502" lon="3.80316">
        <ele>1140.3140869141</ele>
        <time>2020-10-16T11:59:19.500Z</time>
      </trkpt>
      <trkpt lat="44.65001" lon="3.80316">
        <ele>1139.1651611328</ele>
        <time>2020-10-16T11:59:21.907Z</time>
      </trkpt>
      <trkpt lat="44.64991" lon="3.80317">
        <ele>1138.4522705078</ele>
        <time>2020-10-16T11:59:24.316Z</time>
      </trkpt>
      <trkpt lat="44.64985" lon="3.80321">
        <ele>1136.9034423828</ele>
        <time>2020-10-16T11:59:26.726Z</time>
      </trkpt>
      <trkpt lat="44.64981" lon="3.80321">
        <ele>1136.8404541016</ele>
        <time>2020-10-16T11:59:29.137Z</time>
      </trkpt>
      <trkpt lat="44.64966" lon="3.80321">
        <ele>1136.4393310547</ele>
        <time>2020-10-16T11:59:31.551Z</time>
      </trkpt>
      <trkpt lat="44.6496" lon="3.80321">
        <ele>1136.1120605469</ele>
        <time>2020-10-16T11:59:33.966Z</time>
      </trkpt>
      <trkpt lat="44.64934" lon="3.80324">
        <ele>1130.4727783203</ele>
        <time>2020-10-16T11:59:36.386Z</time>
      </trkpt>
      <trkpt lat="44.64922" lon="3.80325">
        <ele>1127.0872802734</ele>
        <time>2020-10-16T11:59:38.809Z</time>
      </trkpt>
      <trkpt lat="44.64918" lon="3.80326">
        <ele>1126.6313476562</ele>
        <time>2020-10-16T11:59:41.233Z</time>
      </trkpt>
      <trkpt lat="44.64913" lon="3.80326">
        <ele>1126.1870117188</ele>
        <time>2020-10-16T11:59:43.658Z</time>
      </trkpt>
      <trkpt lat="44.64909" lon="3.80326">
        <ele>1125.7436523438</ele>
        <time>2020-10-16T11:59:46.084Z</time>
      </trkpt>
      <trkpt lat="44.64904" lon="3.80327">
        <ele>1125.3128662109</ele>
        <time>2020-10-16T11:59:48.511Z</time>
      </trkpt>
      <trkpt lat="44.64899" lon="3.80327">
        <ele>1124.8902587891</ele>
        <time>2020-10-16T11:59:50.938Z</time>
      </trkpt>
      <trkpt lat="44.64894" lon="3.80327">
        <ele>1124.4730224609</ele>
        <time>2020-10-16T11:59:53.366Z</time>
      </trkpt>
      <trkpt lat="44.64889" lon="3.80327">
        <ele>1124.0654296875</ele>
        <time>2020-10-16T11:59:55.795Z</time>
      </trkpt>
      <trkpt lat="44.64885" lon="3.80327">
        <ele>1123.6541748047</ele>
        <time>2020-10-16T11:59:58.225Z</time>
      </trkpt>
      <trkpt lat="44.64859" lon="3.8033">
        <ele>1121.3731689453</ele>
        <time>2020-10-16T12:00:00.660Z</time>
      </trkpt>
      <trkpt lat="44.64823" lon="3.80335">
        <ele>1120.1879882812</ele>
        <time>2020-10-16T12:00:03.103Z</time>
      </trkpt>
      <trkpt lat="44.6482" lon="3.80336">
        <ele>1120.1307373047</ele>
        <time>2020-10-16T12:00:05.546Z</time>
      </trkpt>
      <trkpt lat="44.64814" lon="3.80337">
        <ele>1120.0600585938</ele>
        <time>2020-10-16T12:00:07.991Z</time>
      </trkpt>
      <trkpt lat="44.64811" lon="3.80338">
        <ele>1120.044921875</ele>
        <time>2020-10-16T12:00:10.436Z</time>
      </trkpt>
      <trkpt lat="44.64807" lon="3.80337">
        <ele>1120.0728759766</ele>
        <time>2020-10-16T12:00:12.882Z</time>
      </trkpt>
      <trkpt lat="44.64803" lon="3.80336">
        <ele>1120.1469726562</ele>
        <time>2020-10-16T12:00:15.329Z</time>
      </trkpt>
      <trkpt lat="44.64799" lon="3.80334">
        <ele>1120.2545166016</ele>
        <time>2020-10-16T12:00:17.777Z</time>
      </trkpt>
      <trkpt lat="44.64795" lon="3.80332">
        <ele>1120.3648681641</ele>
        <time>2020-10-16T12:00:20.225Z</time>
      </trkpt>
      <trkpt lat="44.64792" lon="3.8033">
        <ele>1120.4836425781</ele>
        <time>2020-10-16T12:00:22.674Z</time>
      </trkpt>
      <trkpt lat="44.64788" lon="3.80328">
        <ele>1120.6146240234</ele>
        <time>2020-10-16T12:00:25.124Z</time>
      </trkpt>
      <trkpt lat="44.64785" lon="3.80326">
        <ele>1120.9674072266</ele>
        <time>2020-10-16T12:00:27.575Z</time>
      </trkpt>
      <trkpt lat="44.64781" lon="3.80325">
        <ele>1121.7479248047</ele>
        <time>2020-10-16T12:00:30.027Z</time>
      </trkpt>
      <trkpt lat="44.64777" lon="3.80324">
        <ele>1122.5581054688</ele>
        <time>2020-10-16T12:00:32.479Z</time>
      </trkpt>
      <trkpt lat="44.64773" lon="3.80323">
        <ele>1123.2684326172</ele>
        <time>2020-10-16T12:00:34.932Z</time>
      </trkpt>
      <trkpt lat="44.64768" lon="3.80323">
        <ele>1124.1971435547</ele>
        <time>2020-10-16T12:00:37.386Z</time>
      </trkpt>
      <trkpt lat="44.64763" lon="3.80323">
        <ele>1125.0754394531</ele>
        <time>2020-10-16T12:00:39.841Z</time>
      </trkpt>
      <trkpt lat="44.64751" lon="3.80325">
        <ele>1126.4871826172</ele>
        <time>2020-10-16T12:00:42.299Z</time>
      </trkpt>
      <trkpt lat="44.64735" lon="3.80328">
        <ele>1126.6411132812</ele>
        <time>2020-10-16T12:00:44.760Z</time>
      </trkpt>
      <trkpt lat="44.64727" lon="3.80328">
        <ele>1127.0043945312</ele>
        <time>2020-10-16T12:00:47.222Z</time>
      </trkpt>
      <trkpt lat="44.64723" lon="3.80328">
        <ele>1127.2751464844</ele>
        <time>2020-10-16T12:00:49.685Z</time>
      </trkpt>
      <trkpt lat="44.64717" lon="3.80327">
        <ele>1127.7080078125</ele>
        <time>2020-10-16T12:00:52.149Z</time>
      </trkpt>
      <trkpt lat="44.64713" lon="3.80327">
        <ele>1127.9787597656</ele>
        <time>2020-10-16T12:00:54.614Z</time>
      </trkpt>
      <trkpt lat="44.64709" lon="3.80326">
        <ele>1128.2044677734</ele>
        <time>2020-10-16T12:00:57.080Z</time>
      </trkpt>
      <trkpt lat="44.64704" lon="3.80327">
        <ele>1128.3243408203</ele>
        <time>2020-10-16T12:00:59.547Z</time>
      </trkpt>
      <trkpt lat="44.64696" lon="3.80329">
        <ele>1127.2926025391</ele>
        <time>2020-10-16T12:01:02.016Z</time>
      </trkpt>
      <trkpt lat="44.64687" lon="3.80333">
        <ele>1125.6893310547</ele>
        <time>2020-10-16T12:01:04.487Z</time>
      </trkpt>
      <trkpt lat="44.64681" lon="3.80335">
        <ele>1124.8983154297</ele>
        <time>2020-10-16T12:01:06.959Z</time>
      </trkpt>
      <trkpt lat="44.64677" lon="3.80337">
        <ele>1124.6917724609</ele>
        <time>2020-10-16T12:01:09.432Z</time>
      </trkpt>
      <trkpt lat="44.64673" lon="3.80337">
        <ele>1124.5902099609</ele>
        <time>2020-10-16T12:01:11.905Z</time>
      </trkpt>
      <trkpt lat="44.64669" lon="3.80337">
        <ele>1124.5301513672</ele>
        <time>2020-10-16T12:01:14.379Z</time>
      </trkpt>
      <trkpt lat="44.64664" lon="3.80337">
        <ele>1124.5126953125</ele>
        <time>2020-10-16T12:01:16.854Z</time>
      </trkpt>
      <trkpt lat="44.64659" lon="3.80336">
        <ele>1124.5736083984</ele>
        <time>2020-10-16T12:01:19.330Z</time>
      </trkpt>
      <trkpt lat="44.64651" lon="3.80333">
        <ele>1124.7344970703</ele>
        <time>2020-10-16T12:01:21.808Z</time>
      </trkpt>
      <trkpt lat="44.64645" lon="3.80331">
        <ele>1124.9526367188</ele>
        <time>2020-10-16T12:01:24.287Z</time>
      </trkpt>
      <trkpt lat="44.64638" lon="3.80327">
        <ele>1125.2719726562</ele>
        <time>2020-10-16T12:01:26.768Z</time>
      </trkpt>
      <trkpt lat="44.64631" lon="3.80324">
        <ele>1125.4636230469</ele>
        <time>2020-10-16T12:01:29.250Z</time>
      </trkpt>
      <trkpt lat="44.64626" lon="3.80324">
        <ele>1125.4801025391</ele>
        <time>2020-10-16T12:01:31.733Z</time>
      </trkpt>
      <trkpt lat="44.64624" lon="3.80324">
        <ele>1125.3939208984</ele>
        <time>2020-10-16T12:01:34.216Z</time>
      </trkpt>
      <trkpt lat="44.64621" lon="3.80326">
        <ele>1125.1846923828</ele>
        <time>2020-10-16T12:01:36.700Z</time>
      </trkpt>
      <trkpt lat="44.64617" lon="3.80328">
        <ele>1125.1170654297</ele>
        <time>2020-10-16T12:01:39.185Z</time>
      </trkpt>
      <trkpt lat="44.64614" lon="3.8033">
        <ele>1125.1339111328</ele>
        <time>2020-10-16T12:01:41.670Z</time>
      </trkpt>
      <trkpt lat="44.64611" lon="3.80333">
        <ele>1125.0981445312</ele>
        <time>2020-10-16T12:01:44.156Z</time>
      </trkpt>
      <trkpt lat="44.64608" lon="3.80336">
        <ele>1125.0151367188</ele>
        <time>2020-10-16T12:01:46.643Z</time>
      </trkpt>
      <trkpt lat="44.64605" lon="3.80339">
        <ele>1124.8553466797</ele>
        <time>2020-10-16T12:01:49.131Z</time>
      </trkpt>
      <trkpt lat="44.64603" lon="3.80344">
        <ele>1125.5191650391</ele>
        <time>2020-10-16T12:01:51.620Z</time>
      </trkpt>
      <trkpt lat="44.646" lon="3.80349">
        <ele>1126.5101318359</ele>
        <time>2020-10-16T12:01:54.110Z</time>
      </trkpt>
      <trkpt lat="44.64597" lon="3.80353">
        <ele>1127.4890136719</ele>
        <time>2020-10-16T12:01:56.600Z</time>
      </trkpt>
      <trkpt lat="44.64594" lon="3.80358">
        <ele>1128.5093994141</ele>
        <time>2020-10-16T12:01:59.091Z</time>
      </trkpt>
      <trkpt lat="44.6459" lon="3.80362">
        <ele>1129.6247558594</ele>
        <time>2020-10-16T12:02:01.583Z</time>
      </trkpt>
      <trkpt lat="44.64586" lon="3.80366">
        <ele>1130.8172607422</ele>
        <time>2020-10-16T12:02:04.076Z</time>
      </trkpt>
      <trkpt lat="44.64584" lon="3.80369">
        <ele>1131.4722900391</ele>
        <time>2020-10-16T12:02:06.570Z</time>
      </trkpt>
      <trkpt lat="44.64583" lon="3.80372">
        <ele>1131.9915771484</ele>
        <time>2020-10-16T12:02:09.064Z</time>
      </trkpt>
      <trkpt lat="44.6458" lon="3.80378">
        <ele>1133.0618896484</ele>
        <time>2020-10-16T12:02:11.559Z</time>
      </trkpt>
      <trkpt lat="44.64577" lon="3.80384">
        <ele>1133.9768066406</ele>
        <time>2020-10-16T12:02:14.055Z</time>
      </trkpt>
      <trkpt lat="44.64576" lon="3.80392">
        <ele>1134.6335449219</ele>
        <time>2020-10-16T12:02:16.552Z</time>
      </trkpt>
      <trkpt lat="44.64576" lon="3.80398">
        <ele>1134.7164306641</ele>
        <time>2020-10-16T12:02:19.050Z</time>
      </trkpt>
      <trkpt lat="44.64577" lon="3.80404">
        <ele>1134.3935546875</ele>
        <time>2020-10-16T12:02:21.549Z</time>
      </trkpt>
      <trkpt lat="44.64578" lon="3.80411">
        <ele>1133.845703125</ele>
        <time>2020-10-16T12:02:24.049Z</time>
      </trkpt>
      <trkpt lat="44.6458" lon="3.80416">
        <ele>1133.4346923828</ele>
        <time>2020-10-16T12:02:26.550Z</time>
      </trkpt>
      <trkpt lat="44.64581" lon="3.80423">
        <ele>1133.0357666016</ele>
        <time>2020-10-16T12:02:29.052Z</time>
      </trkpt>
      <trkpt lat="44.64581" lon="3.80427">
        <ele>1132.8731689453</ele>
        <time>2020-10-16T12:02:31.555Z</time>
      </trkpt>
      <trkpt lat="44.6458" lon="3.80434">
        <ele>1132.8140869141</ele>
        <time>2020-10-16T12:02:34.059Z</time>
      </trkpt>
      <trkpt lat="44.64577" lon="3.8044">
        <ele>1133.2655029297</ele>
        <time>2020-10-16T12:02:36.564Z</time>
      </trkpt>
      <trkpt lat="44.64574" lon="3.80446">
        <ele>1134.8927001953</ele>
        <time>2020-10-16T12:02:39.070Z</time>
      </trkpt>
      <trkpt lat="44.6457" lon="3.80452">
        <ele>1136.5250244141</ele>
        <time>2020-10-16T12:02:41.577Z</time>
      </trkpt>
      <trkpt lat="44.64566" lon="3.80458">
        <ele>1138.2008056641</ele>
        <time>2020-10-16T12:02:44.085Z</time>
      </trkpt>
      <trkpt lat="44.64562" lon="3.80464">
        <ele>1139.9083251953</ele>
        <time>2020-10-16T12:02:46.594Z</time>
      </trkpt>
      <trkpt lat="44.64557" lon="3.8047">
        <ele>1139.5266113281</ele>
        <time>2020-10-16T12:02:49.104Z</time>
      </trkpt>
      <trkpt lat="44.64553" lon="3.80476">
        <ele>1139.0095214844</ele>
        <time>2020-10-16T12:02:51.616Z</time>
      </trkpt>
      <trkpt lat="44.64548" lon="3.80482">
        <ele>1138.4969482422</ele>
        <time>2020-10-16T12:02:54.129Z</time>
      </trkpt>
      <trkpt lat="44.64544" lon="3.80489">
        <ele>1137.9659423828</ele>
        <time>2020-10-16T12:02:56.643Z</time>
      </trkpt>
      <trkpt lat="44.64539" lon="3.80495">
        <ele>1137.4357910156</ele>
        <time>2020-10-16T12:02:59.159Z</time>
      </trkpt>
      <trkpt lat="44.64534" lon="3.80502">
        <ele>1137.4251708984</ele>
        <time>2020-10-16T12:03:01.676Z</time>
      </trkpt>
      <trkpt lat="44.64525" lon="3.80516">
        <ele>1139.4479980469</ele>
        <time>2020-10-16T12:03:04.196Z</time>
      </trkpt>
      <trkpt lat="44.64521" lon="3.80523">
        <ele>1140.7288818359</ele>
        <time>2020-10-16T12:03:06.717Z</time>
      </trkpt>
      <trkpt lat="44.64516" lon="3.8053">
        <ele>1142.3734130859</ele>
        <time>2020-10-16T12:03:09.239Z</time>
      </trkpt>
      <trkpt lat="44.64512" lon="3.80538">
        <ele>1143.8754882812</ele>
        <time>2020-10-16T12:03:11.763Z</time>
      </trkpt>
      <trkpt lat="44.64509" lon="3.80545">
        <ele>1145.3581542969</ele>
        <time>2020-10-16T12:03:14.288Z</time>
      </trkpt>
      <trkpt lat="44.64506" lon="3.80553">
        <ele>1146.513671875</ele>
        <time>2020-10-16T12:03:16.814Z</time>
      </trkpt>
      <trkpt lat="44.64504" lon="3.80561">
        <ele>1147.4837646484</ele>
        <time>2020-10-16T12:03:19.342Z</time>
      </trkpt>
      <trkpt lat="44.64502" lon="3.8057">
        <ele>1148.1761474609</ele>
        <time>2020-10-16T12:03:21.871Z</time>
      </trkpt>
      <trkpt lat="44.64502" lon="3.80578">
        <ele>1148.5926513672</ele>
        <time>2020-10-16T12:03:24.401Z</time>
      </trkpt>
      <trkpt lat="44.64502" lon="3.80588">
        <ele>1148.7698974609</ele>
        <time>2020-10-16T12:03:26.932Z</time>
      </trkpt>
      <trkpt lat="44.64502" lon="3.80596">
        <ele>1148.9788818359</ele>
        <time>2020-10-16T12:03:29.464Z</time>
      </trkpt>
      <trkpt lat="44.64501" lon="3.80602">
        <ele>1149.4998779297</ele>
        <time>2020-10-16T12:03:31.997Z</time>
      </trkpt>
      <trkpt lat="44.64498" lon="3.80607">
        <ele>1150.6394042969</ele>
        <time>2020-10-16T12:03:34.531Z</time>
      </trkpt>
      <trkpt lat="44.64495" lon="3.80609">
        <ele>1151.6750488281</ele>
        <time>2020-10-16T12:03:37.066Z</time>
      </trkpt>
      <trkpt lat="44.64494" lon="3.8061">
        <ele>1152.3782958984</ele>
        <time>2020-10-16T12:03:39.601Z</time>
      </trkpt>
      <trkpt lat="44.64488" lon="3.80611">
        <ele>1154.1190185547</ele>
        <time>2020-10-16T12:03:42.137Z</time>
      </trkpt>
      <trkpt lat="44.64483" lon="3.8061">
        <ele>1155.4792480469</ele>
        <time>2020-10-16T12:03:44.674Z</time>
      </trkpt>
      <trkpt lat="44.64478" lon="3.80607">
        <ele>1156.6727294922</ele>
        <time>2020-10-16T12:03:47.213Z</time>
      </trkpt>
      <trkpt lat="44.64473" lon="3.80602">
        <ele>1157.8795166016</ele>
        <time>2020-10-16T12:03:49.753Z</time>
      </trkpt>
      <trkpt lat="44.64468" lon="3.80596">
        <ele>1158.9858398438</ele>
        <time>2020-10-16T12:03:52.294Z</time>
      </trkpt>
      <trkpt lat="44.64466" lon="3.80588">
        <ele>1159.6408691406</ele>
        <time>2020-10-16T12:03:54.836Z</time>
      </trkpt>
      <trkpt lat="44.64464" lon="3.80578">
        <ele>1159.8936767578</ele>
        <time>2020-10-16T12:03:57.380Z</time>
      </trkpt>
      <trkpt lat="44.64463" lon="3.80567">
        <ele>1159.8424072266</ele>
        <time>2020-10-16T12:03:59.925Z</time>
      </trkpt>
      <trkpt lat="44.64463" lon="3.80556">
        <ele>1159.5377197266</ele>
        <time>2020-10-16T12:04:02.472Z</time>
      </trkpt>
      <trkpt lat="44.64464" lon="3.80544">
        <ele>1159.0583496094</ele>
        <time>2020-10-16T12:04:05.021Z</time>
      </trkpt>
      <trkpt lat="44.64465" lon="3.80532">
        <ele>1158.4376220703</ele>
        <time>2020-10-16T12:04:07.571Z</time>
      </trkpt>
      <trkpt lat="44.64466" lon="3.80521">
        <ele>1157.6960449219</ele>
        <time>2020-10-16T12:04:10.123Z</time>
      </trkpt>
      <trkpt lat="44.64468" lon="3.80509">
        <ele>1157.3963623047</ele>
        <time>2020-10-16T12:04:12.677Z</time>
      </trkpt>
      <trkpt lat="44.64471" lon="3.80497">
        <ele>1156.9052734375</ele>
        <time>2020-10-16T12:04:15.232Z</time>
      </trkpt>
      <trkpt lat="44.64473" lon="3.80485">
        <ele>1156.5393066406</ele>
        <time>2020-10-16T12:04:17.789Z</time>
      </trkpt>
      <trkpt lat="44.64474" lon="3.80473">
        <ele>1156.3205566406</ele>
        <time>2020-10-16T12:04:20.348Z</time>
      </trkpt>
      <trkpt lat="44.64475" lon="3.80461">
        <ele>1156.3941650391</ele>
        <time>2020-10-16T12:04:22.909Z</time>
      </trkpt>
      <trkpt lat="44.64475" lon="3.80449">
        <ele>1157.0782470703</ele>
        <time>2020-10-16T12:04:25.471Z</time>
      </trkpt>
      <trkpt lat="44.64473" lon="3.80437">
        <ele>1158.1760253906</ele>
        <time>2020-10-16T12:04:28.035Z</time>
      </trkpt>
      <trkpt lat="44.64472" lon="3.80425">
        <ele>1159.2252197266</ele>
        <time>2020-10-16T12:04:30.601Z</time>
      </trkpt>
      <trkpt lat="44.64473" lon="3.80413">
        <ele>1159.7523193359</ele>
        <time>2020-10-16T12:04:33.168Z</time>
      </trkpt>
      <trkpt lat="44.64476" lon="3.80402">
        <ele>1159.7368164062</ele>
        <time>2020-10-16T12:04:35.737Z</time>
      </trkpt>
      <trkpt lat="44.6448" lon="3.80394">
        <ele>1159.1043701172</ele>
        <time>2020-10-16T12:04:38.308Z</time>
      </trkpt>
      <trkpt lat="44.64485" lon="3.80386">
        <ele>1158.2077636719</ele>
        <time>2020-10-16T12:04:40.880Z</time>
      </trkpt>
      <trkpt lat="44.6449" lon="3.80379">
        <ele>1156.8896484375</ele>
        <time>2020-10-16T12:04:43.454Z</time>
      </trkpt>
      <trkpt lat="44.64494" lon="3.80371">
        <ele>1155.8725585938</ele>
        <time>2020-10-16T12:04:46.029Z</time>
      </trkpt>
      <trkpt lat="44.64497" lon="3.80361">
        <ele>1155.4725341797</ele>
        <time>2020-10-16T12:04:48.605Z</time>
      </trkpt>
      <trkpt lat="44.64485" lon="3.80371">
        <ele>1158.9262695312</ele>
        <time>2020-10-16T12:04:51.184Z</time>
      </trkpt>
      <trkpt lat="44.64472" lon="3.80382">
        <ele>1162.3468017578</ele>
        <time>2020-10-16T12:04:53.766Z</time>
      </trkpt>
      <trkpt lat="44.64464" lon="3.80392">
        <ele>1164.0795898438</ele>
        <time>2020-10-16T12:04:56.350Z</time>
      </trkpt>
      <trkpt lat="44.64456" lon="3.80394">
        <ele>1166.1422119141</ele>
        <time>2020-10-16T12:04:58.936Z</time>
      </trkpt>
      <trkpt lat="44.64445" lon="3.80393">
        <ele>1168.6981201172</ele>
        <time>2020-10-16T12:05:01.524Z</time>
      </trkpt>
      <trkpt lat="44.64435" lon="3.80391">
        <ele>1171.0112304688</ele>
        <time>2020-10-16T12:05:04.114Z</time>
      </trkpt>
      <trkpt lat="44.64429" lon="3.80393">
        <ele>1172.0671386719</ele>
        <time>2020-10-16T12:05:06.705Z</time>
      </trkpt>
      <trkpt lat="44.64422" lon="3.80409">
        <ele>1172.4937744141</ele>
        <time>2020-10-16T12:05:09.299Z</time>
      </trkpt>
      <trkpt lat="44.64414" lon="3.80431">
        <ele>1173.8686523438</ele>
        <time>2020-10-16T12:05:11.897Z</time>
      </trkpt>
      <trkpt lat="44.64407" lon="3.80448">
        <ele>1175.3092041016</ele>
        <time>2020-10-16T12:05:14.497Z</time>
      </trkpt>
      <trkpt lat="44.64407" lon="3.80467">
        <ele>1174.8128662109</ele>
        <time>2020-10-16T12:05:17.100Z</time>
      </trkpt>
      <trkpt lat="44.64405" lon="3.80487">
        <ele>1176.0012207031</ele>
        <time>2020-10-16T12:05:19.706Z</time>
      </trkpt>
      <trkpt lat="44.64402" lon="3.80508">
        <ele>1178.6665039062</ele>
        <time>2020-10-16T12:05:22.315Z</time>
      </trkpt>
      <trkpt lat="44.644" lon="3.8052">
        <ele>1180.1151123047</ele>
        <time>2020-10-16T12:05:24.926Z</time>
      </trkpt>
      <trkpt lat="44.64397" lon="3.80527">
        <ele>1181.3885498047</ele>
        <time>2020-10-16T12:05:27.538Z</time>
      </trkpt>
      <trkpt lat="44.64394" lon="3.80525">
        <ele>1182.5729980469</ele>
        <time>2020-10-16T12:05:30.151Z</time>
      </trkpt>
      <trkpt lat="44.64391" lon="3.80512">
        <ele>1182.7081298828</ele>
        <time>2020-10-16T12:05:32.766Z</time>
      </trkpt>
      <trkpt lat="44.64385" lon="3.80497">
        <ele>1183.6136474609</ele>
        <time>2020-10-16T12:05:35.383Z</time>
      </trkpt>
      <trkpt lat="44.64379" lon="3.8049">
        <ele>1185.3471679688</ele>
        <time>2020-10-16T12:05:38.002Z</time>
      </trkpt>
      <trkpt lat="44.64372" lon="3.80484">
        <ele>1187.1142578125</ele>
        <time>2020-10-16T12:05:40.622Z</time>
      </trkpt>
      <trkpt lat="44.64363" lon="3.80481">
        <ele>1189.3492431641</ele>
        <time>2020-10-16T12:05:43.244Z</time>
      </trkpt>
      <trkpt lat="44.64355" lon="3.80473">
        <ele>1190.6411132812</ele>
        <time>2020-10-16T12:05:45.868Z</time>
      </trkpt>
      <trkpt lat="44.64349" lon="3.80466">
        <ele>1191.3277587891</ele>
        <time>2020-10-16T12:05:48.494Z</time>
      </trkpt>
      <trkpt lat="44.64347" lon="3.80458">
        <ele>1191.109375</ele>
        <time>2020-10-16T12:05:51.121Z</time>
      </trkpt>
      <trkpt lat="44.64349" lon="3.80447">
        <ele>1189.8286132812</ele>
        <time>2020-10-16T12:05:53.750Z</time>
      </trkpt>
      <trkpt lat="44.64354" lon="3.80432">
        <ele>1188.1907958984</ele>
        <time>2020-10-16T12:05:56.381Z</time>
      </trkpt>
      <trkpt lat="44.64356" lon="3.80421">
        <ele>1187.7243652344</ele>
        <time>2020-10-16T12:05:59.014Z</time>
      </trkpt>
      <trkpt lat="44.64357" lon="3.80408">
        <ele>1187.9375</ele>
        <time>2020-10-16T12:06:01.648Z</time>
      </trkpt>
      <trkpt lat="44.64356" lon="3.80397">
        <ele>1188.3010253906</ele>
        <time>2020-10-16T12:06:04.284Z</time>
      </trkpt>
      <trkpt lat="44.64353" lon="3.80386">
        <ele>1189.0989990234</ele>
        <time>2020-10-16T12:06:06.922Z</time>
      </trkpt>
      <trkpt lat="44.6435" lon="3.80376">
        <ele>1189.9803466797</ele>
        <time>2020-10-16T12:06:09.561Z</time>
      </trkpt>
      <trkpt lat="44.64345" lon="3.80369">
        <ele>1191.0134277344</ele>
        <time>2020-10-16T12:06:12.202Z</time>
      </trkpt>
      <trkpt lat="44.64342" lon="3.80363">
        <ele>1191.6966552734</ele>
        <time>2020-10-16T12:06:14.844Z</time>
      </trkpt>
      <trkpt lat="44.6434" lon="3.80354">
        <ele>1192.2723388672</ele>
        <time>2020-10-16T12:06:17.487Z</time>
      </trkpt>
      <trkpt lat="44.64338" lon="3.80347">
        <ele>1192.6922607422</ele>
        <time>2020-10-16T12:06:20.131Z</time>
      </trkpt>
      <trkpt lat="44.64335" lon="3.8034">
        <ele>1193.3214111328</ele>
        <time>2020-10-16T12:06:22.776Z</time>
      </trkpt>
      <trkpt lat="44.64332" lon="3.80335">
        <ele>1193.9809570312</ele>
        <time>2020-10-16T12:06:25.422Z</time>
      </trkpt>
      <trkpt lat="44.64328" lon="3.80328">
        <ele>1194.7406005859</ele>
        <time>2020-10-16T12:06:28.069Z</time>
      </trkpt>
      <trkpt lat="44.64327" lon="3.80322">
        <ele>1194.9549560547</ele>
        <time>2020-10-16T12:06:30.717Z</time>
      </trkpt>
      <trkpt lat="44.64328" lon="3.80311">
        <ele>1195.0682373047</ele>
        <time>2020-10-16T12:06:33.367Z</time>
      </trkpt>
      <trkpt lat="44.64329" lon="3.80297">
        <ele>1195.6304931641</ele>
        <time>2020-10-16T12:06:36.019Z</time>
      </trkpt>
      <trkpt lat="44.6433" lon="3.80281">
        <ele>1196.2019042969</ele>
        <time>2020-10-16T12:06:38.673Z</time>
      </trkpt>
      <trkpt lat="44.64328" lon="3.8027">
        <ele>1196.8830566406</ele>
        <time>2020-10-16T12:06:41.329Z</time>
      </trkpt>
      <trkpt lat="44.64323" lon="3.80261">
        <ele>1197.6883544922</ele>
        <time>2020-10-16T12:06:43.987Z</time>
      </trkpt>
      <trkpt lat="44.64313" lon="3.80256">
        <ele>1199.0557861328</ele>
        <time>2020-10-16T12:06:46.647Z</time>
      </trkpt>
      <trkpt lat="44.64298" lon="3.80254">
        <ele>1201.1964111328</ele>
        <time>2020-10-16T12:06:49.310Z</time>
      </trkpt>
      <trkpt lat="44.64281" lon="3.80253">
        <ele>1203.6046142578</ele>
        <time>2020-10-16T12:06:51.976Z</time>
      </trkpt>
      <trkpt lat="44.64272" lon="3.80257">
        <ele>1204.6434326172</ele>
        <time>2020-10-16T12:06:54.644Z</time>
      </trkpt>
      <trkpt lat="44.64267" lon="3.80265">
        <ele>1205.7202148438</ele>
        <time>2020-10-16T12:06:57.313Z</time>
      </trkpt>
      <trkpt lat="44.64262" lon="3.80282">
        <ele>1206.5334472656</ele>
        <time>2020-10-16T12:06:59.985Z</time>
      </trkpt>
      <trkpt lat="44.64259" lon="3.80304">
        <ele>1206.8420410156</ele>
        <time>2020-10-16T12:07:02.660Z</time>
      </trkpt>
      <trkpt lat="44.64258" lon="3.80327">
        <ele>1206.6903076172</ele>
        <time>2020-10-16T12:07:05.339Z</time>
      </trkpt>
      <trkpt lat="44.64256" lon="3.80349">
        <ele>1207.0137939453</ele>
        <time>2020-10-16T12:07:08.021Z</time>
      </trkpt>
      <trkpt lat="44.64256" lon="3.80376">
        <ele>1207.2940673828</ele>
        <time>2020-10-16T12:07:10.707Z</time>
      </trkpt>
      <trkpt lat="44.64258" lon="3.80405">
        <ele>1207.2857666016</ele>
        <time>2020-10-16T12:07:13.397Z</time>
      </trkpt>
      <trkpt lat="44.64261" lon="3.80425">
        <ele>1207.0396728516</ele>
        <time>2020-10-16T12:07:16.090Z</time>
      </trkpt>
      <trkpt lat="44.64262" lon="3.80439">
        <ele>1207.0240478516</ele>
        <time>2020-10-16T12:07:18.785Z</time>
      </trkpt>
      <trkpt lat="44.6426" lon="3.80451">
        <ele>1207.3883056641</ele>
        <time>2020-10-16T12:07:21.481Z</time>
      </trkpt>
      <trkpt lat="44.64251" lon="3.8046">
        <ele>1208.900390625</ele>
        <time>2020-10-16T12:07:24.180Z</time>
      </trkpt>
      <trkpt lat="44.64242" lon="3.80465">
        <ele>1210.3431396484</ele>
        <time>2020-10-16T12:07:26.881Z</time>
      </trkpt>
      <trkpt lat="44.64234" lon="3.80461">
        <ele>1211.7301025391</ele>
        <time>2020-10-16T12:07:29.583Z</time>
      </trkpt>
      <trkpt lat="44.64216" lon="3.80448">
        <ele>1214.6915283203</ele>
        <time>2020-10-16T12:07:32.289Z</time>
      </trkpt>
      <trkpt lat="44.64205" lon="3.80437">
        <ele>1216.5213623047</ele>
        <time>2020-10-16T12:07:34.998Z</time>
      </trkpt>
      <trkpt lat="44.64204" lon="3.80436">
        <ele>1216.7630615234</ele>
        <time>2020-10-16T12:07:37.707Z</time>
      </trkpt>
      <trkpt lat="44.64189" lon="3.80422">
        <ele>1218.8669433594</ele>
        <time>2020-10-16T12:07:40.420Z</time>
      </trkpt>
      <trkpt lat="44.64171" lon="3.80403">
        <ele>1221.4787597656</ele>
        <time>2020-10-16T12:07:43.137Z</time>
      </trkpt>
      <trkpt lat="44.64159" lon="3.80393">
        <ele>1223.2456054688</ele>
        <time>2020-10-16T12:07:45.857Z</time>
      </trkpt>
      <trkpt lat="44.64152" lon="3.80384">
        <ele>1224.2810058594</ele>
        <time>2020-10-16T12:07:48.579Z</time>
      </trkpt>
      <trkpt lat="44.64143" lon="3.80378">
        <ele>1225.4681396484</ele>
        <time>2020-10-16T12:07:51.303Z</time>
      </trkpt>
      <trkpt lat="44.64137" lon="3.80375">
        <ele>1226.4465332031</ele>
        <time>2020-10-16T12:07:54.028Z</time>
      </trkpt>
      <trkpt lat="44.64124" lon="3.80378">
        <ele>1228.5710449219</ele>
        <time>2020-10-16T12:07:56.756Z</time>
      </trkpt>
      <trkpt lat="44.64112" lon="3.80378">
        <ele>1229.8173828125</ele>
        <time>2020-10-16T12:07:59.486Z</time>
      </trkpt>
      <trkpt lat="44.64102" lon="3.80374">
        <ele>1230.4376220703</ele>
        <time>2020-10-16T12:08:02.218Z</time>
      </trkpt>
      <trkpt lat="44.64093" lon="3.80371">
        <ele>1231.0491943359</ele>
        <time>2020-10-16T12:08:04.952Z</time>
      </trkpt>
      <trkpt lat="44.64083" lon="3.80376">
        <ele>1231.8499755859</ele>
        <time>2020-10-16T12:08:07.688Z</time>
      </trkpt>
      <trkpt lat="44.64077" lon="3.8038">
        <ele>1232.2967529297</ele>
        <time>2020-10-16T12:08:10.426Z</time>
      </trkpt>
      <trkpt lat="44.64065" lon="3.80384">
        <ele>1233.2276611328</ele>
        <time>2020-10-16T12:08:13.166Z</time>
      </trkpt>
      <trkpt lat="44.64055" lon="3.80388">
        <ele>1234.5421142578</ele>
        <time>2020-10-16T12:08:15.908Z</time>
      </trkpt>
      <trkpt lat="44.64044" lon="3.80391">
        <ele>1235.8469238281</ele>
        <time>2020-10-16T12:08:18.653Z</time>
      </trkpt>
      <trkpt lat="44.64029" lon="3.80391">
        <ele>1236.6599121094</ele>
        <time>2020-10-16T12:08:21.401Z</time>
      </trkpt>
      <trkpt lat="44.64019" lon="3.80392">
        <ele>1236.5533447266</ele>
        <time>2020-10-16T12:08:24.151Z</time>
      </trkpt>
      <trkpt lat="44.64009" lon="3.80391">
        <ele>1236.4006347656</ele>
        <time>2020-10-16T12:08:26.902Z</time>
      </trkpt>
      <trkpt lat="44.63994" lon="3.80389">
        <ele>1236.1420898438</ele>
        <time>2020-10-16T12:08:29.656Z</time>
      </trkpt>
      <trkpt lat="44.63983" lon="3.80384">
        <ele>1235.7298583984</ele>
        <time>2020-10-16T12:08:32.413Z</time>
      </trkpt>
      <trkpt lat="44.63975" lon="3.80383">
        <ele>1235.8305664062</ele>
        <time>2020-10-16T12:08:35.172Z</time>
      </trkpt>
      <trkpt lat="44.63963" lon="3.80383">
        <ele>1236.2972412109</ele>
        <time>2020-10-16T12:08:37.933Z</time>
      </trkpt>
      <trkpt lat="44.63953" lon="3.80385">
        <ele>1236.8106689453</ele>
        <time>2020-10-16T12:08:40.696Z</time>
      </trkpt>
      <trkpt lat="44.63945" lon="3.80386">
        <ele>1237.1116943359</ele>
        <time>2020-10-16T12:08:43.461Z</time>
      </trkpt>
      <trkpt lat="44.63934" lon="3.80392">
        <ele>1237.9775390625</ele>
        <time>2020-10-16T12:08:46.228Z</time>
      </trkpt>
      <trkpt lat="44.63924" lon="3.80398">
        <ele>1238.8199462891</ele>
        <time>2020-10-16T12:08:48.997Z</time>
      </trkpt>
      <trkpt lat="44.63914" lon="3.804">
        <ele>1239.2811279297</ele>
        <time>2020-10-16T12:08:51.768Z</time>
      </trkpt>
      <trkpt lat="44.63904" lon="3.804">
        <ele>1239.8911132812</ele>
        <time>2020-10-16T12:08:54.541Z</time>
      </trkpt>
      <trkpt lat="44.63887" lon="3.80397">
        <ele>1240.4495849609</ele>
        <time>2020-10-16T12:08:57.317Z</time>
      </trkpt>
      <trkpt lat="44.63868" lon="3.80398">
        <ele>1241.6373291016</ele>
        <time>2020-10-16T12:09:00.097Z</time>
      </trkpt>
      <trkpt lat="44.63845" lon="3.80397">
        <ele>1242.6694335938</ele>
        <time>2020-10-16T12:09:02.882Z</time>
      </trkpt>
      <trkpt lat="44.63827" lon="3.80399">
        <ele>1243.9290771484</ele>
        <time>2020-10-16T12:09:05.671Z</time>
      </trkpt>
      <trkpt lat="44.63801" lon="3.80404">
        <ele>1246.5589599609</ele>
        <time>2020-10-16T12:09:08.465Z</time>
      </trkpt>
      <trkpt lat="44.63779" lon="3.80404">
        <ele>1247.6560058594</ele>
        <time>2020-10-16T12:09:11.263Z</time>
      </trkpt>
      <trkpt lat="44.63749" lon="3.80402">
        <ele>1247.6860351562</ele>
        <time>2020-10-16T12:09:14.067Z</time>
      </trkpt>
      <trkpt lat="44.63726" lon="3.80402">
        <ele>1246.8817138672</ele>
        <time>2020-10-16T12:09:16.876Z</time>
      </trkpt>
      <trkpt lat="44.63695" lon="3.80402">
        <ele>1245.9079589844</ele>
        <time>2020-10-16T12:09:19.691Z</time>
      </trkpt>
      <trkpt lat="44.63681" lon="3.80403">
        <ele>1245.6387939453</ele>
        <time>2020-10-16T12:09:22.509Z</time>
      </trkpt>
      <trkpt lat="44.63662" lon="3.80399">
        <ele>1244.7390136719</ele>
        <time>2020-10-16T12:09:25.331Z</time>
      </trkpt>
      <trkpt lat="44.63641" lon="3.80388">
        <ele>1242.1330566406</ele>
        <time>2020-10-16T12:09:28.157Z</time>
      </trkpt>
      <trkpt lat="44.63628" lon="3.80384">
        <ele>1240.6649169922</ele>
        <time>2020-10-16T12:09:30.986Z</time>
      </trkpt>
      <trkpt lat="44.63617" lon="3.80382">
        <ele>1239.4449462891</ele>
        <time>2020-10-16T12:09:33.817Z</time>
      </trkpt>
      <trkpt lat="44.63592" lon="3.80384">
        <ele>1237.4429931641</ele>
        <time>2020-10-16T12:09:36.653Z</time>
      </trkpt>
      <trkpt lat="44.63569" lon="3.80388">
        <ele>1235.6240234375</ele>
        <time>2020-10-16T12:09:39.494Z</time>
      </trkpt>
      <trkpt lat="44.63552" lon="3.80397">
        <ele>1235.6318359375</ele>
        <time>2020-10-16T12:09:42.338Z</time>
      </trkpt>
      <trkpt lat="44.63531" lon="3.80424">
        <ele>1237.0590820312</ele>
        <time>2020-10-16T12:09:45.188Z</time>
      </trkpt>
      <trkpt lat="44.63518" lon="3.80385">
        <ele>1234.5380859375</ele>
        <time>2020-10-16T12:09:48.044Z</time>
      </trkpt>
      <trkpt lat="44.63504" lon="3.80338">
        <ele>1230.3430175781</ele>
        <time>2020-10-16T12:09:50.907Z</time>
      </trkpt>
      <trkpt lat="44.63503" lon="3.80331">
        <ele>1229.3165283203</ele>
        <time>2020-10-16T12:09:53.771Z</time>
      </trkpt>
      <trkpt lat="44.63492" lon="3.80353">
        <ele>1232.6772460938</ele>
        <time>2020-10-16T12:09:56.639Z</time>
      </trkpt>
      <trkpt lat="44.63482" lon="3.80378">
        <ele>1234.9122314453</ele>
        <time>2020-10-16T12:09:59.511Z</time>
      </trkpt>
      <trkpt lat="44.63472" lon="3.80397">
        <ele>1237.0257568359</ele>
        <time>2020-10-16T12:10:02.387Z</time>
      </trkpt>
      <trkpt lat="44.63461" lon="3.80407">
        <ele>1238.5660400391</ele>
        <time>2020-10-16T12:10:05.265Z</time>
      </trkpt>
      <trkpt lat="44.63451" lon="3.80407">
        <ele>1239.0727539062</ele>
        <time>2020-10-16T12:10:08.145Z</time>
      </trkpt>
      <trkpt lat="44.63444" lon="3.80405">
        <ele>1239.3198242188</ele>
        <time>2020-10-16T12:10:11.027Z</time>
      </trkpt>
      <trkpt lat="44.63437" lon="3.80398">
        <ele>1239.1975097656</ele>
        <time>2020-10-16T12:10:13.910Z</time>
      </trkpt>
      <trkpt lat="44.63431" lon="3.80382">
        <ele>1238.1707763672</ele>
        <time>2020-10-16T12:10:16.796Z</time>
      </trkpt>
      <trkpt lat="44.63424" lon="3.80358">
        <ele>1236.333984375</ele>
        <time>2020-10-16T12:10:19.686Z</time>
      </trkpt>
      <trkpt lat="44.63414" lon="3.80333">
        <ele>1234.380859375</ele>
        <time>2020-10-16T12:10:22.580Z</time>
      </trkpt>
      <trkpt lat="44.6341" lon="3.80321">
        <ele>1233.4213867188</ele>
        <time>2020-10-16T12:10:25.476Z</time>
      </trkpt>
      <trkpt lat="44.63408" lon="3.80357">
        <ele>1237.4237060547</ele>
        <time>2020-10-16T12:10:28.377Z</time>
      </trkpt>
      <trkpt lat="44.63407" lon="3.80392">
        <ele>1240.78515625</ele>
        <time>2020-10-16T12:10:31.283Z</time>
      </trkpt>
      <trkpt lat="44.63412" lon="3.80421">
        <ele>1244.0549316406</ele>
        <time>2020-10-16T12:10:34.193Z</time>
      </trkpt>
      <trkpt lat="44.63422" lon="3.80449">
        <ele>1245.501953125</ele>
        <time>2020-10-16T12:10:37.107Z</time>
      </trkpt>
      <trkpt lat="44.63443" lon="3.80477">
        <ele>1243.9475097656</ele>
        <time>2020-10-16T12:10:40.027Z</time>
      </trkpt>
      <trkpt lat="44.63455" lon="3.80483">
        <ele>1242.9315185547</ele>
        <time>2020-10-16T12:10:42.950Z</time>
      </trkpt>
      <trkpt lat="44.63468" lon="3.8048">
        <ele>1242.2606201172</ele>
        <time>2020-10-16T12:10:45.875Z</time>
      </trkpt>
      <trkpt lat="44.63479" lon="3.80472">
        <ele>1241.5092773438</ele>
        <time>2020-10-16T12:10:48.803Z</time>
      </trkpt>
      <trkpt lat="44.6349" lon="3.80461">
        <ele>1240.7058105469</ele>
        <time>2020-10-16T12:10:51.734Z</time>
      </trkpt>
      <trkpt lat="44.63504" lon="3.80444">
        <ele>1239.6584472656</ele>
        <time>2020-10-16T12:10:54.668Z</time>
      </trkpt>
      <trkpt lat="44.63514" lon="3.80435">
        <ele>1238.6763916016</ele>
        <time>2020-10-16T12:10:57.605Z</time>
      </trkpt>
      <trkpt lat="44.63523" lon="3.80429">
        <ele>1237.7624511719</ele>
        <time>2020-10-16T12:11:00.544Z</time>
      </trkpt>
      <trkpt lat="44.63531" lon="3.80432">
        <ele>1237.6662597656</ele>
        <time>2020-10-16T12:11:03.484Z</time>
      </trkpt>
      <trkpt lat="44.63537" lon="3.80444">
        <ele>1238.2171630859</ele>
        <time>2020-10-16T12:11:06.426Z</time>
      </trkpt>
      <trkpt lat="44.63543" lon="3.80463">
        <ele>1239.0953369141</ele>
        <time>2020-10-16T12:11:09.371Z</time>
      </trkpt>
      <trkpt lat="44.63551" lon="3.80493">
        <ele>1240.4108886719</ele>
        <time>2020-10-16T12:11:12.321Z</time>
      </trkpt>
      <trkpt lat="44.63559" lon="3.80518">
        <ele>1241.5784912109</ele>
        <time>2020-10-16T12:11:15.275Z</time>
      </trkpt>
      <trkpt lat="44.63565" lon="3.8054">
        <ele>1243.1478271484</ele>
        <time>2020-10-16T12:11:18.232Z</time>
      </trkpt>
      <trkpt lat="44.63571" lon="3.80565">
        <ele>1245.3287353516</ele>
        <time>2020-10-16T12:11:21.193Z</time>
      </trkpt>
      <trkpt lat="44.63581" lon="3.80598">
        <ele>1248.5521240234</ele>
        <time>2020-10-16T12:11:24.159Z</time>
      </trkpt>
      <trkpt lat="44.6359" lon="3.80633">
        <ele>1250.2749023438</ele>
        <time>2020-10-16T12:11:27.130Z</time>
      </trkpt>
      <trkpt lat="44.63594" lon="3.80643">
        <ele>1250.6840820312</ele>
        <time>2020-10-16T12:11:30.103Z</time>
      </trkpt>
      <trkpt lat="44.63574" lon="3.80652">
        <ele>1250.5655517578</ele>
        <time>2020-10-16T12:11:33.080Z</time>
      </trkpt>
      <trkpt lat="44.63552" lon="3.80666">
        <ele>1252.4468994141</ele>
        <time>2020-10-16T12:11:36.062Z</time>
      </trkpt>
      <trkpt lat="44.63532" lon="3.8068">
        <ele>1254.3262939453</ele>
        <time>2020-10-16T12:11:39.048Z</time>
      </trkpt>
      <trkpt lat="44.63515" lon="3.80696">
        <ele>1257.1032714844</ele>
        <time>2020-10-16T12:11:42.038Z</time>
      </trkpt>
      <trkpt lat="44.63506" lon="3.80705">
        <ele>1258.7697753906</ele>
        <time>2020-10-16T12:11:45.031Z</time>
      </trkpt>
      <trkpt lat="44.63495" lon="3.80717">
        <ele>1260.8361816406</ele>
        <time>2020-10-16T12:11:48.026Z</time>
      </trkpt>
      <trkpt lat="44.63484" lon="3.80724">
        <ele>1262.4020996094</ele>
        <time>2020-10-16T12:11:51.024Z</time>
      </trkpt>
      <trkpt lat="44.63468" lon="3.80729">
        <ele>1263.9664306641</ele>
        <time>2020-10-16T12:11:54.025Z</time>
      </trkpt>
      <trkpt lat="44.63454" lon="3.80733">
        <ele>1265.1724853516</ele>
        <time>2020-10-16T12:11:57.029Z</time>
      </trkpt>
      <trkpt lat="44.63442" lon="3.80738">
        <ele>1266.5147705078</ele>
        <time>2020-10-16T12:12:00.035Z</time>
      </trkpt>
      <trkpt lat="44.63434" lon="3.80746">
        <ele>1268.0205078125</ele>
        <time>2020-10-16T12:12:03.044Z</time>
      </trkpt>
      <trkpt lat="44.63426" lon="3.80758">
        <ele>1269.7242431641</ele>
        <time>2020-10-16T12:12:06.055Z</time>
      </trkpt>
      <trkpt lat="44.63413" lon="3.80762">
        <ele>1270.7998046875</ele>
        <time>2020-10-16T12:12:09.068Z</time>
      </trkpt>
      <trkpt lat="44.63399" lon="3.80765">
        <ele>1271.8369140625</ele>
        <time>2020-10-16T12:12:12.084Z</time>
      </trkpt>
      <trkpt lat="44.63386" lon="3.80767">
        <ele>1272.6127929688</ele>
        <time>2020-10-16T12:12:15.103Z</time>
      </trkpt>
      <trkpt lat="44.63364" lon="3.80774">
        <ele>1274.3961181641</ele>
        <time>2020-10-16T12:12:18.127Z</time>
      </trkpt>
      <trkpt lat="44.63344" lon="3.80777">
        <ele>1275.5776367188</ele>
        <time>2020-10-16T12:12:21.155Z</time>
      </trkpt>
      <trkpt lat="44.63325" lon="3.80779">
        <ele>1276.5897216797</ele>
        <time>2020-10-16T12:12:24.186Z</time>
      </trkpt>
      <trkpt lat="44.63298" lon="3.80779">
        <ele>1277.9093017578</ele>
        <time>2020-10-16T12:12:27.223Z</time>
      </trkpt>
      <trkpt lat="44.63274" lon="3.80775">
        <ele>1278.4760742188</ele>
        <time>2020-10-16T12:12:30.265Z</time>
      </trkpt>
      <trkpt lat="44.63261" lon="3.80771">
        <ele>1278.8676757812</ele>
        <time>2020-10-16T12:12:33.309Z</time>
      </trkpt>
      <trkpt lat="44.63247" lon="3.80768">
        <ele>1279.1527099609</ele>
        <time>2020-10-16T12:12:36.356Z</time>
      </trkpt>
      <trkpt lat="44.63237" lon="3.80759">
        <ele>1279.0037841797</ele>
        <time>2020-10-16T12:12:39.405Z</time>
      </trkpt>
      <trkpt lat="44.63222" lon="3.80749">
        <ele>1278.8948974609</ele>
        <time>2020-10-16T12:12:42.458Z</time>
      </trkpt>
      <trkpt lat="44.6321" lon="3.80745">
        <ele>1279.1184082031</ele>
        <time>2020-10-16T12:12:45.513Z</time>
      </trkpt>
      <trkpt lat="44.63197" lon="3.80746">
        <ele>1279.5665283203</ele>
        <time>2020-10-16T12:12:48.571Z</time>
      </trkpt>
      <trkpt lat="44.63179" lon="3.8075">
        <ele>1280.1999511719</ele>
        <time>2020-10-16T12:12:51.632Z</time>
      </trkpt>
      <trkpt lat="44.63168" lon="3.80749">
        <ele>1280.0477294922</ele>
        <time>2020-10-16T12:12:54.696Z</time>
      </trkpt>
      <trkpt lat="44.63153" lon="3.80746">
        <ele>1279.7951660156</ele>
        <time>2020-10-16T12:12:57.763Z</time>
      </trkpt>
      <trkpt lat="44.63133" lon="3.80742">
        <ele>1279.4611816406</ele>
        <time>2020-10-16T12:13:00.834Z</time>
      </trkpt>
      <trkpt lat="44.63118" lon="3.80739">
        <ele>1279.2302246094</ele>
        <time>2020-10-16T12:13:03.908Z</time>
      </trkpt>
      <trkpt lat="44.63108" lon="3.80735">
        <ele>1279.3640136719</ele>
        <time>2020-10-16T12:13:06.984Z</time>
      </trkpt>
      <trkpt lat="44.63093" lon="3.80724">
        <ele>1279.4884033203</ele>
        <time>2020-10-16T12:13:10.063Z</time>
      </trkpt>
      <trkpt lat="44.63082" lon="3.80718">
        <ele>1279.5899658203</ele>
        <time>2020-10-16T12:13:13.144Z</time>
      </trkpt>
      <trkpt lat="44.63066" lon="3.80711">
        <ele>1279.7888183594</ele>
        <time>2020-10-16T12:13:16.229Z</time>
      </trkpt>
      <trkpt lat="44.63051" lon="3.80705">
        <ele>1280</ele>
        <time>2020-10-16T12:13:19.317Z</time>
      </trkpt>
      <trkpt lat="44.63035" lon="3.80699">
        <ele>1280.0035400391</ele>
        <time>2020-10-16T12:13:22.408Z</time>
      </trkpt>
      <trkpt lat="44.63032" lon="3.80698">
        <ele>1280.0372314453</ele>
        <time>2020-10-16T12:13:25.500Z</time>
      </trkpt>
      <trkpt lat="44.63023" lon="3.80694">
        <ele>1280.1470947266</ele>
        <time>2020-10-16T12:13:28.594Z</time>
      </trkpt>
      <trkpt lat="44.6301" lon="3.80686">
        <ele>1280.2381591797</ele>
        <time>2020-10-16T12:13:31.691Z</time>
      </trkpt>
      <trkpt lat="44.62998" lon="3.80677">
        <ele>1280.1877441406</ele>
        <time>2020-10-16T12:13:34.790Z</time>
      </trkpt>
      <trkpt lat="44.62988" lon="3.80668">
        <ele>1280.0782470703</ele>
        <time>2020-10-16T12:13:37.892Z</time>
      </trkpt>
      <trkpt lat="44.62979" lon="3.80661">
        <ele>1280.0089111328</ele>
        <time>2020-10-16T12:13:40.996Z</time>
      </trkpt>
      <trkpt lat="44.62961" lon="3.80645">
        <ele>1279.853515625</ele>
        <time>2020-10-16T12:13:44.104Z</time>
      </trkpt>
      <trkpt lat="44.62953" lon="3.80638">
        <ele>1279.7673339844</ele>
        <time>2020-10-16T12:13:47.214Z</time>
      </trkpt>
      <trkpt lat="44.62942" lon="3.80627">
        <ele>1279.4006347656</ele>
        <time>2020-10-16T12:13:50.327Z</time>
      </trkpt>
      <trkpt lat="44.6293" lon="3.80615">
        <ele>1278.9647216797</ele>
        <time>2020-10-16T12:13:53.443Z</time>
      </trkpt>
      <trkpt lat="44.62915" lon="3.806">
        <ele>1278.7287597656</ele>
        <time>2020-10-16T12:13:56.562Z</time>
      </trkpt>
      <trkpt lat="44.62906" lon="3.8059">
        <ele>1279.0133056641</ele>
        <time>2020-10-16T12:13:59.684Z</time>
      </trkpt>
      <trkpt lat="44.62893" lon="3.8057">
        <ele>1279.537109375</ele>
        <time>2020-10-16T12:14:02.810Z</time>
      </trkpt>
      <trkpt lat="44.62882" lon="3.80556">
        <ele>1279.9278564453</ele>
        <time>2020-10-16T12:14:05.939Z</time>
      </trkpt>
      <trkpt lat="44.62869" lon="3.80539">
        <ele>1280.38671875</ele>
        <time>2020-10-16T12:14:09.071Z</time>
      </trkpt>
      <trkpt lat="44.6286" lon="3.80524">
        <ele>1280.7202148438</ele>
        <time>2020-10-16T12:14:12.206Z</time>
      </trkpt>
      <trkpt lat="44.62852" lon="3.80518">
        <ele>1280.8295898438</ele>
        <time>2020-10-16T12:14:15.343Z</time>
      </trkpt>
      <trkpt lat="44.62842" lon="3.80503">
        <ele>1281.4948730469</ele>
        <time>2020-10-16T12:14:18.483Z</time>
      </trkpt>
      <trkpt lat="44.62835" lon="3.80492">
        <ele>1281.9578857422</ele>
        <time>2020-10-16T12:14:21.625Z</time>
      </trkpt>
      <trkpt lat="44.6283" lon="3.80481">
        <ele>1282.4183349609</ele>
        <time>2020-10-16T12:14:24.769Z</time>
      </trkpt>
      <trkpt lat="44.62816" lon="3.80463">
        <ele>1282.9750976562</ele>
        <time>2020-10-16T12:14:27.916Z</time>
      </trkpt>
      <trkpt lat="44.62806" lon="3.80451">
        <ele>1283.3579101562</ele>
        <time>2020-10-16T12:14:31.066Z</time>
      </trkpt>
      <trkpt lat="44.62793" lon="3.80437">
        <ele>1283.7913818359</ele>
        <time>2020-10-16T12:14:34.219Z</time>
      </trkpt>
      <trkpt lat="44.62781" lon="3.80428">
        <ele>1283.8450927734</ele>
        <time>2020-10-16T12:14:37.375Z</time>
      </trkpt>
      <trkpt lat="44.6277" lon="3.80418">
        <ele>1283.8952636719</ele>
        <time>2020-10-16T12:14:40.534Z</time>
      </trkpt>
      <trkpt lat="44.62758" lon="3.80407">
        <ele>1283.9167480469</ele>
        <time>2020-10-16T12:14:43.696Z</time>
      </trkpt>
      <trkpt lat="44.62744" lon="3.80393">
        <ele>1283.9129638672</ele>
        <time>2020-10-16T12:14:46.861Z</time>
      </trkpt>
      <trkpt lat="44.62727" lon="3.80378">
        <ele>1283.9677734375</ele>
        <time>2020-10-16T12:14:50.030Z</time>
      </trkpt>
      <trkpt lat="44.62716" lon="3.80373">
        <ele>1283.8526611328</ele>
        <time>2020-10-16T12:14:53.201Z</time>
      </trkpt>
      <trkpt lat="44.62701" lon="3.80371">
        <ele>1283.3848876953</ele>
        <time>2020-10-16T12:14:56.375Z</time>
      </trkpt>
      <trkpt lat="44.62689" lon="3.80374">
        <ele>1282.6811523438</ele>
        <time>2020-10-16T12:14:59.552Z</time>
      </trkpt>
      <trkpt lat="44.62676" lon="3.80376">
        <ele>1281.9780273438</ele>
        <time>2020-10-16T12:15:02.731Z</time>
      </trkpt>
      <trkpt lat="44.62667" lon="3.80374">
        <ele>1281.6207275391</ele>
        <time>2020-10-16T12:15:05.912Z</time>
      </trkpt>
      <trkpt lat="44.62654" lon="3.80371">
        <ele>1281.1020507812</ele>
        <time>2020-10-16T12:15:09.096Z</time>
      </trkpt>
      <trkpt lat="44.62639" lon="3.80366">
        <ele>1280.5980224609</ele>
        <time>2020-10-16T12:15:12.283Z</time>
      </trkpt>
      <trkpt lat="44.62621" lon="3.8036">
        <ele>1279.9240722656</ele>
        <time>2020-10-16T12:15:15.474Z</time>
      </trkpt>
      <trkpt lat="44.62607" lon="3.80356">
        <ele>1279.8386230469</ele>
        <time>2020-10-16T12:15:18.667Z</time>
      </trkpt>
      <trkpt lat="44.62593" lon="3.80351">
        <ele>1279.6433105469</ele>
        <time>2020-10-16T12:15:21.863Z</time>
      </trkpt>
      <trkpt lat="44.62582" lon="3.80346">
        <ele>1279.4490966797</ele>
        <time>2020-10-16T12:15:25.062Z</time>
      </trkpt>
      <trkpt lat="44.62571" lon="3.80344">
        <ele>1279.2978515625</ele>
        <time>2020-10-16T12:15:28.263Z</time>
      </trkpt>
      <trkpt lat="44.6256" lon="3.80336">
        <ele>1279.0555419922</ele>
        <time>2020-10-16T12:15:31.466Z</time>
      </trkpt>
      <trkpt lat="44.62547" lon="3.80327">
        <ele>1278.7947998047</ele>
        <time>2020-10-16T12:15:34.672Z</time>
      </trkpt>
      <trkpt lat="44.62533" lon="3.80318">
        <ele>1278.7083740234</ele>
        <time>2020-10-16T12:15:37.881Z</time>
      </trkpt>
      <trkpt lat="44.6252" lon="3.80312">
        <ele>1279.6098632812</ele>
        <time>2020-10-16T12:15:41.093Z</time>
      </trkpt>
      <trkpt lat="44.62508" lon="3.80309">
        <ele>1280.4384765625</ele>
        <time>2020-10-16T12:15:44.308Z</time>
      </trkpt>
      <trkpt lat="44.62493" lon="3.80311">
        <ele>1281.529296875</ele>
        <time>2020-10-16T12:15:47.526Z</time>
      </trkpt>
      <trkpt lat="44.62482" lon="3.80314">
        <ele>1281.9119873047</ele>
        <time>2020-10-16T12:15:50.746Z</time>
      </trkpt>
      <trkpt lat="44.62473" lon="3.80315">
        <ele>1282.2126464844</ele>
        <time>2020-10-16T12:15:53.968Z</time>
      </trkpt>
      <trkpt lat="44.62464" lon="3.8031">
        <ele>1282.6387939453</ele>
        <time>2020-10-16T12:15:57.191Z</time>
      </trkpt>
      <trkpt lat="44.62452" lon="3.80302">
        <ele>1283.2781982422</ele>
        <time>2020-10-16T12:16:00.417Z</time>
      </trkpt>
      <trkpt lat="44.62442" lon="3.80295">
        <ele>1284.6519775391</ele>
        <time>2020-10-16T12:16:03.645Z</time>
      </trkpt>
      <trkpt lat="44.62436" lon="3.80288">
        <ele>1285.5354003906</ele>
        <time>2020-10-16T12:16:06.875Z</time>
      </trkpt>
      <trkpt lat="44.62421" lon="3.80279">
        <ele>1287.5609130859</ele>
        <time>2020-10-16T12:16:10.108Z</time>
      </trkpt>
      <trkpt lat="44.62402" lon="3.80267">
        <ele>1290.0297851562</ele>
        <time>2020-10-16T12:16:13.345Z</time>
      </trkpt>
      <trkpt lat="44.62393" lon="3.80263">
        <ele>1291.2419433594</ele>
        <time>2020-10-16T12:16:16.584Z</time>
      </trkpt>
      <trkpt lat="44.62385" lon="3.80258">
        <ele>1292.2507324219</ele>
        <time>2020-10-16T12:16:19.825Z</time>
      </trkpt>
      <trkpt lat="44.62378" lon="3.80251">
        <ele>1293.1491699219</ele>
        <time>2020-10-16T12:16:23.068Z</time>
      </trkpt>
      <trkpt lat="44.62372" lon="3.80241">
        <ele>1293.9487304688</ele>
        <time>2020-10-16T12:16:26.313Z</time>
      </trkpt>
      <trkpt lat="44.62379" lon="3.80227">
        <ele>1293.3643798828</ele>
        <time>2020-10-16T12:16:29.560Z</time>
      </trkpt>
      <trkpt lat="44.62381" lon="3.80205">
        <ele>1293.314453125</ele>
        <time>2020-10-16T12:16:32.810Z</time>
      </trkpt>
      <trkpt lat="44.62381" lon="3.80189">
        <ele>1293.3082275391</ele>
        <time>2020-10-16T12:16:36.062Z</time>
      </trkpt>
      <trkpt lat="44.62368" lon="3.80174">
        <ele>1294.8829345703</ele>
        <time>2020-10-16T12:16:39.318Z</time>
      </trkpt>
      <trkpt lat="44.62355" lon="3.80163">
        <ele>1295.9819335938</ele>
        <time>2020-10-16T12:16:42.577Z</time>
      </trkpt>
      <trkpt lat="44.62342" lon="3.80154">
        <ele>1297.1684570312</ele>
        <time>2020-10-16T12:16:45.839Z</time>
      </trkpt>
      <trkpt lat="44.62333" lon="3.80141">
        <ele>1297.8248291016</ele>
        <time>2020-10-16T12:16:49.103Z</time>
      </trkpt>
      <trkpt lat="44.62322" lon="3.80119">
        <ele>1298.6408691406</ele>
        <time>2020-10-16T12:16:52.371Z</time>
      </trkpt>
      <trkpt lat="44.62319" lon="3.80099">
        <ele>1298.3181152344</ele>
        <time>2020-10-16T12:16:55.642Z</time>
      </trkpt>
      <trkpt lat="44.6232" lon="3.80072">
        <ele>1295.9627685547</ele>
        <time>2020-10-16T12:16:58.917Z</time>
      </trkpt>
      <trkpt lat="44.62316" lon="3.80052">
        <ele>1294.6141357422</ele>
        <time>2020-10-16T12:17:02.195Z</time>
      </trkpt>
      <trkpt lat="44.62304" lon="3.8003">
        <ele>1294.2717285156</ele>
        <time>2020-10-16T12:17:05.477Z</time>
      </trkpt>
      <trkpt lat="44.62288" lon="3.80004">
        <ele>1291.8127441406</ele>
        <time>2020-10-16T12:17:08.764Z</time>
      </trkpt>
      <trkpt lat="44.62276" lon="3.79982">
        <ele>1290.2722167969</ele>
        <time>2020-10-16T12:17:12.055Z</time>
      </trkpt>
      <trkpt lat="44.62268" lon="3.79964">
        <ele>1288.8050537109</ele>
        <time>2020-10-16T12:17:15.349Z</time>
      </trkpt>
      <trkpt lat="44.62265" lon="3.79957">
        <ele>1288.3698730469</ele>
        <time>2020-10-16T12:17:18.644Z</time>
      </trkpt>
      <trkpt lat="44.62254" lon="3.79947">
        <ele>1288.919921875</ele>
        <time>2020-10-16T12:17:21.941Z</time>
      </trkpt>
      <trkpt lat="44.62253" lon="3.79946">
        <ele>1288.9405517578</ele>
        <time>2020-10-16T12:17:25.239Z</time>
      </trkpt>
      <trkpt lat="44.62247" lon="3.79939">
        <ele>1289.0760498047</ele>
        <time>2020-10-16T12:17:28.538Z</time>
      </trkpt>
      <trkpt lat="44.62234" lon="3.79919">
        <ele>1289.216796875</ele>
        <time>2020-10-16T12:17:31.841Z</time>
      </trkpt>
      <trkpt lat="44.62225" lon="3.79898">
        <ele>1288.4486083984</ele>
        <time>2020-10-16T12:17:35.148Z</time>
      </trkpt>
      <trkpt lat="44.62217" lon="3.79874">
        <ele>1287.2666015625</ele>
        <time>2020-10-16T12:17:38.458Z</time>
      </trkpt>
      <trkpt lat="44.62205" lon="3.79858">
        <ele>1287.779296875</ele>
        <time>2020-10-16T12:17:41.772Z</time>
      </trkpt>
      <trkpt lat="44.62193" lon="3.79833">
        <ele>1285.8640136719</ele>
        <time>2020-10-16T12:17:45.090Z</time>
      </trkpt>
      <trkpt lat="44.62173" lon="3.79784">
        <ele>1281.2493896484</ele>
        <time>2020-10-16T12:17:48.416Z</time>
      </trkpt>
      <trkpt lat="44.62154" lon="3.79746">
        <ele>1274.0150146484</ele>
        <time>2020-10-16T12:17:51.749Z</time>
      </trkpt>
      <trkpt lat="44.62147" lon="3.7973">
        <ele>1270.0256347656</ele>
        <time>2020-10-16T12:17:55.084Z</time>
      </trkpt>
      <trkpt lat="44.62139" lon="3.79703">
        <ele>1262.8208007812</ele>
        <time>2020-10-16T12:17:58.424Z</time>
      </trkpt>
      <trkpt lat="44.62125" lon="3.79678">
        <ele>1257.4368896484</ele>
        <time>2020-10-16T12:18:01.768Z</time>
      </trkpt>
      <trkpt lat="44.62103" lon="3.79652">
        <ele>1253.5035400391</ele>
        <time>2020-10-16T12:18:05.118Z</time>
      </trkpt>
      <trkpt lat="44.62095" lon="3.79641">
        <ele>1251.7171630859</ele>
        <time>2020-10-16T12:18:08.470Z</time>
      </trkpt>
      <trkpt lat="44.62085" lon="3.79638">
        <ele>1252.3182373047</ele>
        <time>2020-10-16T12:18:11.824Z</time>
      </trkpt>
      <trkpt lat="44.62067" lon="3.79632">
        <ele>1253.5346679688</ele>
        <time>2020-10-16T12:18:15.182Z</time>
      </trkpt>
      <trkpt lat="44.6202" lon="3.79619">
        <ele>1258.1751708984</ele>
        <time>2020-10-16T12:18:18.550Z</time>
      </trkpt>
      <trkpt lat="44.61975" lon="3.79606">
        <ele>1266.4193115234</ele>
        <time>2020-10-16T12:18:21.927Z</time>
      </trkpt>
      <trkpt lat="44.61968" lon="3.79604">
        <ele>1267.7036132812</ele>
        <time>2020-10-16T12:18:25.305Z</time>
      </trkpt>
      <trkpt lat="44.61962" lon="3.796">
        <ele>1268.2774658203</ele>
        <time>2020-10-16T12:18:28.684Z</time>
      </trkpt>
      <trkpt lat="44.61956" lon="3.79592">
        <ele>1268.0501708984</ele>
        <time>2020-10-16T12:18:32.065Z</time>
      </trkpt>
      <trkpt lat="44.61939" lon="3.7956">
        <ele>1265.4503173828</ele>
        <time>2020-10-16T12:18:35.452Z</time>
      </trkpt>
      <trkpt lat="44.6193" lon="3.79544">
        <ele>1264.529296875</ele>
        <time>2020-10-16T12:18:38.842Z</time>
      </trkpt>
      <trkpt lat="44.61922" lon="3.79535">
        <ele>1264.5828857422</ele>
        <time>2020-10-16T12:18:42.234Z</time>
      </trkpt>
      <trkpt lat="44.61915" lon="3.79527">
        <ele>1264.8582763672</ele>
        <time>2020-10-16T12:18:45.627Z</time>
      </trkpt>
      <trkpt lat="44.61907" lon="3.79519">
        <ele>1265.1171875</ele>
        <time>2020-10-16T12:18:49.022Z</time>
      </trkpt>
      <trkpt lat="44.61894" lon="3.79503">
        <ele>1265.2161865234</ele>
        <time>2020-10-16T12:18:52.421Z</time>
      </trkpt>
      <trkpt lat="44.6186" lon="3.79472">
        <ele>1265.4986572266</ele>
        <time>2020-10-16T12:18:55.828Z</time>
      </trkpt>
      <trkpt lat="44.61814" lon="3.79427">
        <ele>1260.6899414062</ele>
        <time>2020-10-16T12:18:59.246Z</time>
      </trkpt>
      <trkpt lat="44.61807" lon="3.79421">
        <ele>1260.1262207031</ele>
        <time>2020-10-16T12:19:02.666Z</time>
      </trkpt>
      <trkpt lat="44.61792" lon="3.79407">
        <ele>1258.9683837891</ele>
        <time>2020-10-16T12:19:06.090Z</time>
      </trkpt>
      <trkpt lat="44.61784" lon="3.794">
        <ele>1258.2043457031</ele>
        <time>2020-10-16T12:19:09.515Z</time>
      </trkpt>
      <trkpt lat="44.61775" lon="3.79394">
        <ele>1256.7966308594</ele>
        <time>2020-10-16T12:19:12.942Z</time>
      </trkpt>
      <trkpt lat="44.61765" lon="3.79388">
        <ele>1255.5838623047</ele>
        <time>2020-10-16T12:19:16.372Z</time>
      </trkpt>
      <trkpt lat="44.61754" lon="3.79384">
        <ele>1254.5489501953</ele>
        <time>2020-10-16T12:19:19.804Z</time>
      </trkpt>
      <trkpt lat="44.61742" lon="3.79381">
        <ele>1253.8449707031</ele>
        <time>2020-10-16T12:19:23.238Z</time>
      </trkpt>
      <trkpt lat="44.61725" lon="3.7938">
        <ele>1253.4381103516</ele>
        <time>2020-10-16T12:19:26.676Z</time>
      </trkpt>
      <trkpt lat="44.61716" lon="3.7938">
        <ele>1252.6702880859</ele>
        <time>2020-10-16T12:19:30.115Z</time>
      </trkpt>
      <trkpt lat="44.61708" lon="3.79381">
        <ele>1251.9986572266</ele>
        <time>2020-10-16T12:19:33.556Z</time>
      </trkpt>
      <trkpt lat="44.61699" lon="3.79384">
        <ele>1251.7420654297</ele>
        <time>2020-10-16T12:19:36.999Z</time>
      </trkpt>
      <trkpt lat="44.61691" lon="3.7939">
        <ele>1252.1904296875</ele>
        <time>2020-10-16T12:19:40.444Z</time>
      </trkpt>
      <trkpt lat="44.61683" lon="3.79396">
        <ele>1252.7067871094</ele>
        <time>2020-10-16T12:19:43.890Z</time>
      </trkpt>
      <trkpt lat="44.61676" lon="3.79402">
        <ele>1253.2138671875</ele>
        <time>2020-10-16T12:19:47.338Z</time>
      </trkpt>
      <trkpt lat="44.61668" lon="3.79407">
        <ele>1253.6751708984</ele>
        <time>2020-10-16T12:19:50.788Z</time>
      </trkpt>
      <trkpt lat="44.6166" lon="3.79413">
        <ele>1253.9351806641</ele>
        <time>2020-10-16T12:19:54.240Z</time>
      </trkpt>
      <trkpt lat="44.61653" lon="3.79416">
        <ele>1254.0076904297</ele>
        <time>2020-10-16T12:19:57.693Z</time>
      </trkpt>
      <trkpt lat="44.61642" lon="3.7942">
        <ele>1253.8984375</ele>
        <time>2020-10-16T12:20:01.148Z</time>
      </trkpt>
      <trkpt lat="44.61632" lon="3.79422">
        <ele>1253.7133789062</ele>
        <time>2020-10-16T12:20:04.606Z</time>
      </trkpt>
      <trkpt lat="44.6162" lon="3.79425">
        <ele>1253.5074462891</ele>
        <time>2020-10-16T12:20:08.066Z</time>
      </trkpt>
      <trkpt lat="44.6161" lon="3.79428">
        <ele>1254.9063720703</ele>
        <time>2020-10-16T12:20:11.528Z</time>
      </trkpt>
      <trkpt lat="44.61595" lon="3.79431">
        <ele>1255.2874755859</ele>
        <time>2020-10-16T12:20:14.993Z</time>
      </trkpt>
      <trkpt lat="44.61586" lon="3.79434">
        <ele>1255.3863525391</ele>
        <time>2020-10-16T12:20:18.460Z</time>
      </trkpt>
      <trkpt lat="44.61579" lon="3.79437">
        <ele>1255.4759521484</ele>
        <time>2020-10-16T12:20:21.928Z</time>
      </trkpt>
      <trkpt lat="44.61572" lon="3.79442">
        <ele>1256.1065673828</ele>
        <time>2020-10-16T12:20:25.398Z</time>
      </trkpt>
      <trkpt lat="44.61565" lon="3.79446">
        <ele>1256.8536376953</ele>
        <time>2020-10-16T12:20:28.870Z</time>
      </trkpt>
      <trkpt lat="44.61558" lon="3.79449">
        <ele>1257.4318847656</ele>
        <time>2020-10-16T12:20:32.343Z</time>
      </trkpt>
      <trkpt lat="44.61549" lon="3.79451">
        <ele>1257.8486328125</ele>
        <time>2020-10-16T12:20:35.818Z</time>
      </trkpt>
      <trkpt lat="44.61542" lon="3.79452">
        <ele>1258.2373046875</ele>
        <time>2020-10-16T12:20:39.294Z</time>
      </trkpt>
      <trkpt lat="44.61535" lon="3.79452">
        <ele>1258.4158935547</ele>
        <time>2020-10-16T12:20:42.772Z</time>
      </trkpt>
      <trkpt lat="44.61528" lon="3.79451">
        <ele>1258.6394042969</ele>
        <time>2020-10-16T12:20:46.251Z</time>
      </trkpt>
      <trkpt lat="44.61521" lon="3.7945">
        <ele>1258.84375</ele>
        <time>2020-10-16T12:20:49.731Z</time>
      </trkpt>
      <trkpt lat="44.61514" lon="3.79449">
        <ele>1259.0395507812</ele>
        <time>2020-10-16T12:20:53.213Z</time>
      </trkpt>
      <trkpt lat="44.61507" lon="3.79449">
        <ele>1259.2567138672</ele>
        <time>2020-10-16T12:20:56.696Z</time>
      </trkpt>
      <trkpt lat="44.61501" lon="3.79448">
        <ele>1259.4202880859</ele>
        <time>2020-10-16T12:21:00.180Z</time>
      </trkpt>
      <trkpt lat="44.61495" lon="3.79447">
        <ele>1259.4979248047</ele>
        <time>2020-10-16T12:21:03.666Z</time>
      </trkpt>
      <trkpt lat="44.6149" lon="3.79444">
        <ele>1259.2897949219</ele>
        <time>2020-10-16T12:21:07.153Z</time>
      </trkpt>
      <trkpt lat="44.61486" lon="3.79439">
        <ele>1258.5531005859</ele>
        <time>2020-10-16T12:21:10.641Z</time>
      </trkpt>
      <trkpt lat="44.61484" lon="3.79433">
        <ele>1258.7014160156</ele>
        <time>2020-10-16T12:21:14.130Z</time>
      </trkpt>
      <trkpt lat="44.61484" lon="3.79426">
        <ele>1259.0504150391</ele>
        <time>2020-10-16T12:21:17.620Z</time>
      </trkpt>
      <trkpt lat="44.61484" lon="3.79417">
        <ele>1259.5017089844</ele>
        <time>2020-10-16T12:21:21.111Z</time>
      </trkpt>
      <trkpt lat="44.61484" lon="3.7941">
        <ele>1259.8140869141</ele>
        <time>2020-10-16T12:21:24.603Z</time>
      </trkpt>
      <trkpt lat="44.61486" lon="3.79406">
        <ele>1259.9434814453</ele>
        <time>2020-10-16T12:21:28.096Z</time>
      </trkpt>
      <trkpt lat="44.61488" lon="3.79402">
        <ele>1260.0330810547</ele>
        <time>2020-10-16T12:21:31.589Z</time>
      </trkpt>
      <trkpt lat="44.61491" lon="3.79398">
        <ele>1260.0606689453</ele>
        <time>2020-10-16T12:21:35.083Z</time>
      </trkpt>
      <trkpt lat="44.61496" lon="3.79394">
        <ele>1259.7526855469</ele>
        <time>2020-10-16T12:21:38.578Z</time>
      </trkpt>
      <trkpt lat="44.61501" lon="3.7939">
        <ele>1259.2651367188</ele>
        <time>2020-10-16T12:21:42.075Z</time>
      </trkpt>
      <trkpt lat="44.61507" lon="3.79387">
        <ele>1258.7259521484</ele>
        <time>2020-10-16T12:21:45.573Z</time>
      </trkpt>
      <trkpt lat="44.61513" lon="3.79384">
        <ele>1258.1723632812</ele>
        <time>2020-10-16T12:21:49.072Z</time>
      </trkpt>
      <trkpt lat="44.61518" lon="3.7938">
        <ele>1257.6400146484</ele>
        <time>2020-10-16T12:21:52.572Z</time>
      </trkpt>
      <trkpt lat="44.61524" lon="3.79375">
        <ele>1257.1198730469</ele>
        <time>2020-10-16T12:21:56.074Z</time>
      </trkpt>
      <trkpt lat="44.61529" lon="3.79369">
        <ele>1256.6462402344</ele>
        <time>2020-10-16T12:21:59.577Z</time>
      </trkpt>
      <trkpt lat="44.61533" lon="3.79362">
        <ele>1256.2354736328</ele>
        <time>2020-10-16T12:22:03.081Z</time>
      </trkpt>
      <trkpt lat="44.61536" lon="3.79354">
        <ele>1255.8115234375</ele>
        <time>2020-10-16T12:22:06.586Z</time>
      </trkpt>
      <trkpt lat="44.61538" lon="3.79345">
        <ele>1254.9892578125</ele>
        <time>2020-10-16T12:22:10.093Z</time>
      </trkpt>
      <trkpt lat="44.61539" lon="3.79335">
        <ele>1254.3797607422</ele>
        <time>2020-10-16T12:22:13.601Z</time>
      </trkpt>
      <trkpt lat="44.61537" lon="3.79326">
        <ele>1254.0686035156</ele>
        <time>2020-10-16T12:22:17.111Z</time>
      </trkpt>
      <trkpt lat="44.61533" lon="3.79318">
        <ele>1253.9715576172</ele>
        <time>2020-10-16T12:22:20.622Z</time>
      </trkpt>
      <trkpt lat="44.61528" lon="3.79311">
        <ele>1254.0267333984</ele>
        <time>2020-10-16T12:22:24.134Z</time>
      </trkpt>
      <trkpt lat="44.61521" lon="3.79306">
        <ele>1254.2434082031</ele>
        <time>2020-10-16T12:22:27.648Z</time>
      </trkpt>
      <trkpt lat="44.61515" lon="3.79302">
        <ele>1254.5308837891</ele>
        <time>2020-10-16T12:22:31.163Z</time>
      </trkpt>
      <trkpt lat="44.61508" lon="3.79298">
        <ele>1254.9176025391</ele>
        <time>2020-10-16T12:22:34.680Z</time>
      </trkpt>
      <trkpt lat="44.61501" lon="3.79295">
        <ele>1255.3021240234</ele>
        <time>2020-10-16T12:22:38.198Z</time>
      </trkpt>
      <trkpt lat="44.61494" lon="3.79291">
        <ele>1255.6724853516</ele>
        <time>2020-10-16T12:22:41.718Z</time>
      </trkpt>
      <trkpt lat="44.61487" lon="3.79288">
        <ele>1256.0408935547</ele>
        <time>2020-10-16T12:22:45.239Z</time>
      </trkpt>
      <trkpt lat="44.61479" lon="3.79285">
        <ele>1256.5080566406</ele>
        <time>2020-10-16T12:22:48.762Z</time>
      </trkpt>
      <trkpt lat="44.61472" lon="3.79282">
        <ele>1256.9293212891</ele>
        <time>2020-10-16T12:22:52.286Z</time>
      </trkpt>
      <trkpt lat="44.61464" lon="3.79278">
        <ele>1257.3448486328</ele>
        <time>2020-10-16T12:22:55.812Z</time>
      </trkpt>
      <trkpt lat="44.61456" lon="3.79274">
        <ele>1257.8087158203</ele>
        <time>2020-10-16T12:22:59.340Z</time>
      </trkpt>
      <trkpt lat="44.61448" lon="3.79271">
        <ele>1258.4979248047</ele>
        <time>2020-10-16T12:23:02.869Z</time>
      </trkpt>
      <trkpt lat="44.61433" lon="3.79264">
        <ele>1259.9768066406</ele>
        <time>2020-10-16T12:23:06.402Z</time>
      </trkpt>
      <trkpt lat="44.61425" lon="3.7926">
        <ele>1260.7297363281</ele>
        <time>2020-10-16T12:23:09.936Z</time>
      </trkpt>
      <trkpt lat="44.61418" lon="3.79256">
        <ele>1261.1661376953</ele>
        <time>2020-10-16T12:23:13.472Z</time>
      </trkpt>
      <trkpt lat="44.61411" lon="3.79251">
        <ele>1261.6593017578</ele>
        <time>2020-10-16T12:23:17.009Z</time>
      </trkpt>
      <trkpt lat="44.61405" lon="3.79246">
        <ele>1261.9875488281</ele>
        <time>2020-10-16T12:23:20.548Z</time>
      </trkpt>
      <trkpt lat="44.61398" lon="3.7924">
        <ele>1262.1458740234</ele>
        <time>2020-10-16T12:23:24.088Z</time>
      </trkpt>
      <trkpt lat="44.61393" lon="3.79234">
        <ele>1262.3482666016</ele>
        <time>2020-10-16T12:23:27.630Z</time>
      </trkpt>
      <trkpt lat="44.61386" lon="3.79228">
        <ele>1262.5718994141</ele>
        <time>2020-10-16T12:23:31.173Z</time>
      </trkpt>
      <trkpt lat="44.6138" lon="3.79222">
        <ele>1262.7291259766</ele>
        <time>2020-10-16T12:23:34.718Z</time>
      </trkpt>
      <trkpt lat="44.61373" lon="3.79216">
        <ele>1262.8872070312</ele>
        <time>2020-10-16T12:23:38.264Z</time>
      </trkpt>
      <trkpt lat="44.61364" lon="3.79207">
        <ele>1263.2287597656</ele>
        <time>2020-10-16T12:23:41.813Z</time>
      </trkpt>
      <trkpt lat="44.61353" lon="3.79199">
        <ele>1263.6829833984</ele>
        <time>2020-10-16T12:23:45.364Z</time>
      </trkpt>
      <trkpt lat="44.6134" lon="3.7919">
        <ele>1264.3609619141</ele>
        <time>2020-10-16T12:23:48.918Z</time>
      </trkpt>
      <trkpt lat="44.61324" lon="3.79181">
        <ele>1266.1594238281</ele>
        <time>2020-10-16T12:23:52.476Z</time>
      </trkpt>
      <trkpt lat="44.61303" lon="3.79166">
        <ele>1268.6726074219</ele>
        <time>2020-10-16T12:23:56.038Z</time>
      </trkpt>
      <trkpt lat="44.6128" lon="3.79152">
        <ele>1270.8811035156</ele>
        <time>2020-10-16T12:23:59.605Z</time>
      </trkpt>
      <trkpt lat="44.61273" lon="3.79148">
        <ele>1270.9768066406</ele>
        <time>2020-10-16T12:24:03.174Z</time>
      </trkpt>
      <trkpt lat="44.61266" lon="3.79143">
        <ele>1271.0809326172</ele>
        <time>2020-10-16T12:24:06.744Z</time>
      </trkpt>
      <trkpt lat="44.61252" lon="3.79135">
        <ele>1271.2709960938</ele>
        <time>2020-10-16T12:24:10.317Z</time>
      </trkpt>
      <trkpt lat="44.61246" lon="3.79132">
        <ele>1271.3557128906</ele>
        <time>2020-10-16T12:24:13.892Z</time>
      </trkpt>
      <trkpt lat="44.61233" lon="3.79124">
        <ele>1271.5570068359</ele>
        <time>2020-10-16T12:24:17.469Z</time>
      </trkpt>
      <trkpt lat="44.61227" lon="3.7912">
        <ele>1271.6744384766</ele>
        <time>2020-10-16T12:24:21.048Z</time>
      </trkpt>
      <trkpt lat="44.61219" lon="3.79117">
        <ele>1271.81640625</ele>
        <time>2020-10-16T12:24:24.628Z</time>
      </trkpt>
      <trkpt lat="44.61212" lon="3.79115">
        <ele>1271.9766845703</ele>
        <time>2020-10-16T12:24:28.210Z</time>
      </trkpt>
      <trkpt lat="44.61199" lon="3.79111">
        <ele>1273.0346679688</ele>
        <time>2020-10-16T12:24:31.795Z</time>
      </trkpt>
      <trkpt lat="44.61183" lon="3.79107">
        <ele>1273.8367919922</ele>
        <time>2020-10-16T12:24:35.383Z</time>
      </trkpt>
      <trkpt lat="44.61161" lon="3.79101">
        <ele>1275.4025878906</ele>
        <time>2020-10-16T12:24:38.975Z</time>
      </trkpt>
      <trkpt lat="44.61142" lon="3.79096">
        <ele>1277.0242919922</ele>
        <time>2020-10-16T12:24:42.571Z</time>
      </trkpt>
      <trkpt lat="44.61124" lon="3.79092">
        <ele>1278.5467529297</ele>
        <time>2020-10-16T12:24:46.171Z</time>
      </trkpt>
      <trkpt lat="44.61112" lon="3.79088">
        <ele>1279.6527099609</ele>
        <time>2020-10-16T12:24:49.773Z</time>
      </trkpt>
      <trkpt lat="44.61104" lon="3.79086">
        <ele>1280.3798828125</ele>
        <time>2020-10-16T12:24:53.377Z</time>
      </trkpt>
      <trkpt lat="44.61099" lon="3.79083">
        <ele>1280.8680419922</ele>
        <time>2020-10-16T12:24:56.982Z</time>
      </trkpt>
      <trkpt lat="44.61093" lon="3.79078">
        <ele>1281.4113769531</ele>
        <time>2020-10-16T12:25:00.588Z</time>
      </trkpt>
      <trkpt lat="44.61082" lon="3.79066">
        <ele>1282.5194091797</ele>
        <time>2020-10-16T12:25:04.197Z</time>
      </trkpt>
      <trkpt lat="44.61068" lon="3.79051">
        <ele>1283.8762207031</ele>
        <time>2020-10-16T12:25:07.810Z</time>
      </trkpt>
      <trkpt lat="44.61062" lon="3.79046">
        <ele>1284.3966064453</ele>
        <time>2020-10-16T12:25:11.424Z</time>
      </trkpt>
      <trkpt lat="44.61057" lon="3.79041">
        <ele>1284.8946533203</ele>
        <time>2020-10-16T12:25:15.039Z</time>
      </trkpt>
      <trkpt lat="44.61053" lon="3.79036">
        <ele>1285.3012695312</ele>
        <time>2020-10-16T12:25:18.655Z</time>
      </trkpt>
      <trkpt lat="44.61049" lon="3.79032">
        <ele>1285.6400146484</ele>
        <time>2020-10-16T12:25:22.272Z</time>
      </trkpt>
      <trkpt lat="44.61047" lon="3.79027">
        <ele>1285.8985595703</ele>
        <time>2020-10-16T12:25:25.890Z</time>
      </trkpt>
      <trkpt lat="44.61045" lon="3.79022">
        <ele>1286.0208740234</ele>
        <time>2020-10-16T12:25:29.509Z</time>
      </trkpt>
      <trkpt lat="44.61045" lon="3.79017">
        <ele>1287.0987548828</ele>
        <time>2020-10-16T12:25:33.129Z</time>
      </trkpt>
      <trkpt lat="44.61046" lon="3.7901">
        <ele>1288.3345947266</ele>
        <time>2020-10-16T12:25:36.750Z</time>
      </trkpt>
      <trkpt lat="44.61048" lon="3.79003">
        <ele>1289.4979248047</ele>
        <time>2020-10-16T12:25:40.372Z</time>
      </trkpt>
      <trkpt lat="44.6105" lon="3.79001">
        <ele>1289.8453369141</ele>
        <time>2020-10-16T12:25:43.994Z</time>
      </trkpt>
      <trkpt lat="44.61051" lon="3.78998">
        <ele>1290.2487792969</ele>
        <time>2020-10-16T12:25:47.617Z</time>
      </trkpt>
      <trkpt lat="44.61056" lon="3.78995">
        <ele>1290.4885253906</ele>
        <time>2020-10-16T12:25:51.241Z</time>
      </trkpt>
      <trkpt lat="44.61062" lon="3.78992">
        <ele>1290.3861083984</ele>
        <time>2020-10-16T12:25:54.866Z</time>
      </trkpt>
      <trkpt lat="44.61068" lon="3.78992">
        <ele>1289.9705810547</ele>
        <time>2020-10-16T12:25:58.492Z</time>
      </trkpt>
      <trkpt lat="44.61074" lon="3.78991">
        <ele>1289.3858642578</ele>
        <time>2020-10-16T12:26:02.119Z</time>
      </trkpt>
      <trkpt lat="44.61081" lon="3.78992">
        <ele>1288.6168212891</ele>
        <time>2020-10-16T12:26:05.748Z</time>
      </trkpt>
      <trkpt lat="44.61088" lon="3.78993">
        <ele>1287.7270507812</ele>
        <time>2020-10-16T12:26:09.378Z</time>
      </trkpt>
      <trkpt lat="44.61095" lon="3.78995">
        <ele>1286.9278564453</ele>
        <time>2020-10-16T12:26:13.010Z</time>
      </trkpt>
      <trkpt lat="44.61102" lon="3.78996">
        <ele>1286.1459960938</ele>
        <time>2020-10-16T12:26:16.643Z</time>
      </trkpt>
      <trkpt lat="44.61109" lon="3.78998">
        <ele>1285.3498535156</ele>
        <time>2020-10-16T12:26:20.277Z</time>
      </trkpt>
      <trkpt lat="44.61116" lon="3.79">
        <ele>1284.5345458984</ele>
        <time>2020-10-16T12:26:23.913Z</time>
      </trkpt>
      <trkpt lat="44.61123" lon="3.79002">
        <ele>1284.0498046875</ele>
        <time>2020-10-16T12:26:27.550Z</time>
      </trkpt>
      <trkpt lat="44.6113" lon="3.79003">
        <ele>1283.8364257812</ele>
        <time>2020-10-16T12:26:31.189Z</time>
      </trkpt>
      <trkpt lat="44.61137" lon="3.79003">
        <ele>1283.8815917969</ele>
        <time>2020-10-16T12:26:34.829Z</time>
      </trkpt>
      <trkpt lat="44.61145" lon="3.79002">
        <ele>1284.1900634766</ele>
        <time>2020-10-16T12:26:38.471Z</time>
      </trkpt>
      <trkpt lat="44.61152" lon="3.79001">
        <ele>1284.6766357422</ele>
        <time>2020-10-16T12:26:42.114Z</time>
      </trkpt>
      <trkpt lat="44.61159" lon="3.78999">
        <ele>1285.26171875</ele>
        <time>2020-10-16T12:26:45.759Z</time>
      </trkpt>
      <trkpt lat="44.61166" lon="3.78996">
        <ele>1285.9135742188</ele>
        <time>2020-10-16T12:26:49.405Z</time>
      </trkpt>
      <trkpt lat="44.61173" lon="3.78994">
        <ele>1286.6380615234</ele>
        <time>2020-10-16T12:26:53.053Z</time>
      </trkpt>
      <trkpt lat="44.6118" lon="3.78991">
        <ele>1287.1807861328</ele>
        <time>2020-10-16T12:26:56.702Z</time>
      </trkpt>
      <trkpt lat="44.61187" lon="3.78986">
        <ele>1287.9815673828</ele>
        <time>2020-10-16T12:27:00.352Z</time>
      </trkpt>
      <trkpt lat="44.61193" lon="3.7898">
        <ele>1289.1408691406</ele>
        <time>2020-10-16T12:27:04.004Z</time>
      </trkpt>
      <trkpt lat="44.61198" lon="3.78973">
        <ele>1290.6201171875</ele>
        <time>2020-10-16T12:27:07.657Z</time>
      </trkpt>
      <trkpt lat="44.61203" lon="3.78964">
        <ele>1292.3415527344</ele>
        <time>2020-10-16T12:27:11.312Z</time>
      </trkpt>
      <trkpt lat="44.61206" lon="3.78955">
        <ele>1294.2611083984</ele>
        <time>2020-10-16T12:27:14.968Z</time>
      </trkpt>
      <trkpt lat="44.61209" lon="3.78946">
        <ele>1296.2622070312</ele>
        <time>2020-10-16T12:27:18.626Z</time>
      </trkpt>
      <trkpt lat="44.61211" lon="3.78936">
        <ele>1297.2543945312</ele>
        <time>2020-10-16T12:27:22.285Z</time>
      </trkpt>
      <trkpt lat="44.61213" lon="3.78926">
        <ele>1298.7100830078</ele>
        <time>2020-10-16T12:27:25.946Z</time>
      </trkpt>
      <trkpt lat="44.61215" lon="3.78916">
        <ele>1300.21484375</ele>
        <time>2020-10-16T12:27:29.608Z</time>
      </trkpt>
      <trkpt lat="44.61216" lon="3.78906">
        <ele>1301.6979980469</ele>
        <time>2020-10-16T12:27:33.272Z</time>
      </trkpt>
      <trkpt lat="44.61221" lon="3.78876">
        <ele>1306.1143798828</ele>
        <time>2020-10-16T12:27:36.940Z</time>
      </trkpt>
      <trkpt lat="44.61223" lon="3.78866">
        <ele>1306.4694824219</ele>
        <time>2020-10-16T12:27:40.610Z</time>
      </trkpt>
      <trkpt lat="44.61225" lon="3.78857">
        <ele>1306.5969238281</ele>
        <time>2020-10-16T12:27:44.281Z</time>
      </trkpt>
      <trkpt lat="44.61228" lon="3.78847">
        <ele>1306.9205322266</ele>
        <time>2020-10-16T12:27:47.953Z</time>
      </trkpt>
      <trkpt lat="44.61232" lon="3.78829">
        <ele>1307.75390625</ele>
        <time>2020-10-16T12:27:51.628Z</time>
      </trkpt>
      <trkpt lat="44.61236" lon="3.78813">
        <ele>1308.2987060547</ele>
        <time>2020-10-16T12:27:55.306Z</time>
      </trkpt>
      <trkpt lat="44.6124" lon="3.78797">
        <ele>1309.0339355469</ele>
        <time>2020-10-16T12:27:58.986Z</time>
      </trkpt>
      <trkpt lat="44.61243" lon="3.78781">
        <ele>1310.0515136719</ele>
        <time>2020-10-16T12:28:02.669Z</time>
      </trkpt>
      <trkpt lat="44.61245" lon="3.7877">
        <ele>1310.6431884766</ele>
        <time>2020-10-16T12:28:06.353Z</time>
      </trkpt>
      <trkpt lat="44.61246" lon="3.7876">
        <ele>1310.6789550781</ele>
        <time>2020-10-16T12:28:10.038Z</time>
      </trkpt>
      <trkpt lat="44.61246" lon="3.7875">
        <ele>1310.9399414062</ele>
        <time>2020-10-16T12:28:13.725Z</time>
      </trkpt>
      <trkpt lat="44.61245" lon="3.78739">
        <ele>1311.3768310547</ele>
        <time>2020-10-16T12:28:17.413Z</time>
      </trkpt>
      <trkpt lat="44.61244" lon="3.78729">
        <ele>1311.9825439453</ele>
        <time>2020-10-16T12:28:21.103Z</time>
      </trkpt>
      <trkpt lat="44.61241" lon="3.78719">
        <ele>1312.6242675781</ele>
        <time>2020-10-16T12:28:24.795Z</time>
      </trkpt>
      <trkpt lat="44.61236" lon="3.78701">
        <ele>1313.7834472656</ele>
        <time>2020-10-16T12:28:28.489Z</time>
      </trkpt>
      <trkpt lat="44.6123" lon="3.78682">
        <ele>1314.9639892578</ele>
        <time>2020-10-16T12:28:32.186Z</time>
      </trkpt>
      <trkpt lat="44.61223" lon="3.78664">
        <ele>1315.7227783203</ele>
        <time>2020-10-16T12:28:35.886Z</time>
      </trkpt>
      <trkpt lat="44.6122" lon="3.78655">
        <ele>1316.1859130859</ele>
        <time>2020-10-16T12:28:39.588Z</time>
      </trkpt>
      <trkpt lat="44.61212" lon="3.78639">
        <ele>1317.1872558594</ele>
        <time>2020-10-16T12:28:43.292Z</time>
      </trkpt>
      <trkpt lat="44.61208" lon="3.7863">
        <ele>1317.7271728516</ele>
        <time>2020-10-16T12:28:46.998Z</time>
      </trkpt>
      <trkpt lat="44.612" lon="3.78614">
        <ele>1318.826171875</ele>
        <time>2020-10-16T12:28:50.707Z</time>
      </trkpt>
      <trkpt lat="44.61196" lon="3.78606">
        <ele>1319.35546875</ele>
        <time>2020-10-16T12:28:54.417Z</time>
      </trkpt>
      <trkpt lat="44.61187" lon="3.7859">
        <ele>1320.29296875</ele>
        <time>2020-10-16T12:28:58.130Z</time>
      </trkpt>
      <trkpt lat="44.61174" lon="3.78567">
        <ele>1321.5336914062</ele>
        <time>2020-10-16T12:29:01.847Z</time>
      </trkpt>
      <trkpt lat="44.6117" lon="3.78559">
        <ele>1321.9155273438</ele>
        <time>2020-10-16T12:29:05.566Z</time>
      </trkpt>
      <trkpt lat="44.61165" lon="3.78551">
        <ele>1322.4221191406</ele>
        <time>2020-10-16T12:29:09.286Z</time>
      </trkpt>
      <trkpt lat="44.61155" lon="3.78536">
        <ele>1323.4200439453</ele>
        <time>2020-10-16T12:29:13.009Z</time>
      </trkpt>
      <trkpt lat="44.61141" lon="3.78514">
        <ele>1325.0975341797</ele>
        <time>2020-10-16T12:29:16.736Z</time>
      </trkpt>
      <trkpt lat="44.61116" lon="3.78479">
        <ele>1328.2824707031</ele>
        <time>2020-10-16T12:29:20.470Z</time>
      </trkpt>
      <trkpt lat="44.61084" lon="3.78439">
        <ele>1329.2158203125</ele>
        <time>2020-10-16T12:29:24.213Z</time>
      </trkpt>
      <trkpt lat="44.61067" lon="3.78419">
        <ele>1329.1325683594</ele>
        <time>2020-10-16T12:29:27.960Z</time>
      </trkpt>
      <trkpt lat="44.61061" lon="3.78413">
        <ele>1329.2216796875</ele>
        <time>2020-10-16T12:29:31.709Z</time>
      </trkpt>
      <trkpt lat="44.61055" lon="3.78408">
        <ele>1329.4255371094</ele>
        <time>2020-10-16T12:29:35.459Z</time>
      </trkpt>
      <trkpt lat="44.61049" lon="3.78404">
        <ele>1329.6727294922</ele>
        <time>2020-10-16T12:29:39.211Z</time>
      </trkpt>
      <trkpt lat="44.61036" lon="3.78395">
        <ele>1330.3063964844</ele>
        <time>2020-10-16T12:29:42.965Z</time>
      </trkpt>
      <trkpt lat="44.61023" lon="3.78388">
        <ele>1330.8123779297</ele>
        <time>2020-10-16T12:29:46.722Z</time>
      </trkpt>
      <trkpt lat="44.61014" lon="3.78383">
        <ele>1331.1690673828</ele>
        <time>2020-10-16T12:29:50.481Z</time>
      </trkpt>
      <trkpt lat="44.61003" lon="3.78379">
        <ele>1331.6790771484</ele>
        <time>2020-10-16T12:29:54.242Z</time>
      </trkpt>
      <trkpt lat="44.60997" lon="3.78376">
        <ele>1332.0201416016</ele>
        <time>2020-10-16T12:29:58.005Z</time>
      </trkpt>
      <trkpt lat="44.6099" lon="3.78374">
        <ele>1332.4437255859</ele>
        <time>2020-10-16T12:30:01.769Z</time>
      </trkpt>
      <trkpt lat="44.60977" lon="3.7837">
        <ele>1333.3101806641</ele>
        <time>2020-10-16T12:30:05.536Z</time>
      </trkpt>
      <trkpt lat="44.60964" lon="3.78368">
        <ele>1334.2297363281</ele>
        <time>2020-10-16T12:30:09.305Z</time>
      </trkpt>
      <trkpt lat="44.60955" lon="3.78368">
        <ele>1334.8564453125</ele>
        <time>2020-10-16T12:30:13.076Z</time>
      </trkpt>
      <trkpt lat="44.60945" lon="3.78369">
        <ele>1336.0949707031</ele>
        <time>2020-10-16T12:30:16.849Z</time>
      </trkpt>
      <trkpt lat="44.60935" lon="3.7837">
        <ele>1337.7126464844</ele>
        <time>2020-10-16T12:30:20.624Z</time>
      </trkpt>
      <trkpt lat="44.60929" lon="3.7837">
        <ele>1338.572265625</ele>
        <time>2020-10-16T12:30:24.400Z</time>
      </trkpt>
      <trkpt lat="44.60921" lon="3.7837">
        <ele>1339.6926269531</ele>
        <time>2020-10-16T12:30:28.178Z</time>
      </trkpt>
      <trkpt lat="44.60921" lon="3.78377">
        <ele>1340.3131103516</ele>
        <time>2020-10-16T12:30:31.957Z</time>
      </trkpt>
      <trkpt lat="44.6093" lon="3.78388">
        <ele>1339.9683837891</ele>
        <time>2020-10-16T12:30:35.738Z</time>
      </trkpt>
      <trkpt lat="44.60945" lon="3.78403">
        <ele>1339.0385742188</ele>
        <time>2020-10-16T12:30:39.523Z</time>
      </trkpt>
      <trkpt lat="44.60954" lon="3.78416">
        <ele>1338.9696044922</ele>
        <time>2020-10-16T12:30:43.311Z</time>
      </trkpt>
      <trkpt lat="44.60965" lon="3.78434">
        <ele>1339.7060546875</ele>
        <time>2020-10-16T12:30:47.102Z</time>
      </trkpt>
      <trkpt lat="44.60976" lon="3.7846">
        <ele>1340.8389892578</ele>
        <time>2020-10-16T12:30:50.897Z</time>
      </trkpt>
      <trkpt lat="44.60981" lon="3.78492">
        <ele>1342.5001220703</ele>
        <time>2020-10-16T12:30:54.697Z</time>
      </trkpt>
      <trkpt lat="44.60981" lon="3.78515">
        <ele>1343.8845214844</ele>
        <time>2020-10-16T12:30:58.500Z</time>
      </trkpt>
      <trkpt lat="44.60976" lon="3.78541">
        <ele>1344.3041992188</ele>
        <time>2020-10-16T12:31:02.307Z</time>
      </trkpt>
      <trkpt lat="44.60964" lon="3.78566">
        <ele>1344.3598632812</ele>
        <time>2020-10-16T12:31:06.118Z</time>
      </trkpt>
      <trkpt lat="44.60952" lon="3.78581">
        <ele>1344.5725097656</ele>
        <time>2020-10-16T12:31:09.933Z</time>
      </trkpt>
      <trkpt lat="44.60944" lon="3.78596">
        <ele>1344.7491455078</ele>
        <time>2020-10-16T12:31:13.750Z</time>
      </trkpt>
      <trkpt lat="44.60934" lon="3.78615">
        <ele>1344.1787109375</ele>
        <time>2020-10-16T12:31:17.571Z</time>
      </trkpt>
      <trkpt lat="44.60926" lon="3.78629">
        <ele>1343.7381591797</ele>
        <time>2020-10-16T12:31:21.394Z</time>
      </trkpt>
      <trkpt lat="44.60915" lon="3.78644">
        <ele>1343.4512939453</ele>
        <time>2020-10-16T12:31:25.220Z</time>
      </trkpt>
      <trkpt lat="44.60898" lon="3.78658">
        <ele>1342.28515625</ele>
        <time>2020-10-16T12:31:29.050Z</time>
      </trkpt>
      <trkpt lat="44.60878" lon="3.78667">
        <ele>1341.1574707031</ele>
        <time>2020-10-16T12:31:32.884Z</time>
      </trkpt>
      <trkpt lat="44.60863" lon="3.78668">
        <ele>1340.7827148438</ele>
        <time>2020-10-16T12:31:36.721Z</time>
      </trkpt>
      <trkpt lat="44.60842" lon="3.7867">
        <ele>1339.4060058594</ele>
        <time>2020-10-16T12:31:40.563Z</time>
      </trkpt>
      <trkpt lat="44.60822" lon="3.7867">
        <ele>1337.6733398438</ele>
        <time>2020-10-16T12:31:44.409Z</time>
      </trkpt>
      <trkpt lat="44.60801" lon="3.78667">
        <ele>1336.3487548828</ele>
        <time>2020-10-16T12:31:48.259Z</time>
      </trkpt>
      <trkpt lat="44.60778" lon="3.78663">
        <ele>1335.037109375</ele>
        <time>2020-10-16T12:31:52.114Z</time>
      </trkpt>
      <trkpt lat="44.60743" lon="3.78653">
        <ele>1333.3317871094</ele>
        <time>2020-10-16T12:31:55.976Z</time>
      </trkpt>
      <trkpt lat="44.60698" lon="3.78641">
        <ele>1330.5992431641</ele>
        <time>2020-10-16T12:31:59.847Z</time>
      </trkpt>
      <trkpt lat="44.60657" lon="3.7863">
        <ele>1328.9008789062</ele>
        <time>2020-10-16T12:32:03.726Z</time>
      </trkpt>
      <trkpt lat="44.60636" lon="3.78627">
        <ele>1327.8843994141</ele>
        <time>2020-10-16T12:32:07.609Z</time>
      </trkpt>
      <trkpt lat="44.60635" lon="3.78627">
        <ele>1327.8742675781</ele>
        <time>2020-10-16T12:32:11.493Z</time>
      </trkpt>
      <trkpt lat="44.60629" lon="3.78627">
        <ele>1327.6629638672</ele>
        <time>2020-10-16T12:32:15.378Z</time>
      </trkpt>
      <trkpt lat="44.60608" lon="3.78625">
        <ele>1326.6101074219</ele>
        <time>2020-10-16T12:32:19.267Z</time>
      </trkpt>
      <trkpt lat="44.60577" lon="3.78625">
        <ele>1324.3654785156</ele>
        <time>2020-10-16T12:32:23.162Z</time>
      </trkpt>
      <trkpt lat="44.6056" lon="3.78621">
        <ele>1323.6658935547</ele>
        <time>2020-10-16T12:32:27.061Z</time>
      </trkpt>
      <trkpt lat="44.60539" lon="3.7862">
        <ele>1322.8197021484</ele>
        <time>2020-10-16T12:32:30.964Z</time>
      </trkpt>
      <trkpt lat="44.60524" lon="3.78618">
        <ele>1322.6427001953</ele>
        <time>2020-10-16T12:32:34.870Z</time>
      </trkpt>
      <trkpt lat="44.60506" lon="3.78611">
        <ele>1322.7681884766</ele>
        <time>2020-10-16T12:32:38.780Z</time>
      </trkpt>
      <trkpt lat="44.60485" lon="3.786">
        <ele>1323.0871582031</ele>
        <time>2020-10-16T12:32:42.694Z</time>
      </trkpt>
      <trkpt lat="44.60475" lon="3.78591">
        <ele>1323.3695068359</ele>
        <time>2020-10-16T12:32:46.611Z</time>
      </trkpt>
      <trkpt lat="44.60457" lon="3.78579">
        <ele>1323.6706542969</ele>
        <time>2020-10-16T12:32:50.532Z</time>
      </trkpt>
      <trkpt lat="44.60438" lon="3.78559">
        <ele>1327.048828125</ele>
        <time>2020-10-16T12:32:54.457Z</time>
      </trkpt>
      <trkpt lat="44.60428" lon="3.78545">
        <ele>1329.5377197266</ele>
        <time>2020-10-16T12:32:58.385Z</time>
      </trkpt>
      <trkpt lat="44.6042" lon="3.7854">
        <ele>1331.2666015625</ele>
        <time>2020-10-16T12:33:02.315Z</time>
      </trkpt>
      <trkpt lat="44.6041" lon="3.78539">
        <ele>1332.9705810547</ele>
        <time>2020-10-16T12:33:06.247Z</time>
      </trkpt>
      <trkpt lat="44.60404" lon="3.78541">
        <ele>1333.8743896484</ele>
        <time>2020-10-16T12:33:10.180Z</time>
      </trkpt>
      <trkpt lat="44.60399" lon="3.78552">
        <ele>1334.0970458984</ele>
        <time>2020-10-16T12:33:14.115Z</time>
      </trkpt>
      <trkpt lat="44.60394" lon="3.7857">
        <ele>1334.2757568359</ele>
        <time>2020-10-16T12:33:18.053Z</time>
      </trkpt>
      <trkpt lat="44.60388" lon="3.78589">
        <ele>1334.775390625</ele>
        <time>2020-10-16T12:33:21.994Z</time>
      </trkpt>
      <trkpt lat="44.60383" lon="3.78596">
        <ele>1335.4428710938</ele>
        <time>2020-10-16T12:33:25.936Z</time>
      </trkpt>
      <trkpt lat="44.60372" lon="3.78612">
        <ele>1336.7592773438</ele>
        <time>2020-10-16T12:33:29.881Z</time>
      </trkpt>
      <trkpt lat="44.60353" lon="3.78629">
        <ele>1338.2119140625</ele>
        <time>2020-10-16T12:33:33.831Z</time>
      </trkpt>
      <trkpt lat="44.60331" lon="3.78644">
        <ele>1340.1091308594</ele>
        <time>2020-10-16T12:33:37.786Z</time>
      </trkpt>
      <trkpt lat="44.60308" lon="3.78659">
        <ele>1342.2220458984</ele>
        <time>2020-10-16T12:33:41.746Z</time>
      </trkpt>
      <trkpt lat="44.60291" lon="3.78665">
        <ele>1344.0528564453</ele>
        <time>2020-10-16T12:33:45.709Z</time>
      </trkpt>
      <trkpt lat="44.60271" lon="3.78673">
        <ele>1345.4788818359</ele>
        <time>2020-10-16T12:33:49.676Z</time>
      </trkpt>
      <trkpt lat="44.6026" lon="3.78679">
        <ele>1345.3620605469</ele>
        <time>2020-10-16T12:33:53.646Z</time>
      </trkpt>
      <trkpt lat="44.60241" lon="3.78689">
        <ele>1345.0355224609</ele>
        <time>2020-10-16T12:33:57.620Z</time>
      </trkpt>
      <trkpt lat="44.60225" lon="3.787">
        <ele>1344.5092773438</ele>
        <time>2020-10-16T12:34:01.597Z</time>
      </trkpt>
      <trkpt lat="44.60213" lon="3.78704">
        <ele>1344.470703125</ele>
        <time>2020-10-16T12:34:05.577Z</time>
      </trkpt>
      <trkpt lat="44.60195" lon="3.78704">
        <ele>1344.3870849609</ele>
        <time>2020-10-16T12:34:09.560Z</time>
      </trkpt>
      <trkpt lat="44.60175" lon="3.787">
        <ele>1343.77734375</ele>
        <time>2020-10-16T12:34:13.547Z</time>
      </trkpt>
      <trkpt lat="44.60172" lon="3.78697">
        <ele>1343.9027099609</ele>
        <time>2020-10-16T12:34:17.535Z</time>
      </trkpt>
      <trkpt lat="44.60159" lon="3.78689">
        <ele>1344.3566894531</ele>
        <time>2020-10-16T12:34:21.526Z</time>
      </trkpt>
      <trkpt lat="44.60137" lon="3.7867">
        <ele>1346.2448730469</ele>
        <time>2020-10-16T12:34:25.522Z</time>
      </trkpt>
      <trkpt lat="44.60119" lon="3.78647">
        <ele>1348.9749755859</ele>
        <time>2020-10-16T12:34:29.523Z</time>
      </trkpt>
      <trkpt lat="44.60105" lon="3.78622">
        <ele>1352.2381591797</ele>
        <time>2020-10-16T12:34:33.529Z</time>
      </trkpt>
      <trkpt lat="44.60092" lon="3.78607">
        <ele>1353.9833984375</ele>
        <time>2020-10-16T12:34:37.538Z</time>
      </trkpt>
      <trkpt lat="44.60082" lon="3.78601">
        <ele>1354.6647949219</ele>
        <time>2020-10-16T12:34:41.549Z</time>
      </trkpt>
      <trkpt lat="44.6006" lon="3.78599">
        <ele>1353.7067871094</ele>
        <time>2020-10-16T12:34:45.564Z</time>
      </trkpt>
      <trkpt lat="44.60037" lon="3.78599">
        <ele>1352.2987060547</ele>
        <time>2020-10-16T12:34:49.584Z</time>
      </trkpt>
      <trkpt lat="44.60018" lon="3.78599">
        <ele>1352.9069824219</ele>
        <time>2020-10-16T12:34:53.608Z</time>
      </trkpt>
      <trkpt lat="44.60002" lon="3.78597">
        <ele>1353.8040771484</ele>
        <time>2020-10-16T12:34:57.635Z</time>
      </trkpt>
      <trkpt lat="44.59982" lon="3.78595">
        <ele>1355.0872802734</ele>
        <time>2020-10-16T12:35:01.666Z</time>
      </trkpt>
      <trkpt lat="44.59965" lon="3.78589">
        <ele>1356.9067382812</ele>
        <time>2020-10-16T12:35:05.701Z</time>
      </trkpt>
      <trkpt lat="44.5995" lon="3.78588">
        <ele>1357.9145507812</ele>
        <time>2020-10-16T12:35:09.739Z</time>
      </trkpt>
      <trkpt lat="44.5992" lon="3.78585">
        <ele>1362.2341308594</ele>
        <time>2020-10-16T12:35:13.783Z</time>
      </trkpt>
      <trkpt lat="44.59897" lon="3.78583">
        <ele>1364.6495361328</ele>
        <time>2020-10-16T12:35:17.831Z</time>
      </trkpt>
      <trkpt lat="44.59867" lon="3.78582">
        <ele>1367.3741455078</ele>
        <time>2020-10-16T12:35:21.885Z</time>
      </trkpt>
      <trkpt lat="44.59847" lon="3.78581">
        <ele>1368.5582275391</ele>
        <time>2020-10-16T12:35:25.943Z</time>
      </trkpt>
      <trkpt lat="44.59828" lon="3.78581">
        <ele>1369.7762451172</ele>
        <time>2020-10-16T12:35:30.005Z</time>
      </trkpt>
      <trkpt lat="44.59813" lon="3.78582">
        <ele>1370.4534912109</ele>
        <time>2020-10-16T12:35:34.070Z</time>
      </trkpt>
      <trkpt lat="44.59798" lon="3.78582">
        <ele>1371.1524658203</ele>
        <time>2020-10-16T12:35:38.138Z</time>
      </trkpt>
      <trkpt lat="44.59784" lon="3.78581">
        <ele>1372.3555908203</ele>
        <time>2020-10-16T12:35:42.209Z</time>
      </trkpt>
      <trkpt lat="44.59767" lon="3.78577">
        <ele>1374.4071044922</ele>
        <time>2020-10-16T12:35:46.283Z</time>
      </trkpt>
      <trkpt lat="44.59749" lon="3.7857">
        <ele>1377.4794921875</ele>
        <time>2020-10-16T12:35:50.361Z</time>
      </trkpt>
      <trkpt lat="44.59731" lon="3.78561">
        <ele>1380.6228027344</ele>
        <time>2020-10-16T12:35:54.443Z</time>
      </trkpt>
      <trkpt lat="44.59709" lon="3.78551">
        <ele>1384.3988037109</ele>
        <time>2020-10-16T12:35:58.530Z</time>
      </trkpt>
      <trkpt lat="44.59697" lon="3.78547">
        <ele>1385.9996337891</ele>
        <time>2020-10-16T12:36:02.619Z</time>
      </trkpt>
      <trkpt lat="44.5968" lon="3.7854">
        <ele>1388.5715332031</ele>
        <time>2020-10-16T12:36:06.711Z</time>
      </trkpt>
      <trkpt lat="44.59664" lon="3.78531">
        <ele>1391.8052978516</ele>
        <time>2020-10-16T12:36:10.807Z</time>
      </trkpt>
      <trkpt lat="44.59648" lon="3.78524">
        <ele>1394.1998291016</ele>
        <time>2020-10-16T12:36:14.906Z</time>
      </trkpt>
      <trkpt lat="44.59626" lon="3.78519">
        <ele>1396.3009033203</ele>
        <time>2020-10-16T12:36:19.010Z</time>
      </trkpt>
      <trkpt lat="44.59602" lon="3.78512">
        <ele>1398.5921630859</ele>
        <time>2020-10-16T12:36:23.119Z</time>
      </trkpt>
      <trkpt lat="44.59578" lon="3.78504">
        <ele>1400.8948974609</ele>
        <time>2020-10-16T12:36:27.233Z</time>
      </trkpt>
      <trkpt lat="44.59561" lon="3.785">
        <ele>1402.2564697266</ele>
        <time>2020-10-16T12:36:31.350Z</time>
      </trkpt>
      <trkpt lat="44.5954" lon="3.78489">
        <ele>1405.1899414062</ele>
        <time>2020-10-16T12:36:35.471Z</time>
      </trkpt>
      <trkpt lat="44.59524" lon="3.78481">
        <ele>1407.44921875</ele>
        <time>2020-10-16T12:36:39.596Z</time>
      </trkpt>
      <trkpt lat="44.59511" lon="3.78477">
        <ele>1408.6568603516</ele>
        <time>2020-10-16T12:36:43.724Z</time>
      </trkpt>
      <trkpt lat="44.59511" lon="3.78477">
        <ele>1408.6710205078</ele>
        <time>2020-10-16T12:36:47.852Z</time>
      </trkpt>
      <trkpt lat="44.59491" lon="3.78469">
        <ele>1411.0382080078</ele>
        <time>2020-10-16T12:36:51.984Z</time>
      </trkpt>
      <trkpt lat="44.59472" lon="3.78464">
        <ele>1412.6286621094</ele>
        <time>2020-10-16T12:36:56.120Z</time>
      </trkpt>
      <trkpt lat="44.59461" lon="3.78461">
        <ele>1413.6682128906</ele>
        <time>2020-10-16T12:37:00.258Z</time>
      </trkpt>
      <trkpt lat="44.59452" lon="3.78456">
        <ele>1414.8936767578</ele>
        <time>2020-10-16T12:37:04.398Z</time>
      </trkpt>
      <trkpt lat="44.59447" lon="3.78455">
        <ele>1415.1960449219</ele>
        <time>2020-10-16T12:37:08.539Z</time>
      </trkpt>
      <trkpt lat="44.59438" lon="3.78455">
        <ele>1415.4445800781</ele>
        <time>2020-10-16T12:37:12.682Z</time>
      </trkpt>
      <trkpt lat="44.59429" lon="3.78452">
        <ele>1416.3055419922</ele>
        <time>2020-10-16T12:37:16.826Z</time>
      </trkpt>
      <trkpt lat="44.59415" lon="3.78446">
        <ele>1418.0095214844</ele>
        <time>2020-10-16T12:37:20.973Z</time>
      </trkpt>
      <trkpt lat="44.59405" lon="3.78443">
        <ele>1419.0334472656</ele>
        <time>2020-10-16T12:37:25.123Z</time>
      </trkpt>
      <trkpt lat="44.59389" lon="3.78437">
        <ele>1420.6015625</ele>
        <time>2020-10-16T12:37:29.276Z</time>
      </trkpt>
      <trkpt lat="44.59375" lon="3.78428">
        <ele>1421.4161376953</ele>
        <time>2020-10-16T12:37:33.432Z</time>
      </trkpt>
      <trkpt lat="44.59362" lon="3.78421">
        <ele>1422.4921875</ele>
        <time>2020-10-16T12:37:37.591Z</time>
      </trkpt>
      <trkpt lat="44.59352" lon="3.78421">
        <ele>1423.2158203125</ele>
        <time>2020-10-16T12:37:41.752Z</time>
      </trkpt>
      <trkpt lat="44.59339" lon="3.78424">
        <ele>1424.6646728516</ele>
        <time>2020-10-16T12:37:45.915Z</time>
      </trkpt>
      <trkpt lat="44.59333" lon="3.78418">
        <ele>1425.4908447266</ele>
        <time>2020-10-16T12:37:50.080Z</time>
      </trkpt>
      <trkpt lat="44.59325" lon="3.7843">
        <ele>1426.2728271484</ele>
        <time>2020-10-16T12:37:54.247Z</time>
      </trkpt>
      <trkpt lat="44.59318" lon="3.78448">
        <ele>1425.455078125</ele>
        <time>2020-10-16T12:37:58.417Z</time>
      </trkpt>
      <trkpt lat="44.59313" lon="3.78466">
        <ele>1423.3005371094</ele>
        <time>2020-10-16T12:38:02.590Z</time>
      </trkpt>
      <trkpt lat="44.59309" lon="3.78487">
        <ele>1423.9455566406</ele>
        <time>2020-10-16T12:38:06.766Z</time>
      </trkpt>
      <trkpt lat="44.5931" lon="3.78512">
        <ele>1423.4959716797</ele>
        <time>2020-10-16T12:38:10.945Z</time>
      </trkpt>
      <trkpt lat="44.59313" lon="3.78534">
        <ele>1422.8790283203</ele>
        <time>2020-10-16T12:38:15.128Z</time>
      </trkpt>
      <trkpt lat="44.59312" lon="3.78548">
        <ele>1423.4681396484</ele>
        <time>2020-10-16T12:38:19.313Z</time>
      </trkpt>
      <trkpt lat="44.59315" lon="3.78565">
        <ele>1423.2065429688</ele>
        <time>2020-10-16T12:38:23.500Z</time>
      </trkpt>
      <trkpt lat="44.5932" lon="3.7859">
        <ele>1422.4416503906</ele>
        <time>2020-10-16T12:38:27.691Z</time>
      </trkpt>
      <trkpt lat="44.59323" lon="3.78608">
        <ele>1422.1442871094</ele>
        <time>2020-10-16T12:38:31.884Z</time>
      </trkpt>
      <trkpt lat="44.59323" lon="3.78617">
        <ele>1422.9339599609</ele>
        <time>2020-10-16T12:38:36.079Z</time>
      </trkpt>
      <trkpt lat="44.59323" lon="3.78631">
        <ele>1423.7498779297</ele>
        <time>2020-10-16T12:38:40.276Z</time>
      </trkpt>
      <trkpt lat="44.59321" lon="3.78644">
        <ele>1425.1634521484</ele>
        <time>2020-10-16T12:38:44.475Z</time>
      </trkpt>
      <trkpt lat="44.59314" lon="3.78648">
        <ele>1427.0042724609</ele>
        <time>2020-10-16T12:38:48.675Z</time>
      </trkpt>
      <trkpt lat="44.59307" lon="3.78656">
        <ele>1428.7655029297</ele>
        <time>2020-10-16T12:38:52.877Z</time>
      </trkpt>
      <trkpt lat="44.59304" lon="3.78667">
        <ele>1429.8269042969</ele>
        <time>2020-10-16T12:38:57.081Z</time>
      </trkpt>
      <trkpt lat="44.59304" lon="3.78675">
        <ele>1430.2044677734</ele>
        <time>2020-10-16T12:39:01.286Z</time>
      </trkpt>
      <trkpt lat="44.59306" lon="3.78691">
        <ele>1430.1815185547</ele>
        <time>2020-10-16T12:39:05.493Z</time>
      </trkpt>
      <trkpt lat="44.59306" lon="3.78705">
        <ele>1429.546875</ele>
        <time>2020-10-16T12:39:09.702Z</time>
      </trkpt>
      <trkpt lat="44.59304" lon="3.7872">
        <ele>1429.4780273438</ele>
        <time>2020-10-16T12:39:13.913Z</time>
      </trkpt>
      <trkpt lat="44.59293" lon="3.78736">
        <ele>1431.400390625</ele>
        <time>2020-10-16T12:39:18.127Z</time>
      </trkpt>
      <trkpt lat="44.59281" lon="3.7875">
        <ele>1433.6662597656</ele>
        <time>2020-10-16T12:39:22.345Z</time>
      </trkpt>
      <trkpt lat="44.59274" lon="3.78755">
        <ele>1434.98828125</ele>
        <time>2020-10-16T12:39:26.564Z</time>
      </trkpt>
      <trkpt lat="44.59264" lon="3.78757">
        <ele>1437.1961669922</ele>
        <time>2020-10-16T12:39:30.785Z</time>
      </trkpt>
      <trkpt lat="44.59253" lon="3.78765">
        <ele>1438.8352050781</ele>
        <time>2020-10-16T12:39:35.009Z</time>
      </trkpt>
      <trkpt lat="44.59247" lon="3.78772">
        <ele>1439.6683349609</ele>
        <time>2020-10-16T12:39:39.234Z</time>
      </trkpt>
      <trkpt lat="44.59232" lon="3.78778">
        <ele>1442.6398925781</ele>
        <time>2020-10-16T12:39:43.462Z</time>
      </trkpt>
      <trkpt lat="44.5922" lon="3.78783">
        <ele>1444.8824462891</ele>
        <time>2020-10-16T12:39:47.693Z</time>
      </trkpt>
      <trkpt lat="44.59201" lon="3.78794">
        <ele>1447.4954833984</ele>
        <time>2020-10-16T12:39:51.928Z</time>
      </trkpt>
      <trkpt lat="44.59181" lon="3.78803">
        <ele>1450.1833496094</ele>
        <time>2020-10-16T12:39:56.167Z</time>
      </trkpt>
      <trkpt lat="44.59162" lon="3.78807">
        <ele>1453.1276855469</ele>
        <time>2020-10-16T12:40:00.410Z</time>
      </trkpt>
      <trkpt lat="44.59138" lon="3.78812">
        <ele>1457.2197265625</ele>
        <time>2020-10-16T12:40:04.658Z</time>
      </trkpt>
      <trkpt lat="44.59124" lon="3.78815">
        <ele>1459.7987060547</ele>
        <time>2020-10-16T12:40:08.909Z</time>
      </trkpt>
      <trkpt lat="44.59105" lon="3.78819">
        <ele>1463.0187988281</ele>
        <time>2020-10-16T12:40:13.164Z</time>
      </trkpt>
      <trkpt lat="44.59089" lon="3.78828">
        <ele>1465.5023193359</ele>
        <time>2020-10-16T12:40:17.422Z</time>
      </trkpt>
      <trkpt lat="44.59075" lon="3.78835">
        <ele>1467.5087890625</ele>
        <time>2020-10-16T12:40:21.683Z</time>
      </trkpt>
      <trkpt lat="44.59046" lon="3.78846">
        <ele>1471.6907958984</ele>
        <time>2020-10-16T12:40:25.950Z</time>
      </trkpt>
      <trkpt lat="44.59019" lon="3.78855">
        <ele>1475.4870605469</ele>
        <time>2020-10-16T12:40:30.223Z</time>
      </trkpt>
      <trkpt lat="44.59013" lon="3.78858">
        <ele>1476.5308837891</ele>
        <time>2020-10-16T12:40:34.497Z</time>
      </trkpt>
      <trkpt lat="44.59015" lon="3.78848">
        <ele>1476.3084716797</ele>
        <time>2020-10-16T12:40:38.773Z</time>
      </trkpt>
      <trkpt lat="44.59016" lon="3.78837">
        <ele>1476.3331298828</ele>
        <time>2020-10-16T12:40:43.050Z</time>
      </trkpt>
      <trkpt lat="44.59008" lon="3.78832">
        <ele>1477.7653808594</ele>
        <time>2020-10-16T12:40:47.329Z</time>
      </trkpt>
      <trkpt lat="44.5899" lon="3.78825">
        <ele>1480.7009277344</ele>
        <time>2020-10-16T12:40:51.612Z</time>
      </trkpt>
      <trkpt lat="44.58979" lon="3.78849">
        <ele>1481.9112548828</ele>
        <time>2020-10-16T12:40:55.899Z</time>
      </trkpt>
      <trkpt lat="44.58969" lon="3.78869">
        <ele>1483.4045410156</ele>
        <time>2020-10-16T12:41:00.189Z</time>
      </trkpt>
      <trkpt lat="44.58958" lon="3.78895">
        <ele>1483.4144287109</ele>
        <time>2020-10-16T12:41:04.483Z</time>
      </trkpt>
      <trkpt lat="44.58946" lon="3.78929">
        <ele>1482.4392089844</ele>
        <time>2020-10-16T12:41:08.783Z</time>
      </trkpt>
      <trkpt lat="44.58937" lon="3.78952">
        <ele>1481.8485107422</ele>
        <time>2020-10-16T12:41:13.087Z</time>
      </trkpt>
      <trkpt lat="44.58922" lon="3.78982">
        <ele>1481.3016357422</ele>
        <time>2020-10-16T12:41:17.396Z</time>
      </trkpt>
      <trkpt lat="44.58913" lon="3.79">
        <ele>1480.5726318359</ele>
        <time>2020-10-16T12:41:21.708Z</time>
      </trkpt>
      <trkpt lat="44.58906" lon="3.79016">
        <ele>1479.6958007812</ele>
        <time>2020-10-16T12:41:26.023Z</time>
      </trkpt>
      <trkpt lat="44.58899" lon="3.79035">
        <ele>1479.3739013672</ele>
        <time>2020-10-16T12:41:30.341Z</time>
      </trkpt>
      <trkpt lat="44.58896" lon="3.79058">
        <ele>1479.1323242188</ele>
        <time>2020-10-16T12:41:34.662Z</time>
      </trkpt>
      <trkpt lat="44.58894" lon="3.79079">
        <ele>1478.5469970703</ele>
        <time>2020-10-16T12:41:38.986Z</time>
      </trkpt>
      <trkpt lat="44.58894" lon="3.79096">
        <ele>1478.1387939453</ele>
        <time>2020-10-16T12:41:43.313Z</time>
      </trkpt>
      <trkpt lat="44.58896" lon="3.79117">
        <ele>1477.8510742188</ele>
        <time>2020-10-16T12:41:47.643Z</time>
      </trkpt>
      <trkpt lat="44.58896" lon="3.79132">
        <ele>1477.6716308594</ele>
        <time>2020-10-16T12:41:51.975Z</time>
      </trkpt>
      <trkpt lat="44.58895" lon="3.79156">
        <ele>1476.7729492188</ele>
        <time>2020-10-16T12:41:56.310Z</time>
      </trkpt>
      <trkpt lat="44.58894" lon="3.79177">
        <ele>1475.9263916016</ele>
        <time>2020-10-16T12:42:00.648Z</time>
      </trkpt>
      <trkpt lat="44.5889" lon="3.79193">
        <ele>1475.3099365234</ele>
        <time>2020-10-16T12:42:04.989Z</time>
      </trkpt>
      <trkpt lat="44.58887" lon="3.79207">
        <ele>1475.1439208984</ele>
        <time>2020-10-16T12:42:09.332Z</time>
      </trkpt>
      <trkpt lat="44.58886" lon="3.79222">
        <ele>1474.0814208984</ele>
        <time>2020-10-16T12:42:13.677Z</time>
      </trkpt>
      <trkpt lat="44.58883" lon="3.79233">
        <ele>1473.1693115234</ele>
        <time>2020-10-16T12:42:18.023Z</time>
      </trkpt>
      <trkpt lat="44.58884" lon="3.79236">
        <ele>1473.0590820312</ele>
        <time>2020-10-16T12:42:22.370Z</time>
      </trkpt>
      <trkpt lat="44.58887" lon="3.79252">
        <ele>1472.4827880859</ele>
        <time>2020-10-16T12:42:26.719Z</time>
      </trkpt>
      <trkpt lat="44.58889" lon="3.79267">
        <ele>1471.7768554688</ele>
        <time>2020-10-16T12:42:31.070Z</time>
      </trkpt>
      <trkpt lat="44.58891" lon="3.79281">
        <ele>1471.4407958984</ele>
        <time>2020-10-16T12:42:35.424Z</time>
      </trkpt>
      <trkpt lat="44.58895" lon="3.79287">
        <ele>1471.6180419922</ele>
        <time>2020-10-16T12:42:39.779Z</time>
      </trkpt>
      <trkpt lat="44.58897" lon="3.793">
        <ele>1471.3768310547</ele>
        <time>2020-10-16T12:42:44.135Z</time>
      </trkpt>
      <trkpt lat="44.58899" lon="3.79319">
        <ele>1470.3326416016</ele>
        <time>2020-10-16T12:42:48.494Z</time>
      </trkpt>
      <trkpt lat="44.58901" lon="3.79339">
        <ele>1469.2145996094</ele>
        <time>2020-10-16T12:42:52.856Z</time>
      </trkpt>
      <trkpt lat="44.58899" lon="3.7935">
        <ele>1468.1646728516</ele>
        <time>2020-10-16T12:42:57.220Z</time>
      </trkpt>
      <trkpt lat="44.58899" lon="3.79362">
        <ele>1467.8725585938</ele>
        <time>2020-10-16T12:43:01.585Z</time>
      </trkpt>
      <trkpt lat="44.589" lon="3.79387">
        <ele>1467.9935302734</ele>
        <time>2020-10-16T12:43:05.954Z</time>
      </trkpt>
      <trkpt lat="44.589" lon="3.79401">
        <ele>1467.9035644531</ele>
        <time>2020-10-16T12:43:10.325Z</time>
      </trkpt>
      <trkpt lat="44.58899" lon="3.79459">
        <ele>1467.7634277344</ele>
        <time>2020-10-16T12:43:14.704Z</time>
      </trkpt>
      <trkpt lat="44.58899" lon="3.79485">
        <ele>1468.1356201172</ele>
        <time>2020-10-16T12:43:19.087Z</time>
      </trkpt>
      <trkpt lat="44.58902" lon="3.79503">
        <ele>1469.0546875</ele>
        <time>2020-10-16T12:43:23.473Z</time>
      </trkpt>
      <trkpt lat="44.58912" lon="3.7954">
        <ele>1470.9372558594</ele>
        <time>2020-10-16T12:43:27.864Z</time>
      </trkpt>
      <trkpt lat="44.5893" lon="3.79603">
        <ele>1475.1088867188</ele>
        <time>2020-10-16T12:43:32.265Z</time>
      </trkpt>
      <trkpt lat="44.58932" lon="3.7962">
        <ele>1474.9748535156</ele>
        <time>2020-10-16T12:43:36.669Z</time>
      </trkpt>
      <trkpt lat="44.58934" lon="3.79638">
        <ele>1474.7412109375</ele>
        <time>2020-10-16T12:43:41.075Z</time>
      </trkpt>
      <trkpt lat="44.58935" lon="3.7965">
        <ele>1474.5357666016</ele>
        <time>2020-10-16T12:43:45.483Z</time>
      </trkpt>
      <trkpt lat="44.58938" lon="3.79657">
        <ele>1474.6025390625</ele>
        <time>2020-10-16T12:43:49.892Z</time>
      </trkpt>
      <trkpt lat="44.58943" lon="3.7967">
        <ele>1474.7258300781</ele>
        <time>2020-10-16T12:43:54.303Z</time>
      </trkpt>
      <trkpt lat="44.58945" lon="3.7968">
        <ele>1474.6169433594</ele>
        <time>2020-10-16T12:43:58.716Z</time>
      </trkpt>
      <trkpt lat="44.58948" lon="3.79694">
        <ele>1474.7996826172</ele>
        <time>2020-10-16T12:44:03.131Z</time>
      </trkpt>
      <trkpt lat="44.58952" lon="3.79708">
        <ele>1474.7438964844</ele>
        <time>2020-10-16T12:44:07.548Z</time>
      </trkpt>
      <trkpt lat="44.58962" lon="3.79743">
        <ele>1474.0855712891</ele>
        <time>2020-10-16T12:44:11.970Z</time>
      </trkpt>
      <trkpt lat="44.58968" lon="3.79767">
        <ele>1473.6491699219</ele>
        <time>2020-10-16T12:44:16.396Z</time>
      </trkpt>
      <trkpt lat="44.58974" lon="3.79785">
        <ele>1473.7813720703</ele>
        <time>2020-10-16T12:44:20.825Z</time>
      </trkpt>
      <trkpt lat="44.58979" lon="3.7982">
        <ele>1474.2467041016</ele>
        <time>2020-10-16T12:44:25.259Z</time>
      </trkpt>
      <trkpt lat="44.58985" lon="3.79846">
        <ele>1474.4855957031</ele>
        <time>2020-10-16T12:44:29.697Z</time>
      </trkpt>
      <trkpt lat="44.58997" lon="3.79871">
        <ele>1474.453125</ele>
        <time>2020-10-16T12:44:34.139Z</time>
      </trkpt>
      <trkpt lat="44.59021" lon="3.79911">
        <ele>1474.1702880859</ele>
        <time>2020-10-16T12:44:38.588Z</time>
      </trkpt>
      <trkpt lat="44.5905" lon="3.79955">
        <ele>1474.1336669922</ele>
        <time>2020-10-16T12:44:43.046Z</time>
      </trkpt>
      <trkpt lat="44.59068" lon="3.79985">
        <ele>1473.8907470703</ele>
        <time>2020-10-16T12:44:47.510Z</time>
      </trkpt>
      <trkpt lat="44.59073" lon="3.80001">
        <ele>1473.5478515625</ele>
        <time>2020-10-16T12:44:51.976Z</time>
      </trkpt>
      <trkpt lat="44.59084" lon="3.80026">
        <ele>1473.1951904297</ele>
        <time>2020-10-16T12:44:56.446Z</time>
      </trkpt>
      <trkpt lat="44.5911" lon="3.8008">
        <ele>1472.5385742188</ele>
        <time>2020-10-16T12:45:00.926Z</time>
      </trkpt>
      <trkpt lat="44.59121" lon="3.80114">
        <ele>1472.5373535156</ele>
        <time>2020-10-16T12:45:05.411Z</time>
      </trkpt>
      <trkpt lat="44.5913" lon="3.80141">
        <ele>1474.08203125</ele>
        <time>2020-10-16T12:45:09.900Z</time>
      </trkpt>
      <trkpt lat="44.59135" lon="3.80157">
        <ele>1475.0834960938</ele>
        <time>2020-10-16T12:45:14.392Z</time>
      </trkpt>
      <trkpt lat="44.59142" lon="3.80183">
        <ele>1476.4656982422</ele>
        <time>2020-10-16T12:45:18.888Z</time>
      </trkpt>
      <trkpt lat="44.59149" lon="3.80204">
        <ele>1477.7425537109</ele>
        <time>2020-10-16T12:45:23.387Z</time>
      </trkpt>
      <trkpt lat="44.59153" lon="3.80215">
        <ele>1478.35546875</ele>
        <time>2020-10-16T12:45:27.888Z</time>
      </trkpt>
      <trkpt lat="44.59157" lon="3.80238">
        <ele>1479.6220703125</ele>
        <time>2020-10-16T12:45:32.392Z</time>
      </trkpt>
      <trkpt lat="44.59162" lon="3.80263">
        <ele>1481.2163085938</ele>
        <time>2020-10-16T12:45:36.900Z</time>
      </trkpt>
      <trkpt lat="44.59168" lon="3.80284">
        <ele>1482.1604003906</ele>
        <time>2020-10-16T12:45:41.411Z</time>
      </trkpt>
      <trkpt lat="44.59177" lon="3.80302">
        <ele>1482.9420166016</ele>
        <time>2020-10-16T12:45:45.925Z</time>
      </trkpt>
      <trkpt lat="44.59192" lon="3.80322">
        <ele>1484.2260742188</ele>
        <time>2020-10-16T12:45:50.443Z</time>
      </trkpt>
      <trkpt lat="44.59204" lon="3.80336">
        <ele>1484.9184570312</ele>
        <time>2020-10-16T12:45:54.964Z</time>
      </trkpt>
      <trkpt lat="44.59225" lon="3.80354">
        <ele>1484.1619873047</ele>
        <time>2020-10-16T12:45:59.490Z</time>
      </trkpt>
      <trkpt lat="44.59241" lon="3.80368">
        <ele>1482.6544189453</ele>
        <time>2020-10-16T12:46:04.020Z</time>
      </trkpt>
      <trkpt lat="44.59253" lon="3.80379">
        <ele>1481.4693603516</ele>
        <time>2020-10-16T12:46:08.553Z</time>
      </trkpt>
      <trkpt lat="44.59264" lon="3.80386">
        <ele>1480.5168457031</ele>
        <time>2020-10-16T12:46:13.088Z</time>
      </trkpt>
      <trkpt lat="44.59287" lon="3.80407">
        <ele>1478.3074951172</ele>
        <time>2020-10-16T12:46:17.629Z</time>
      </trkpt>
      <trkpt lat="44.59303" lon="3.80421">
        <ele>1477.4724121094</ele>
        <time>2020-10-16T12:46:22.174Z</time>
      </trkpt>
      <trkpt lat="44.59313" lon="3.80434">
        <ele>1476.6323242188</ele>
        <time>2020-10-16T12:46:26.722Z</time>
      </trkpt>
      <trkpt lat="44.59324" lon="3.8045">
        <ele>1475.3288574219</ele>
        <time>2020-10-16T12:46:31.273Z</time>
      </trkpt>
      <trkpt lat="44.59334" lon="3.80468">
        <ele>1473.7150878906</ele>
        <time>2020-10-16T12:46:35.827Z</time>
      </trkpt>
      <trkpt lat="44.59347" lon="3.80492">
        <ele>1471.5799560547</ele>
        <time>2020-10-16T12:46:40.385Z</time>
      </trkpt>
      <trkpt lat="44.59356" lon="3.80508">
        <ele>1470.1606445312</ele>
        <time>2020-10-16T12:46:44.946Z</time>
      </trkpt>
      <trkpt lat="44.59359" lon="3.8052">
        <ele>1468.8249511719</ele>
        <time>2020-10-16T12:46:49.509Z</time>
      </trkpt>
      <trkpt lat="44.59363" lon="3.80548">
        <ele>1466.3414306641</ele>
        <time>2020-10-16T12:46:54.076Z</time>
      </trkpt>
      <trkpt lat="44.59367" lon="3.80564">
        <ele>1464.8817138672</ele>
        <time>2020-10-16T12:46:58.645Z</time>
      </trkpt>
      <trkpt lat="44.59372" lon="3.80591">
        <ele>1463.0960693359</ele>
        <time>2020-10-16T12:47:03.218Z</time>
      </trkpt>
      <trkpt lat="44.59377" lon="3.80619">
        <ele>1462.474609375</ele>
        <time>2020-10-16T12:47:07.796Z</time>
      </trkpt>
      <trkpt lat="44.59385" lon="3.80647">
        <ele>1462.4189453125</ele>
        <time>2020-10-16T12:47:12.378Z</time>
      </trkpt>
      <trkpt lat="44.5939" lon="3.8067">
        <ele>1462.1618652344</ele>
        <time>2020-10-16T12:47:16.963Z</time>
      </trkpt>
      <trkpt lat="44.5939" lon="3.80698">
        <ele>1460.3542480469</ele>
        <time>2020-10-16T12:47:21.552Z</time>
      </trkpt>
      <trkpt lat="44.59389" lon="3.80733">
        <ele>1457.9974365234</ele>
        <time>2020-10-16T12:47:26.146Z</time>
      </trkpt>
      <trkpt lat="44.5939" lon="3.80766">
        <ele>1455.4357910156</ele>
        <time>2020-10-16T12:47:30.745Z</time>
      </trkpt>
      <trkpt lat="44.5939" lon="3.80795">
        <ele>1454.4959716797</ele>
        <time>2020-10-16T12:47:35.348Z</time>
      </trkpt>
      <trkpt lat="44.59391" lon="3.80822">
        <ele>1454.6694335938</ele>
        <time>2020-10-16T12:47:39.955Z</time>
      </trkpt>
      <trkpt lat="44.59391" lon="3.80838">
        <ele>1454.5294189453</ele>
        <time>2020-10-16T12:47:44.564Z</time>
      </trkpt>
      <trkpt lat="44.59392" lon="3.80864">
        <ele>1454.0057373047</ele>
        <time>2020-10-16T12:47:49.177Z</time>
      </trkpt>
      <trkpt lat="44.59389" lon="3.80903">
        <ele>1451.8392333984</ele>
        <time>2020-10-16T12:47:53.796Z</time>
      </trkpt>
      <trkpt lat="44.59389" lon="3.8093">
        <ele>1451.0770263672</ele>
        <time>2020-10-16T12:47:58.419Z</time>
      </trkpt>
      <trkpt lat="44.59389" lon="3.80952">
        <ele>1450.46875</ele>
        <time>2020-10-16T12:48:03.045Z</time>
      </trkpt>
      <trkpt lat="44.59393" lon="3.80976">
        <ele>1451.2529296875</ele>
        <time>2020-10-16T12:48:07.674Z</time>
      </trkpt>
      <trkpt lat="44.59401" lon="3.81001">
        <ele>1453.0340576172</ele>
        <time>2020-10-16T12:48:12.307Z</time>
      </trkpt>
      <trkpt lat="44.59406" lon="3.8102">
        <ele>1454.3366699219</ele>
        <time>2020-10-16T12:48:16.943Z</time>
      </trkpt>
      <trkpt lat="44.59413" lon="3.81044">
        <ele>1454.5083007812</ele>
        <time>2020-10-16T12:48:21.583Z</time>
      </trkpt>
      <trkpt lat="44.59416" lon="3.81056">
        <ele>1454.6999511719</ele>
        <time>2020-10-16T12:48:26.225Z</time>
      </trkpt>
      <trkpt lat="44.59418" lon="3.81078">
        <ele>1453.7633056641</ele>
        <time>2020-10-16T12:48:30.870Z</time>
      </trkpt>
      <trkpt lat="44.59421" lon="3.81095">
        <ele>1453.8572998047</ele>
        <time>2020-10-16T12:48:35.517Z</time>
      </trkpt>
      <trkpt lat="44.59425" lon="3.81126">
        <ele>1454.0400390625</ele>
        <time>2020-10-16T12:48:40.169Z</time>
      </trkpt>
      <trkpt lat="44.59429" lon="3.81155">
        <ele>1454.4379882812</ele>
        <time>2020-10-16T12:48:44.825Z</time>
      </trkpt>
      <trkpt lat="44.59432" lon="3.81175">
        <ele>1455.1846923828</ele>
        <time>2020-10-16T12:48:49.484Z</time>
      </trkpt>
      <trkpt lat="44.59438" lon="3.81197">
        <ele>1456.7845458984</ele>
        <time>2020-10-16T12:48:54.146Z</time>
      </trkpt>
      <trkpt lat="44.59442" lon="3.8121">
        <ele>1457.9168701172</ele>
        <time>2020-10-16T12:48:58.810Z</time>
      </trkpt>
      <trkpt lat="44.59444" lon="3.81223">
        <ele>1458.6614990234</ele>
        <time>2020-10-16T12:49:03.476Z</time>
      </trkpt>
      <trkpt lat="44.59444" lon="3.81245">
        <ele>1458.7493896484</ele>
        <time>2020-10-16T12:49:08.145Z</time>
      </trkpt>
      <trkpt lat="44.59444" lon="3.81255">
        <ele>1459.0595703125</ele>
        <time>2020-10-16T12:49:12.816Z</time>
      </trkpt>
      <trkpt lat="44.59448" lon="3.81264">
        <ele>1460.0035400391</ele>
        <time>2020-10-16T12:49:17.488Z</time>
      </trkpt>
      <trkpt lat="44.5945" lon="3.81271">
        <ele>1460.6787109375</ele>
        <time>2020-10-16T12:49:22.161Z</time>
      </trkpt>
      <trkpt lat="44.5945" lon="3.81282">
        <ele>1460.9013671875</ele>
        <time>2020-10-16T12:49:26.836Z</time>
      </trkpt>
      <trkpt lat="44.5945" lon="3.81303">
        <ele>1461.1489257812</ele>
        <time>2020-10-16T12:49:31.514Z</time>
      </trkpt>
      <trkpt lat="44.5945" lon="3.81326">
        <ele>1461.3881835938</ele>
        <time>2020-10-16T12:49:36.195Z</time>
      </trkpt>
      <trkpt lat="44.5945" lon="3.81347">
        <ele>1461.5345458984</ele>
        <time>2020-10-16T12:49:40.879Z</time>
      </trkpt>
      <trkpt lat="44.59448" lon="3.81362">
        <ele>1461.5964355469</ele>
        <time>2020-10-16T12:49:45.565Z</time>
      </trkpt>
      <trkpt lat="44.59446" lon="3.81371">
        <ele>1461.498046875</ele>
        <time>2020-10-16T12:49:50.253Z</time>
      </trkpt>
      <trkpt lat="44.59439" lon="3.81405">
        <ele>1461.3450927734</ele>
        <time>2020-10-16T12:49:54.946Z</time>
      </trkpt>
      <trkpt lat="44.59436" lon="3.81424">
        <ele>1461.4681396484</ele>
        <time>2020-10-16T12:49:59.642Z</time>
      </trkpt>
      <trkpt lat="44.59435" lon="3.8144">
        <ele>1462.6507568359</ele>
        <time>2020-10-16T12:50:04.340Z</time>
      </trkpt>
      <trkpt lat="44.59436" lon="3.81455">
        <ele>1463.6871337891</ele>
        <time>2020-10-16T12:50:09.040Z</time>
      </trkpt>
      <trkpt lat="44.59441" lon="3.8149">
        <ele>1466.2255859375</ele>
        <time>2020-10-16T12:50:13.745Z</time>
      </trkpt>
      <trkpt lat="44.59446" lon="3.81514">
        <ele>1468.0870361328</ele>
        <time>2020-10-16T12:50:18.454Z</time>
      </trkpt>
      <trkpt lat="44.59455" lon="3.81546">
        <ele>1470.6853027344</ele>
        <time>2020-10-16T12:50:23.167Z</time>
      </trkpt>
      <trkpt lat="44.59466" lon="3.81584">
        <ele>1473.3309326172</ele>
        <time>2020-10-16T12:50:27.886Z</time>
      </trkpt>
      <trkpt lat="44.59473" lon="3.81609">
        <ele>1474.8221435547</ele>
        <time>2020-10-16T12:50:32.609Z</time>
      </trkpt>
      <trkpt lat="44.5948" lon="3.81628">
        <ele>1475.1998291016</ele>
        <time>2020-10-16T12:50:37.335Z</time>
      </trkpt>
      <trkpt lat="44.59484" lon="3.81649">
        <ele>1475.3909912109</ele>
        <time>2020-10-16T12:50:42.064Z</time>
      </trkpt>
      <trkpt lat="44.59491" lon="3.81671">
        <ele>1475.4764404297</ele>
        <time>2020-10-16T12:50:46.797Z</time>
      </trkpt>
      <trkpt lat="44.59501" lon="3.81698">
        <ele>1475.25390625</ele>
        <time>2020-10-16T12:50:51.534Z</time>
      </trkpt>
      <trkpt lat="44.5951" lon="3.81722">
        <ele>1474.4840087891</ele>
        <time>2020-10-16T12:50:56.275Z</time>
      </trkpt>
      <trkpt lat="44.59518" lon="3.81743">
        <ele>1473.8358154297</ele>
        <time>2020-10-16T12:51:01.019Z</time>
      </trkpt>
      <trkpt lat="44.59529" lon="3.81777">
        <ele>1472.7012939453</ele>
        <time>2020-10-16T12:51:05.769Z</time>
      </trkpt>
      <trkpt lat="44.59535" lon="3.818">
        <ele>1471.3087158203</ele>
        <time>2020-10-16T12:51:10.522Z</time>
      </trkpt>
      <trkpt lat="44.59542" lon="3.81823">
        <ele>1470.0288085938</ele>
        <time>2020-10-16T12:51:15.279Z</time>
      </trkpt>
      <trkpt lat="44.59553" lon="3.81852">
        <ele>1468.4226074219</ele>
        <time>2020-10-16T12:51:20.041Z</time>
      </trkpt>
      <trkpt lat="44.5956" lon="3.81867">
        <ele>1468.1591796875</ele>
        <time>2020-10-16T12:51:24.805Z</time>
      </trkpt>
      <trkpt lat="44.59568" lon="3.81881">
        <ele>1468.0959472656</ele>
        <time>2020-10-16T12:51:29.572Z</time>
      </trkpt>
      <trkpt lat="44.59574" lon="3.81892">
        <ele>1468.0281982422</ele>
        <time>2020-10-16T12:51:34.341Z</time>
      </trkpt>
      <trkpt lat="44.59583" lon="3.81911">
        <ele>1467.5201416016</ele>
        <time>2020-10-16T12:51:39.113Z</time>
      </trkpt>
      <trkpt lat="44.59588" lon="3.81928">
        <ele>1466.8270263672</ele>
        <time>2020-10-16T12:51:43.888Z</time>
      </trkpt>
      <trkpt lat="44.59592" lon="3.81944">
        <ele>1466.0388183594</ele>
        <time>2020-10-16T12:51:48.665Z</time>
      </trkpt>
      <trkpt lat="44.59595" lon="3.81955">
        <ele>1465.4273681641</ele>
        <time>2020-10-16T12:51:53.444Z</time>
      </trkpt>
      <trkpt lat="44.59599" lon="3.81965">
        <ele>1464.9122314453</ele>
        <time>2020-10-16T12:51:58.224Z</time>
      </trkpt>
      <trkpt lat="44.59608" lon="3.81973">
        <ele>1464.8955078125</ele>
        <time>2020-10-16T12:52:03.006Z</time>
      </trkpt>
      <trkpt lat="44.59615" lon="3.81979">
        <ele>1464.8361816406</ele>
        <time>2020-10-16T12:52:07.790Z</time>
      </trkpt>
      <trkpt lat="44.59622" lon="3.81994">
        <ele>1463.7370605469</ele>
        <time>2020-10-16T12:52:12.577Z</time>
      </trkpt>
      <trkpt lat="44.59632" lon="3.82017">
        <ele>1461.3709716797</ele>
        <time>2020-10-16T12:52:17.367Z</time>
      </trkpt>
      <trkpt lat="44.59636" lon="3.82031">
        <ele>1460.4041748047</ele>
        <time>2020-10-16T12:52:22.160Z</time>
      </trkpt>
      <trkpt lat="44.59637" lon="3.82048">
        <ele>1459.4866943359</ele>
        <time>2020-10-16T12:52:26.955Z</time>
      </trkpt>
      <trkpt lat="44.59642" lon="3.82059">
        <ele>1458.4808349609</ele>
        <time>2020-10-16T12:52:31.752Z</time>
      </trkpt>
      <trkpt lat="44.59652" lon="3.82087">
        <ele>1456.1275634766</ele>
        <time>2020-10-16T12:52:36.553Z</time>
      </trkpt>
      <trkpt lat="44.59661" lon="3.82104">
        <ele>1454.5576171875</ele>
        <time>2020-10-16T12:52:41.357Z</time>
      </trkpt>
      <trkpt lat="44.59666" lon="3.82124">
        <ele>1453.8383789062</ele>
        <time>2020-10-16T12:52:46.164Z</time>
      </trkpt>
      <trkpt lat="44.59671" lon="3.8217">
        <ele>1452.2868652344</ele>
        <time>2020-10-16T12:52:50.978Z</time>
      </trkpt>
      <trkpt lat="44.59677" lon="3.822">
        <ele>1450.8802490234</ele>
        <time>2020-10-16T12:52:55.797Z</time>
      </trkpt>
      <trkpt lat="44.59684" lon="3.82227">
        <ele>1449.8200683594</ele>
        <time>2020-10-16T12:53:00.620Z</time>
      </trkpt>
      <trkpt lat="44.59691" lon="3.82248">
        <ele>1448.9801025391</ele>
        <time>2020-10-16T12:53:05.446Z</time>
      </trkpt>
      <trkpt lat="44.59697" lon="3.82267">
        <ele>1448.2335205078</ele>
        <time>2020-10-16T12:53:10.275Z</time>
      </trkpt>
      <trkpt lat="44.59704" lon="3.82296">
        <ele>1447.6198730469</ele>
        <time>2020-10-16T12:53:15.108Z</time>
      </trkpt>
      <trkpt lat="44.59707" lon="3.82325">
        <ele>1447.0948486328</ele>
        <time>2020-10-16T12:53:19.946Z</time>
      </trkpt>
      <trkpt lat="44.5971" lon="3.82339">
        <ele>1446.8142089844</ele>
        <time>2020-10-16T12:53:24.786Z</time>
      </trkpt>
      <trkpt lat="44.59712" lon="3.8236">
        <ele>1446.5181884766</ele>
        <time>2020-10-16T12:53:29.629Z</time>
      </trkpt>
      <trkpt lat="44.59712" lon="3.82371">
        <ele>1446.4541015625</ele>
        <time>2020-10-16T12:53:34.473Z</time>
      </trkpt>
      <trkpt lat="44.59708" lon="3.82398">
        <ele>1446.2590332031</ele>
        <time>2020-10-16T12:53:39.321Z</time>
      </trkpt>
      <trkpt lat="44.59703" lon="3.82428">
        <ele>1446.0672607422</ele>
        <time>2020-10-16T12:53:44.173Z</time>
      </trkpt>
      <trkpt lat="44.59701" lon="3.82451">
        <ele>1445.6112060547</ele>
        <time>2020-10-16T12:53:49.029Z</time>
      </trkpt>
      <trkpt lat="44.59699" lon="3.82465">
        <ele>1444.9821777344</ele>
        <time>2020-10-16T12:53:53.887Z</time>
      </trkpt>
      <trkpt lat="44.59699" lon="3.82482">
        <ele>1444.6694335938</ele>
        <time>2020-10-16T12:53:58.747Z</time>
      </trkpt>
      <trkpt lat="44.59695" lon="3.82538">
        <ele>1442.6987304688</ele>
        <time>2020-10-16T12:54:03.615Z</time>
      </trkpt>
      <trkpt lat="44.59693" lon="3.82572">
        <ele>1441.6452636719</ele>
        <time>2020-10-16T12:54:08.488Z</time>
      </trkpt>
      <trkpt lat="44.59689" lon="3.826">
        <ele>1440.6062011719</ele>
        <time>2020-10-16T12:54:13.365Z</time>
      </trkpt>
      <trkpt lat="44.59683" lon="3.82621">
        <ele>1439.8225097656</ele>
        <time>2020-10-16T12:54:18.246Z</time>
      </trkpt>
      <trkpt lat="44.59677" lon="3.82639">
        <ele>1438.9569091797</ele>
        <time>2020-10-16T12:54:23.129Z</time>
      </trkpt>
      <trkpt lat="44.59673" lon="3.82657">
        <ele>1438.2796630859</ele>
        <time>2020-10-16T12:54:28.015Z</time>
      </trkpt>
      <trkpt lat="44.59671" lon="3.82677">
        <ele>1438.2556152344</ele>
        <time>2020-10-16T12:54:32.904Z</time>
      </trkpt>
      <trkpt lat="44.5967" lon="3.82699">
        <ele>1438.2016601562</ele>
        <time>2020-10-16T12:54:37.796Z</time>
      </trkpt>
      <trkpt lat="44.59668" lon="3.82719">
        <ele>1437.7952880859</ele>
        <time>2020-10-16T12:54:42.691Z</time>
      </trkpt>
      <trkpt lat="44.59664" lon="3.82741">
        <ele>1437.5355224609</ele>
        <time>2020-10-16T12:54:47.589Z</time>
      </trkpt>
      <trkpt lat="44.59662" lon="3.82762">
        <ele>1438.1994628906</ele>
        <time>2020-10-16T12:54:52.490Z</time>
      </trkpt>
      <trkpt lat="44.59661" lon="3.82782">
        <ele>1438.3967285156</ele>
        <time>2020-10-16T12:54:57.394Z</time>
      </trkpt>
      <trkpt lat="44.59659" lon="3.82797">
        <ele>1438.1687011719</ele>
        <time>2020-10-16T12:55:02.300Z</time>
      </trkpt>
      <trkpt lat="44.59655" lon="3.82813">
        <ele>1437.8839111328</ele>
        <time>2020-10-16T12:55:07.209Z</time>
      </trkpt>
      <trkpt lat="44.59648" lon="3.82825">
        <ele>1437.7033691406</ele>
        <time>2020-10-16T12:55:12.120Z</time>
      </trkpt>
      <trkpt lat="44.59641" lon="3.82839">
        <ele>1437.5545654297</ele>
        <time>2020-10-16T12:55:17.033Z</time>
      </trkpt>
      <trkpt lat="44.59636" lon="3.82853">
        <ele>1437.4285888672</ele>
        <time>2020-10-16T12:55:21.949Z</time>
      </trkpt>
      <trkpt lat="44.59636" lon="3.82864">
        <ele>1437.6214599609</ele>
        <time>2020-10-16T12:55:26.866Z</time>
      </trkpt>
      <trkpt lat="44.59644" lon="3.82883">
        <ele>1438.2626953125</ele>
        <time>2020-10-16T12:55:31.786Z</time>
      </trkpt>
      <trkpt lat="44.59655" lon="3.82906">
        <ele>1439.1092529297</ele>
        <time>2020-10-16T12:55:36.710Z</time>
      </trkpt>
      <trkpt lat="44.59664" lon="3.82924">
        <ele>1439.7528076172</ele>
        <time>2020-10-16T12:55:41.637Z</time>
      </trkpt>
      <trkpt lat="44.59672" lon="3.82944">
        <ele>1440.4141845703</ele>
        <time>2020-10-16T12:55:46.568Z</time>
      </trkpt>
      <trkpt lat="44.59677" lon="3.82956">
        <ele>1440.8114013672</ele>
        <time>2020-10-16T12:55:51.501Z</time>
      </trkpt>
      <trkpt lat="44.59688" lon="3.82971">
        <ele>1441.4332275391</ele>
        <time>2020-10-16T12:55:56.437Z</time>
      </trkpt>
      <trkpt lat="44.59698" lon="3.82985">
        <ele>1442.0157470703</ele>
        <time>2020-10-16T12:56:01.375Z</time>
      </trkpt>
      <trkpt lat="44.59704" lon="3.82995">
        <ele>1442.1092529297</ele>
        <time>2020-10-16T12:56:06.315Z</time>
      </trkpt>
      <trkpt lat="44.5971" lon="3.8301">
        <ele>1441.7287597656</ele>
        <time>2020-10-16T12:56:11.258Z</time>
      </trkpt>
      <trkpt lat="44.59719" lon="3.83033">
        <ele>1441.0678710938</ele>
        <time>2020-10-16T12:56:16.205Z</time>
      </trkpt>
      <trkpt lat="44.59729" lon="3.83055">
        <ele>1439.9820556641</ele>
        <time>2020-10-16T12:56:21.155Z</time>
      </trkpt>
      <trkpt lat="44.59734" lon="3.83068">
        <ele>1439.3765869141</ele>
        <time>2020-10-16T12:56:26.107Z</time>
      </trkpt>
      <trkpt lat="44.59737" lon="3.83082">
        <ele>1438.9300537109</ele>
        <time>2020-10-16T12:56:31.061Z</time>
      </trkpt>
      <trkpt lat="44.59738" lon="3.83087">
        <ele>1438.7783203125</ele>
        <time>2020-10-16T12:56:36.016Z</time>
      </trkpt>
      <trkpt lat="44.5974" lon="3.83099">
        <ele>1438.4473876953</ele>
        <time>2020-10-16T12:56:40.973Z</time>
      </trkpt>
      <trkpt lat="44.59742" lon="3.83123">
        <ele>1437.5329589844</ele>
        <time>2020-10-16T12:56:45.933Z</time>
      </trkpt>
      <trkpt lat="44.59745" lon="3.83154">
        <ele>1436.1296386719</ele>
        <time>2020-10-16T12:56:50.898Z</time>
      </trkpt>
      <trkpt lat="44.59748" lon="3.83171">
        <ele>1435.2517089844</ele>
        <time>2020-10-16T12:56:55.865Z</time>
      </trkpt>
      <trkpt lat="44.59749" lon="3.83187">
        <ele>1434.5034179688</ele>
        <time>2020-10-16T12:57:00.835Z</time>
      </trkpt>
      <trkpt lat="44.59753" lon="3.83206">
        <ele>1432.8824462891</ele>
        <time>2020-10-16T12:57:05.807Z</time>
      </trkpt>
      <trkpt lat="44.59755" lon="3.83221">
        <ele>1431.6141357422</ele>
        <time>2020-10-16T12:57:10.782Z</time>
      </trkpt>
      <trkpt lat="44.59757" lon="3.83246">
        <ele>1429.5144042969</ele>
        <time>2020-10-16T12:57:15.760Z</time>
      </trkpt>
      <trkpt lat="44.5976" lon="3.83268">
        <ele>1427.2174072266</ele>
        <time>2020-10-16T12:57:20.741Z</time>
      </trkpt>
      <trkpt lat="44.59764" lon="3.83292">
        <ele>1425.5675048828</ele>
        <time>2020-10-16T12:57:25.726Z</time>
      </trkpt>
      <trkpt lat="44.59767" lon="3.83322">
        <ele>1423.9010009766</ele>
        <time>2020-10-16T12:57:30.715Z</time>
      </trkpt>
      <trkpt lat="44.59771" lon="3.83352">
        <ele>1421.4837646484</ele>
        <time>2020-10-16T12:57:35.709Z</time>
      </trkpt>
      <trkpt lat="44.59775" lon="3.83379">
        <ele>1420.1538085938</ele>
        <time>2020-10-16T12:57:40.707Z</time>
      </trkpt>
      <trkpt lat="44.59781" lon="3.83401">
        <ele>1419.3734130859</ele>
        <time>2020-10-16T12:57:45.708Z</time>
      </trkpt>
      <trkpt lat="44.59787" lon="3.83429">
        <ele>1418.2586669922</ele>
        <time>2020-10-16T12:57:50.713Z</time>
      </trkpt>
      <trkpt lat="44.59793" lon="3.83458">
        <ele>1416.9703369141</ele>
        <time>2020-10-16T12:57:55.722Z</time>
      </trkpt>
      <trkpt lat="44.59798" lon="3.83481">
        <ele>1415.6655273438</ele>
        <time>2020-10-16T12:58:00.735Z</time>
      </trkpt>
      <trkpt lat="44.59803" lon="3.83505">
        <ele>1414.2742919922</ele>
        <time>2020-10-16T12:58:05.751Z</time>
      </trkpt>
      <trkpt lat="44.59806" lon="3.83523">
        <ele>1413.2572021484</ele>
        <time>2020-10-16T12:58:10.770Z</time>
      </trkpt>
      <trkpt lat="44.59808" lon="3.83542">
        <ele>1413.2806396484</ele>
        <time>2020-10-16T12:58:15.792Z</time>
      </trkpt>
      <trkpt lat="44.59811" lon="3.83561">
        <ele>1412.3742675781</ele>
        <time>2020-10-16T12:58:20.817Z</time>
      </trkpt>
      <trkpt lat="44.59812" lon="3.83579">
        <ele>1411.1994628906</ele>
        <time>2020-10-16T12:58:25.844Z</time>
      </trkpt>
      <trkpt lat="44.59813" lon="3.83596">
        <ele>1410.0460205078</ele>
        <time>2020-10-16T12:58:30.874Z</time>
      </trkpt>
      <trkpt lat="44.59813" lon="3.83612">
        <ele>1409.4473876953</ele>
        <time>2020-10-16T12:58:35.906Z</time>
      </trkpt>
      <trkpt lat="44.59813" lon="3.83635">
        <ele>1409.6372070312</ele>
        <time>2020-10-16T12:58:40.941Z</time>
      </trkpt>
      <trkpt lat="44.59813" lon="3.83666">
        <ele>1408.9190673828</ele>
        <time>2020-10-16T12:58:45.981Z</time>
      </trkpt>
      <trkpt lat="44.59812" lon="3.83693">
        <ele>1408.0692138672</ele>
        <time>2020-10-16T12:58:51.024Z</time>
      </trkpt>
      <trkpt lat="44.59809" lon="3.83713">
        <ele>1407.0611572266</ele>
        <time>2020-10-16T12:58:56.070Z</time>
      </trkpt>
      <trkpt lat="44.59804" lon="3.83742">
        <ele>1406.6296386719</ele>
        <time>2020-10-16T12:59:01.121Z</time>
      </trkpt>
      <trkpt lat="44.598" lon="3.83765">
        <ele>1406.23046875</ele>
        <time>2020-10-16T12:59:06.175Z</time>
      </trkpt>
      <trkpt lat="44.59795" lon="3.83783">
        <ele>1405.2476806641</ele>
        <time>2020-10-16T12:59:11.232Z</time>
      </trkpt>
      <trkpt lat="44.59792" lon="3.838">
        <ele>1405.1760253906</ele>
        <time>2020-10-16T12:59:16.291Z</time>
      </trkpt>
      <trkpt lat="44.59793" lon="3.83813">
        <ele>1405.1875</ele>
        <time>2020-10-16T12:59:21.352Z</time>
      </trkpt>
      <trkpt lat="44.59791" lon="3.83821">
        <ele>1405.1448974609</ele>
        <time>2020-10-16T12:59:26.414Z</time>
      </trkpt>
      <trkpt lat="44.59784" lon="3.83843">
        <ele>1404.6373291016</ele>
        <time>2020-10-16T12:59:31.480Z</time>
      </trkpt>
      <trkpt lat="44.59777" lon="3.83867">
        <ele>1403.7463378906</ele>
        <time>2020-10-16T12:59:36.550Z</time>
      </trkpt>
      <trkpt lat="44.59772" lon="3.83885">
        <ele>1403.4083251953</ele>
        <time>2020-10-16T12:59:41.622Z</time>
      </trkpt>
      <trkpt lat="44.59769" lon="3.83903">
        <ele>1403.5447998047</ele>
        <time>2020-10-16T12:59:46.697Z</time>
      </trkpt>
      <trkpt lat="44.59769" lon="3.83914">
        <ele>1403.8226318359</ele>
        <time>2020-10-16T12:59:51.774Z</time>
      </trkpt>
      <trkpt lat="44.59766" lon="3.83933">
        <ele>1404.392578125</ele>
        <time>2020-10-16T12:59:56.853Z</time>
      </trkpt>
      <trkpt lat="44.59765" lon="3.83959">
        <ele>1404.2038574219</ele>
        <time>2020-10-16T13:00:01.936Z</time>
      </trkpt>
      <trkpt lat="44.59766" lon="3.83985">
        <ele>1403.7335205078</ele>
        <time>2020-10-16T13:00:07.023Z</time>
      </trkpt>
      <trkpt lat="44.59768" lon="3.83997">
        <ele>1403.7342529297</ele>
        <time>2020-10-16T13:00:12.111Z</time>
      </trkpt>
      <trkpt lat="44.5977" lon="3.84007">
        <ele>1403.9149169922</ele>
        <time>2020-10-16T13:00:17.201Z</time>
      </trkpt>
      <trkpt lat="44.59775" lon="3.84028">
        <ele>1404.5233154297</ele>
        <time>2020-10-16T13:00:22.294Z</time>
      </trkpt>
      <trkpt lat="44.59778" lon="3.8405">
        <ele>1403.82421875</ele>
        <time>2020-10-16T13:00:27.390Z</time>
      </trkpt>
      <trkpt lat="44.5978" lon="3.84065">
        <ele>1403.3422851562</ele>
        <time>2020-10-16T13:00:32.489Z</time>
      </trkpt>
      <trkpt lat="44.59784" lon="3.84085">
        <ele>1402.9061279297</ele>
        <time>2020-10-16T13:00:37.590Z</time>
      </trkpt>
      <trkpt lat="44.59795" lon="3.84125">
        <ele>1400.8598632812</ele>
        <time>2020-10-16T13:00:42.698Z</time>
      </trkpt>
      <trkpt lat="44.59799" lon="3.84138">
        <ele>1400.0858154297</ele>
        <time>2020-10-16T13:00:47.808Z</time>
      </trkpt>
      <trkpt lat="44.59806" lon="3.84151">
        <ele>1399.3005371094</ele>
        <time>2020-10-16T13:00:52.920Z</time>
      </trkpt>
      <trkpt lat="44.59814" lon="3.84164">
        <ele>1398.5260009766</ele>
        <time>2020-10-16T13:00:58.034Z</time>
      </trkpt>
      <trkpt lat="44.59819" lon="3.84172">
        <ele>1398.0061035156</ele>
        <time>2020-10-16T13:01:03.150Z</time>
      </trkpt>
      <trkpt lat="44.59819" lon="3.84173">
        <ele>1397.953125</ele>
        <time>2020-10-16T13:01:08.266Z</time>
      </trkpt>
      <trkpt lat="44.59821" lon="3.8417">
        <ele>1398.0308837891</ele>
        <time>2020-10-16T13:01:13.383Z</time>
      </trkpt>
      <trkpt lat="44.59824" lon="3.84166">
        <ele>1398.1690673828</ele>
        <time>2020-10-16T13:01:18.500Z</time>
      </trkpt>
      <trkpt lat="44.59825" lon="3.84161">
        <ele>1398.3765869141</ele>
        <time>2020-10-16T13:01:23.618Z</time>
      </trkpt>
      <trkpt lat="44.59825" lon="3.84155">
        <ele>1398.6656494141</ele>
        <time>2020-10-16T13:01:28.737Z</time>
      </trkpt>
      <trkpt lat="44.59825" lon="3.84142">
        <ele>1399.1755371094</ele>
        <time>2020-10-16T13:01:33.858Z</time>
      </trkpt>
      <trkpt lat="44.59826" lon="3.8413">
        <ele>1399.2691650391</ele>
        <time>2020-10-16T13:01:38.981Z</time>
      </trkpt>
      <trkpt lat="44.59832" lon="3.84094">
        <ele>1399.7734375</ele>
        <time>2020-10-16T13:01:44.109Z</time>
      </trkpt>
      <trkpt lat="44.59837" lon="3.84066">
        <ele>1400.6553955078</ele>
        <time>2020-10-16T13:01:49.241Z</time>
      </trkpt>
      <trkpt lat="44.59844" lon="3.84036">
        <ele>1401.2354736328</ele>
        <time>2020-10-16T13:01:54.378Z</time>
      </trkpt>
      <trkpt lat="44.59853" lon="3.84005">
        <ele>1401.5828857422</ele>
        <time>2020-10-16T13:01:59.519Z</time>
      </trkpt>
      <trkpt lat="44.59862" lon="3.83971">
        <ele>1402.7471923828</ele>
        <time>2020-10-16T13:02:04.665Z</time>
      </trkpt>
      <trkpt lat="44.59875" lon="3.83934">
        <ele>1402.8536376953</ele>
        <time>2020-10-16T13:02:09.817Z</time>
      </trkpt>
      <trkpt lat="44.59882" lon="3.83915">
        <ele>1402.0279541016</ele>
        <time>2020-10-16T13:02:14.972Z</time>
      </trkpt>
      <trkpt lat="44.5989" lon="3.83892">
        <ele>1401.0158691406</ele>
        <time>2020-10-16T13:02:20.131Z</time>
      </trkpt>
      <trkpt lat="44.59896" lon="3.83879">
        <ele>1400.4987792969</ele>
        <time>2020-10-16T13:02:25.292Z</time>
      </trkpt>
      <trkpt lat="44.59905" lon="3.83867">
        <ele>1400.9033203125</ele>
        <time>2020-10-16T13:02:30.456Z</time>
      </trkpt>
      <trkpt lat="44.59929" lon="3.83838">
        <ele>1400.1087646484</ele>
        <time>2020-10-16T13:02:35.626Z</time>
      </trkpt>
      <trkpt lat="44.59943" lon="3.83824">
        <ele>1400.1705322266</ele>
        <time>2020-10-16T13:02:40.800Z</time>
      </trkpt>
      <trkpt lat="44.5995" lon="3.83817">
        <ele>1400.3337402344</ele>
        <time>2020-10-16T13:02:45.975Z</time>
      </trkpt>
      <trkpt lat="44.59957" lon="3.83807">
        <ele>1399.9018554688</ele>
        <time>2020-10-16T13:02:51.152Z</time>
      </trkpt>
      <trkpt lat="44.59963" lon="3.83799">
        <ele>1399.1851806641</ele>
        <time>2020-10-16T13:02:56.331Z</time>
      </trkpt>
      <trkpt lat="44.59966" lon="3.83798">
        <ele>1398.3850097656</ele>
        <time>2020-10-16T13:03:01.511Z</time>
      </trkpt>
      <trkpt lat="44.59969" lon="3.83799">
        <ele>1397.5524902344</ele>
        <time>2020-10-16T13:03:06.691Z</time>
      </trkpt>
      <trkpt lat="44.59971" lon="3.83802">
        <ele>1396.6317138672</ele>
        <time>2020-10-16T13:03:11.872Z</time>
      </trkpt>
      <trkpt lat="44.59971" lon="3.83808">
        <ele>1396.017578125</ele>
        <time>2020-10-16T13:03:17.054Z</time>
      </trkpt>
      <trkpt lat="44.59969" lon="3.83812">
        <ele>1396.1146240234</ele>
        <time>2020-10-16T13:03:22.236Z</time>
      </trkpt>
      <trkpt lat="44.59965" lon="3.83818">
        <ele>1396.5212402344</ele>
        <time>2020-10-16T13:03:27.420Z</time>
      </trkpt>
      <trkpt lat="44.5996" lon="3.8383">
        <ele>1396.6834716797</ele>
        <time>2020-10-16T13:03:32.605Z</time>
      </trkpt>
      <trkpt lat="44.59955" lon="3.83842">
        <ele>1396.58984375</ele>
        <time>2020-10-16T13:03:37.793Z</time>
      </trkpt>
      <trkpt lat="44.5995" lon="3.83859">
        <ele>1395.8726806641</ele>
        <time>2020-10-16T13:03:42.983Z</time>
      </trkpt>
      <trkpt lat="44.59947" lon="3.83877">
        <ele>1394.0377197266</ele>
        <time>2020-10-16T13:03:48.176Z</time>
      </trkpt>
      <trkpt lat="44.59945" lon="3.83893">
        <ele>1392.4049072266</ele>
        <time>2020-10-16T13:03:53.371Z</time>
      </trkpt>
      <trkpt lat="44.59945" lon="3.83917">
        <ele>1389.521484375</ele>
        <time>2020-10-16T13:03:58.570Z</time>
      </trkpt>
      <trkpt lat="44.59947" lon="3.83931">
        <ele>1387.6049804688</ele>
        <time>2020-10-16T13:04:03.771Z</time>
      </trkpt>
      <trkpt lat="44.59949" lon="3.83939">
        <ele>1386.5441894531</ele>
        <time>2020-10-16T13:04:08.973Z</time>
      </trkpt>
      <trkpt lat="44.59952" lon="3.83946">
        <ele>1385.7481689453</ele>
        <time>2020-10-16T13:04:14.176Z</time>
      </trkpt>
      <trkpt lat="44.59964" lon="3.83967">
        <ele>1382.7369384766</ele>
        <time>2020-10-16T13:04:19.383Z</time>
      </trkpt>
      <trkpt lat="44.59978" lon="3.83985">
        <ele>1379.4899902344</ele>
        <time>2020-10-16T13:04:24.594Z</time>
      </trkpt>
      <trkpt lat="44.59992" lon="3.83999">
        <ele>1376.3967285156</ele>
        <time>2020-10-16T13:04:29.808Z</time>
      </trkpt>
      <trkpt lat="44.60006" lon="3.84013">
        <ele>1373.0858154297</ele>
        <time>2020-10-16T13:04:35.026Z</time>
      </trkpt>
      <trkpt lat="44.60014" lon="3.84023">
        <ele>1371.3017578125</ele>
        <time>2020-10-16T13:04:40.246Z</time>
      </trkpt>
      <trkpt lat="44.6002" lon="3.84031">
        <ele>1370.0847167969</ele>
        <time>2020-10-16T13:04:45.467Z</time>
      </trkpt>
      <trkpt lat="44.60025" lon="3.84033">
        <ele>1369.1320800781</ele>
        <time>2020-10-16T13:04:50.689Z</time>
      </trkpt>
      <trkpt lat="44.6003" lon="3.84033">
        <ele>1368.1927490234</ele>
        <time>2020-10-16T13:04:55.912Z</time>
      </trkpt>
      <trkpt lat="44.60033" lon="3.84029">
        <ele>1367.4478759766</ele>
        <time>2020-10-16T13:05:01.136Z</time>
      </trkpt>
      <trkpt lat="44.60036" lon="3.84024">
        <ele>1366.8763427734</ele>
        <time>2020-10-16T13:05:06.361Z</time>
      </trkpt>
      <trkpt lat="44.60037" lon="3.84013">
        <ele>1366.6423339844</ele>
        <time>2020-10-16T13:05:11.588Z</time>
      </trkpt>
      <trkpt lat="44.60037" lon="3.84001">
        <ele>1366.7362060547</ele>
        <time>2020-10-16T13:05:16.816Z</time>
      </trkpt>
      <trkpt lat="44.60034" lon="3.83989">
        <ele>1367.2547607422</ele>
        <time>2020-10-16T13:05:22.046Z</time>
      </trkpt>
      <trkpt lat="44.6003" lon="3.8398">
        <ele>1368.1662597656</ele>
        <time>2020-10-16T13:05:27.278Z</time>
      </trkpt>
      <trkpt lat="44.60026" lon="3.83974">
        <ele>1369.1691894531</ele>
        <time>2020-10-16T13:05:32.511Z</time>
      </trkpt>
      <trkpt lat="44.60021" lon="3.83967">
        <ele>1370.3151855469</ele>
        <time>2020-10-16T13:05:37.745Z</time>
      </trkpt>
      <trkpt lat="44.60019" lon="3.8396">
        <ele>1370.6806640625</ele>
        <time>2020-10-16T13:05:42.980Z</time>
      </trkpt>
      <trkpt lat="44.6002" lon="3.83954">
        <ele>1370.4384765625</ele>
        <time>2020-10-16T13:05:48.216Z</time>
      </trkpt>
      <trkpt lat="44.60023" lon="3.83952">
        <ele>1369.8544921875</ele>
        <time>2020-10-16T13:05:53.453Z</time>
      </trkpt>
      <trkpt lat="44.60026" lon="3.83951">
        <ele>1368.9837646484</ele>
        <time>2020-10-16T13:05:58.691Z</time>
      </trkpt>
      <trkpt lat="44.60032" lon="3.83951">
        <ele>1367.5946044922</ele>
        <time>2020-10-16T13:06:03.930Z</time>
      </trkpt>
      <trkpt lat="44.60042" lon="3.83955">
        <ele>1365.7392578125</ele>
        <time>2020-10-16T13:06:09.171Z</time>
      </trkpt>
      <trkpt lat="44.60051" lon="3.83958">
        <ele>1364.1857910156</ele>
        <time>2020-10-16T13:06:14.414Z</time>
      </trkpt>
      <trkpt lat="44.60061" lon="3.8396">
        <ele>1362.0181884766</ele>
        <time>2020-10-16T13:06:19.659Z</time>
      </trkpt>
      <trkpt lat="44.60079" lon="3.83961">
        <ele>1357.1905517578</ele>
        <time>2020-10-16T13:06:24.907Z</time>
      </trkpt>
      <trkpt lat="44.60105" lon="3.83963">
        <ele>1350.6370849609</ele>
        <time>2020-10-16T13:06:30.160Z</time>
      </trkpt>
      <trkpt lat="44.60124" lon="3.83963">
        <ele>1345.8128662109</ele>
        <time>2020-10-16T13:06:35.417Z</time>
      </trkpt>
      <trkpt lat="44.60134" lon="3.83962">
        <ele>1343.5935058594</ele>
        <time>2020-10-16T13:06:40.676Z</time>
      </trkpt>
      <trkpt lat="44.60143" lon="3.8396">
        <ele>1341.6569824219</ele>
        <time>2020-10-16T13:06:45.937Z</time>
      </trkpt>
      <trkpt lat="44.6016" lon="3.83954">
        <ele>1338.1785888672</ele>
        <time>2020-10-16T13:06:51.202Z</time>
      </trkpt>
      <trkpt lat="44.60175" lon="3.83949">
        <ele>1335.2819824219</ele>
        <time>2020-10-16T13:06:56.470Z</time>
      </trkpt>
      <trkpt lat="44.60191" lon="3.83943">
        <ele>1332.0645751953</ele>
        <time>2020-10-16T13:07:01.741Z</time>
      </trkpt>
      <trkpt lat="44.60201" lon="3.8394">
        <ele>1330.2122802734</ele>
        <time>2020-10-16T13:07:07.014Z</time>
      </trkpt>
      <trkpt lat="44.60213" lon="3.83937">
        <ele>1329.4659423828</ele>
        <time>2020-10-16T13:07:12.289Z</time>
      </trkpt>
      <trkpt lat="44.6023" lon="3.83933">
        <ele>1328.6351318359</ele>
        <time>2020-10-16T13:07:17.568Z</time>
      </trkpt>
      <trkpt lat="44.60247" lon="3.83929">
        <ele>1327.8166503906</ele>
        <time>2020-10-16T13:07:22.850Z</time>
      </trkpt>
      <trkpt lat="44.60256" lon="3.83927">
        <ele>1327.4133300781</ele>
        <time>2020-10-16T13:07:28.134Z</time>
      </trkpt>
      <trkpt lat="44.60265" lon="3.83923">
        <ele>1326.9543457031</ele>
        <time>2020-10-16T13:07:33.420Z</time>
      </trkpt>
      <trkpt lat="44.60273" lon="3.8392">
        <ele>1325.4964599609</ele>
        <time>2020-10-16T13:07:38.708Z</time>
      </trkpt>
      <trkpt lat="44.60281" lon="3.83917">
        <ele>1323.6070556641</ele>
        <time>2020-10-16T13:07:43.997Z</time>
      </trkpt>
      <trkpt lat="44.60292" lon="3.83913">
        <ele>1321.7583007812</ele>
        <time>2020-10-16T13:07:49.289Z</time>
      </trkpt>
      <trkpt lat="44.60298" lon="3.83914">
        <ele>1321.2586669922</ele>
        <time>2020-10-16T13:07:54.582Z</time>
      </trkpt>
      <trkpt lat="44.60305" lon="3.83916">
        <ele>1321.0883789062</ele>
        <time>2020-10-16T13:07:59.876Z</time>
      </trkpt>
      <trkpt lat="44.60315" lon="3.83923">
        <ele>1321.1156005859</ele>
        <time>2020-10-16T13:08:05.173Z</time>
      </trkpt>
      <trkpt lat="44.60322" lon="3.83928">
        <ele>1321.3255615234</ele>
        <time>2020-10-16T13:08:10.471Z</time>
      </trkpt>
      <trkpt lat="44.60329" lon="3.83938">
        <ele>1322.1884765625</ele>
        <time>2020-10-16T13:08:15.771Z</time>
      </trkpt>
      <trkpt lat="44.60332" lon="3.83942">
        <ele>1321.8768310547</ele>
        <time>2020-10-16T13:08:21.072Z</time>
      </trkpt>
      <trkpt lat="44.60333" lon="3.83943">
        <ele>1321.7994384766</ele>
        <time>2020-10-16T13:08:26.373Z</time>
      </trkpt>
      <trkpt lat="44.60336" lon="3.83945">
        <ele>1321.4063720703</ele>
        <time>2020-10-16T13:08:31.675Z</time>
      </trkpt>
      <trkpt lat="44.60345" lon="3.83949">
        <ele>1320.5104980469</ele>
        <time>2020-10-16T13:08:36.979Z</time>
      </trkpt>
      <trkpt lat="44.60359" lon="3.83954">
        <ele>1319.056640625</ele>
        <time>2020-10-16T13:08:42.286Z</time>
      </trkpt>
      <trkpt lat="44.60375" lon="3.83959">
        <ele>1318.3720703125</ele>
        <time>2020-10-16T13:08:47.596Z</time>
      </trkpt>
      <trkpt lat="44.60385" lon="3.83959">
        <ele>1318.8267822266</ele>
        <time>2020-10-16T13:08:52.908Z</time>
      </trkpt>
      <trkpt lat="44.60398" lon="3.83957">
        <ele>1318.5999755859</ele>
        <time>2020-10-16T13:08:58.223Z</time>
      </trkpt>
      <trkpt lat="44.60409" lon="3.83955">
        <ele>1318.1087646484</ele>
        <time>2020-10-16T13:09:03.540Z</time>
      </trkpt>
      <trkpt lat="44.60416" lon="3.83954">
        <ele>1317.8350830078</ele>
        <time>2020-10-16T13:09:08.858Z</time>
      </trkpt>
      <trkpt lat="44.60426" lon="3.83955">
        <ele>1317.5017089844</ele>
        <time>2020-10-16T13:09:14.178Z</time>
      </trkpt>
      <trkpt lat="44.60452" lon="3.83955">
        <ele>1316.5716552734</ele>
        <time>2020-10-16T13:09:19.503Z</time>
      </trkpt>
      <trkpt lat="44.60476" lon="3.83955">
        <ele>1318.6700439453</ele>
        <time>2020-10-16T13:09:24.833Z</time>
      </trkpt>
      <trkpt lat="44.60488" lon="3.83957">
        <ele>1319.6383056641</ele>
        <time>2020-10-16T13:09:30.165Z</time>
      </trkpt>
      <trkpt lat="44.60503" lon="3.83961">
        <ele>1320.9729003906</ele>
        <time>2020-10-16T13:09:35.501Z</time>
      </trkpt>
      <trkpt lat="44.60521" lon="3.83968">
        <ele>1322.7160644531</ele>
        <time>2020-10-16T13:09:40.840Z</time>
      </trkpt>
      <trkpt lat="44.60537" lon="3.83977">
        <ele>1324.3770751953</ele>
        <time>2020-10-16T13:09:46.183Z</time>
      </trkpt>
      <trkpt lat="44.6055" lon="3.83984">
        <ele>1325.5913085938</ele>
        <time>2020-10-16T13:09:51.529Z</time>
      </trkpt>
      <trkpt lat="44.60557" lon="3.83986">
        <ele>1326.1470947266</ele>
        <time>2020-10-16T13:09:56.876Z</time>
      </trkpt>
      <trkpt lat="44.60564" lon="3.83987">
        <ele>1326.5656738281</ele>
        <time>2020-10-16T13:10:02.224Z</time>
      </trkpt>
      <trkpt lat="44.6057" lon="3.83987">
        <ele>1326.9727783203</ele>
        <time>2020-10-16T13:10:07.574Z</time>
      </trkpt>
      <trkpt lat="44.606" lon="3.83983">
        <ele>1328.3049316406</ele>
        <time>2020-10-16T13:10:12.930Z</time>
      </trkpt>
      <trkpt lat="44.60617" lon="3.83983">
        <ele>1329.0887451172</ele>
        <time>2020-10-16T13:10:18.289Z</time>
      </trkpt>
      <trkpt lat="44.60636" lon="3.83984">
        <ele>1326.7805175781</ele>
        <time>2020-10-16T13:10:23.652Z</time>
      </trkpt>
      <trkpt lat="44.60662" lon="3.83987">
        <ele>1323.2091064453</ele>
        <time>2020-10-16T13:10:29.020Z</time>
      </trkpt>
      <trkpt lat="44.60681" lon="3.83989">
        <ele>1321.1002197266</ele>
        <time>2020-10-16T13:10:34.392Z</time>
      </trkpt>
      <trkpt lat="44.60708" lon="3.83994">
        <ele>1318.5091552734</ele>
        <time>2020-10-16T13:10:39.769Z</time>
      </trkpt>
      <trkpt lat="44.60737" lon="3.83997">
        <ele>1316.5904541016</ele>
        <time>2020-10-16T13:10:45.152Z</time>
      </trkpt>
      <trkpt lat="44.60749" lon="3.83999">
        <ele>1315.7470703125</ele>
        <time>2020-10-16T13:10:50.538Z</time>
      </trkpt>
      <trkpt lat="44.60763" lon="3.84002">
        <ele>1314.8380126953</ele>
        <time>2020-10-16T13:10:55.926Z</time>
      </trkpt>
      <trkpt lat="44.60774" lon="3.84002">
        <ele>1313.8247070312</ele>
        <time>2020-10-16T13:11:01.317Z</time>
      </trkpt>
      <trkpt lat="44.60784" lon="3.84001">
        <ele>1312.7850341797</ele>
        <time>2020-10-16T13:11:06.710Z</time>
      </trkpt>
      <trkpt lat="44.60791" lon="3.83999">
        <ele>1312.4738769531</ele>
        <time>2020-10-16T13:11:12.104Z</time>
      </trkpt>
      <trkpt lat="44.60799" lon="3.83997">
        <ele>1312.1372070312</ele>
        <time>2020-10-16T13:11:17.500Z</time>
      </trkpt>
      <trkpt lat="44.60816" lon="3.83992">
        <ele>1311.40625</ele>
        <time>2020-10-16T13:11:22.899Z</time>
      </trkpt>
      <trkpt lat="44.60841" lon="3.83984">
        <ele>1310.2426757812</ele>
        <time>2020-10-16T13:11:28.303Z</time>
      </trkpt>
      <trkpt lat="44.6085" lon="3.8398">
        <ele>1309.6492919922</ele>
        <time>2020-10-16T13:11:33.709Z</time>
      </trkpt>
      <trkpt lat="44.60862" lon="3.83974">
        <ele>1308.7432861328</ele>
        <time>2020-10-16T13:11:39.118Z</time>
      </trkpt>
      <trkpt lat="44.60895" lon="3.83956">
        <ele>1305.158203125</ele>
        <time>2020-10-16T13:11:44.534Z</time>
      </trkpt>
      <trkpt lat="44.60909" lon="3.83949">
        <ele>1304.3208007812</ele>
        <time>2020-10-16T13:11:49.953Z</time>
      </trkpt>
      <trkpt lat="44.60919" lon="3.83945">
        <ele>1303.7023925781</ele>
        <time>2020-10-16T13:11:55.374Z</time>
      </trkpt>
      <trkpt lat="44.60934" lon="3.83941">
        <ele>1302.9309082031</ele>
        <time>2020-10-16T13:12:00.798Z</time>
      </trkpt>
      <trkpt lat="44.60949" lon="3.83938">
        <ele>1301.9724121094</ele>
        <time>2020-10-16T13:12:06.225Z</time>
      </trkpt>
      <trkpt lat="44.60961" lon="3.83936">
        <ele>1301.0098876953</ele>
        <time>2020-10-16T13:12:11.654Z</time>
      </trkpt>
      <trkpt lat="44.60972" lon="3.83935">
        <ele>1300.2131347656</ele>
        <time>2020-10-16T13:12:17.086Z</time>
      </trkpt>
      <trkpt lat="44.6099" lon="3.83936">
        <ele>1299.1727294922</ele>
        <time>2020-10-16T13:12:22.521Z</time>
      </trkpt>
      <trkpt lat="44.61" lon="3.83935">
        <ele>1298.525390625</ele>
        <time>2020-10-16T13:12:27.958Z</time>
      </trkpt>
      <trkpt lat="44.61006" lon="3.83934">
        <ele>1298.0224609375</ele>
        <time>2020-10-16T13:12:33.396Z</time>
      </trkpt>
      <trkpt lat="44.61025" lon="3.83929">
        <ele>1296.1232910156</ele>
        <time>2020-10-16T13:12:38.838Z</time>
      </trkpt>
      <trkpt lat="44.61033" lon="3.83928">
        <ele>1295.8157958984</ele>
        <time>2020-10-16T13:12:44.282Z</time>
      </trkpt>
      <trkpt lat="44.61042" lon="3.83927">
        <ele>1295.2521972656</ele>
        <time>2020-10-16T13:12:49.728Z</time>
      </trkpt>
      <trkpt lat="44.61051" lon="3.83928">
        <ele>1294.7213134766</ele>
        <time>2020-10-16T13:12:55.175Z</time>
      </trkpt>
      <trkpt lat="44.61071" lon="3.83934">
        <ele>1293.8221435547</ele>
        <time>2020-10-16T13:13:00.627Z</time>
      </trkpt>
      <trkpt lat="44.6108" lon="3.83937">
        <ele>1293.5063476562</ele>
        <time>2020-10-16T13:13:06.080Z</time>
      </trkpt>
      <trkpt lat="44.6109" lon="3.83941">
        <ele>1293.0947265625</ele>
        <time>2020-10-16T13:13:11.535Z</time>
      </trkpt>
      <trkpt lat="44.61103" lon="3.83948">
        <ele>1292.2305908203</ele>
        <time>2020-10-16T13:13:16.993Z</time>
      </trkpt>
      <trkpt lat="44.61119" lon="3.83955">
        <ele>1291.1915283203</ele>
        <time>2020-10-16T13:13:22.455Z</time>
      </trkpt>
      <trkpt lat="44.61125" lon="3.83957">
        <ele>1291.1370849609</ele>
        <time>2020-10-16T13:13:27.918Z</time>
      </trkpt>
      <trkpt lat="44.61133" lon="3.83959">
        <ele>1291.0603027344</ele>
        <time>2020-10-16T13:13:33.383Z</time>
      </trkpt>
      <trkpt lat="44.61142" lon="3.83959">
        <ele>1290.8712158203</ele>
        <time>2020-10-16T13:13:38.849Z</time>
      </trkpt>
      <trkpt lat="44.61152" lon="3.83958">
        <ele>1290.4871826172</ele>
        <time>2020-10-16T13:13:44.317Z</time>
      </trkpt>
      <trkpt lat="44.6116" lon="3.83955">
        <ele>1290.0877685547</ele>
        <time>2020-10-16T13:13:49.787Z</time>
      </trkpt>
      <trkpt lat="44.61172" lon="3.8395">
        <ele>1289.4914550781</ele>
        <time>2020-10-16T13:13:55.259Z</time>
      </trkpt>
      <trkpt lat="44.61187" lon="3.83942">
        <ele>1288.6408691406</ele>
        <time>2020-10-16T13:14:00.735Z</time>
      </trkpt>
      <trkpt lat="44.61209" lon="3.83933">
        <ele>1287.3319091797</ele>
        <time>2020-10-16T13:14:06.215Z</time>
      </trkpt>
      <trkpt lat="44.61241" lon="3.83921">
        <ele>1285.7603759766</ele>
        <time>2020-10-16T13:14:11.702Z</time>
      </trkpt>
      <trkpt lat="44.61253" lon="3.83917">
        <ele>1285.2269287109</ele>
        <time>2020-10-16T13:14:17.191Z</time>
      </trkpt>
      <trkpt lat="44.61267" lon="3.83911">
        <ele>1284.9750976562</ele>
        <time>2020-10-16T13:14:22.683Z</time>
      </trkpt>
      <trkpt lat="44.61274" lon="3.83906">
        <ele>1285.0202636719</ele>
        <time>2020-10-16T13:14:28.177Z</time>
      </trkpt>
      <trkpt lat="44.61284" lon="3.83898">
        <ele>1284.9901123047</ele>
        <time>2020-10-16T13:14:33.673Z</time>
      </trkpt>
      <trkpt lat="44.6129" lon="3.83892">
        <ele>1284.4945068359</ele>
        <time>2020-10-16T13:14:39.171Z</time>
      </trkpt>
      <trkpt lat="44.61298" lon="3.83887">
        <ele>1283.8940429688</ele>
        <time>2020-10-16T13:14:44.670Z</time>
      </trkpt>
      <trkpt lat="44.61306" lon="3.83884">
        <ele>1283.3634033203</ele>
        <time>2020-10-16T13:14:50.171Z</time>
      </trkpt>
      <trkpt lat="44.61317" lon="3.83883">
        <ele>1282.7514648438</ele>
        <time>2020-10-16T13:14:55.674Z</time>
      </trkpt>
      <trkpt lat="44.61327" lon="3.83881">
        <ele>1281.9997558594</ele>
        <time>2020-10-16T13:15:01.179Z</time>
      </trkpt>
      <trkpt lat="44.61338" lon="3.83876">
        <ele>1281.1005859375</ele>
        <time>2020-10-16T13:15:06.686Z</time>
      </trkpt>
      <trkpt lat="44.61348" lon="3.83869">
        <ele>1280.021484375</ele>
        <time>2020-10-16T13:15:12.196Z</time>
      </trkpt>
      <trkpt lat="44.6136" lon="3.8386">
        <ele>1278.7716064453</ele>
        <time>2020-10-16T13:15:17.709Z</time>
      </trkpt>
      <trkpt lat="44.61371" lon="3.83854">
        <ele>1277.7694091797</ele>
        <time>2020-10-16T13:15:23.224Z</time>
      </trkpt>
      <trkpt lat="44.61381" lon="3.83849">
        <ele>1276.8272705078</ele>
        <time>2020-10-16T13:15:28.741Z</time>
      </trkpt>
      <trkpt lat="44.61409" lon="3.83832">
        <ele>1274.0366210938</ele>
        <time>2020-10-16T13:15:34.264Z</time>
      </trkpt>
      <trkpt lat="44.61433" lon="3.83815">
        <ele>1271.3173828125</ele>
        <time>2020-10-16T13:15:39.792Z</time>
      </trkpt>
      <trkpt lat="44.61456" lon="3.83794">
        <ele>1268.2322998047</ele>
        <time>2020-10-16T13:15:45.326Z</time>
      </trkpt>
      <trkpt lat="44.61489" lon="3.83769">
        <ele>1266.576171875</ele>
        <time>2020-10-16T13:15:50.867Z</time>
      </trkpt>
      <trkpt lat="44.61522" lon="3.83746">
        <ele>1263.6715087891</ele>
        <time>2020-10-16T13:15:56.416Z</time>
      </trkpt>
      <trkpt lat="44.61538" lon="3.83735">
        <ele>1263.0986328125</ele>
        <time>2020-10-16T13:16:01.968Z</time>
      </trkpt>
      <trkpt lat="44.61555" lon="3.83719">
        <ele>1260.2794189453</ele>
        <time>2020-10-16T13:16:07.524Z</time>
      </trkpt>
      <trkpt lat="44.61566" lon="3.83708">
        <ele>1259.9913330078</ele>
        <time>2020-10-16T13:16:13.083Z</time>
      </trkpt>
      <trkpt lat="44.61576" lon="3.83697">
        <ele>1261.3112792969</ele>
        <time>2020-10-16T13:16:18.645Z</time>
      </trkpt>
      <trkpt lat="44.61598" lon="3.83664">
        <ele>1259.2016601562</ele>
        <time>2020-10-16T13:16:24.213Z</time>
      </trkpt>
      <trkpt lat="44.61612" lon="3.83646">
        <ele>1259.4708251953</ele>
        <time>2020-10-16T13:16:29.785Z</time>
      </trkpt>
      <trkpt lat="44.61624" lon="3.83633">
        <ele>1258.8879394531</ele>
        <time>2020-10-16T13:16:35.360Z</time>
      </trkpt>
      <trkpt lat="44.61637" lon="3.83619">
        <ele>1257.2586669922</ele>
        <time>2020-10-16T13:16:40.938Z</time>
      </trkpt>
      <trkpt lat="44.61658" lon="3.83602">
        <ele>1259.4210205078</ele>
        <time>2020-10-16T13:16:46.521Z</time>
      </trkpt>
      <trkpt lat="44.61704" lon="3.83565">
        <ele>1261.2456054688</ele>
        <time>2020-10-16T13:16:52.115Z</time>
      </trkpt>
      <trkpt lat="44.6172" lon="3.83551">
        <ele>1260.2935791016</ele>
        <time>2020-10-16T13:16:57.712Z</time>
      </trkpt>
      <trkpt lat="44.61728" lon="3.83541">
        <ele>1260.3515625</ele>
        <time>2020-10-16T13:17:03.312Z</time>
      </trkpt>
      <trkpt lat="44.61738" lon="3.83528">
        <ele>1261.7150878906</ele>
        <time>2020-10-16T13:17:08.914Z</time>
      </trkpt>
      <trkpt lat="44.61754" lon="3.83504">
        <ele>1260.6265869141</ele>
        <time>2020-10-16T13:17:14.521Z</time>
      </trkpt>
      <trkpt lat="44.61763" lon="3.83494">
        <ele>1260.5440673828</ele>
        <time>2020-10-16T13:17:20.130Z</time>
      </trkpt>
      <trkpt lat="44.61771" lon="3.83488">
        <ele>1261.5557861328</ele>
        <time>2020-10-16T13:17:25.741Z</time>
      </trkpt>
      <trkpt lat="44.61779" lon="3.83485">
        <ele>1263.0113525391</ele>
        <time>2020-10-16T13:17:31.354Z</time>
      </trkpt>
      <trkpt lat="44.61791" lon="3.83482">
        <ele>1264.5632324219</ele>
        <time>2020-10-16T13:17:36.969Z</time>
      </trkpt>
      <trkpt lat="44.61811" lon="3.83477">
        <ele>1265.7329101562</ele>
        <time>2020-10-16T13:17:42.588Z</time>
      </trkpt>
      <trkpt lat="44.61847" lon="3.83468">
        <ele>1268.8237304688</ele>
        <time>2020-10-16T13:17:48.215Z</time>
      </trkpt>
      <trkpt lat="44.61892" lon="3.83455">
        <ele>1270.5042724609</ele>
        <time>2020-10-16T13:17:53.851Z</time>
      </trkpt>
      <trkpt lat="44.61935" lon="3.83446">
        <ele>1272.3654785156</ele>
        <time>2020-10-16T13:17:59.496Z</time>
      </trkpt>
      <trkpt lat="44.61987" lon="3.83435">
        <ele>1271.7795410156</ele>
        <time>2020-10-16T13:18:05.151Z</time>
      </trkpt>
      <trkpt lat="44.62015" lon="3.8343">
        <ele>1270.5645751953</ele>
        <time>2020-10-16T13:18:10.812Z</time>
      </trkpt>
      <trkpt lat="44.62031" lon="3.83429">
        <ele>1270.2738037109</ele>
        <time>2020-10-16T13:18:16.476Z</time>
      </trkpt>
      <trkpt lat="44.62049" lon="3.8343">
        <ele>1269.4855957031</ele>
        <time>2020-10-16T13:18:22.144Z</time>
      </trkpt>
      <trkpt lat="44.62064" lon="3.83435">
        <ele>1269.1754150391</ele>
        <time>2020-10-16T13:18:27.815Z</time>
      </trkpt>
      <trkpt lat="44.62075" lon="3.83439">
        <ele>1269.0966796875</ele>
        <time>2020-10-16T13:18:33.488Z</time>
      </trkpt>
      <trkpt lat="44.62081" lon="3.8344">
        <ele>1268.7113037109</ele>
        <time>2020-10-16T13:18:39.162Z</time>
      </trkpt>
      <trkpt lat="44.62087" lon="3.83441">
        <ele>1268.2667236328</ele>
        <time>2020-10-16T13:18:44.837Z</time>
      </trkpt>
      <trkpt lat="44.62099" lon="3.83441">
        <ele>1267.3884277344</ele>
        <time>2020-10-16T13:18:50.515Z</time>
      </trkpt>
      <trkpt lat="44.62113" lon="3.83441">
        <ele>1266.3548583984</ele>
        <time>2020-10-16T13:18:56.196Z</time>
      </trkpt>
      <trkpt lat="44.62125" lon="3.83444">
        <ele>1265.3289794922</ele>
        <time>2020-10-16T13:19:01.879Z</time>
      </trkpt>
      <trkpt lat="44.62137" lon="3.83448">
        <ele>1263.9030761719</ele>
        <time>2020-10-16T13:19:07.564Z</time>
      </trkpt>
      <trkpt lat="44.62149" lon="3.83454">
        <ele>1262.5668945312</ele>
        <time>2020-10-16T13:19:13.252Z</time>
      </trkpt>
      <trkpt lat="44.62171" lon="3.83466">
        <ele>1260.0997314453</ele>
        <time>2020-10-16T13:19:18.945Z</time>
      </trkpt>
      <trkpt lat="44.62195" lon="3.83476">
        <ele>1257.3319091797</ele>
        <time>2020-10-16T13:19:24.643Z</time>
      </trkpt>
      <trkpt lat="44.62208" lon="3.83483">
        <ele>1255.9454345703</ele>
        <time>2020-10-16T13:19:30.343Z</time>
      </trkpt>
      <trkpt lat="44.62218" lon="3.83489">
        <ele>1255.0354003906</ele>
        <time>2020-10-16T13:19:36.046Z</time>
      </trkpt>
      <trkpt lat="44.62252" lon="3.83512">
        <ele>1252.0924072266</ele>
        <time>2020-10-16T13:19:41.756Z</time>
      </trkpt>
      <trkpt lat="44.62276" lon="3.83527">
        <ele>1249.6729736328</ele>
        <time>2020-10-16T13:19:47.471Z</time>
      </trkpt>
      <trkpt lat="44.62312" lon="3.8355">
        <ele>1247.3253173828</ele>
        <time>2020-10-16T13:19:53.194Z</time>
      </trkpt>
      <trkpt lat="44.62325" lon="3.83558">
        <ele>1246.7276611328</ele>
        <time>2020-10-16T13:19:58.920Z</time>
      </trkpt>
      <trkpt lat="44.62334" lon="3.83563">
        <ele>1246.2708740234</ele>
        <time>2020-10-16T13:20:04.648Z</time>
      </trkpt>
      <trkpt lat="44.62358" lon="3.83574">
        <ele>1245.1563720703</ele>
        <time>2020-10-16T13:20:10.381Z</time>
      </trkpt>
      <trkpt lat="44.62367" lon="3.8358">
        <ele>1244.6871337891</ele>
        <time>2020-10-16T13:20:16.116Z</time>
      </trkpt>
      <trkpt lat="44.62378" lon="3.83586">
        <ele>1244.2424316406</ele>
        <time>2020-10-16T13:20:21.854Z</time>
      </trkpt>
      <trkpt lat="44.62386" lon="3.8359">
        <ele>1243.9588623047</ele>
        <time>2020-10-16T13:20:27.593Z</time>
      </trkpt>
      <trkpt lat="44.62394" lon="3.83591">
        <ele>1243.7467041016</ele>
        <time>2020-10-16T13:20:33.334Z</time>
      </trkpt>
      <trkpt lat="44.62401" lon="3.83592">
        <ele>1243.5739746094</ele>
        <time>2020-10-16T13:20:39.076Z</time>
      </trkpt>
      <trkpt lat="44.62418" lon="3.83591">
        <ele>1243.1768798828</ele>
        <time>2020-10-16T13:20:44.822Z</time>
      </trkpt>
      <trkpt lat="44.62433" lon="3.8359">
        <ele>1242.8337402344</ele>
        <time>2020-10-16T13:20:50.571Z</time>
      </trkpt>
      <trkpt lat="44.62464" lon="3.83591">
        <ele>1240.9207763672</ele>
        <time>2020-10-16T13:20:56.326Z</time>
      </trkpt>
      <trkpt lat="44.62472" lon="3.8359">
        <ele>1240.4826660156</ele>
        <time>2020-10-16T13:21:02.082Z</time>
      </trkpt>
      <trkpt lat="44.62481" lon="3.83586">
        <ele>1239.9014892578</ele>
        <time>2020-10-16T13:21:07.840Z</time>
      </trkpt>
      <trkpt lat="44.62499" lon="3.83579">
        <ele>1238.7980957031</ele>
        <time>2020-10-16T13:21:13.602Z</time>
      </trkpt>
      <trkpt lat="44.6251" lon="3.83578">
        <ele>1238.1694335938</ele>
        <time>2020-10-16T13:21:19.366Z</time>
      </trkpt>
      <trkpt lat="44.62519" lon="3.8358">
        <ele>1237.5377197266</ele>
        <time>2020-10-16T13:21:25.132Z</time>
      </trkpt>
      <trkpt lat="44.62529" lon="3.83584">
        <ele>1237.0130615234</ele>
        <time>2020-10-16T13:21:30.900Z</time>
      </trkpt>
      <trkpt lat="44.62541" lon="3.83592">
        <ele>1236.5932617188</ele>
        <time>2020-10-16T13:21:36.671Z</time>
      </trkpt>
      <trkpt lat="44.62558" lon="3.83605">
        <ele>1236.2878417969</ele>
        <time>2020-10-16T13:21:42.446Z</time>
      </trkpt>
      <trkpt lat="44.6258" lon="3.83621">
        <ele>1234.4438476562</ele>
        <time>2020-10-16T13:21:48.226Z</time>
      </trkpt>
      <trkpt lat="44.62597" lon="3.83638">
        <ele>1232.828125</ele>
        <time>2020-10-16T13:21:54.010Z</time>
      </trkpt>
      <trkpt lat="44.62607" lon="3.8365">
        <ele>1231.759765625</ele>
        <time>2020-10-16T13:21:59.797Z</time>
      </trkpt>
      <trkpt lat="44.62618" lon="3.83666">
        <ele>1230.5876464844</ele>
        <time>2020-10-16T13:22:05.587Z</time>
      </trkpt>
      <trkpt lat="44.62626" lon="3.83682">
        <ele>1229.0866699219</ele>
        <time>2020-10-16T13:22:11.379Z</time>
      </trkpt>
      <trkpt lat="44.62632" lon="3.837">
        <ele>1227.7857666016</ele>
        <time>2020-10-16T13:22:17.174Z</time>
      </trkpt>
      <trkpt lat="44.62635" lon="3.83715">
        <ele>1226.3996582031</ele>
        <time>2020-10-16T13:22:22.972Z</time>
      </trkpt>
      <trkpt lat="44.62637" lon="3.83731">
        <ele>1224.9064941406</ele>
        <time>2020-10-16T13:22:28.772Z</time>
      </trkpt>
      <trkpt lat="44.62637" lon="3.83748">
        <ele>1223.5380859375</ele>
        <time>2020-10-16T13:22:34.574Z</time>
      </trkpt>
      <trkpt lat="44.62636" lon="3.83759">
        <ele>1222.6236572266</ele>
        <time>2020-10-16T13:22:40.378Z</time>
      </trkpt>
      <trkpt lat="44.62636" lon="3.83773">
        <ele>1221.5205078125</ele>
        <time>2020-10-16T13:22:46.184Z</time>
      </trkpt>
      <trkpt lat="44.62639" lon="3.83786">
        <ele>1221.1866455078</ele>
        <time>2020-10-16T13:22:51.992Z</time>
      </trkpt>
      <trkpt lat="44.62643" lon="3.83799">
        <ele>1220.4288330078</ele>
        <time>2020-10-16T13:22:57.802Z</time>
      </trkpt>
      <trkpt lat="44.62649" lon="3.83814">
        <ele>1218.9685058594</ele>
        <time>2020-10-16T13:23:03.614Z</time>
      </trkpt>
      <trkpt lat="44.62658" lon="3.83833">
        <ele>1217.1455078125</ele>
        <time>2020-10-16T13:23:09.430Z</time>
      </trkpt>
      <trkpt lat="44.62665" lon="3.83847">
        <ele>1215.7878417969</ele>
        <time>2020-10-16T13:23:15.248Z</time>
      </trkpt>
      <trkpt lat="44.62674" lon="3.8386">
        <ele>1215</ele>
        <time>2020-10-16T13:23:21.069Z</time>
      </trkpt>
      <trkpt lat="44.62685" lon="3.8387">
        <ele>1215</ele>
        <time>2020-10-16T13:23:26.892Z</time>
      </trkpt>
      <trkpt lat="44.62698" lon="3.83879">
        <ele>1215</ele>
        <time>2020-10-16T13:23:32.718Z</time>
      </trkpt>
      <trkpt lat="44.62721" lon="3.8389">
        <ele>1215.9074707031</ele>
        <time>2020-10-16T13:23:38.549Z</time>
      </trkpt>
      <trkpt lat="44.62741" lon="3.83896">
        <ele>1216.8564453125</ele>
        <time>2020-10-16T13:23:44.384Z</time>
      </trkpt>
      <trkpt lat="44.62756" lon="3.839">
        <ele>1217.0345458984</ele>
        <time>2020-10-16T13:23:50.222Z</time>
      </trkpt>
      <trkpt lat="44.62778" lon="3.83906">
        <ele>1217.0902099609</ele>
        <time>2020-10-16T13:23:56.065Z</time>
      </trkpt>
      <trkpt lat="44.6279" lon="3.83908">
        <ele>1217.1647949219</ele>
        <time>2020-10-16T13:24:01.910Z</time>
      </trkpt>
      <trkpt lat="44.628" lon="3.8391">
        <ele>1217.2409667969</ele>
        <time>2020-10-16T13:24:07.757Z</time>
      </trkpt>
      <trkpt lat="44.6281" lon="3.8391">
        <ele>1217.2681884766</ele>
        <time>2020-10-16T13:24:13.606Z</time>
      </trkpt>
      <trkpt lat="44.6282" lon="3.83911">
        <ele>1217.3089599609</ele>
        <time>2020-10-16T13:24:19.457Z</time>
      </trkpt>
      <trkpt lat="44.62829" lon="3.83913">
        <ele>1217.4342041016</ele>
        <time>2020-10-16T13:24:25.310Z</time>
      </trkpt>
      <trkpt lat="44.62838" lon="3.83917">
        <ele>1217.6799316406</ele>
        <time>2020-10-16T13:24:31.165Z</time>
      </trkpt>
      <trkpt lat="44.62845" lon="3.83923">
        <ele>1218.0142822266</ele>
        <time>2020-10-16T13:24:37.021Z</time>
      </trkpt>
      <trkpt lat="44.62872" lon="3.83945">
        <ele>1218.9390869141</ele>
        <time>2020-10-16T13:24:42.884Z</time>
      </trkpt>
      <trkpt lat="44.62909" lon="3.83974">
        <ele>1219.6474609375</ele>
        <time>2020-10-16T13:24:48.755Z</time>
      </trkpt>
      <trkpt lat="44.62932" lon="3.83993">
        <ele>1220.1021728516</ele>
        <time>2020-10-16T13:24:54.632Z</time>
      </trkpt>
      <trkpt lat="44.62945" lon="3.84002">
        <ele>1220.3924560547</ele>
        <time>2020-10-16T13:25:00.512Z</time>
      </trkpt>
      <trkpt lat="44.62958" lon="3.8401">
        <ele>1220.7176513672</ele>
        <time>2020-10-16T13:25:06.394Z</time>
      </trkpt>
      <trkpt lat="44.62977" lon="3.84018">
        <ele>1221.3431396484</ele>
        <time>2020-10-16T13:25:12.280Z</time>
      </trkpt>
      <trkpt lat="44.62997" lon="3.84024">
        <ele>1221.9591064453</ele>
        <time>2020-10-16T13:25:18.170Z</time>
      </trkpt>
      <trkpt lat="44.63028" lon="3.84032">
        <ele>1222.7115478516</ele>
        <time>2020-10-16T13:25:24.067Z</time>
      </trkpt>
      <trkpt lat="44.63065" lon="3.8404">
        <ele>1222.0046386719</ele>
        <time>2020-10-16T13:25:29.971Z</time>
      </trkpt>
      <trkpt lat="44.63074" lon="3.84042">
        <ele>1221.7008056641</ele>
        <time>2020-10-16T13:25:35.877Z</time>
      </trkpt>
      <trkpt lat="44.63099" lon="3.84046">
        <ele>1220.7579345703</ele>
        <time>2020-10-16T13:25:41.788Z</time>
      </trkpt>
      <trkpt lat="44.63127" lon="3.84052">
        <ele>1219.8356933594</ele>
        <time>2020-10-16T13:25:47.705Z</time>
      </trkpt>
      <trkpt lat="44.63145" lon="3.84057">
        <ele>1219.4842529297</ele>
        <time>2020-10-16T13:25:53.625Z</time>
      </trkpt>
      <trkpt lat="44.63158" lon="3.84064">
        <ele>1219.0084228516</ele>
        <time>2020-10-16T13:25:59.548Z</time>
      </trkpt>
      <trkpt lat="44.63172" lon="3.84073">
        <ele>1218.3424072266</ele>
        <time>2020-10-16T13:26:05.474Z</time>
      </trkpt>
      <trkpt lat="44.63187" lon="3.84083">
        <ele>1217.5202636719</ele>
        <time>2020-10-16T13:26:11.404Z</time>
      </trkpt>
      <trkpt lat="44.632" lon="3.84095">
        <ele>1216.6727294922</ele>
        <time>2020-10-16T13:26:17.337Z</time>
      </trkpt>
      <trkpt lat="44.63216" lon="3.84112">
        <ele>1216.2938232422</ele>
        <time>2020-10-16T13:26:23.274Z</time>
      </trkpt>
      <trkpt lat="44.63256" lon="3.8416">
        <ele>1214.7227783203</ele>
        <time>2020-10-16T13:26:29.221Z</time>
      </trkpt>
      <trkpt lat="44.63269" lon="3.84174">
        <ele>1214.1265869141</ele>
        <time>2020-10-16T13:26:35.171Z</time>
      </trkpt>
      <trkpt lat="44.63278" lon="3.84187">
        <ele>1213.4826660156</ele>
        <time>2020-10-16T13:26:41.124Z</time>
      </trkpt>
      <trkpt lat="44.63285" lon="3.84199">
        <ele>1212.947265625</ele>
        <time>2020-10-16T13:26:47.079Z</time>
      </trkpt>
      <trkpt lat="44.63295" lon="3.84221">
        <ele>1212.0578613281</ele>
        <time>2020-10-16T13:26:53.038Z</time>
      </trkpt>
      <trkpt lat="44.63309" lon="3.84249">
        <ele>1211.0637207031</ele>
        <time>2020-10-16T13:26:59.002Z</time>
      </trkpt>
      <trkpt lat="44.63316" lon="3.84262">
        <ele>1210.7239990234</ele>
        <time>2020-10-16T13:27:04.968Z</time>
      </trkpt>
      <trkpt lat="44.63323" lon="3.84269">
        <ele>1210.8497314453</ele>
        <time>2020-10-16T13:27:10.936Z</time>
      </trkpt>
      <trkpt lat="44.63328" lon="3.84289">
        <ele>1211.9327392578</ele>
        <time>2020-10-16T13:27:16.907Z</time>
      </trkpt>
      <trkpt lat="44.63333" lon="3.84309">
        <ele>1213.4119873047</ele>
        <time>2020-10-16T13:27:22.881Z</time>
      </trkpt>
      <trkpt lat="44.63342" lon="3.84342">
        <ele>1215.2885742188</ele>
        <time>2020-10-16T13:27:28.860Z</time>
      </trkpt>
      <trkpt lat="44.63352" lon="3.84364">
        <ele>1217.1713867188</ele>
        <time>2020-10-16T13:27:34.843Z</time>
      </trkpt>
      <trkpt lat="44.63366" lon="3.84382">
        <ele>1220.1436767578</ele>
        <time>2020-10-16T13:27:40.830Z</time>
      </trkpt>
      <trkpt lat="44.63391" lon="3.84405">
        <ele>1222.5012207031</ele>
        <time>2020-10-16T13:27:46.822Z</time>
      </trkpt>
      <trkpt lat="44.63414" lon="3.84429">
        <ele>1224.4680175781</ele>
        <time>2020-10-16T13:27:52.820Z</time>
      </trkpt>
      <trkpt lat="44.63435" lon="3.84458">
        <ele>1226.1851806641</ele>
        <time>2020-10-16T13:27:58.824Z</time>
      </trkpt>
      <trkpt lat="44.63446" lon="3.84476">
        <ele>1227.0809326172</ele>
        <time>2020-10-16T13:28:04.832Z</time>
      </trkpt>
      <trkpt lat="44.63459" lon="3.84507">
        <ele>1227.6530761719</ele>
        <time>2020-10-16T13:28:10.845Z</time>
      </trkpt>
      <trkpt lat="44.6347" lon="3.84537">
        <ele>1227.7342529297</ele>
        <time>2020-10-16T13:28:16.862Z</time>
      </trkpt>
      <trkpt lat="44.63482" lon="3.84562">
        <ele>1227.6475830078</ele>
        <time>2020-10-16T13:28:22.884Z</time>
      </trkpt>
      <trkpt lat="44.63498" lon="3.84595">
        <ele>1227.4534912109</ele>
        <time>2020-10-16T13:28:28.911Z</time>
      </trkpt>
      <trkpt lat="44.63513" lon="3.84624">
        <ele>1226.8358154297</ele>
        <time>2020-10-16T13:28:34.944Z</time>
      </trkpt>
      <trkpt lat="44.63529" lon="3.84646">
        <ele>1226.1197509766</ele>
        <time>2020-10-16T13:28:40.981Z</time>
      </trkpt>
      <trkpt lat="44.63551" lon="3.84672">
        <ele>1227.0447998047</ele>
        <time>2020-10-16T13:28:47.024Z</time>
      </trkpt>
      <trkpt lat="44.63577" lon="3.84693">
        <ele>1229.1428222656</ele>
        <time>2020-10-16T13:28:53.073Z</time>
      </trkpt>
      <trkpt lat="44.63598" lon="3.84708">
        <ele>1229.9152832031</ele>
        <time>2020-10-16T13:28:59.127Z</time>
      </trkpt>
      <trkpt lat="44.63626" lon="3.84714">
        <ele>1231.6102294922</ele>
        <time>2020-10-16T13:29:05.186Z</time>
      </trkpt>
      <trkpt lat="44.63654" lon="3.84715">
        <ele>1231.2717285156</ele>
        <time>2020-10-16T13:29:11.251Z</time>
      </trkpt>
      <trkpt lat="44.63686" lon="3.8471">
        <ele>1230.9178466797</ele>
        <time>2020-10-16T13:29:17.322Z</time>
      </trkpt>
      <trkpt lat="44.63705" lon="3.84717">
        <ele>1230.0472412109</ele>
        <time>2020-10-16T13:29:23.397Z</time>
      </trkpt>
      <trkpt lat="44.63729" lon="3.84742">
        <ele>1228.5091552734</ele>
        <time>2020-10-16T13:29:29.478Z</time>
      </trkpt>
      <trkpt lat="44.63751" lon="3.84771">
        <ele>1226.6911621094</ele>
        <time>2020-10-16T13:29:35.565Z</time>
      </trkpt>
      <trkpt lat="44.63767" lon="3.84796">
        <ele>1227.8880615234</ele>
        <time>2020-10-16T13:29:41.657Z</time>
      </trkpt>
      <trkpt lat="44.63783" lon="3.84834">
        <ele>1229.9233398438</ele>
        <time>2020-10-16T13:29:47.755Z</time>
      </trkpt>
      <trkpt lat="44.63795" lon="3.84863">
        <ele>1231.875</ele>
        <time>2020-10-16T13:29:53.858Z</time>
      </trkpt>
      <trkpt lat="44.63814" lon="3.84911">
        <ele>1233.0295410156</ele>
        <time>2020-10-16T13:29:59.969Z</time>
      </trkpt>
      <trkpt lat="44.63826" lon="3.8494">
        <ele>1233.8868408203</ele>
        <time>2020-10-16T13:30:06.085Z</time>
      </trkpt>
      <trkpt lat="44.63849" lon="3.84983">
        <ele>1237.0705566406</ele>
        <time>2020-10-16T13:30:12.208Z</time>
      </trkpt>
      <trkpt lat="44.63879" lon="3.85019">
        <ele>1241.0369873047</ele>
        <time>2020-10-16T13:30:18.339Z</time>
      </trkpt>
      <trkpt lat="44.63917" lon="3.85063">
        <ele>1242.7778320312</ele>
        <time>2020-10-16T13:30:24.480Z</time>
      </trkpt>
      <trkpt lat="44.63948" lon="3.85112">
        <ele>1242.6062011719</ele>
        <time>2020-10-16T13:30:30.630Z</time>
      </trkpt>
      <trkpt lat="44.6397" lon="3.85149">
        <ele>1240.0689697266</ele>
        <time>2020-10-16T13:30:36.787Z</time>
      </trkpt>
      <trkpt lat="44.63986" lon="3.85198">
        <ele>1235.4221191406</ele>
        <time>2020-10-16T13:30:42.952Z</time>
      </trkpt>
      <trkpt lat="44.63995" lon="3.85231">
        <ele>1233.5373535156</ele>
        <time>2020-10-16T13:30:49.122Z</time>
      </trkpt>
      <trkpt lat="44.64002" lon="3.85295">
        <ele>1229.0076904297</ele>
        <time>2020-10-16T13:30:55.301Z</time>
      </trkpt>
      <trkpt lat="44.64011" lon="3.85376">
        <ele>1224.8872070312</ele>
        <time>2020-10-16T13:31:01.492Z</time>
      </trkpt>
      <trkpt lat="44.64021" lon="3.85507">
        <ele>1220.2674560547</ele>
        <time>2020-10-16T13:31:07.702Z</time>
      </trkpt>
      <trkpt lat="44.64023" lon="3.85607">
        <ele>1216.8841552734</ele>
        <time>2020-10-16T13:31:13.926Z</time>
      </trkpt>
      <trkpt lat="44.64022" lon="3.85702">
        <ele>1213.1979980469</ele>
        <time>2020-10-16T13:31:20.164Z</time>
      </trkpt>
      <trkpt lat="44.64025" lon="3.85734">
        <ele>1213.3546142578</ele>
        <time>2020-10-16T13:31:26.406Z</time>
      </trkpt>
      <trkpt lat="44.64052" lon="3.85735">
        <ele>1214.1966552734</ele>
        <time>2020-10-16T13:31:32.654Z</time>
      </trkpt>
      <trkpt lat="44.64085" lon="3.85718">
        <ele>1214.8392333984</ele>
        <time>2020-10-16T13:31:38.909Z</time>
      </trkpt>
      <trkpt lat="44.64137" lon="3.85696">
        <ele>1215.6030273438</ele>
        <time>2020-10-16T13:31:45.175Z</time>
      </trkpt>
      <trkpt lat="44.64165" lon="3.85676">
        <ele>1217.08984375</ele>
        <time>2020-10-16T13:31:51.447Z</time>
      </trkpt>
      <trkpt lat="44.64198" lon="3.85645">
        <ele>1218.7791748047</ele>
        <time>2020-10-16T13:31:57.727Z</time>
      </trkpt>
      <trkpt lat="44.64225" lon="3.85627">
        <ele>1218.6341552734</ele>
        <time>2020-10-16T13:32:04.013Z</time>
      </trkpt>
      <trkpt lat="44.64262" lon="3.8563">
        <ele>1216.7326660156</ele>
        <time>2020-10-16T13:32:10.306Z</time>
      </trkpt>
      <trkpt lat="44.64296" lon="3.85641">
        <ele>1214.7608642578</ele>
        <time>2020-10-16T13:32:16.606Z</time>
      </trkpt>
      <trkpt lat="44.6434" lon="3.85647">
        <ele>1214.0628662109</ele>
        <time>2020-10-16T13:32:22.915Z</time>
      </trkpt>
      <trkpt lat="44.64345" lon="3.85647">
        <ele>1214.02734375</ele>
        <time>2020-10-16T13:32:29.225Z</time>
      </trkpt>
      <trkpt lat="44.64351" lon="3.85645">
        <ele>1214.1743164062</ele>
        <time>2020-10-16T13:32:35.536Z</time>
      </trkpt>
      <trkpt lat="44.64386" lon="3.85623">
        <ele>1214.12109375</ele>
        <time>2020-10-16T13:32:41.855Z</time>
      </trkpt>
      <trkpt lat="44.64442" lon="3.85587">
        <ele>1214.8355712891</ele>
        <time>2020-10-16T13:32:48.186Z</time>
      </trkpt>
      <trkpt lat="44.64466" lon="3.85575">
        <ele>1213.6236572266</ele>
        <time>2020-10-16T13:32:54.523Z</time>
      </trkpt>
      <trkpt lat="44.64484" lon="3.85566">
        <ele>1212.0649414062</ele>
        <time>2020-10-16T13:33:00.863Z</time>
      </trkpt>
      <trkpt lat="44.64493" lon="3.85561">
        <ele>1211.3140869141</ele>
        <time>2020-10-16T13:33:07.205Z</time>
      </trkpt>
      <trkpt lat="44.64503" lon="3.85555">
        <ele>1210.1600341797</ele>
        <time>2020-10-16T13:33:13.550Z</time>
      </trkpt>
      <trkpt lat="44.64511" lon="3.85549">
        <ele>1209.3143310547</ele>
        <time>2020-10-16T13:33:19.896Z</time>
      </trkpt>
      <trkpt lat="44.6452" lon="3.85541">
        <ele>1208.3780517578</ele>
        <time>2020-10-16T13:33:26.244Z</time>
      </trkpt>
      <trkpt lat="44.64532" lon="3.85527">
        <ele>1207.3875732422</ele>
        <time>2020-10-16T13:33:32.595Z</time>
      </trkpt>
      <trkpt lat="44.64543" lon="3.85511">
        <ele>1205.6833496094</ele>
        <time>2020-10-16T13:33:38.950Z</time>
      </trkpt>
      <trkpt lat="44.64558" lon="3.85485">
        <ele>1203.1397705078</ele>
        <time>2020-10-16T13:33:45.310Z</time>
      </trkpt>
      <trkpt lat="44.6458" lon="3.85438">
        <ele>1200.1616210938</ele>
        <time>2020-10-16T13:33:51.678Z</time>
      </trkpt>
      <trkpt lat="44.64592" lon="3.85412">
        <ele>1198.2055664062</ele>
        <time>2020-10-16T13:33:58.050Z</time>
      </trkpt>
      <trkpt lat="44.64598" lon="3.85393">
        <ele>1197.1968994141</ele>
        <time>2020-10-16T13:34:04.425Z</time>
      </trkpt>
      <trkpt lat="44.64601" lon="3.85382">
        <ele>1196.7163085938</ele>
        <time>2020-10-16T13:34:10.802Z</time>
      </trkpt>
      <trkpt lat="44.64604" lon="3.85376">
        <ele>1196.2581787109</ele>
        <time>2020-10-16T13:34:17.180Z</time>
      </trkpt>
      <trkpt lat="44.64608" lon="3.85372">
        <ele>1195.6556396484</ele>
        <time>2020-10-16T13:34:23.559Z</time>
      </trkpt>
      <trkpt lat="44.64613" lon="3.85373">
        <ele>1195.0363769531</ele>
        <time>2020-10-16T13:34:29.939Z</time>
      </trkpt>
      <trkpt lat="44.64621" lon="3.85376">
        <ele>1194.2867431641</ele>
        <time>2020-10-16T13:34:36.320Z</time>
      </trkpt>
      <trkpt lat="44.64631" lon="3.85381">
        <ele>1194.5791015625</ele>
        <time>2020-10-16T13:34:42.703Z</time>
      </trkpt>
      <trkpt lat="44.64641" lon="3.85384">
        <ele>1194.8734130859</ele>
        <time>2020-10-16T13:34:49.089Z</time>
      </trkpt>
      <trkpt lat="44.64655" lon="3.85387">
        <ele>1195.2434082031</ele>
        <time>2020-10-16T13:34:55.477Z</time>
      </trkpt>
      <trkpt lat="44.64661" lon="3.85387">
        <ele>1195.3692626953</ele>
        <time>2020-10-16T13:35:01.867Z</time>
      </trkpt>
      <trkpt lat="44.64665" lon="3.85383">
        <ele>1195.4272460938</ele>
        <time>2020-10-16T13:35:08.258Z</time>
      </trkpt>
      <trkpt lat="44.64668" lon="3.85377">
        <ele>1195.4291992188</ele>
        <time>2020-10-16T13:35:14.650Z</time>
      </trkpt>
      <trkpt lat="44.64675" lon="3.85363">
        <ele>1195.4191894531</ele>
        <time>2020-10-16T13:35:21.044Z</time>
      </trkpt>
      <trkpt lat="44.64684" lon="3.85348">
        <ele>1195.6531982422</ele>
        <time>2020-10-16T13:35:27.441Z</time>
      </trkpt>
      <trkpt lat="44.64686" lon="3.85346">
        <ele>1195.7177734375</ele>
        <time>2020-10-16T13:35:33.838Z</time>
      </trkpt>
      <trkpt lat="44.6469" lon="3.85338">
        <ele>1195.5611572266</ele>
        <time>2020-10-16T13:35:40.237Z</time>
      </trkpt>
      <trkpt lat="44.64704" lon="3.85304">
        <ele>1193.1064453125</ele>
        <time>2020-10-16T13:35:46.641Z</time>
      </trkpt>
      <trkpt lat="44.64708" lon="3.85296">
        <ele>1193.1533203125</ele>
        <time>2020-10-16T13:35:53.047Z</time>
      </trkpt>
      <trkpt lat="44.64712" lon="3.85291">
        <ele>1193.3819580078</ele>
        <time>2020-10-16T13:35:59.454Z</time>
      </trkpt>
      <trkpt lat="44.64714" lon="3.85289">
        <ele>1193.4732666016</ele>
        <time>2020-10-16T13:36:05.861Z</time>
      </trkpt>
      <trkpt lat="44.6472" lon="3.85284">
        <ele>1194.1917724609</ele>
        <time>2020-10-16T13:36:12.270Z</time>
      </trkpt>
      <trkpt lat="44.6472" lon="3.853">
        <ele>1194.9399414062</ele>
        <time>2020-10-16T13:36:18.681Z</time>
      </trkpt>
      <trkpt lat="44.64717" lon="3.85331">
        <ele>1196.4372558594</ele>
        <time>2020-10-16T13:36:25.096Z</time>
      </trkpt>
      <trkpt lat="44.64715" lon="3.85365">
        <ele>1197.7336425781</ele>
        <time>2020-10-16T13:36:31.516Z</time>
      </trkpt>
      <trkpt lat="44.64714" lon="3.85391">
        <ele>1197.8801269531</ele>
        <time>2020-10-16T13:36:37.940Z</time>
      </trkpt>
      <trkpt lat="44.64716" lon="3.85422">
        <ele>1198.5126953125</ele>
        <time>2020-10-16T13:36:44.368Z</time>
      </trkpt>
      <trkpt lat="44.6472" lon="3.8545">
        <ele>1199.2166748047</ele>
        <time>2020-10-16T13:36:50.801Z</time>
      </trkpt>
      <trkpt lat="44.64726" lon="3.85471">
        <ele>1199.837890625</ele>
        <time>2020-10-16T13:36:57.237Z</time>
      </trkpt>
      <trkpt lat="44.64732" lon="3.85483">
        <ele>1200.4948730469</ele>
        <time>2020-10-16T13:37:03.675Z</time>
      </trkpt>
      <trkpt lat="44.64741" lon="3.85499">
        <ele>1201.6640625</ele>
        <time>2020-10-16T13:37:10.116Z</time>
      </trkpt>
      <trkpt lat="44.64755" lon="3.85512">
        <ele>1203.2464599609</ele>
        <time>2020-10-16T13:37:16.560Z</time>
      </trkpt>
      <trkpt lat="44.64771" lon="3.85524">
        <ele>1205.1912841797</ele>
        <time>2020-10-16T13:37:23.008Z</time>
      </trkpt>
      <trkpt lat="44.64782" lon="3.85532">
        <ele>1206.0010986328</ele>
        <time>2020-10-16T13:37:29.458Z</time>
      </trkpt>
      <trkpt lat="44.64796" lon="3.85548">
        <ele>1206.6765136719</ele>
        <time>2020-10-16T13:37:35.912Z</time>
      </trkpt>
      <trkpt lat="44.64831" lon="3.85586">
        <ele>1208.5819091797</ele>
        <time>2020-10-16T13:37:42.375Z</time>
      </trkpt>
      <trkpt lat="44.64849" lon="3.85601">
        <ele>1209.8648681641</ele>
        <time>2020-10-16T13:37:48.842Z</time>
      </trkpt>
      <trkpt lat="44.64859" lon="3.85608">
        <ele>1210.6745605469</ele>
        <time>2020-10-16T13:37:55.311Z</time>
      </trkpt>
      <trkpt lat="44.64867" lon="3.85618">
        <ele>1211.279296875</ele>
        <time>2020-10-16T13:38:01.782Z</time>
      </trkpt>
      <trkpt lat="44.64872" lon="3.8563">
        <ele>1211.423828125</ele>
        <time>2020-10-16T13:38:08.255Z</time>
      </trkpt>
      <trkpt lat="44.64876" lon="3.85646">
        <ele>1211.1864013672</ele>
        <time>2020-10-16T13:38:14.731Z</time>
      </trkpt>
      <trkpt lat="44.64877" lon="3.85663">
        <ele>1210.7133789062</ele>
        <time>2020-10-16T13:38:21.209Z</time>
      </trkpt>
      <trkpt lat="44.64875" lon="3.85694">
        <ele>1209.9163818359</ele>
        <time>2020-10-16T13:38:27.692Z</time>
      </trkpt>
      <trkpt lat="44.64868" lon="3.8577">
        <ele>1211.8046875</ele>
        <time>2020-10-16T13:38:34.185Z</time>
      </trkpt>
      <trkpt lat="44.64865" lon="3.85804">
        <ele>1214.0173339844</ele>
        <time>2020-10-16T13:38:40.683Z</time>
      </trkpt>
      <trkpt lat="44.64864" lon="3.85828">
        <ele>1215.6121826172</ele>
        <time>2020-10-16T13:38:47.185Z</time>
      </trkpt>
      <trkpt lat="44.64873" lon="3.85823">
        <ele>1216.0227050781</ele>
        <time>2020-10-16T13:38:53.689Z</time>
      </trkpt>
      <trkpt lat="44.64879" lon="3.85818">
        <ele>1216.3892822266</ele>
        <time>2020-10-16T13:39:00.194Z</time>
      </trkpt>
      <trkpt lat="44.64887" lon="3.85811">
        <ele>1216.6818847656</ele>
        <time>2020-10-16T13:39:06.701Z</time>
      </trkpt>
      <trkpt lat="44.64899" lon="3.85797">
        <ele>1217.1131591797</ele>
        <time>2020-10-16T13:39:13.211Z</time>
      </trkpt>
      <trkpt lat="44.64917" lon="3.85774">
        <ele>1218.4219970703</ele>
        <time>2020-10-16T13:39:19.726Z</time>
      </trkpt>
      <trkpt lat="44.64928" lon="3.85758">
        <ele>1219.2736816406</ele>
        <time>2020-10-16T13:39:26.244Z</time>
      </trkpt>
      <trkpt lat="44.64937" lon="3.85743">
        <ele>1219.41015625</ele>
        <time>2020-10-16T13:39:32.765Z</time>
      </trkpt>
      <trkpt lat="44.6495" lon="3.85715">
        <ele>1218.6284179688</ele>
        <time>2020-10-16T13:39:39.291Z</time>
      </trkpt>
      <trkpt lat="44.64965" lon="3.85682">
        <ele>1218.4089355469</ele>
        <time>2020-10-16T13:39:45.822Z</time>
      </trkpt>
      <trkpt lat="44.64972" lon="3.85668">
        <ele>1219.4211425781</ele>
        <time>2020-10-16T13:39:52.356Z</time>
      </trkpt>
      <trkpt lat="44.64977" lon="3.85662">
        <ele>1220.0041503906</ele>
        <time>2020-10-16T13:39:58.891Z</time>
      </trkpt>
      <trkpt lat="44.6498" lon="3.8566">
        <ele>1220.3436279297</ele>
        <time>2020-10-16T13:40:05.427Z</time>
      </trkpt>
      <trkpt lat="44.64984" lon="3.85658">
        <ele>1220.7265625</ele>
        <time>2020-10-16T13:40:11.964Z</time>
      </trkpt>
      <trkpt lat="44.64988" lon="3.85657">
        <ele>1221.1529541016</ele>
        <time>2020-10-16T13:40:18.501Z</time>
      </trkpt>
      <trkpt lat="44.64993" lon="3.85658">
        <ele>1221.6540527344</ele>
        <time>2020-10-16T13:40:25.039Z</time>
      </trkpt>
      <trkpt lat="44.65" lon="3.85659">
        <ele>1222.2398681641</ele>
        <time>2020-10-16T13:40:31.579Z</time>
      </trkpt>
      <trkpt lat="44.65016" lon="3.85662">
        <ele>1223.5716552734</ele>
        <time>2020-10-16T13:40:38.122Z</time>
      </trkpt>
      <trkpt lat="44.65025" lon="3.85665">
        <ele>1224.2156982422</ele>
        <time>2020-10-16T13:40:44.667Z</time>
      </trkpt>
      <trkpt lat="44.65031" lon="3.85666">
        <ele>1224.6118164062</ele>
        <time>2020-10-16T13:40:51.213Z</time>
      </trkpt>
      <trkpt lat="44.65035" lon="3.85665">
        <ele>1224.9440917969</ele>
        <time>2020-10-16T13:40:57.760Z</time>
      </trkpt>
      <trkpt lat="44.6504" lon="3.85664">
        <ele>1225.1336669922</ele>
        <time>2020-10-16T13:41:04.308Z</time>
      </trkpt>
      <trkpt lat="44.65047" lon="3.85661">
        <ele>1225.3975830078</ele>
        <time>2020-10-16T13:41:10.857Z</time>
      </trkpt>
      <trkpt lat="44.65057" lon="3.85654">
        <ele>1225.7543945312</ele>
        <time>2020-10-16T13:41:17.409Z</time>
      </trkpt>
      <trkpt lat="44.65079" lon="3.85636">
        <ele>1226.0889892578</ele>
        <time>2020-10-16T13:41:23.966Z</time>
      </trkpt>
      <trkpt lat="44.65143" lon="3.85584">
        <ele>1225.5252685547</ele>
        <time>2020-10-16T13:41:30.538Z</time>
      </trkpt>
      <trkpt lat="44.65219" lon="3.85522">
        <ele>1223.2999267578</ele>
        <time>2020-10-16T13:41:37.127Z</time>
      </trkpt>
      <trkpt lat="44.65271" lon="3.85481">
        <ele>1222.4399414062</ele>
        <time>2020-10-16T13:41:43.728Z</time>
      </trkpt>
      <trkpt lat="44.65297" lon="3.85462">
        <ele>1221.0386962891</ele>
        <time>2020-10-16T13:41:50.335Z</time>
      </trkpt>
      <trkpt lat="44.65326" lon="3.85443">
        <ele>1218.7547607422</ele>
        <time>2020-10-16T13:41:56.948Z</time>
      </trkpt>
      <trkpt lat="44.65332" lon="3.8544">
        <ele>1218.1368408203</ele>
        <time>2020-10-16T13:42:03.563Z</time>
      </trkpt>
      <trkpt lat="44.65338" lon="3.85434">
        <ele>1218.0646972656</ele>
        <time>2020-10-16T13:42:10.179Z</time>
      </trkpt>
      <trkpt lat="44.65345" lon="3.85428">
        <ele>1218.1781005859</ele>
        <time>2020-10-16T13:42:16.797Z</time>
      </trkpt>
      <trkpt lat="44.65351" lon="3.8542">
        <ele>1218.3822021484</ele>
        <time>2020-10-16T13:42:23.416Z</time>
      </trkpt>
      <trkpt lat="44.65367" lon="3.85401">
        <ele>1218.8188476562</ele>
        <time>2020-10-16T13:42:30.040Z</time>
      </trkpt>
      <trkpt lat="44.65375" lon="3.85394">
        <ele>1219.1767578125</ele>
        <time>2020-10-16T13:42:36.665Z</time>
      </trkpt>
      <trkpt lat="44.65385" lon="3.85388">
        <ele>1219.5993652344</ele>
        <time>2020-10-16T13:42:43.293Z</time>
      </trkpt>
      <trkpt lat="44.65396" lon="3.8538">
        <ele>1219.8532714844</ele>
        <time>2020-10-16T13:42:49.923Z</time>
      </trkpt>
      <trkpt lat="44.65424" lon="3.85363">
        <ele>1217.5679931641</ele>
        <time>2020-10-16T13:42:56.559Z</time>
      </trkpt>
      <trkpt lat="44.65441" lon="3.85351">
        <ele>1216.7514648438</ele>
        <time>2020-10-16T13:43:03.199Z</time>
      </trkpt>
      <trkpt lat="44.6545" lon="3.85341">
        <ele>1217.0036621094</ele>
        <time>2020-10-16T13:43:09.841Z</time>
      </trkpt>
      <trkpt lat="44.65462" lon="3.85329">
        <ele>1217.6353759766</ele>
        <time>2020-10-16T13:43:16.486Z</time>
      </trkpt>
      <trkpt lat="44.65472" lon="3.85321">
        <ele>1218.0155029297</ele>
        <time>2020-10-16T13:43:23.133Z</time>
      </trkpt>
      <trkpt lat="44.6548" lon="3.85318">
        <ele>1217.9792480469</ele>
        <time>2020-10-16T13:43:29.782Z</time>
      </trkpt>
      <trkpt lat="44.65488" lon="3.85316">
        <ele>1217.6206054688</ele>
        <time>2020-10-16T13:43:36.433Z</time>
      </trkpt>
      <trkpt lat="44.65503" lon="3.85316">
        <ele>1216.564453125</ele>
        <time>2020-10-16T13:43:43.087Z</time>
      </trkpt>
      <trkpt lat="44.65538" lon="3.85312">
        <ele>1213.4697265625</ele>
        <time>2020-10-16T13:43:49.748Z</time>
      </trkpt>
      <trkpt lat="44.65571" lon="3.85308">
        <ele>1211.5053710938</ele>
        <time>2020-10-16T13:43:56.415Z</time>
      </trkpt>
      <trkpt lat="44.65603" lon="3.85303">
        <ele>1208.3026123047</ele>
        <time>2020-10-16T13:44:03.089Z</time>
      </trkpt>
      <trkpt lat="44.65616" lon="3.853">
        <ele>1207.0596923828</ele>
        <time>2020-10-16T13:44:09.766Z</time>
      </trkpt>
      <trkpt lat="44.65625" lon="3.85296">
        <ele>1206.3176269531</ele>
        <time>2020-10-16T13:44:16.444Z</time>
      </trkpt>
      <trkpt lat="44.65634" lon="3.85291">
        <ele>1205.6912841797</ele>
        <time>2020-10-16T13:44:23.124Z</time>
      </trkpt>
      <trkpt lat="44.65644" lon="3.85286">
        <ele>1204.7152099609</ele>
        <time>2020-10-16T13:44:29.806Z</time>
      </trkpt>
      <trkpt lat="44.65655" lon="3.85281">
        <ele>1203.54296875</ele>
        <time>2020-10-16T13:44:36.491Z</time>
      </trkpt>
      <trkpt lat="44.65663" lon="3.85279">
        <ele>1202.6296386719</ele>
        <time>2020-10-16T13:44:43.177Z</time>
      </trkpt>
      <trkpt lat="44.65675" lon="3.85278">
        <ele>1201.1787109375</ele>
        <time>2020-10-16T13:44:49.866Z</time>
      </trkpt>
      <trkpt lat="44.65694" lon="3.85276">
        <ele>1198.9201660156</ele>
        <time>2020-10-16T13:44:56.559Z</time>
      </trkpt>
      <trkpt lat="44.65705" lon="3.85272">
        <ele>1197.7691650391</ele>
        <time>2020-10-16T13:45:03.254Z</time>
      </trkpt>
      <trkpt lat="44.65713" lon="3.85269">
        <ele>1197.2962646484</ele>
        <time>2020-10-16T13:45:09.951Z</time>
      </trkpt>
      <trkpt lat="44.65722" lon="3.85262">
        <ele>1197.0218505859</ele>
        <time>2020-10-16T13:45:16.650Z</time>
      </trkpt>
      <trkpt lat="44.65729" lon="3.85255">
        <ele>1196.8787841797</ele>
        <time>2020-10-16T13:45:23.350Z</time>
      </trkpt>
      <trkpt lat="44.65734" lon="3.85247">
        <ele>1197.1303710938</ele>
        <time>2020-10-16T13:45:30.052Z</time>
      </trkpt>
      <trkpt lat="44.6577" lon="3.85153">
        <ele>1196.30859375</ele>
        <time>2020-10-16T13:45:36.769Z</time>
      </trkpt>
      <trkpt lat="44.65841" lon="3.84967">
        <ele>1190.3901367188</ele>
        <time>2020-10-16T13:45:43.516Z</time>
      </trkpt>
      <trkpt lat="44.65848" lon="3.84947">
        <ele>1189.0861816406</ele>
        <time>2020-10-16T13:45:50.266Z</time>
      </trkpt>
      <trkpt lat="44.65852" lon="3.84926">
        <ele>1187.220703125</ele>
        <time>2020-10-16T13:45:57.019Z</time>
      </trkpt>
      <trkpt lat="44.65855" lon="3.84898">
        <ele>1185.681640625</ele>
        <time>2020-10-16T13:46:03.777Z</time>
      </trkpt>
      <trkpt lat="44.65863" lon="3.84845">
        <ele>1182.55859375</ele>
        <time>2020-10-16T13:46:10.542Z</time>
      </trkpt>
      <trkpt lat="44.65869" lon="3.84814">
        <ele>1180.6220703125</ele>
        <time>2020-10-16T13:46:17.312Z</time>
      </trkpt>
      <trkpt lat="44.65873" lon="3.84783">
        <ele>1178.6809082031</ele>
        <time>2020-10-16T13:46:24.086Z</time>
      </trkpt>
      <trkpt lat="44.65879" lon="3.84756">
        <ele>1176.8483886719</ele>
        <time>2020-10-16T13:46:30.864Z</time>
      </trkpt>
      <trkpt lat="44.6589" lon="3.84727">
        <ele>1174.2161865234</ele>
        <time>2020-10-16T13:46:37.647Z</time>
      </trkpt>
      <trkpt lat="44.65903" lon="3.84699">
        <ele>1172.2178955078</ele>
        <time>2020-10-16T13:46:44.435Z</time>
      </trkpt>
      <trkpt lat="44.65906" lon="3.84693">
        <ele>1171.9818115234</ele>
        <time>2020-10-16T13:46:51.224Z</time>
      </trkpt>
      <trkpt lat="44.65924" lon="3.84657">
        <ele>1170.3175048828</ele>
        <time>2020-10-16T13:46:58.019Z</time>
      </trkpt>
      <trkpt lat="44.65936" lon="3.84639">
        <ele>1170.7904052734</ele>
        <time>2020-10-16T13:47:04.818Z</time>
      </trkpt>
      <trkpt lat="44.65946" lon="3.8463">
        <ele>1170.8471679688</ele>
        <time>2020-10-16T13:47:11.619Z</time>
      </trkpt>
      <trkpt lat="44.65973" lon="3.84616">
        <ele>1169.9719238281</ele>
        <time>2020-10-16T13:47:18.426Z</time>
      </trkpt>
      <trkpt lat="44.66017" lon="3.84592">
        <ele>1169.5842285156</ele>
        <time>2020-10-16T13:47:25.242Z</time>
      </trkpt>
      <trkpt lat="44.66051" lon="3.8457">
        <ele>1169.9614257812</ele>
        <time>2020-10-16T13:47:32.066Z</time>
      </trkpt>
      <trkpt lat="44.66062" lon="3.8456">
        <ele>1169.9260253906</ele>
        <time>2020-10-16T13:47:38.892Z</time>
      </trkpt>
      <trkpt lat="44.66072" lon="3.8455">
        <ele>1170.0885009766</ele>
        <time>2020-10-16T13:47:45.721Z</time>
      </trkpt>
      <trkpt lat="44.66092" lon="3.84521">
        <ele>1171.0434570312</ele>
        <time>2020-10-16T13:47:52.555Z</time>
      </trkpt>
      <trkpt lat="44.66108" lon="3.845">
        <ele>1170.6584472656</ele>
        <time>2020-10-16T13:47:59.394Z</time>
      </trkpt>
      <trkpt lat="44.66127" lon="3.8447">
        <ele>1169.8232421875</ele>
        <time>2020-10-16T13:48:06.239Z</time>
      </trkpt>
      <trkpt lat="44.66145" lon="3.84452">
        <ele>1169.3269042969</ele>
        <time>2020-10-16T13:48:13.088Z</time>
      </trkpt>
      <trkpt lat="44.66158" lon="3.84441">
        <ele>1170.3894042969</ele>
        <time>2020-10-16T13:48:19.940Z</time>
      </trkpt>
      <trkpt lat="44.6617" lon="3.84435">
        <ele>1170.5970458984</ele>
        <time>2020-10-16T13:48:26.795Z</time>
      </trkpt>
      <trkpt lat="44.66183" lon="3.84434">
        <ele>1170.2397460938</ele>
        <time>2020-10-16T13:48:33.652Z</time>
      </trkpt>
      <trkpt lat="44.66193" lon="3.84436">
        <ele>1169.5991210938</ele>
        <time>2020-10-16T13:48:40.511Z</time>
      </trkpt>
      <trkpt lat="44.66205" lon="3.84444">
        <ele>1168.6363525391</ele>
        <time>2020-10-16T13:48:47.373Z</time>
      </trkpt>
      <trkpt lat="44.66214" lon="3.84456">
        <ele>1167.7065429688</ele>
        <time>2020-10-16T13:48:54.238Z</time>
      </trkpt>
      <trkpt lat="44.66222" lon="3.84475">
        <ele>1165.8488769531</ele>
        <time>2020-10-16T13:49:01.106Z</time>
      </trkpt>
      <trkpt lat="44.66234" lon="3.84512">
        <ele>1161.998046875</ele>
        <time>2020-10-16T13:49:07.979Z</time>
      </trkpt>
      <trkpt lat="44.66245" lon="3.84534">
        <ele>1159.6119384766</ele>
        <time>2020-10-16T13:49:14.856Z</time>
      </trkpt>
      <trkpt lat="44.66265" lon="3.84562">
        <ele>1156.6585693359</ele>
        <time>2020-10-16T13:49:21.739Z</time>
      </trkpt>
      <trkpt lat="44.66291" lon="3.84593">
        <ele>1154.0296630859</ele>
        <time>2020-10-16T13:49:28.629Z</time>
      </trkpt>
      <trkpt lat="44.66298" lon="3.84602">
        <ele>1153.8656005859</ele>
        <time>2020-10-16T13:49:35.521Z</time>
      </trkpt>
      <trkpt lat="44.66328" lon="3.8463">
        <ele>1155.9567871094</ele>
        <time>2020-10-16T13:49:42.420Z</time>
      </trkpt>
      <trkpt lat="44.66349" lon="3.84641">
        <ele>1158.5804443359</ele>
        <time>2020-10-16T13:49:49.323Z</time>
      </trkpt>
      <trkpt lat="44.66361" lon="3.84645">
        <ele>1160.2777099609</ele>
        <time>2020-10-16T13:49:56.229Z</time>
      </trkpt>
      <trkpt lat="44.66377" lon="3.8465">
        <ele>1161.8531494141</ele>
        <time>2020-10-16T13:50:03.138Z</time>
      </trkpt>
      <trkpt lat="44.66395" lon="3.84656">
        <ele>1162.7930908203</ele>
        <time>2020-10-16T13:50:10.051Z</time>
      </trkpt>
      <trkpt lat="44.66414" lon="3.84658">
        <ele>1164.1280517578</ele>
        <time>2020-10-16T13:50:16.968Z</time>
      </trkpt>
      <trkpt lat="44.66434" lon="3.8466">
        <ele>1166.1218261719</ele>
        <time>2020-10-16T13:50:23.889Z</time>
      </trkpt>
      <trkpt lat="44.66453" lon="3.84665">
        <ele>1167.7718505859</ele>
        <time>2020-10-16T13:50:30.814Z</time>
      </trkpt>
      <trkpt lat="44.6647" lon="3.84673">
        <ele>1167.3267822266</ele>
        <time>2020-10-16T13:50:37.742Z</time>
      </trkpt>
      <trkpt lat="44.66506" lon="3.84691">
        <ele>1166.2713623047</ele>
        <time>2020-10-16T13:50:44.678Z</time>
      </trkpt>
      <trkpt lat="44.66539" lon="3.84705">
        <ele>1165.609375</ele>
        <time>2020-10-16T13:50:51.621Z</time>
      </trkpt>
      <trkpt lat="44.66556" lon="3.84708">
        <ele>1166.4971923828</ele>
        <time>2020-10-16T13:50:58.567Z</time>
      </trkpt>
      <trkpt lat="44.66583" lon="3.8471">
        <ele>1168.5212402344</ele>
        <time>2020-10-16T13:51:05.518Z</time>
      </trkpt>
      <trkpt lat="44.66608" lon="3.84714">
        <ele>1169.8046875</ele>
        <time>2020-10-16T13:51:12.475Z</time>
      </trkpt>
      <trkpt lat="44.66645" lon="3.84728">
        <ele>1169.7423095703</ele>
        <time>2020-10-16T13:51:19.439Z</time>
      </trkpt>
      <trkpt lat="44.66682" lon="3.84741">
        <ele>1168.9538574219</ele>
        <time>2020-10-16T13:51:26.411Z</time>
      </trkpt>
      <trkpt lat="44.66707" lon="3.84744">
        <ele>1168.7659912109</ele>
        <time>2020-10-16T13:51:33.388Z</time>
      </trkpt>
      <trkpt lat="44.66718" lon="3.84745">
        <ele>1168.5667724609</ele>
        <time>2020-10-16T13:51:40.367Z</time>
      </trkpt>
      <trkpt lat="44.66758" lon="3.84747">
        <ele>1168.3468017578</ele>
        <time>2020-10-16T13:51:47.354Z</time>
      </trkpt>
      <trkpt lat="44.66804" lon="3.84748">
        <ele>1166.5977783203</ele>
        <time>2020-10-16T13:51:54.350Z</time>
      </trkpt>
      <trkpt lat="44.66828" lon="3.84747">
        <ele>1166.1032714844</ele>
        <time>2020-10-16T13:52:01.351Z</time>
      </trkpt>
      <trkpt lat="44.66867" lon="3.84743">
        <ele>1164.5960693359</ele>
        <time>2020-10-16T13:52:08.360Z</time>
      </trkpt>
      <trkpt lat="44.66895" lon="3.84739">
        <ele>1164.0028076172</ele>
        <time>2020-10-16T13:52:15.375Z</time>
      </trkpt>
      <trkpt lat="44.66903" lon="3.84735">
        <ele>1163.9835205078</ele>
        <time>2020-10-16T13:52:22.391Z</time>
      </trkpt>
      <trkpt lat="44.66912" lon="3.84729">
        <ele>1164.0402832031</ele>
        <time>2020-10-16T13:52:29.409Z</time>
      </trkpt>
      <trkpt lat="44.6692" lon="3.84722">
        <ele>1163.9791259766</ele>
        <time>2020-10-16T13:52:36.429Z</time>
      </trkpt>
      <trkpt lat="44.66921" lon="3.84722">
        <ele>1163.9730224609</ele>
        <time>2020-10-16T13:52:43.449Z</time>
      </trkpt>
      <trkpt lat="44.66925" lon="3.84722">
        <ele>1163.8051757812</ele>
        <time>2020-10-16T13:52:50.470Z</time>
      </trkpt>
      <trkpt lat="44.6695" lon="3.84724">
        <ele>1162.8610839844</ele>
        <time>2020-10-16T13:52:57.496Z</time>
      </trkpt>
      <trkpt lat="44.66962" lon="3.84723">
        <ele>1162.6668701172</ele>
        <time>2020-10-16T13:53:04.524Z</time>
      </trkpt>
      <trkpt lat="44.66965" lon="3.84732">
        <ele>1162.3131103516</ele>
        <time>2020-10-16T13:53:11.554Z</time>
      </trkpt>
      <trkpt lat="44.66966" lon="3.84738">
        <ele>1162.0758056641</ele>
        <time>2020-10-16T13:53:18.585Z</time>
      </trkpt>
      <trkpt lat="44.66967" lon="3.84744">
        <ele>1161.8408203125</ele>
        <time>2020-10-16T13:53:25.617Z</time>
      </trkpt>
      <trkpt lat="44.66973" lon="3.8475">
        <ele>1161.5773925781</ele>
        <time>2020-10-16T13:53:32.650Z</time>
      </trkpt>
      <trkpt lat="44.66982" lon="3.84753">
        <ele>1161.3680419922</ele>
        <time>2020-10-16T13:53:39.685Z</time>
      </trkpt>
      <trkpt lat="44.66996" lon="3.84763">
        <ele>1160.8413085938</ele>
        <time>2020-10-16T13:53:46.723Z</time>
      </trkpt>
      <trkpt lat="44.67013" lon="3.84773">
        <ele>1160.2729492188</ele>
        <time>2020-10-16T13:53:53.765Z</time>
      </trkpt>
      <trkpt lat="44.67025" lon="3.84784">
        <ele>1160.1340332031</ele>
        <time>2020-10-16T13:54:00.810Z</time>
      </trkpt>
      <trkpt lat="44.67039" lon="3.84797">
        <ele>1159.9387207031</ele>
        <time>2020-10-16T13:54:07.858Z</time>
      </trkpt>
      <trkpt lat="44.67057" lon="3.84812">
        <ele>1159.5126953125</ele>
        <time>2020-10-16T13:54:14.910Z</time>
      </trkpt>
      <trkpt lat="44.67071" lon="3.84823">
        <ele>1159.171875</ele>
        <time>2020-10-16T13:54:21.965Z</time>
      </trkpt>
      <trkpt lat="44.67091" lon="3.84839">
        <ele>1158.6832275391</ele>
        <time>2020-10-16T13:54:29.025Z</time>
      </trkpt>
      <trkpt lat="44.67112" lon="3.84857">
        <ele>1158.1553955078</ele>
        <time>2020-10-16T13:54:36.090Z</time>
      </trkpt>
      <trkpt lat="44.67127" lon="3.84869">
        <ele>1158.1259765625</ele>
        <time>2020-10-16T13:54:43.158Z</time>
      </trkpt>
      <trkpt lat="44.67139" lon="3.84882">
        <ele>1158.5483398438</ele>
        <time>2020-10-16T13:54:50.229Z</time>
      </trkpt>
      <trkpt lat="44.6716" lon="3.84899">
        <ele>1159.4041748047</ele>
        <time>2020-10-16T13:54:57.305Z</time>
      </trkpt>
      <trkpt lat="44.67178" lon="3.84912">
        <ele>1160.0161132812</ele>
        <time>2020-10-16T13:55:04.385Z</time>
      </trkpt>
      <trkpt lat="44.6719" lon="3.84918">
        <ele>1160.2508544922</ele>
        <time>2020-10-16T13:55:11.468Z</time>
      </trkpt>
      <trkpt lat="44.67201" lon="3.84926">
        <ele>1160.533203125</ele>
        <time>2020-10-16T13:55:18.553Z</time>
      </trkpt>
      <trkpt lat="44.67221" lon="3.84938">
        <ele>1161.3742675781</ele>
        <time>2020-10-16T13:55:25.643Z</time>
      </trkpt>
      <trkpt lat="44.67232" lon="3.84946">
        <ele>1162.1323242188</ele>
        <time>2020-10-16T13:55:32.735Z</time>
      </trkpt>
      <trkpt lat="44.67246" lon="3.84959">
        <ele>1163.2209472656</ele>
        <time>2020-10-16T13:55:39.831Z</time>
      </trkpt>
      <trkpt lat="44.67257" lon="3.84972">
        <ele>1164.2641601562</ele>
        <time>2020-10-16T13:55:46.930Z</time>
      </trkpt>
      <trkpt lat="44.67267" lon="3.84979">
        <ele>1164.9405517578</ele>
        <time>2020-10-16T13:55:54.031Z</time>
      </trkpt>
      <trkpt lat="44.67284" lon="3.84995">
        <ele>1166.2659912109</ele>
        <time>2020-10-16T13:56:01.136Z</time>
      </trkpt>
      <trkpt lat="44.67295" lon="3.85005">
        <ele>1167.1525878906</ele>
        <time>2020-10-16T13:56:08.243Z</time>
      </trkpt>
      <trkpt lat="44.6731" lon="3.85016">
        <ele>1168.1472167969</ele>
        <time>2020-10-16T13:56:15.354Z</time>
      </trkpt>
      <trkpt lat="44.67325" lon="3.85028">
        <ele>1168.9920654297</ele>
        <time>2020-10-16T13:56:22.468Z</time>
      </trkpt>
      <trkpt lat="44.6734" lon="3.8504">
        <ele>1169.4986572266</ele>
        <time>2020-10-16T13:56:29.586Z</time>
      </trkpt>
      <trkpt lat="44.67356" lon="3.85052">
        <ele>1170.0322265625</ele>
        <time>2020-10-16T13:56:36.707Z</time>
      </trkpt>
      <trkpt lat="44.67365" lon="3.85062">
        <ele>1170.3575439453</ele>
        <time>2020-10-16T13:56:43.831Z</time>
      </trkpt>
      <trkpt lat="44.67376" lon="3.85072">
        <ele>1170.8112792969</ele>
        <time>2020-10-16T13:56:50.957Z</time>
      </trkpt>
      <trkpt lat="44.67388" lon="3.85085">
        <ele>1171.4127197266</ele>
        <time>2020-10-16T13:56:58.086Z</time>
      </trkpt>
      <trkpt lat="44.67399" lon="3.85092">
        <ele>1171.8997802734</ele>
        <time>2020-10-16T13:57:05.218Z</time>
      </trkpt>
      <trkpt lat="44.67418" lon="3.85102">
        <ele>1172.6767578125</ele>
        <time>2020-10-16T13:57:12.354Z</time>
      </trkpt>
      <trkpt lat="44.67437" lon="3.85115">
        <ele>1173.0750732422</ele>
        <time>2020-10-16T13:57:19.494Z</time>
      </trkpt>
      <trkpt lat="44.67455" lon="3.85127">
        <ele>1173.1170654297</ele>
        <time>2020-10-16T13:57:26.638Z</time>
      </trkpt>
      <trkpt lat="44.67468" lon="3.85133">
        <ele>1172.3137207031</ele>
        <time>2020-10-16T13:57:33.785Z</time>
      </trkpt>
      <trkpt lat="44.67482" lon="3.85145">
        <ele>1171.1804199219</ele>
        <time>2020-10-16T13:57:40.935Z</time>
      </trkpt>
      <trkpt lat="44.67498" lon="3.85154">
        <ele>1170.1086425781</ele>
        <time>2020-10-16T13:57:48.088Z</time>
      </trkpt>
      <trkpt lat="44.67523" lon="3.85168">
        <ele>1167.83984375</ele>
        <time>2020-10-16T13:57:55.247Z</time>
      </trkpt>
      <trkpt lat="44.67552" lon="3.85185">
        <ele>1165.1870117188</ele>
        <time>2020-10-16T13:58:02.412Z</time>
      </trkpt>
      <trkpt lat="44.67581" lon="3.85201">
        <ele>1162.4973144531</ele>
        <time>2020-10-16T13:58:09.583Z</time>
      </trkpt>
      <trkpt lat="44.67608" lon="3.85217">
        <ele>1159.87109375</ele>
        <time>2020-10-16T13:58:16.760Z</time>
      </trkpt>
      <trkpt lat="44.67634" lon="3.85233">
        <ele>1158.1823730469</ele>
        <time>2020-10-16T13:58:23.943Z</time>
      </trkpt>
      <trkpt lat="44.67659" lon="3.85247">
        <ele>1157.0422363281</ele>
        <time>2020-10-16T13:58:31.131Z</time>
      </trkpt>
      <trkpt lat="44.6768" lon="3.85262">
        <ele>1156.1353759766</ele>
        <time>2020-10-16T13:58:38.324Z</time>
      </trkpt>
      <trkpt lat="44.67689" lon="3.85268">
        <ele>1155.7163085938</ele>
        <time>2020-10-16T13:58:45.519Z</time>
      </trkpt>
      <trkpt lat="44.67691" lon="3.85278">
        <ele>1155.7253417969</ele>
        <time>2020-10-16T13:58:52.715Z</time>
      </trkpt>
      <trkpt lat="44.67691" lon="3.85279">
        <ele>1155.7203369141</ele>
        <time>2020-10-16T13:58:59.912Z</time>
      </trkpt>
      <trkpt lat="44.6769" lon="3.85288">
        <ele>1155.7746582031</ele>
        <time>2020-10-16T13:59:07.110Z</time>
      </trkpt>
      <trkpt lat="44.67689" lon="3.85312">
        <ele>1155.8658447266</ele>
        <time>2020-10-16T13:59:14.311Z</time>
      </trkpt>
      <trkpt lat="44.67688" lon="3.85329">
        <ele>1155.9134521484</ele>
        <time>2020-10-16T13:59:21.515Z</time>
      </trkpt>
      <trkpt lat="44.67686" lon="3.85343">
        <ele>1155.7686767578</ele>
        <time>2020-10-16T13:59:28.721Z</time>
      </trkpt>
      <trkpt lat="44.67684" lon="3.85358">
        <ele>1154.7155761719</ele>
        <time>2020-10-16T13:59:35.929Z</time>
      </trkpt>
      <trkpt lat="44.67681" lon="3.85375">
        <ele>1152.7335205078</ele>
        <time>2020-10-16T13:59:43.139Z</time>
      </trkpt>
      <trkpt lat="44.67679" lon="3.85393">
        <ele>1150.5748291016</ele>
        <time>2020-10-16T13:59:50.352Z</time>
      </trkpt>
      <trkpt lat="44.67677" lon="3.85408">
        <ele>1148.7507324219</ele>
        <time>2020-10-16T13:59:57.567Z</time>
      </trkpt>
      <trkpt lat="44.67676" lon="3.85426">
        <ele>1146.8957519531</ele>
        <time>2020-10-16T14:00:04.785Z</time>
      </trkpt>
      <trkpt lat="44.67676" lon="3.85439">
        <ele>1145.7102050781</ele>
        <time>2020-10-16T14:00:12.005Z</time>
      </trkpt>
      <trkpt lat="44.67673" lon="3.85453">
        <ele>1144.7016601562</ele>
        <time>2020-10-16T14:00:19.227Z</time>
      </trkpt>
      <trkpt lat="44.67672" lon="3.85464">
        <ele>1143.9681396484</ele>
        <time>2020-10-16T14:00:26.450Z</time>
      </trkpt>
      <trkpt lat="44.67672" lon="3.85475">
        <ele>1143.1833496094</ele>
        <time>2020-10-16T14:00:33.675Z</time>
      </trkpt>
      <trkpt lat="44.67672" lon="3.85476">
        <ele>1143.1003417969</ele>
        <time>2020-10-16T14:00:40.900Z</time>
      </trkpt>
      <trkpt lat="44.67673" lon="3.85488">
        <ele>1142.1872558594</ele>
        <time>2020-10-16T14:00:48.127Z</time>
      </trkpt>
      <trkpt lat="44.67678" lon="3.85499">
        <ele>1141.2707519531</ele>
        <time>2020-10-16T14:00:55.356Z</time>
      </trkpt>
      <trkpt lat="44.67684" lon="3.85511">
        <ele>1140.0827636719</ele>
        <time>2020-10-16T14:01:02.587Z</time>
      </trkpt>
      <trkpt lat="44.67692" lon="3.85525">
        <ele>1138.75</ele>
        <time>2020-10-16T14:01:09.820Z</time>
      </trkpt>
      <trkpt lat="44.67702" lon="3.85539">
        <ele>1137.4283447266</ele>
        <time>2020-10-16T14:01:17.056Z</time>
      </trkpt>
      <trkpt lat="44.67711" lon="3.85553">
        <ele>1136.1083984375</ele>
        <time>2020-10-16T14:01:24.295Z</time>
      </trkpt>
      <trkpt lat="44.67715" lon="3.85562">
        <ele>1135.1916503906</ele>
        <time>2020-10-16T14:01:31.535Z</time>
      </trkpt>
      <trkpt lat="44.67718" lon="3.8557">
        <ele>1134.4829101562</ele>
        <time>2020-10-16T14:01:38.777Z</time>
      </trkpt>
      <trkpt lat="44.67721" lon="3.85579">
        <ele>1133.6069335938</ele>
        <time>2020-10-16T14:01:46.020Z</time>
      </trkpt>
      <trkpt lat="44.67723" lon="3.85593">
        <ele>1132.2833251953</ele>
        <time>2020-10-16T14:01:53.265Z</time>
      </trkpt>
      <trkpt lat="44.67724" lon="3.85609">
        <ele>1130.5631103516</ele>
        <time>2020-10-16T14:02:00.512Z</time>
      </trkpt>
      <trkpt lat="44.67725" lon="3.85623">
        <ele>1128.4143066406</ele>
        <time>2020-10-16T14:02:07.761Z</time>
      </trkpt>
      <trkpt lat="44.67728" lon="3.85637">
        <ele>1125.75</ele>
        <time>2020-10-16T14:02:15.012Z</time>
      </trkpt>
      <trkpt lat="44.67731" lon="3.85652">
        <ele>1122.6044921875</ele>
        <time>2020-10-16T14:02:22.266Z</time>
      </trkpt>
      <trkpt lat="44.67737" lon="3.85668">
        <ele>1119.2254638672</ele>
        <time>2020-10-16T14:02:29.522Z</time>
      </trkpt>
      <trkpt lat="44.6774" lon="3.8568">
        <ele>1116.8536376953</ele>
        <time>2020-10-16T14:02:36.780Z</time>
      </trkpt>
      <trkpt lat="44.67741" lon="3.8569">
        <ele>1114.5902099609</ele>
        <time>2020-10-16T14:02:44.040Z</time>
      </trkpt>
      <trkpt lat="44.67741" lon="3.85691">
        <ele>1114.5050048828</ele>
        <time>2020-10-16T14:02:51.300Z</time>
      </trkpt>
      <trkpt lat="44.6774" lon="3.85699">
        <ele>1113.3654785156</ele>
        <time>2020-10-16T14:02:58.561Z</time>
      </trkpt>
      <trkpt lat="44.67739" lon="3.85708">
        <ele>1112.1748046875</ele>
        <time>2020-10-16T14:03:05.823Z</time>
      </trkpt>
      <trkpt lat="44.67738" lon="3.85719">
        <ele>1110.5994873047</ele>
        <time>2020-10-16T14:03:13.087Z</time>
      </trkpt>
      <trkpt lat="44.67738" lon="3.85731">
        <ele>1108.6630859375</ele>
        <time>2020-10-16T14:03:20.352Z</time>
      </trkpt>
      <trkpt lat="44.67738" lon="3.85732">
        <ele>1108.5147705078</ele>
        <time>2020-10-16T14:03:27.617Z</time>
      </trkpt>
      <trkpt lat="44.67738" lon="3.85745">
        <ele>1106.0825195312</ele>
        <time>2020-10-16T14:03:34.884Z</time>
      </trkpt>
      <trkpt lat="44.67739" lon="3.8576">
        <ele>1103.5111083984</ele>
        <time>2020-10-16T14:03:42.154Z</time>
      </trkpt>
      <trkpt lat="44.67739" lon="3.85772">
        <ele>1101.4283447266</ele>
        <time>2020-10-16T14:03:49.425Z</time>
      </trkpt>
      <trkpt lat="44.6774" lon="3.85788">
        <ele>1099.1619873047</ele>
        <time>2020-10-16T14:03:56.699Z</time>
      </trkpt>
      <trkpt lat="44.6774" lon="3.858">
        <ele>1097.4816894531</ele>
        <time>2020-10-16T14:04:03.974Z</time>
      </trkpt>
      <trkpt lat="44.6774" lon="3.85809">
        <ele>1096.2630615234</ele>
        <time>2020-10-16T14:04:11.250Z</time>
      </trkpt>
      <trkpt lat="44.6774" lon="3.8581">
        <ele>1096.0786132812</ele>
        <time>2020-10-16T14:04:18.527Z</time>
      </trkpt>
      <trkpt lat="44.67738" lon="3.85822">
        <ele>1094.4321289062</ele>
        <time>2020-10-16T14:04:25.805Z</time>
      </trkpt>
      <trkpt lat="44.67735" lon="3.8584">
        <ele>1091.9779052734</ele>
        <time>2020-10-16T14:04:33.086Z</time>
      </trkpt>
      <trkpt lat="44.67732" lon="3.85855">
        <ele>1089.8280029297</ele>
        <time>2020-10-16T14:04:40.369Z</time>
      </trkpt>
      <trkpt lat="44.67728" lon="3.85869">
        <ele>1087.7142333984</ele>
        <time>2020-10-16T14:04:47.654Z</time>
      </trkpt>
      <trkpt lat="44.67727" lon="3.85882">
        <ele>1086.0234375</ele>
        <time>2020-10-16T14:04:54.941Z</time>
      </trkpt>
      <trkpt lat="44.67725" lon="3.85896">
        <ele>1085.3492431641</ele>
        <time>2020-10-16T14:05:02.230Z</time>
      </trkpt>
      <trkpt lat="44.67723" lon="3.85904">
        <ele>1084.9189453125</ele>
        <time>2020-10-16T14:05:09.521Z</time>
      </trkpt>
      <trkpt lat="44.67718" lon="3.85914">
        <ele>1084.4157714844</ele>
        <time>2020-10-16T14:05:16.813Z</time>
      </trkpt>
      <trkpt lat="44.67712" lon="3.85923">
        <ele>1083.9172363281</ele>
        <time>2020-10-16T14:05:24.107Z</time>
      </trkpt>
      <trkpt lat="44.67724" lon="3.85934">
        <ele>1083.5063476562</ele>
        <time>2020-10-16T14:05:31.404Z</time>
      </trkpt>
      <trkpt lat="44.67745" lon="3.85944">
        <ele>1083.0534667969</ele>
        <time>2020-10-16T14:05:38.705Z</time>
      </trkpt>
      <trkpt lat="44.67783" lon="3.85952">
        <ele>1082.5880126953</ele>
        <time>2020-10-16T14:05:46.014Z</time>
      </trkpt>
      <trkpt lat="44.67823" lon="3.85951">
        <ele>1081.9807128906</ele>
        <time>2020-10-16T14:05:53.331Z</time>
      </trkpt>
      <trkpt lat="44.67837" lon="3.85957">
        <ele>1081.0335693359</ele>
        <time>2020-10-16T14:06:00.651Z</time>
      </trkpt>
      <trkpt lat="44.67853" lon="3.85986">
        <ele>1076.2244873047</ele>
        <time>2020-10-16T14:06:07.976Z</time>
      </trkpt>
      <trkpt lat="44.67877" lon="3.86005">
        <ele>1073.6573486328</ele>
        <time>2020-10-16T14:06:15.306Z</time>
      </trkpt>
      <trkpt lat="44.67906" lon="3.86021">
        <ele>1073.7282714844</ele>
        <time>2020-10-16T14:06:22.643Z</time>
      </trkpt>
      <trkpt lat="44.67926" lon="3.86032">
        <ele>1073.9624023438</ele>
        <time>2020-10-16T14:06:29.984Z</time>
      </trkpt>
      <trkpt lat="44.6796" lon="3.86077">
        <ele>1070.5694580078</ele>
        <time>2020-10-16T14:06:37.334Z</time>
      </trkpt>
      <trkpt lat="44.68012" lon="3.86142">
        <ele>1068.3953857422</ele>
        <time>2020-10-16T14:06:44.698Z</time>
      </trkpt>
      <trkpt lat="44.68032" lon="3.86167">
        <ele>1067.6932373047</ele>
        <time>2020-10-16T14:06:52.068Z</time>
      </trkpt>
      <trkpt lat="44.68054" lon="3.86178">
        <ele>1069.5447998047</ele>
        <time>2020-10-16T14:06:59.442Z</time>
      </trkpt>
      <trkpt lat="44.68081" lon="3.86186">
        <ele>1072.9721679688</ele>
        <time>2020-10-16T14:07:06.822Z</time>
      </trkpt>
      <trkpt lat="44.68117" lon="3.86188">
        <ele>1078.8609619141</ele>
        <time>2020-10-16T14:07:14.209Z</time>
      </trkpt>
      <trkpt lat="44.68159" lon="3.8618">
        <ele>1082.0974121094</ele>
        <time>2020-10-16T14:07:21.605Z</time>
      </trkpt>
      <trkpt lat="44.68196" lon="3.86161">
        <ele>1087.7458496094</ele>
        <time>2020-10-16T14:07:29.008Z</time>
      </trkpt>
      <trkpt lat="44.68203" lon="3.86158">
        <ele>1089.1046142578</ele>
        <time>2020-10-16T14:07:36.413Z</time>
      </trkpt>
      <trkpt lat="44.6825" lon="3.86135">
        <ele>1090.0213623047</ele>
        <time>2020-10-16T14:07:43.828Z</time>
      </trkpt>
      <trkpt lat="44.68274" lon="3.86126">
        <ele>1090.1728515625</ele>
        <time>2020-10-16T14:07:51.248Z</time>
      </trkpt>
      <trkpt lat="44.68324" lon="3.86111">
        <ele>1089.9840087891</ele>
        <time>2020-10-16T14:07:58.678Z</time>
      </trkpt>
      <trkpt lat="44.68383" lon="3.86112">
        <ele>1087.1463623047</ele>
        <time>2020-10-16T14:08:06.120Z</time>
      </trkpt>
      <trkpt lat="44.68446" lon="3.861">
        <ele>1088.0655517578</ele>
        <time>2020-10-16T14:08:13.575Z</time>
      </trkpt>
      <trkpt lat="44.68498" lon="3.86098">
        <ele>1085.3214111328</ele>
        <time>2020-10-16T14:08:21.040Z</time>
      </trkpt>
      <trkpt lat="44.68504" lon="3.86097">
        <ele>1085.0222167969</ele>
        <time>2020-10-16T14:08:28.506Z</time>
      </trkpt>
      <trkpt lat="44.68518" lon="3.86097">
        <ele>1084.2255859375</ele>
        <time>2020-10-16T14:08:35.975Z</time>
      </trkpt>
      <trkpt lat="44.68546" lon="3.86088">
        <ele>1083.0240478516</ele>
        <time>2020-10-16T14:08:43.450Z</time>
      </trkpt>
      <trkpt lat="44.68588" lon="3.86063">
        <ele>1082.30859375</ele>
        <time>2020-10-16T14:08:50.934Z</time>
      </trkpt>
      <trkpt lat="44.6865" lon="3.86034">
        <ele>1076.9685058594</ele>
        <time>2020-10-16T14:08:58.431Z</time>
      </trkpt>
      <trkpt lat="44.68668" lon="3.86039">
        <ele>1075.7496337891</ele>
        <time>2020-10-16T14:09:05.932Z</time>
      </trkpt>
      <trkpt lat="44.68685" lon="3.8604">
        <ele>1074.4022216797</ele>
        <time>2020-10-16T14:09:13.436Z</time>
      </trkpt>
      <trkpt lat="44.68713" lon="3.86032">
        <ele>1072.4844970703</ele>
        <time>2020-10-16T14:09:20.946Z</time>
      </trkpt>
      <trkpt lat="44.68729" lon="3.86025">
        <ele>1070.984375</ele>
        <time>2020-10-16T14:09:28.459Z</time>
      </trkpt>
      <trkpt lat="44.68751" lon="3.86014">
        <ele>1070.4295654297</ele>
        <time>2020-10-16T14:09:35.977Z</time>
      </trkpt>
      <trkpt lat="44.68772" lon="3.85991">
        <ele>1070.5831298828</ele>
        <time>2020-10-16T14:09:43.500Z</time>
      </trkpt>
      <trkpt lat="44.6878" lon="3.85989">
        <ele>1069.8953857422</ele>
        <time>2020-10-16T14:09:51.025Z</time>
      </trkpt>
      <trkpt lat="44.68843" lon="3.8597">
        <ele>1066.9870605469</ele>
        <time>2020-10-16T14:09:58.563Z</time>
      </trkpt>
      <trkpt lat="44.68896" lon="3.85969">
        <ele>1062.5925292969</ele>
        <time>2020-10-16T14:10:06.111Z</time>
      </trkpt>
      <trkpt lat="44.68912" lon="3.85966">
        <ele>1059.9248046875</ele>
        <time>2020-10-16T14:10:13.662Z</time>
      </trkpt>
      <trkpt lat="44.6901" lon="3.85915">
        <ele>1044.8776855469</ele>
        <time>2020-10-16T14:10:21.234Z</time>
      </trkpt>
      <trkpt lat="44.69054" lon="3.85886">
        <ele>1034.4096679688</ele>
        <time>2020-10-16T14:10:28.816Z</time>
      </trkpt>
      <trkpt lat="44.69083" lon="3.85877">
        <ele>1028.7368164062</ele>
        <time>2020-10-16T14:10:36.404Z</time>
      </trkpt>
      <trkpt lat="44.69163" lon="3.85929">
        <ele>1017.9281616211</ele>
        <time>2020-10-16T14:10:44.010Z</time>
      </trkpt>
      <trkpt lat="44.69199" lon="3.85936">
        <ele>1009.8350830078</ele>
        <time>2020-10-16T14:10:51.623Z</time>
      </trkpt>
      <trkpt lat="44.69211" lon="3.85945">
        <ele>1007.7001953125</ele>
        <time>2020-10-16T14:10:59.239Z</time>
      </trkpt>
      <trkpt lat="44.69226" lon="3.85966">
        <ele>1005.908996582</ele>
        <time>2020-10-16T14:11:06.859Z</time>
      </trkpt>
      <trkpt lat="44.69229" lon="3.85964">
        <ele>1004.6952514648</ele>
        <time>2020-10-16T14:11:14.479Z</time>
      </trkpt>
      <trkpt lat="44.69229" lon="3.85945">
        <ele>1004.0227050781</ele>
        <time>2020-10-16T14:11:22.102Z</time>
      </trkpt>
      <trkpt lat="44.6923" lon="3.85922">
        <ele>1001.6614379883</ele>
        <time>2020-10-16T14:11:29.729Z</time>
      </trkpt>
      <trkpt lat="44.69235" lon="3.85904">
        <ele>998.63177490234</ele>
        <time>2020-10-16T14:11:37.358Z</time>
      </trkpt>
      <trkpt lat="44.69245" lon="3.85893">
        <ele>996.11999511719</ele>
        <time>2020-10-16T14:11:44.990Z</time>
      </trkpt>
      <trkpt lat="44.69248" lon="3.85883">
        <ele>996.13690185547</ele>
        <time>2020-10-16T14:11:52.623Z</time>
      </trkpt>
      <trkpt lat="44.69259" lon="3.85853">
        <ele>996.31079101562</ele>
        <time>2020-10-16T14:12:00.261Z</time>
      </trkpt>
      <trkpt lat="44.69262" lon="3.85846">
        <ele>996.77941894531</ele>
        <time>2020-10-16T14:12:07.900Z</time>
      </trkpt>
      <trkpt lat="44.69265" lon="3.85841">
        <ele>997.00695800781</ele>
        <time>2020-10-16T14:12:15.540Z</time>
      </trkpt>
      <trkpt lat="44.6927" lon="3.85838">
        <ele>996.85522460938</ele>
        <time>2020-10-16T14:12:23.181Z</time>
      </trkpt>
      <trkpt lat="44.69274" lon="3.85836">
        <ele>996.38165283203</ele>
        <time>2020-10-16T14:12:30.823Z</time>
      </trkpt>
      <trkpt lat="44.69279" lon="3.85836">
        <ele>995.74963378906</ele>
        <time>2020-10-16T14:12:38.466Z</time>
      </trkpt>
      <trkpt lat="44.69283" lon="3.85838">
        <ele>995.1494140625</ele>
        <time>2020-10-16T14:12:46.110Z</time>
      </trkpt>
      <trkpt lat="44.69286" lon="3.85843">
        <ele>994.50250244141</ele>
        <time>2020-10-16T14:12:53.755Z</time>
      </trkpt>
      <trkpt lat="44.69289" lon="3.85851">
        <ele>994.54888916016</ele>
        <time>2020-10-16T14:13:01.401Z</time>
      </trkpt>
      <trkpt lat="44.69295" lon="3.85873">
        <ele>994.46203613281</ele>
        <time>2020-10-16T14:13:09.051Z</time>
      </trkpt>
      <trkpt lat="44.69301" lon="3.85899">
        <ele>994.51086425781</ele>
        <time>2020-10-16T14:13:16.705Z</time>
      </trkpt>
      <trkpt lat="44.69307" lon="3.85916">
        <ele>994.73095703125</ele>
        <time>2020-10-16T14:13:24.361Z</time>
      </trkpt>
      <trkpt lat="44.69312" lon="3.85923">
        <ele>995.11151123047</ele>
        <time>2020-10-16T14:13:32.019Z</time>
      </trkpt>
      <trkpt lat="44.6932" lon="3.85928">
        <ele>995.86041259766</ele>
        <time>2020-10-16T14:13:39.678Z</time>
      </trkpt>
      <trkpt lat="44.6933" lon="3.8593">
        <ele>996.90679931641</ele>
        <time>2020-10-16T14:13:47.340Z</time>
      </trkpt>
      <trkpt lat="44.6934" lon="3.85928">
        <ele>997.99633789062</ele>
        <time>2020-10-16T14:13:55.003Z</time>
      </trkpt>
      <trkpt lat="44.69349" lon="3.85924">
        <ele>999.05798339844</ele>
        <time>2020-10-16T14:14:02.668Z</time>
      </trkpt>
      <trkpt lat="44.69368" lon="3.85915">
        <ele>1001.8804321289</ele>
        <time>2020-10-16T14:14:10.337Z</time>
      </trkpt>
      <trkpt lat="44.69384" lon="3.85914">
        <ele>1003.4233398438</ele>
        <time>2020-10-16T14:14:18.010Z</time>
      </trkpt>
      <trkpt lat="44.69394" lon="3.85914">
        <ele>1004.2672119141</ele>
        <time>2020-10-16T14:14:25.685Z</time>
      </trkpt>
      <trkpt lat="44.69405" lon="3.85915">
        <ele>1005.1463012695</ele>
        <time>2020-10-16T14:14:33.362Z</time>
      </trkpt>
      <trkpt lat="44.69414" lon="3.85918">
        <ele>1005.7547607422</ele>
        <time>2020-10-16T14:14:41.041Z</time>
      </trkpt>
      <trkpt lat="44.69431" lon="3.85928">
        <ele>1006.6405029297</ele>
        <time>2020-10-16T14:14:48.723Z</time>
      </trkpt>
      <trkpt lat="44.69457" lon="3.8594">
        <ele>1008.2498168945</ele>
        <time>2020-10-16T14:14:56.411Z</time>
      </trkpt>
      <trkpt lat="44.69467" lon="3.85943">
        <ele>1008.922668457</ele>
        <time>2020-10-16T14:15:04.101Z</time>
      </trkpt>
      <trkpt lat="44.69486" lon="3.85945">
        <ele>1010.2265014648</ele>
        <time>2020-10-16T14:15:11.795Z</time>
      </trkpt>
      <trkpt lat="44.69532" lon="3.85954">
        <ele>1013.2872314453</ele>
        <time>2020-10-16T14:15:19.498Z</time>
      </trkpt>
      <trkpt lat="44.69587" lon="3.85965">
        <ele>1013.6972045898</ele>
        <time>2020-10-16T14:15:27.212Z</time>
      </trkpt>
      <trkpt lat="44.69624" lon="3.8597">
        <ele>1013.4340820312</ele>
        <time>2020-10-16T14:15:34.934Z</time>
      </trkpt>
      <trkpt lat="44.69645" lon="3.85972">
        <ele>1012.3887329102</ele>
        <time>2020-10-16T14:15:42.660Z</time>
      </trkpt>
      <trkpt lat="44.69672" lon="3.85967">
        <ele>1010.8874511719</ele>
        <time>2020-10-16T14:15:50.391Z</time>
      </trkpt>
      <trkpt lat="44.69691" lon="3.85958">
        <ele>1009.7327270508</ele>
        <time>2020-10-16T14:15:58.126Z</time>
      </trkpt>
      <trkpt lat="44.69718" lon="3.85941">
        <ele>1008.7116088867</ele>
        <time>2020-10-16T14:16:05.867Z</time>
      </trkpt>
      <trkpt lat="44.69765" lon="3.85907">
        <ele>1007.7635498047</ele>
        <time>2020-10-16T14:16:13.619Z</time>
      </trkpt>
      <trkpt lat="44.69809" lon="3.85881">
        <ele>1006.4682006836</ele>
        <time>2020-10-16T14:16:21.380Z</time>
      </trkpt>
      <trkpt lat="44.6984" lon="3.85863">
        <ele>1007.3818359375</ele>
        <time>2020-10-16T14:16:29.148Z</time>
      </trkpt>
      <trkpt lat="44.69896" lon="3.85833">
        <ele>1007.6317138672</ele>
        <time>2020-10-16T14:16:36.928Z</time>
      </trkpt>
      <trkpt lat="44.69922" lon="3.85818">
        <ele>1006.9768066406</ele>
        <time>2020-10-16T14:16:44.714Z</time>
      </trkpt>
      <trkpt lat="44.69959" lon="3.85805">
        <ele>1005.6167602539</ele>
        <time>2020-10-16T14:16:52.507Z</time>
      </trkpt>
      <trkpt lat="44.69989" lon="3.85797">
        <ele>1005.1369628906</ele>
        <time>2020-10-16T14:17:00.306Z</time>
      </trkpt>
      <trkpt lat="44.70031" lon="3.85788">
        <ele>1002.8612060547</ele>
        <time>2020-10-16T14:17:08.114Z</time>
      </trkpt>
      <trkpt lat="44.70063" lon="3.85782">
        <ele>1001.4837646484</ele>
        <time>2020-10-16T14:17:15.928Z</time>
      </trkpt>
      <trkpt lat="44.70096" lon="3.85776">
        <ele>1000.606628418</ele>
        <time>2020-10-16T14:17:23.749Z</time>
      </trkpt>
      <trkpt lat="44.70154" lon="3.85754">
        <ele>997.50854492188</ele>
        <time>2020-10-16T14:17:31.582Z</time>
      </trkpt>
      <trkpt lat="44.70183" lon="3.85744">
        <ele>995.61322021484</ele>
        <time>2020-10-16T14:17:39.421Z</time>
      </trkpt>
      <trkpt lat="44.70244" lon="3.85719">
        <ele>991.35321044922</ele>
        <time>2020-10-16T14:17:47.273Z</time>
      </trkpt>
      <trkpt lat="44.70262" lon="3.85712">
        <ele>989.85632324219</ele>
        <time>2020-10-16T14:17:55.128Z</time>
      </trkpt>
      <trkpt lat="44.70331" lon="3.85689">
        <ele>985.94091796875</ele>
        <time>2020-10-16T14:18:02.998Z</time>
      </trkpt>
      <trkpt lat="44.70356" lon="3.85681">
        <ele>985.24499511719</ele>
        <time>2020-10-16T14:18:10.873Z</time>
      </trkpt>
      <trkpt lat="44.7038" lon="3.85679">
        <ele>984.13763427734</ele>
        <time>2020-10-16T14:18:18.753Z</time>
      </trkpt>
      <trkpt lat="44.70412" lon="3.85675">
        <ele>981.80084228516</ele>
        <time>2020-10-16T14:18:26.639Z</time>
      </trkpt>
      <trkpt lat="44.70428" lon="3.85675">
        <ele>980.66754150391</ele>
        <time>2020-10-16T14:18:34.528Z</time>
      </trkpt>
      <trkpt lat="44.70454" lon="3.85677">
        <ele>979.22039794922</ele>
        <time>2020-10-16T14:18:42.422Z</time>
      </trkpt>
      <trkpt lat="44.70472" lon="3.85674">
        <ele>978.05694580078</ele>
        <time>2020-10-16T14:18:50.320Z</time>
      </trkpt>
      <trkpt lat="44.70497" lon="3.8567">
        <ele>976.35852050781</ele>
        <time>2020-10-16T14:18:58.223Z</time>
      </trkpt>
      <trkpt lat="44.7056" lon="3.85653">
        <ele>975.640625</ele>
        <time>2020-10-16T14:19:06.139Z</time>
      </trkpt>
      <trkpt lat="44.70571" lon="3.85649">
        <ele>975.93060302734</ele>
        <time>2020-10-16T14:19:14.057Z</time>
      </trkpt>
      <trkpt lat="44.70593" lon="3.85644">
        <ele>975.82690429688</ele>
        <time>2020-10-16T14:19:21.980Z</time>
      </trkpt>
      <trkpt lat="44.70606" lon="3.85645">
        <ele>975.4619140625</ele>
        <time>2020-10-16T14:19:29.905Z</time>
      </trkpt>
      <trkpt lat="44.70619" lon="3.85653">
        <ele>974.78295898438</ele>
        <time>2020-10-16T14:19:37.833Z</time>
      </trkpt>
      <trkpt lat="44.70638" lon="3.85668">
        <ele>974.89556884766</ele>
        <time>2020-10-16T14:19:45.765Z</time>
      </trkpt>
      <trkpt lat="44.70657" lon="3.85685">
        <ele>974.94982910156</ele>
        <time>2020-10-16T14:19:53.702Z</time>
      </trkpt>
      <trkpt lat="44.70664" lon="3.85684">
        <ele>975.33367919922</ele>
        <time>2020-10-16T14:20:01.640Z</time>
      </trkpt>
      <trkpt lat="44.70671" lon="3.85684">
        <ele>975.70336914062</ele>
        <time>2020-10-16T14:20:09.580Z</time>
      </trkpt>
      <trkpt lat="44.70681" lon="3.85684">
        <ele>976.14038085938</ele>
        <time>2020-10-16T14:20:17.522Z</time>
      </trkpt>
      <trkpt lat="44.70701" lon="3.85691">
        <ele>976.86065673828</ele>
        <time>2020-10-16T14:20:25.468Z</time>
      </trkpt>
      <trkpt lat="44.70718" lon="3.85694">
        <ele>977.47534179688</ele>
        <time>2020-10-16T14:20:33.417Z</time>
      </trkpt>
      <trkpt lat="44.70742" lon="3.85694">
        <ele>978.33538818359</ele>
        <time>2020-10-16T14:20:41.371Z</time>
      </trkpt>
      <trkpt lat="44.70763" lon="3.85692">
        <ele>979.11938476562</ele>
        <time>2020-10-16T14:20:49.329Z</time>
      </trkpt>
      <trkpt lat="44.70787" lon="3.85689">
        <ele>980.00714111328</ele>
        <time>2020-10-16T14:20:57.292Z</time>
      </trkpt>
      <trkpt lat="44.70812" lon="3.85682">
        <ele>978.95501708984</ele>
        <time>2020-10-16T14:21:05.260Z</time>
      </trkpt>
      <trkpt lat="44.70873" lon="3.85669">
        <ele>976.56616210938</ele>
        <time>2020-10-16T14:21:13.241Z</time>
      </trkpt>
      <trkpt lat="44.70929" lon="3.85655">
        <ele>973.61602783203</ele>
        <time>2020-10-16T14:21:21.233Z</time>
      </trkpt>
      <trkpt lat="44.7098" lon="3.85643">
        <ele>971.47814941406</ele>
        <time>2020-10-16T14:21:29.235Z</time>
      </trkpt>
      <trkpt lat="44.71002" lon="3.85639">
        <ele>971.41058349609</ele>
        <time>2020-10-16T14:21:37.242Z</time>
      </trkpt>
      <trkpt lat="44.71018" lon="3.85638">
        <ele>971.44677734375</ele>
        <time>2020-10-16T14:21:45.252Z</time>
      </trkpt>
      <trkpt lat="44.71048" lon="3.85638">
        <ele>971.59161376953</ele>
        <time>2020-10-16T14:21:53.268Z</time>
      </trkpt>
      <trkpt lat="44.71107" lon="3.85644">
        <ele>971.63458251953</ele>
        <time>2020-10-16T14:22:01.296Z</time>
      </trkpt>
      <trkpt lat="44.7115" lon="3.85649">
        <ele>971.80352783203</ele>
        <time>2020-10-16T14:22:09.332Z</time>
      </trkpt>
      <trkpt lat="44.7116" lon="3.85652">
        <ele>971.83197021484</ele>
        <time>2020-10-16T14:22:17.370Z</time>
      </trkpt>
      <trkpt lat="44.71187" lon="3.8566">
        <ele>971.71441650391</ele>
        <time>2020-10-16T14:22:25.414Z</time>
      </trkpt>
      <trkpt lat="44.71203" lon="3.85665">
        <ele>971.57873535156</ele>
        <time>2020-10-16T14:22:33.461Z</time>
      </trkpt>
      <trkpt lat="44.71212" lon="3.85667">
        <ele>971.22924804688</ele>
        <time>2020-10-16T14:22:41.510Z</time>
      </trkpt>
      <trkpt lat="44.71223" lon="3.85668">
        <ele>970.82525634766</ele>
        <time>2020-10-16T14:22:49.561Z</time>
      </trkpt>
      <trkpt lat="44.7125" lon="3.85665">
        <ele>969.92016601562</ele>
        <time>2020-10-16T14:22:57.618Z</time>
      </trkpt>
      <trkpt lat="44.71278" lon="3.85663">
        <ele>968.93231201172</ele>
        <time>2020-10-16T14:23:05.680Z</time>
      </trkpt>
      <trkpt lat="44.71333" lon="3.85661">
        <ele>965.91009521484</ele>
        <time>2020-10-16T14:23:13.753Z</time>
      </trkpt>
      <trkpt lat="44.7138" lon="3.85657">
        <ele>962.65649414062</ele>
        <time>2020-10-16T14:23:21.836Z</time>
      </trkpt>
      <trkpt lat="44.71389" lon="3.85657">
        <ele>962.32580566406</ele>
        <time>2020-10-16T14:23:29.920Z</time>
      </trkpt>
      <trkpt lat="44.714" lon="3.85656">
        <ele>961.9345703125</ele>
        <time>2020-10-16T14:23:38.007Z</time>
      </trkpt>
      <trkpt lat="44.71412" lon="3.85653">
        <ele>961.51306152344</ele>
        <time>2020-10-16T14:23:46.096Z</time>
      </trkpt>
      <trkpt lat="44.71435" lon="3.85647">
        <ele>961.52746582031</ele>
        <time>2020-10-16T14:23:54.190Z</time>
      </trkpt>
      <trkpt lat="44.71461" lon="3.8564">
        <ele>961.849609375</ele>
        <time>2020-10-16T14:24:02.289Z</time>
      </trkpt>
      <trkpt lat="44.71478" lon="3.85638">
        <ele>962.15447998047</ele>
        <time>2020-10-16T14:24:10.391Z</time>
      </trkpt>
      <trkpt lat="44.715" lon="3.85635">
        <ele>962.48937988281</ele>
        <time>2020-10-16T14:24:18.498Z</time>
      </trkpt>
      <trkpt lat="44.71536" lon="3.8563">
        <ele>963.1298828125</ele>
        <time>2020-10-16T14:24:26.612Z</time>
      </trkpt>
      <trkpt lat="44.71564" lon="3.85624">
        <ele>963.67321777344</ele>
        <time>2020-10-16T14:24:34.732Z</time>
      </trkpt>
      <trkpt lat="44.71595" lon="3.85617">
        <ele>963.29864501953</ele>
        <time>2020-10-16T14:24:42.858Z</time>
      </trkpt>
      <trkpt lat="44.71634" lon="3.85606">
        <ele>962.52124023438</ele>
        <time>2020-10-16T14:24:50.992Z</time>
      </trkpt>
      <trkpt lat="44.71639" lon="3.85603">
        <ele>962.37768554688</ele>
        <time>2020-10-16T14:24:59.127Z</time>
      </trkpt>
      <trkpt lat="44.71645" lon="3.85601">
        <ele>962.25347900391</ele>
        <time>2020-10-16T14:25:07.263Z</time>
      </trkpt>
      <trkpt lat="44.71648" lon="3.85598">
        <ele>962.189453125</ele>
        <time>2020-10-16T14:25:15.400Z</time>
      </trkpt>
      <trkpt lat="44.71648" lon="3.85598">
        <ele>962.18902587891</ele>
        <time>2020-10-16T14:25:23.537Z</time>
      </trkpt>
      <trkpt lat="44.71658" lon="3.856">
        <ele>961.79638671875</ele>
        <time>2020-10-16T14:25:31.676Z</time>
      </trkpt>
      <trkpt lat="44.71688" lon="3.85599">
        <ele>960.74395751953</ele>
        <time>2020-10-16T14:25:39.821Z</time>
      </trkpt>
      <trkpt lat="44.71719" lon="3.856">
        <ele>958.86138916016</ele>
        <time>2020-10-16T14:25:47.972Z</time>
      </trkpt>
      <trkpt lat="44.71734" lon="3.856">
        <ele>957.97760009766</ele>
        <time>2020-10-16T14:25:56.126Z</time>
      </trkpt>
      <trkpt lat="44.71795" lon="3.85605">
        <ele>954.56890869141</ele>
        <time>2020-10-16T14:26:04.293Z</time>
      </trkpt>
      <trkpt lat="44.71821" lon="3.85608">
        <ele>953.37677001953</ele>
        <time>2020-10-16T14:26:12.465Z</time>
      </trkpt>
      <trkpt lat="44.71863" lon="3.85613">
        <ele>951.41845703125</ele>
        <time>2020-10-16T14:26:20.645Z</time>
      </trkpt>
      <trkpt lat="44.71874" lon="3.85613">
        <ele>950.90069580078</ele>
        <time>2020-10-16T14:26:28.827Z</time>
      </trkpt>
      <trkpt lat="44.71883" lon="3.85612">
        <ele>950.46356201172</ele>
        <time>2020-10-16T14:26:37.011Z</time>
      </trkpt>
      <trkpt lat="44.71894" lon="3.8561">
        <ele>949.91638183594</ele>
        <time>2020-10-16T14:26:45.197Z</time>
      </trkpt>
      <trkpt lat="44.71929" lon="3.85599">
        <ele>947.94403076172</ele>
        <time>2020-10-16T14:26:53.391Z</time>
      </trkpt>
      <trkpt lat="44.71962" lon="3.85587">
        <ele>945.60052490234</ele>
        <time>2020-10-16T14:27:01.591Z</time>
      </trkpt>
      <trkpt lat="44.71984" lon="3.85581">
        <ele>943.98223876953</ele>
        <time>2020-10-16T14:27:09.796Z</time>
      </trkpt>
      <trkpt lat="44.71991" lon="3.8558">
        <ele>943.52325439453</ele>
        <time>2020-10-16T14:27:18.002Z</time>
      </trkpt>
      <trkpt lat="44.72002" lon="3.85579">
        <ele>942.85131835938</ele>
        <time>2020-10-16T14:27:26.210Z</time>
      </trkpt>
      <trkpt lat="44.72015" lon="3.85581">
        <ele>942.19952392578</ele>
        <time>2020-10-16T14:27:34.421Z</time>
      </trkpt>
      <trkpt lat="44.72047" lon="3.85584">
        <ele>941.48114013672</ele>
        <time>2020-10-16T14:27:42.639Z</time>
      </trkpt>
      <trkpt lat="44.7206" lon="3.85585">
        <ele>941.4990234375</ele>
        <time>2020-10-16T14:27:50.859Z</time>
      </trkpt>
      <trkpt lat="44.72073" lon="3.85585">
        <ele>941.49853515625</ele>
        <time>2020-10-16T14:27:59.082Z</time>
      </trkpt>
      <trkpt lat="44.72083" lon="3.85583">
        <ele>941.45678710938</ele>
        <time>2020-10-16T14:28:07.307Z</time>
      </trkpt>
      <trkpt lat="44.72093" lon="3.8558">
        <ele>941.38580322266</ele>
        <time>2020-10-16T14:28:15.534Z</time>
      </trkpt>
      <trkpt lat="44.72139" lon="3.85562">
        <ele>938.53564453125</ele>
        <time>2020-10-16T14:28:23.770Z</time>
      </trkpt>
      <trkpt lat="44.72164" lon="3.85556">
        <ele>936.84033203125</ele>
        <time>2020-10-16T14:28:32.011Z</time>
      </trkpt>
      <trkpt lat="44.72192" lon="3.85551">
        <ele>935.78198242188</ele>
        <time>2020-10-16T14:28:40.258Z</time>
      </trkpt>
      <trkpt lat="44.72198" lon="3.8555">
        <ele>935.52838134766</ele>
        <time>2020-10-16T14:28:48.506Z</time>
      </trkpt>
      <trkpt lat="44.72198" lon="3.85551">
        <ele>935.53259277344</ele>
        <time>2020-10-16T14:28:56.754Z</time>
      </trkpt>
      <trkpt lat="44.72202" lon="3.8555">
        <ele>935.41021728516</ele>
        <time>2020-10-16T14:29:05.003Z</time>
      </trkpt>
      <trkpt lat="44.72202" lon="3.8555">
        <ele>935.40991210938</ele>
        <time>2020-10-16T14:29:13.252Z</time>
      </trkpt>
      <trkpt lat="44.72223" lon="3.8555">
        <ele>933.24670410156</ele>
        <time>2020-10-16T14:29:21.505Z</time>
      </trkpt>
      <trkpt lat="44.72249" lon="3.85564">
        <ele>930.59356689453</ele>
        <time>2020-10-16T14:29:29.764Z</time>
      </trkpt>
      <trkpt lat="44.72301" lon="3.85628">
        <ele>927.78076171875</ele>
        <time>2020-10-16T14:29:38.037Z</time>
      </trkpt>
      <trkpt lat="44.72306" lon="3.85627">
        <ele>927.7421875</ele>
        <time>2020-10-16T14:29:46.311Z</time>
      </trkpt>
      <trkpt lat="44.72331" lon="3.85622">
        <ele>925.23516845703</ele>
        <time>2020-10-16T14:29:54.590Z</time>
      </trkpt>
      <trkpt lat="44.72316" lon="3.85575">
        <ele>923.79595947266</ele>
        <time>2020-10-16T14:30:02.876Z</time>
      </trkpt>
      <trkpt lat="44.72278" lon="3.85529">
        <ele>926.26745605469</ele>
        <time>2020-10-16T14:30:11.172Z</time>
      </trkpt>
      <trkpt lat="44.72272" lon="3.85497">
        <ele>926.18157958984</ele>
        <time>2020-10-16T14:30:19.473Z</time>
      </trkpt>
      <trkpt lat="44.72271" lon="3.8542">
        <ele>922.84338378906</ele>
        <time>2020-10-16T14:30:27.785Z</time>
      </trkpt>
      <trkpt lat="44.72277" lon="3.85381">
        <ele>919.29058837891</ele>
        <time>2020-10-16T14:30:36.103Z</time>
      </trkpt>
      <trkpt lat="44.72289" lon="3.85363">
        <ele>916.31378173828</ele>
        <time>2020-10-16T14:30:44.424Z</time>
      </trkpt>
      <trkpt lat="44.72305" lon="3.85358">
        <ele>915.34020996094</ele>
        <time>2020-10-16T14:30:52.748Z</time>
      </trkpt>
      <trkpt lat="44.72319" lon="3.85363">
        <ele>914.78674316406</ele>
        <time>2020-10-16T14:31:01.075Z</time>
      </trkpt>
      <trkpt lat="44.72352" lon="3.85401">
        <ele>913.11944580078</ele>
        <time>2020-10-16T14:31:09.411Z</time>
      </trkpt>
    </trkseg>
  </trk>
</gpx>